<?xml version="1.0" encoding="UTF-8" standalone="no" ?>
<gpx xmlns="http://www.topografix.com/GPX/1/1" xmlns:xsi="http://www.w3.org/2001/XMLSchema-instance" xsi:schemaLocation="http://www.topografix.com/GPX/1/1 http://www.topografix.com/GPX/1/1/gpx.xsd" version="1.1" creator="VisuGPX - https://www.visugpx.com">
  <metadata>
    <name>Rit 04.04.2021 rondje Mauroux Grézels</name>
  </metadata>
  <trk>
    <name><![CDATA[Rit 04.04.2021 rondje Mauroux Grézels]]></name>
    <trkseg>
      <trkpt lat="44.4045" lon="1.11281">
        <ele>301.86324</ele>
        <time>2021-04-04T11:18:04.755Z</time>
      </trkpt>
      <trkpt lat="44.40455" lon="1.11293">
        <ele>301.86324</ele>
        <time>2021-04-04T11:18:32.573Z</time>
      </trkpt>
      <trkpt lat="44.40462" lon="1.11304">
        <ele>301.86324</ele>
        <time>2021-04-04T11:18:36.583Z</time>
      </trkpt>
      <trkpt lat="44.40468" lon="1.11315">
        <ele>301.86324</ele>
        <time>2021-04-04T11:18:39.580Z</time>
      </trkpt>
      <trkpt lat="44.40478" lon="1.11314">
        <ele>301.86324</ele>
        <time>2021-04-04T11:18:43.574Z</time>
      </trkpt>
      <trkpt lat="44.40488" lon="1.11301">
        <ele>301.86324</ele>
        <time>2021-04-04T11:18:46.571Z</time>
      </trkpt>
      <trkpt lat="44.40495" lon="1.11289">
        <ele>301.86324</ele>
        <time>2021-04-04T11:18:48.579Z</time>
      </trkpt>
      <trkpt lat="44.40501" lon="1.11279">
        <ele>301.86324</ele>
        <time>2021-04-04T11:18:50.584Z</time>
      </trkpt>
      <trkpt lat="44.40508" lon="1.11265">
        <ele>301.86324</ele>
        <time>2021-04-04T11:18:53.587Z</time>
      </trkpt>
      <trkpt lat="44.40517" lon="1.11251">
        <ele>301.725925</ele>
        <time>2021-04-04T11:18:56.581Z</time>
      </trkpt>
      <trkpt lat="44.40524" lon="1.11241">
        <ele>301.605062</ele>
        <time>2021-04-04T11:18:58.591Z</time>
      </trkpt>
      <trkpt lat="44.4053" lon="1.1123">
        <ele>301.478349</ele>
        <time>2021-04-04T11:19:00.592Z</time>
      </trkpt>
      <trkpt lat="44.40538" lon="1.11219">
        <ele>301.33884</ele>
        <time>2021-04-04T11:19:02.588Z</time>
      </trkpt>
      <trkpt lat="44.40544" lon="1.11208">
        <ele>301.210888</ele>
        <time>2021-04-04T11:19:04.591Z</time>
      </trkpt>
      <trkpt lat="44.4055" lon="1.11194">
        <ele>301.06784</ele>
        <time>2021-04-04T11:19:06.589Z</time>
      </trkpt>
      <trkpt lat="44.40558" lon="1.11181">
        <ele>300.90995</ele>
        <time>2021-04-04T11:19:08.592Z</time>
      </trkpt>
      <trkpt lat="44.40564" lon="1.11166">
        <ele>300.75515</ele>
        <time>2021-04-04T11:19:10.598Z</time>
      </trkpt>
      <trkpt lat="44.40572" lon="1.11152">
        <ele>300.590981</ele>
        <time>2021-04-04T11:19:12.578Z</time>
      </trkpt>
      <trkpt lat="44.40578" lon="1.11136">
        <ele>300.424155</ele>
        <time>2021-04-04T11:19:14.578Z</time>
      </trkpt>
      <trkpt lat="44.40584" lon="1.11122">
        <ele>300.273178</ele>
        <time>2021-04-04T11:19:16.585Z</time>
      </trkpt>
      <trkpt lat="44.40591" lon="1.11107">
        <ele>300.117005</ele>
        <time>2021-04-04T11:19:18.593Z</time>
      </trkpt>
      <trkpt lat="44.40598" lon="1.11094">
        <ele>299.966872</ele>
        <time>2021-04-04T11:19:20.591Z</time>
      </trkpt>
      <trkpt lat="44.40606" lon="1.11078">
        <ele>299.792354</ele>
        <time>2021-04-04T11:19:22.571Z</time>
      </trkpt>
      <trkpt lat="44.40614" lon="1.11062">
        <ele>299.613369</ele>
        <time>2021-04-04T11:19:24.590Z</time>
      </trkpt>
      <trkpt lat="44.40623" lon="1.11045">
        <ele>299.281126</ele>
        <time>2021-04-04T11:19:26.593Z</time>
      </trkpt>
      <trkpt lat="44.40632" lon="1.11029">
        <ele>298.903718</ele>
        <time>2021-04-04T11:19:28.574Z</time>
      </trkpt>
      <trkpt lat="44.40642" lon="1.11014">
        <ele>298.537621</ele>
        <time>2021-04-04T11:19:30.579Z</time>
      </trkpt>
      <trkpt lat="44.40655" lon="1.11001">
        <ele>298.155578</ele>
        <time>2021-04-04T11:19:32.585Z</time>
      </trkpt>
      <trkpt lat="44.40668" lon="1.10986">
        <ele>297.728033</ele>
        <time>2021-04-04T11:19:34.583Z</time>
      </trkpt>
      <trkpt lat="44.40682" lon="1.10971">
        <ele>297.286072</ele>
        <time>2021-04-04T11:19:36.589Z</time>
      </trkpt>
      <trkpt lat="44.40689" lon="1.10963">
        <ele>297.055235</ele>
        <time>2021-04-04T11:19:37.585Z</time>
      </trkpt>
      <trkpt lat="44.40697" lon="1.10954">
        <ele>296.80969</ele>
        <time>2021-04-04T11:19:38.574Z</time>
      </trkpt>
      <trkpt lat="44.40705" lon="1.10947">
        <ele>296.574354</ele>
        <time>2021-04-04T11:19:39.579Z</time>
      </trkpt>
      <trkpt lat="44.40714" lon="1.10938">
        <ele>296.307416</ele>
        <time>2021-04-04T11:19:40.593Z</time>
      </trkpt>
      <trkpt lat="44.40721" lon="1.10928">
        <ele>296.049796</ele>
        <time>2021-04-04T11:19:41.592Z</time>
      </trkpt>
      <trkpt lat="44.4073" lon="1.1092">
        <ele>295.790856</ele>
        <time>2021-04-04T11:19:42.582Z</time>
      </trkpt>
      <trkpt lat="44.40738" lon="1.10911">
        <ele>295.540876</ele>
        <time>2021-04-04T11:19:43.584Z</time>
      </trkpt>
      <trkpt lat="44.40748" lon="1.10901">
        <ele>295.22913</ele>
        <time>2021-04-04T11:19:44.575Z</time>
      </trkpt>
      <trkpt lat="44.40756" lon="1.10892">
        <ele>294.669204</ele>
        <time>2021-04-04T11:19:45.574Z</time>
      </trkpt>
      <trkpt lat="44.40764" lon="1.10883">
        <ele>293.827109</ele>
        <time>2021-04-04T11:19:46.588Z</time>
      </trkpt>
      <trkpt lat="44.40771" lon="1.10875">
        <ele>292.980635</ele>
        <time>2021-04-04T11:19:47.587Z</time>
      </trkpt>
      <trkpt lat="44.40779" lon="1.10866">
        <ele>292.168118</ele>
        <time>2021-04-04T11:19:48.589Z</time>
      </trkpt>
      <trkpt lat="44.40786" lon="1.10857">
        <ele>291.301097</ele>
        <time>2021-04-04T11:19:49.592Z</time>
      </trkpt>
      <trkpt lat="44.40793" lon="1.10847">
        <ele>290.474969</ele>
        <time>2021-04-04T11:19:50.586Z</time>
      </trkpt>
      <trkpt lat="44.408" lon="1.10837">
        <ele>289.579241</ele>
        <time>2021-04-04T11:19:51.592Z</time>
      </trkpt>
      <trkpt lat="44.40808" lon="1.10826">
        <ele>288.65668</ele>
        <time>2021-04-04T11:19:52.588Z</time>
      </trkpt>
      <trkpt lat="44.40816" lon="1.10816">
        <ele>287.746334</ele>
        <time>2021-04-04T11:19:53.576Z</time>
      </trkpt>
      <trkpt lat="44.40823" lon="1.10804">
        <ele>286.82747</ele>
        <time>2021-04-04T11:19:54.602Z</time>
      </trkpt>
      <trkpt lat="44.40831" lon="1.10794">
        <ele>285.905784</ele>
        <time>2021-04-04T11:19:55.581Z</time>
      </trkpt>
      <trkpt lat="44.40838" lon="1.10782">
        <ele>284.995805</ele>
        <time>2021-04-04T11:19:56.590Z</time>
      </trkpt>
      <trkpt lat="44.40849" lon="1.1076">
        <ele>283.310346</ele>
        <time>2021-04-04T11:19:58.571Z</time>
      </trkpt>
      <trkpt lat="44.40856" lon="1.10749">
        <ele>282.422031</ele>
        <time>2021-04-04T11:19:59.581Z</time>
      </trkpt>
      <trkpt lat="44.40863" lon="1.10736">
        <ele>281.46368</ele>
        <time>2021-04-04T11:20:00.578Z</time>
      </trkpt>
      <trkpt lat="44.40869" lon="1.10725">
        <ele>280.601097</ele>
        <time>2021-04-04T11:20:01.580Z</time>
      </trkpt>
      <trkpt lat="44.40874" lon="1.10714">
        <ele>279.796757</ele>
        <time>2021-04-04T11:20:02.574Z</time>
      </trkpt>
      <trkpt lat="44.40881" lon="1.10703">
        <ele>278.27405</ele>
        <time>2021-04-04T11:20:03.583Z</time>
      </trkpt>
      <trkpt lat="44.40887" lon="1.10692">
        <ele>276.791119</ele>
        <time>2021-04-04T11:20:04.582Z</time>
      </trkpt>
      <trkpt lat="44.40894" lon="1.10681">
        <ele>275.203133</ele>
        <time>2021-04-04T11:20:05.590Z</time>
      </trkpt>
      <trkpt lat="44.40901" lon="1.1067">
        <ele>273.711985</ele>
        <time>2021-04-04T11:20:06.592Z</time>
      </trkpt>
      <trkpt lat="44.40908" lon="1.10661">
        <ele>272.25432</ele>
        <time>2021-04-04T11:20:07.594Z</time>
      </trkpt>
      <trkpt lat="44.40916" lon="1.10652">
        <ele>270.789274</ele>
        <time>2021-04-04T11:20:08.591Z</time>
      </trkpt>
      <trkpt lat="44.4093" lon="1.10638">
        <ele>268.242053</ele>
        <time>2021-04-04T11:20:10.572Z</time>
      </trkpt>
      <trkpt lat="44.40938" lon="1.10632">
        <ele>266.839095</ele>
        <time>2021-04-04T11:20:11.575Z</time>
      </trkpt>
      <trkpt lat="44.40948" lon="1.10626">
        <ele>265.287217</ele>
        <time>2021-04-04T11:20:12.570Z</time>
      </trkpt>
      <trkpt lat="44.40957" lon="1.10621">
        <ele>263.900236</ele>
        <time>2021-04-04T11:20:13.589Z</time>
      </trkpt>
      <trkpt lat="44.40965" lon="1.10615">
        <ele>262.536087</ele>
        <time>2021-04-04T11:20:14.583Z</time>
      </trkpt>
      <trkpt lat="44.40973" lon="1.10609">
        <ele>261.145204</ele>
        <time>2021-04-04T11:20:15.591Z</time>
      </trkpt>
      <trkpt lat="44.40989" lon="1.10604">
        <ele>258.786792</ele>
        <time>2021-04-04T11:20:17.578Z</time>
      </trkpt>
      <trkpt lat="44.40999" lon="1.106">
        <ele>257.264107</ele>
        <time>2021-04-04T11:20:18.592Z</time>
      </trkpt>
      <trkpt lat="44.41016" lon="1.10593">
        <ele>254.612089</ele>
        <time>2021-04-04T11:20:20.585Z</time>
      </trkpt>
      <trkpt lat="44.41027" lon="1.1059">
        <ele>253.157783</ele>
        <time>2021-04-04T11:20:21.576Z</time>
      </trkpt>
      <trkpt lat="44.41038" lon="1.10586">
        <ele>253.343317</ele>
        <time>2021-04-04T11:20:22.595Z</time>
      </trkpt>
      <trkpt lat="44.41048" lon="1.10583">
        <ele>253.515541</ele>
        <time>2021-04-04T11:20:23.590Z</time>
      </trkpt>
      <trkpt lat="44.41059" lon="1.10581">
        <ele>253.69825</ele>
        <time>2021-04-04T11:20:24.601Z</time>
      </trkpt>
      <trkpt lat="44.41069" lon="1.10579">
        <ele>253.869295</ele>
        <time>2021-04-04T11:20:25.589Z</time>
      </trkpt>
      <trkpt lat="44.41079" lon="1.10577">
        <ele>254.037622</ele>
        <time>2021-04-04T11:20:26.585Z</time>
      </trkpt>
      <trkpt lat="44.41089" lon="1.10574">
        <ele>254.204521</ele>
        <time>2021-04-04T11:20:27.581Z</time>
      </trkpt>
      <trkpt lat="44.41099" lon="1.10571">
        <ele>254.381441</ele>
        <time>2021-04-04T11:20:28.590Z</time>
      </trkpt>
      <trkpt lat="44.41116" lon="1.10567">
        <ele>254.664875</ele>
        <time>2021-04-04T11:20:30.593Z</time>
      </trkpt>
      <trkpt lat="44.41126" lon="1.10565">
        <ele>254.835251</ele>
        <time>2021-04-04T11:20:31.578Z</time>
      </trkpt>
      <trkpt lat="44.41136" lon="1.10562">
        <ele>254.998704</ele>
        <time>2021-04-04T11:20:32.569Z</time>
      </trkpt>
      <trkpt lat="44.41145" lon="1.10557">
        <ele>255.164305</ele>
        <time>2021-04-04T11:20:33.579Z</time>
      </trkpt>
      <trkpt lat="44.41155" lon="1.10552">
        <ele>255.330014</ele>
        <time>2021-04-04T11:20:34.593Z</time>
      </trkpt>
      <trkpt lat="44.41165" lon="1.10545">
        <ele>255.52446</ele>
        <time>2021-04-04T11:20:35.571Z</time>
      </trkpt>
      <trkpt lat="44.41174" lon="1.10537">
        <ele>255.69179</ele>
        <time>2021-04-04T11:20:36.568Z</time>
      </trkpt>
      <trkpt lat="44.4119" lon="1.10523">
        <ele>256.018609</ele>
        <time>2021-04-04T11:20:38.575Z</time>
      </trkpt>
      <trkpt lat="44.412" lon="1.10516">
        <ele>256.061849</ele>
        <time>2021-04-04T11:20:39.573Z</time>
      </trkpt>
      <trkpt lat="44.41209" lon="1.10508">
        <ele>255.922164</ele>
        <time>2021-04-04T11:20:40.584Z</time>
      </trkpt>
      <trkpt lat="44.41217" lon="1.10499">
        <ele>255.782528</ele>
        <time>2021-04-04T11:20:41.574Z</time>
      </trkpt>
      <trkpt lat="44.41226" lon="1.10491">
        <ele>255.643437</ele>
        <time>2021-04-04T11:20:42.587Z</time>
      </trkpt>
      <trkpt lat="44.41233" lon="1.10483">
        <ele>255.513109</ele>
        <time>2021-04-04T11:20:43.574Z</time>
      </trkpt>
      <trkpt lat="44.41242" lon="1.10473">
        <ele>255.360822</ele>
        <time>2021-04-04T11:20:44.577Z</time>
      </trkpt>
      <trkpt lat="44.41249" lon="1.10461">
        <ele>255.214952</ele>
        <time>2021-04-04T11:20:45.588Z</time>
      </trkpt>
      <trkpt lat="44.41256" lon="1.10451">
        <ele>255.078379</ele>
        <time>2021-04-04T11:20:46.573Z</time>
      </trkpt>
      <trkpt lat="44.41262" lon="1.1044">
        <ele>254.947282</ele>
        <time>2021-04-04T11:20:47.576Z</time>
      </trkpt>
      <trkpt lat="44.41268" lon="1.10429">
        <ele>254.816186</ele>
        <time>2021-04-04T11:20:48.588Z</time>
      </trkpt>
      <trkpt lat="44.41273" lon="1.10417">
        <ele>254.685109</ele>
        <time>2021-04-04T11:20:49.586Z</time>
      </trkpt>
      <trkpt lat="44.4128" lon="1.10405">
        <ele>254.539108</ele>
        <time>2021-04-04T11:20:50.588Z</time>
      </trkpt>
      <trkpt lat="44.41285" lon="1.10394">
        <ele>254.411122</ele>
        <time>2021-04-04T11:20:51.576Z</time>
      </trkpt>
      <trkpt lat="44.41296" lon="1.10374">
        <ele>254.169254</ele>
        <time>2021-04-04T11:20:53.589Z</time>
      </trkpt>
      <trkpt lat="44.41302" lon="1.10364">
        <ele>254.044924</ele>
        <time>2021-04-04T11:20:54.588Z</time>
      </trkpt>
      <trkpt lat="44.41309" lon="1.10354">
        <ele>253.904888</ele>
        <time>2021-04-04T11:20:55.587Z</time>
      </trkpt>
      <trkpt lat="44.41319" lon="1.10336">
        <ele>253.750801</ele>
        <time>2021-04-04T11:20:57.577Z</time>
      </trkpt>
      <trkpt lat="44.41325" lon="1.10321">
        <ele>254.317769</ele>
        <time>2021-04-04T11:20:59.575Z</time>
      </trkpt>
      <trkpt lat="44.41333" lon="1.10305">
        <ele>254.935828</ele>
        <time>2021-04-04T11:21:01.581Z</time>
      </trkpt>
      <trkpt lat="44.41341" lon="1.10289">
        <ele>255.561815</ele>
        <time>2021-04-04T11:21:03.589Z</time>
      </trkpt>
      <trkpt lat="44.41349" lon="1.10272">
        <ele>256.211309</ele>
        <time>2021-04-04T11:21:05.583Z</time>
      </trkpt>
      <trkpt lat="44.41356" lon="1.10257">
        <ele>256.792676</ele>
        <time>2021-04-04T11:21:07.590Z</time>
      </trkpt>
      <trkpt lat="44.41363" lon="1.10242">
        <ele>257.353708</ele>
        <time>2021-04-04T11:21:09.582Z</time>
      </trkpt>
      <trkpt lat="44.4137" lon="1.10228">
        <ele>257.899074</ele>
        <time>2021-04-04T11:21:11.569Z</time>
      </trkpt>
      <trkpt lat="44.41377" lon="1.10214">
        <ele>258.427126</ele>
        <time>2021-04-04T11:21:13.585Z</time>
      </trkpt>
      <trkpt lat="44.41384" lon="1.10201">
        <ele>258.95178</ele>
        <time>2021-04-04T11:21:15.588Z</time>
      </trkpt>
      <trkpt lat="44.41391" lon="1.10189">
        <ele>259.453981</ele>
        <time>2021-04-04T11:21:17.584Z</time>
      </trkpt>
      <trkpt lat="44.41397" lon="1.10177">
        <ele>259.911227</ele>
        <time>2021-04-04T11:21:19.578Z</time>
      </trkpt>
      <trkpt lat="44.41403" lon="1.10165">
        <ele>260.389069</ele>
        <time>2021-04-04T11:21:21.573Z</time>
      </trkpt>
      <trkpt lat="44.41408" lon="1.10155">
        <ele>260.807255</ele>
        <time>2021-04-04T11:21:23.575Z</time>
      </trkpt>
      <trkpt lat="44.41415" lon="1.10143">
        <ele>261.280274</ele>
        <time>2021-04-04T11:21:25.579Z</time>
      </trkpt>
      <trkpt lat="44.41422" lon="1.10128">
        <ele>261.878883</ele>
        <time>2021-04-04T11:21:28.578Z</time>
      </trkpt>
      <trkpt lat="44.41431" lon="1.10118">
        <ele>262.502667</ele>
        <time>2021-04-04T11:21:30.590Z</time>
      </trkpt>
      <trkpt lat="44.41438" lon="1.10108">
        <ele>263.05102</ele>
        <time>2021-04-04T11:21:33.595Z</time>
      </trkpt>
      <trkpt lat="44.41449" lon="1.101">
        <ele>263.707413</ele>
        <time>2021-04-04T11:21:36.584Z</time>
      </trkpt>
      <trkpt lat="44.41458" lon="1.10094">
        <ele>264.28634</ele>
        <time>2021-04-04T11:21:38.579Z</time>
      </trkpt>
      <trkpt lat="44.41464" lon="1.10083">
        <ele>264.821524</ele>
        <time>2021-04-04T11:21:42.587Z</time>
      </trkpt>
      <trkpt lat="44.41472" lon="1.10075">
        <ele>265.329337</ele>
        <time>2021-04-04T11:21:44.586Z</time>
      </trkpt>
      <trkpt lat="44.41481" lon="1.10064">
        <ele>265.973156</ele>
        <time>2021-04-04T11:21:47.586Z</time>
      </trkpt>
      <trkpt lat="44.41488" lon="1.10053">
        <ele>266.583342</ele>
        <time>2021-04-04T11:21:50.588Z</time>
      </trkpt>
      <trkpt lat="44.41497" lon="1.10041">
        <ele>267.253789</ele>
        <time>2021-04-04T11:21:53.587Z</time>
      </trkpt>
      <trkpt lat="44.41504" lon="1.10026">
        <ele>267.940524</ele>
        <time>2021-04-04T11:21:56.585Z</time>
      </trkpt>
      <trkpt lat="44.41511" lon="1.10011">
        <ele>268.627861</ele>
        <time>2021-04-04T11:21:59.578Z</time>
      </trkpt>
      <trkpt lat="44.41517" lon="1.09997">
        <ele>269.286308</ele>
        <time>2021-04-04T11:22:02.585Z</time>
      </trkpt>
      <trkpt lat="44.41524" lon="1.09981">
        <ele>269.997565</ele>
        <time>2021-04-04T11:22:05.615Z</time>
      </trkpt>
      <trkpt lat="44.4153" lon="1.09969">
        <ele>270.579991</ele>
        <time>2021-04-04T11:22:07.582Z</time>
      </trkpt>
      <trkpt lat="44.41538" lon="1.09958">
        <ele>271.173336</ele>
        <time>2021-04-04T11:22:09.583Z</time>
      </trkpt>
      <trkpt lat="44.41545" lon="1.09946">
        <ele>271.635458</ele>
        <time>2021-04-04T11:22:11.572Z</time>
      </trkpt>
      <trkpt lat="44.41553" lon="1.09932">
        <ele>271.905054</ele>
        <time>2021-04-04T11:22:13.590Z</time>
      </trkpt>
      <trkpt lat="44.41562" lon="1.09918">
        <ele>272.19729</ele>
        <time>2021-04-04T11:22:15.594Z</time>
      </trkpt>
      <trkpt lat="44.41571" lon="1.09902">
        <ele>272.496597</ele>
        <time>2021-04-04T11:22:17.597Z</time>
      </trkpt>
      <trkpt lat="44.41577" lon="1.09887">
        <ele>272.76371</ele>
        <time>2021-04-04T11:22:19.578Z</time>
      </trkpt>
      <trkpt lat="44.41584" lon="1.09868">
        <ele>273.084949</ele>
        <time>2021-04-04T11:22:21.577Z</time>
      </trkpt>
      <trkpt lat="44.4159" lon="1.09851">
        <ele>273.375507</ele>
        <time>2021-04-04T11:22:23.572Z</time>
      </trkpt>
      <trkpt lat="44.41596" lon="1.09833">
        <ele>273.669956</ele>
        <time>2021-04-04T11:22:25.582Z</time>
      </trkpt>
      <trkpt lat="44.41599" lon="1.09814">
        <ele>273.97347</ele>
        <time>2021-04-04T11:22:27.590Z</time>
      </trkpt>
      <trkpt lat="44.41605" lon="1.09793">
        <ele>274.307316</ele>
        <time>2021-04-04T11:22:29.581Z</time>
      </trkpt>
      <trkpt lat="44.4161" lon="1.09775">
        <ele>274.608772</ele>
        <time>2021-04-04T11:22:31.588Z</time>
      </trkpt>
      <trkpt lat="44.41614" lon="1.09756">
        <ele>274.901359</ele>
        <time>2021-04-04T11:22:33.574Z</time>
      </trkpt>
      <trkpt lat="44.41618" lon="1.09739">
        <ele>275.173007</ele>
        <time>2021-04-04T11:22:35.590Z</time>
      </trkpt>
      <trkpt lat="44.41623" lon="1.09722">
        <ele>275.131241</ele>
        <time>2021-04-04T11:22:37.588Z</time>
      </trkpt>
      <trkpt lat="44.41627" lon="1.09706">
        <ele>274.499587</ele>
        <time>2021-04-04T11:22:39.575Z</time>
      </trkpt>
      <trkpt lat="44.41633" lon="1.09692">
        <ele>273.883099</ele>
        <time>2021-04-04T11:22:41.576Z</time>
      </trkpt>
      <trkpt lat="44.41637" lon="1.09679">
        <ele>273.348673</ele>
        <time>2021-04-04T11:22:43.578Z</time>
      </trkpt>
      <trkpt lat="44.41643" lon="1.09664">
        <ele>272.69524</ele>
        <time>2021-04-04T11:22:45.590Z</time>
      </trkpt>
      <trkpt lat="44.41649" lon="1.09649">
        <ele>272.061507</ele>
        <time>2021-04-04T11:22:47.589Z</time>
      </trkpt>
      <trkpt lat="44.41657" lon="1.09635">
        <ele>271.374115</ele>
        <time>2021-04-04T11:22:49.580Z</time>
      </trkpt>
      <trkpt lat="44.41664" lon="1.09621">
        <ele>270.744679</ele>
        <time>2021-04-04T11:22:51.589Z</time>
      </trkpt>
      <trkpt lat="44.41671" lon="1.09608">
        <ele>270.139489</ele>
        <time>2021-04-04T11:22:53.580Z</time>
      </trkpt>
      <trkpt lat="44.4168" lon="1.09593">
        <ele>269.400117</ele>
        <time>2021-04-04T11:22:55.587Z</time>
      </trkpt>
      <trkpt lat="44.41687" lon="1.0958">
        <ele>268.819282</ele>
        <time>2021-04-04T11:22:57.576Z</time>
      </trkpt>
      <trkpt lat="44.41693" lon="1.0957">
        <ele>268.332416</ele>
        <time>2021-04-04T11:22:59.579Z</time>
      </trkpt>
      <trkpt lat="44.417" lon="1.09557">
        <ele>267.715105</ele>
        <time>2021-04-04T11:23:01.585Z</time>
      </trkpt>
      <trkpt lat="44.41704" lon="1.09543">
        <ele>267.141456</ele>
        <time>2021-04-04T11:23:03.579Z</time>
      </trkpt>
      <trkpt lat="44.41708" lon="1.09526">
        <ele>266.489648</ele>
        <time>2021-04-04T11:23:05.584Z</time>
      </trkpt>
      <trkpt lat="44.41706" lon="1.09511">
        <ele>265.928398</ele>
        <time>2021-04-04T11:23:07.575Z</time>
      </trkpt>
      <trkpt lat="44.417" lon="1.09498">
        <ele>265.61906</ele>
        <time>2021-04-04T11:23:09.572Z</time>
      </trkpt>
      <trkpt lat="44.41692" lon="1.09488">
        <ele>265.315698</ele>
        <time>2021-04-04T11:23:11.568Z</time>
      </trkpt>
      <trkpt lat="44.41684" lon="1.09478">
        <ele>265.009633</ele>
        <time>2021-04-04T11:23:13.577Z</time>
      </trkpt>
      <trkpt lat="44.41677" lon="1.09466">
        <ele>264.694362</ele>
        <time>2021-04-04T11:23:15.600Z</time>
      </trkpt>
      <trkpt lat="44.4167" lon="1.09454">
        <ele>264.388849</ele>
        <time>2021-04-04T11:23:17.581Z</time>
      </trkpt>
      <trkpt lat="44.41667" lon="1.09441">
        <ele>264.102173</ele>
        <time>2021-04-04T11:23:19.580Z</time>
      </trkpt>
      <trkpt lat="44.41665" lon="1.09426">
        <ele>263.792813</ele>
        <time>2021-04-04T11:23:21.576Z</time>
      </trkpt>
      <trkpt lat="44.41666" lon="1.09412">
        <ele>263.513612</ele>
        <time>2021-04-04T11:23:23.576Z</time>
      </trkpt>
      <trkpt lat="44.41666" lon="1.09399">
        <ele>263.244995</ele>
        <time>2021-04-04T11:23:25.574Z</time>
      </trkpt>
      <trkpt lat="44.41671" lon="1.09385">
        <ele>262.929731</ele>
        <time>2021-04-04T11:23:27.582Z</time>
      </trkpt>
      <trkpt lat="44.41676" lon="1.09371">
        <ele>262.605364</ele>
        <time>2021-04-04T11:23:29.565Z</time>
      </trkpt>
      <trkpt lat="44.4168" lon="1.09356">
        <ele>262.282664</ele>
        <time>2021-04-04T11:23:31.574Z</time>
      </trkpt>
      <trkpt lat="44.41686" lon="1.09341">
        <ele>261.944296</ele>
        <time>2021-04-04T11:23:33.589Z</time>
      </trkpt>
      <trkpt lat="44.41691" lon="1.09327">
        <ele>261.627171</ele>
        <time>2021-04-04T11:23:35.588Z</time>
      </trkpt>
      <trkpt lat="44.41696" lon="1.09312">
        <ele>261.27843</ele>
        <time>2021-04-04T11:23:37.583Z</time>
      </trkpt>
      <trkpt lat="44.41704" lon="1.09298">
        <ele>260.932325</ele>
        <time>2021-04-04T11:23:39.592Z</time>
      </trkpt>
      <trkpt lat="44.41714" lon="1.09289">
        <ele>260.995425</ele>
        <time>2021-04-04T11:23:41.584Z</time>
      </trkpt>
      <trkpt lat="44.41726" lon="1.09286">
        <ele>261.20621</ele>
        <time>2021-04-04T11:23:43.564Z</time>
      </trkpt>
      <trkpt lat="44.41737" lon="1.09288">
        <ele>261.420011</ele>
        <time>2021-04-04T11:23:45.567Z</time>
      </trkpt>
      <trkpt lat="44.41749" lon="1.09293">
        <ele>261.63877</ele>
        <time>2021-04-04T11:23:47.575Z</time>
      </trkpt>
      <trkpt lat="44.41762" lon="1.09297">
        <ele>261.871383</ele>
        <time>2021-04-04T11:23:49.588Z</time>
      </trkpt>
      <trkpt lat="44.41773" lon="1.09302">
        <ele>262.073366</ele>
        <time>2021-04-04T11:23:51.605Z</time>
      </trkpt>
      <trkpt lat="44.41784" lon="1.09306">
        <ele>262.281786</ele>
        <time>2021-04-04T11:23:53.590Z</time>
      </trkpt>
      <trkpt lat="44.41796" lon="1.09312">
        <ele>262.516494</ele>
        <time>2021-04-04T11:23:55.581Z</time>
      </trkpt>
      <trkpt lat="44.41808" lon="1.09317">
        <ele>262.739671</ele>
        <time>2021-04-04T11:23:57.571Z</time>
      </trkpt>
      <trkpt lat="44.4182" lon="1.09325">
        <ele>262.974444</ele>
        <time>2021-04-04T11:23:59.571Z</time>
      </trkpt>
      <trkpt lat="44.4183" lon="1.09337">
        <ele>263.20206</ele>
        <time>2021-04-04T11:24:01.575Z</time>
      </trkpt>
      <trkpt lat="44.41839" lon="1.09349">
        <ele>263.43185</ele>
        <time>2021-04-04T11:24:03.575Z</time>
      </trkpt>
      <trkpt lat="44.41853" lon="1.09351">
        <ele>263.671284</ele>
        <time>2021-04-04T11:24:05.570Z</time>
      </trkpt>
      <trkpt lat="44.41864" lon="1.0934">
        <ele>263.907884</ele>
        <time>2021-04-04T11:24:07.584Z</time>
      </trkpt>
      <trkpt lat="44.41872" lon="1.09325">
        <ele>264.641703</ele>
        <time>2021-04-04T11:24:09.572Z</time>
      </trkpt>
      <trkpt lat="44.41878" lon="1.09307">
        <ele>266.061715</ele>
        <time>2021-04-04T11:24:11.574Z</time>
      </trkpt>
      <trkpt lat="44.41882" lon="1.0929">
        <ele>267.334142</ele>
        <time>2021-04-04T11:24:13.596Z</time>
      </trkpt>
      <trkpt lat="44.41889" lon="1.09271">
        <ele>268.885102</ele>
        <time>2021-04-04T11:24:15.598Z</time>
      </trkpt>
      <trkpt lat="44.41897" lon="1.09252">
        <ele>270.50755</ele>
        <time>2021-04-04T11:24:17.578Z</time>
      </trkpt>
      <trkpt lat="44.41902" lon="1.09233">
        <ele>271.969435</ele>
        <time>2021-04-04T11:24:19.584Z</time>
      </trkpt>
      <trkpt lat="44.41907" lon="1.09215">
        <ele>273.349905</ele>
        <time>2021-04-04T11:24:21.578Z</time>
      </trkpt>
      <trkpt lat="44.4191" lon="1.09195">
        <ele>274.792924</ele>
        <time>2021-04-04T11:24:23.573Z</time>
      </trkpt>
      <trkpt lat="44.41908" lon="1.09175">
        <ele>276.236544</ele>
        <time>2021-04-04T11:24:25.572Z</time>
      </trkpt>
      <trkpt lat="44.41903" lon="1.09156">
        <ele>277.699085</ele>
        <time>2021-04-04T11:24:27.570Z</time>
      </trkpt>
      <trkpt lat="44.41896" lon="1.09139">
        <ele>279.127762</ele>
        <time>2021-04-04T11:24:29.569Z</time>
      </trkpt>
      <trkpt lat="44.4189" lon="1.0912">
        <ele>280.615118</ele>
        <time>2021-04-04T11:24:31.588Z</time>
      </trkpt>
      <trkpt lat="44.41887" lon="1.09101">
        <ele>282.022742</ele>
        <time>2021-04-04T11:24:33.587Z</time>
      </trkpt>
      <trkpt lat="44.41891" lon="1.0908">
        <ele>280.843066</ele>
        <time>2021-04-04T11:24:35.574Z</time>
      </trkpt>
      <trkpt lat="44.41899" lon="1.09061">
        <ele>279.324221</ele>
        <time>2021-04-04T11:24:37.569Z</time>
      </trkpt>
      <trkpt lat="44.41911" lon="1.09046">
        <ele>277.748079</ele>
        <time>2021-04-04T11:24:39.571Z</time>
      </trkpt>
      <trkpt lat="44.41924" lon="1.09034">
        <ele>276.228752</ele>
        <time>2021-04-04T11:24:41.572Z</time>
      </trkpt>
      <trkpt lat="44.41938" lon="1.09027">
        <ele>274.778028</ele>
        <time>2021-04-04T11:24:43.576Z</time>
      </trkpt>
      <trkpt lat="44.41954" lon="1.09024">
        <ele>273.185374</ele>
        <time>2021-04-04T11:24:45.569Z</time>
      </trkpt>
      <trkpt lat="44.41969" lon="1.0902">
        <ele>271.732274</ele>
        <time>2021-04-04T11:24:47.576Z</time>
      </trkpt>
      <trkpt lat="44.41984" lon="1.09019">
        <ele>270.255726</ele>
        <time>2021-04-04T11:24:49.575Z</time>
      </trkpt>
      <trkpt lat="44.41998" lon="1.09022">
        <ele>268.916131</ele>
        <time>2021-04-04T11:24:51.572Z</time>
      </trkpt>
      <trkpt lat="44.42012" lon="1.09027">
        <ele>267.54162</ele>
        <time>2021-04-04T11:24:53.567Z</time>
      </trkpt>
      <trkpt lat="44.42027" lon="1.0903">
        <ele>266.007485</ele>
        <time>2021-04-04T11:24:55.569Z</time>
      </trkpt>
      <trkpt lat="44.42042" lon="1.09038">
        <ele>265.012519</ele>
        <time>2021-04-04T11:24:57.584Z</time>
      </trkpt>
      <trkpt lat="44.42057" lon="1.09048">
        <ele>266.833361</ele>
        <time>2021-04-04T11:24:59.576Z</time>
      </trkpt>
      <trkpt lat="44.42072" lon="1.09056">
        <ele>268.627148</ele>
        <time>2021-04-04T11:25:01.575Z</time>
      </trkpt>
      <trkpt lat="44.42085" lon="1.09064">
        <ele>270.261659</ele>
        <time>2021-04-04T11:25:03.583Z</time>
      </trkpt>
      <trkpt lat="44.421" lon="1.09073">
        <ele>271.998484</ele>
        <time>2021-04-04T11:25:05.576Z</time>
      </trkpt>
      <trkpt lat="44.42115" lon="1.09081">
        <ele>273.830876</ele>
        <time>2021-04-04T11:25:07.577Z</time>
      </trkpt>
      <trkpt lat="44.4213" lon="1.09089">
        <ele>275.646874</ele>
        <time>2021-04-04T11:25:09.568Z</time>
      </trkpt>
      <trkpt lat="44.42145" lon="1.09097">
        <ele>277.432048</ele>
        <time>2021-04-04T11:25:11.575Z</time>
      </trkpt>
      <trkpt lat="44.42159" lon="1.09105">
        <ele>279.124841</ele>
        <time>2021-04-04T11:25:13.577Z</time>
      </trkpt>
      <trkpt lat="44.42176" lon="1.0911">
        <ele>281.002386</ele>
        <time>2021-04-04T11:25:15.567Z</time>
      </trkpt>
      <trkpt lat="44.42192" lon="1.0911">
        <ele>282.826479</ele>
        <time>2021-04-04T11:25:17.580Z</time>
      </trkpt>
      <trkpt lat="44.4221" lon="1.09107">
        <ele>284.780089</ele>
        <time>2021-04-04T11:25:19.569Z</time>
      </trkpt>
      <trkpt lat="44.42225" lon="1.09096">
        <ele>286.120807</ele>
        <time>2021-04-04T11:25:21.589Z</time>
      </trkpt>
      <trkpt lat="44.42238" lon="1.09082">
        <ele>287.450626</ele>
        <time>2021-04-04T11:25:23.575Z</time>
      </trkpt>
      <trkpt lat="44.42248" lon="1.09065">
        <ele>288.775927</ele>
        <time>2021-04-04T11:25:25.576Z</time>
      </trkpt>
      <trkpt lat="44.42257" lon="1.09046">
        <ele>290.058318</ele>
        <time>2021-04-04T11:25:27.576Z</time>
      </trkpt>
      <trkpt lat="44.42263" lon="1.09027">
        <ele>291.292278</ele>
        <time>2021-04-04T11:25:29.589Z</time>
      </trkpt>
      <trkpt lat="44.42267" lon="1.09008">
        <ele>292.390354</ele>
        <time>2021-04-04T11:25:31.590Z</time>
      </trkpt>
      <trkpt lat="44.42267" lon="1.08991">
        <ele>293.393803</ele>
        <time>2021-04-04T11:25:33.578Z</time>
      </trkpt>
      <trkpt lat="44.42268" lon="1.08974">
        <ele>294.4093</ele>
        <time>2021-04-04T11:25:35.581Z</time>
      </trkpt>
      <trkpt lat="44.42271" lon="1.08955">
        <ele>295.534434</ele>
        <time>2021-04-04T11:25:37.589Z</time>
      </trkpt>
      <trkpt lat="44.42272" lon="1.08936">
        <ele>296.636632</ele>
        <time>2021-04-04T11:25:39.575Z</time>
      </trkpt>
      <trkpt lat="44.42272" lon="1.08917">
        <ele>297.713756</ele>
        <time>2021-04-04T11:25:41.585Z</time>
      </trkpt>
      <trkpt lat="44.42273" lon="1.08899">
        <ele>298.740331</ele>
        <time>2021-04-04T11:25:43.586Z</time>
      </trkpt>
      <trkpt lat="44.42273" lon="1.08881">
        <ele>299.419681</ele>
        <time>2021-04-04T11:25:45.595Z</time>
      </trkpt>
      <trkpt lat="44.42274" lon="1.08862">
        <ele>299.616577</ele>
        <time>2021-04-04T11:25:47.588Z</time>
      </trkpt>
      <trkpt lat="44.42276" lon="1.08844">
        <ele>299.812426</ele>
        <time>2021-04-04T11:25:49.577Z</time>
      </trkpt>
      <trkpt lat="44.42277" lon="1.08827">
        <ele>299.999874</ele>
        <time>2021-04-04T11:25:51.587Z</time>
      </trkpt>
      <trkpt lat="44.4228" lon="1.08809">
        <ele>300.194485</ele>
        <time>2021-04-04T11:25:53.582Z</time>
      </trkpt>
      <trkpt lat="44.42285" lon="1.0879">
        <ele>300.407509</ele>
        <time>2021-04-04T11:25:55.568Z</time>
      </trkpt>
      <trkpt lat="44.42293" lon="1.08775">
        <ele>300.602953</ele>
        <time>2021-04-04T11:25:57.577Z</time>
      </trkpt>
      <trkpt lat="44.423" lon="1.08763">
        <ele>300.781051</ele>
        <time>2021-04-04T11:25:59.579Z</time>
      </trkpt>
      <trkpt lat="44.42311" lon="1.08753">
        <ele>300.965411</ele>
        <time>2021-04-04T11:26:01.574Z</time>
      </trkpt>
      <trkpt lat="44.42322" lon="1.08746">
        <ele>301.14466</ele>
        <time>2021-04-04T11:26:03.587Z</time>
      </trkpt>
      <trkpt lat="44.42333" lon="1.08738">
        <ele>301.330839</ele>
        <time>2021-04-04T11:26:05.594Z</time>
      </trkpt>
      <trkpt lat="44.42345" lon="1.0873">
        <ele>301.533012</ele>
        <time>2021-04-04T11:26:07.582Z</time>
      </trkpt>
      <trkpt lat="44.42355" lon="1.08722">
        <ele>301.713424</ele>
        <time>2021-04-04T11:26:09.599Z</time>
      </trkpt>
      <trkpt lat="44.42367" lon="1.08715">
        <ele>301.89803</ele>
        <time>2021-04-04T11:26:11.578Z</time>
      </trkpt>
      <trkpt lat="44.42377" lon="1.08704">
        <ele>302.017361</ele>
        <time>2021-04-04T11:26:13.588Z</time>
      </trkpt>
      <trkpt lat="44.42387" lon="1.08695">
        <ele>302.015789</ele>
        <time>2021-04-04T11:26:15.601Z</time>
      </trkpt>
      <trkpt lat="44.42396" lon="1.08684">
        <ele>302.014167</ele>
        <time>2021-04-04T11:26:17.588Z</time>
      </trkpt>
      <trkpt lat="44.42403" lon="1.0867">
        <ele>302.012483</ele>
        <time>2021-04-04T11:26:19.573Z</time>
      </trkpt>
      <trkpt lat="44.42411" lon="1.08656">
        <ele>302.010791</ele>
        <time>2021-04-04T11:26:21.585Z</time>
      </trkpt>
      <trkpt lat="44.42418" lon="1.0864">
        <ele>302.00899</ele>
        <time>2021-04-04T11:26:23.566Z</time>
      </trkpt>
      <trkpt lat="44.42426" lon="1.08625">
        <ele>302.007236</ele>
        <time>2021-04-04T11:26:25.583Z</time>
      </trkpt>
      <trkpt lat="44.42434" lon="1.08609">
        <ele>302.005397</ele>
        <time>2021-04-04T11:26:27.588Z</time>
      </trkpt>
      <trkpt lat="44.42441" lon="1.08594">
        <ele>302.003652</ele>
        <time>2021-04-04T11:26:29.588Z</time>
      </trkpt>
      <trkpt lat="44.4245" lon="1.0858">
        <ele>302.001885</ele>
        <time>2021-04-04T11:26:31.582Z</time>
      </trkpt>
      <trkpt lat="44.42457" lon="1.08568">
        <ele>302.000315</ele>
        <time>2021-04-04T11:26:33.578Z</time>
      </trkpt>
      <trkpt lat="44.42467" lon="1.08557">
        <ele>301.998604</ele>
        <time>2021-04-04T11:26:35.580Z</time>
      </trkpt>
      <trkpt lat="44.42479" lon="1.08546">
        <ele>301.996765</ele>
        <time>2021-04-04T11:26:37.580Z</time>
      </trkpt>
      <trkpt lat="44.42491" lon="1.08536">
        <ele>301.994871</ele>
        <time>2021-04-04T11:26:39.573Z</time>
      </trkpt>
      <trkpt lat="44.42503" lon="1.08527">
        <ele>301.866539</ele>
        <time>2021-04-04T11:26:41.580Z</time>
      </trkpt>
      <trkpt lat="44.42515" lon="1.08519">
        <ele>301.602467</ele>
        <time>2021-04-04T11:26:43.585Z</time>
      </trkpt>
      <trkpt lat="44.42525" lon="1.0851">
        <ele>301.359164</ele>
        <time>2021-04-04T11:26:45.597Z</time>
      </trkpt>
      <trkpt lat="44.42534" lon="1.08502">
        <ele>301.163331</ele>
        <time>2021-04-04T11:26:47.591Z</time>
      </trkpt>
      <trkpt lat="44.42543" lon="1.08487">
        <ele>300.883758</ele>
        <time>2021-04-04T11:26:49.582Z</time>
      </trkpt>
      <trkpt lat="44.42552" lon="1.08472">
        <ele>300.60384</ele>
        <time>2021-04-04T11:26:51.585Z</time>
      </trkpt>
      <trkpt lat="44.42559" lon="1.08455">
        <ele>300.319535</ele>
        <time>2021-04-04T11:26:53.573Z</time>
      </trkpt>
      <trkpt lat="44.42561" lon="1.08435">
        <ele>300.028295</ele>
        <time>2021-04-04T11:26:55.569Z</time>
      </trkpt>
      <trkpt lat="44.42564" lon="1.08418">
        <ele>299.780609</ele>
        <time>2021-04-04T11:26:57.570Z</time>
      </trkpt>
      <trkpt lat="44.42566" lon="1.08398">
        <ele>299.495306</ele>
        <time>2021-04-04T11:26:59.573Z</time>
      </trkpt>
      <trkpt lat="44.42565" lon="1.08381">
        <ele>299.247453</ele>
        <time>2021-04-04T11:27:01.589Z</time>
      </trkpt>
      <trkpt lat="44.42561" lon="1.08363">
        <ele>298.988924</ele>
        <time>2021-04-04T11:27:03.583Z</time>
      </trkpt>
      <trkpt lat="44.42553" lon="1.08347">
        <ele>298.715537</ele>
        <time>2021-04-04T11:27:05.569Z</time>
      </trkpt>
      <trkpt lat="44.42542" lon="1.08334">
        <ele>298.413326</ele>
        <time>2021-04-04T11:27:07.570Z</time>
      </trkpt>
      <trkpt lat="44.42533" lon="1.08321">
        <ele>298.536322</ele>
        <time>2021-04-04T11:27:09.569Z</time>
      </trkpt>
      <trkpt lat="44.42523" lon="1.08309">
        <ele>298.66051</ele>
        <time>2021-04-04T11:27:11.579Z</time>
      </trkpt>
      <trkpt lat="44.42515" lon="1.08297">
        <ele>298.777075</ele>
        <time>2021-04-04T11:27:13.589Z</time>
      </trkpt>
      <trkpt lat="44.42508" lon="1.08282">
        <ele>298.897362</ele>
        <time>2021-04-04T11:27:15.583Z</time>
      </trkpt>
      <trkpt lat="44.42503" lon="1.08267">
        <ele>299.014155</ele>
        <time>2021-04-04T11:27:17.586Z</time>
      </trkpt>
      <trkpt lat="44.425" lon="1.08253">
        <ele>299.113278</ele>
        <time>2021-04-04T11:27:19.569Z</time>
      </trkpt>
      <trkpt lat="44.42498" lon="1.08237">
        <ele>299.224305</ele>
        <time>2021-04-04T11:27:21.574Z</time>
      </trkpt>
      <trkpt lat="44.42497" lon="1.08222">
        <ele>299.330476</ele>
        <time>2021-04-04T11:27:23.584Z</time>
      </trkpt>
      <trkpt lat="44.42494" lon="1.08207">
        <ele>299.435614</ele>
        <time>2021-04-04T11:27:25.585Z</time>
      </trkpt>
      <trkpt lat="44.42493" lon="1.08193">
        <ele>299.535523</ele>
        <time>2021-04-04T11:27:27.582Z</time>
      </trkpt>
      <trkpt lat="44.42491" lon="1.08178">
        <ele>299.641058</ele>
        <time>2021-04-04T11:27:29.585Z</time>
      </trkpt>
      <trkpt lat="44.42489" lon="1.08162">
        <ele>299.756839</ele>
        <time>2021-04-04T11:27:31.588Z</time>
      </trkpt>
      <trkpt lat="44.42487" lon="1.08146">
        <ele>299.868631</ele>
        <time>2021-04-04T11:27:33.578Z</time>
      </trkpt>
      <trkpt lat="44.42486" lon="1.08129">
        <ele>299.986044</ele>
        <time>2021-04-04T11:27:35.571Z</time>
      </trkpt>
      <trkpt lat="44.42485" lon="1.08111">
        <ele>300.1069</ele>
        <time>2021-04-04T11:27:37.595Z</time>
      </trkpt>
      <trkpt lat="44.42484" lon="1.08095">
        <ele>300.2064</ele>
        <time>2021-04-04T11:27:39.575Z</time>
      </trkpt>
      <trkpt lat="44.42483" lon="1.08079">
        <ele>300.294117</ele>
        <time>2021-04-04T11:27:41.577Z</time>
      </trkpt>
      <trkpt lat="44.42484" lon="1.08062">
        <ele>300.383454</ele>
        <time>2021-04-04T11:27:43.590Z</time>
      </trkpt>
      <trkpt lat="44.42482" lon="1.08045">
        <ele>300.473361</ele>
        <time>2021-04-04T11:27:45.594Z</time>
      </trkpt>
      <trkpt lat="44.42479" lon="1.08029">
        <ele>300.561457</ele>
        <time>2021-04-04T11:27:47.576Z</time>
      </trkpt>
      <trkpt lat="44.42475" lon="1.08013">
        <ele>300.6527</ele>
        <time>2021-04-04T11:27:49.590Z</time>
      </trkpt>
      <trkpt lat="44.4247" lon="1.07998">
        <ele>300.740428</ele>
        <time>2021-04-04T11:27:51.581Z</time>
      </trkpt>
      <trkpt lat="44.42466" lon="1.07984">
        <ele>300.82479</ele>
        <time>2021-04-04T11:27:53.584Z</time>
      </trkpt>
      <trkpt lat="44.42461" lon="1.07969">
        <ele>300.911717</ele>
        <time>2021-04-04T11:27:55.575Z</time>
      </trkpt>
      <trkpt lat="44.42456" lon="1.07954">
        <ele>300.997248</ele>
        <time>2021-04-04T11:27:57.568Z</time>
      </trkpt>
      <trkpt lat="44.42451" lon="1.07943">
        <ele>301.073015</ele>
        <time>2021-04-04T11:27:59.576Z</time>
      </trkpt>
      <trkpt lat="44.42447" lon="1.07924">
        <ele>301.176787</ele>
        <time>2021-04-04T11:28:02.588Z</time>
      </trkpt>
      <trkpt lat="44.42444" lon="1.07911">
        <ele>301.248808</ele>
        <time>2021-04-04T11:28:04.586Z</time>
      </trkpt>
      <trkpt lat="44.42444" lon="1.07897">
        <ele>301.322794</ele>
        <time>2021-04-04T11:28:06.571Z</time>
      </trkpt>
      <trkpt lat="44.42448" lon="1.07883">
        <ele>301.405937</ele>
        <time>2021-04-04T11:28:08.569Z</time>
      </trkpt>
      <trkpt lat="44.42452" lon="1.07869">
        <ele>301.483839</ele>
        <time>2021-04-04T11:28:10.574Z</time>
      </trkpt>
      <trkpt lat="44.42458" lon="1.07857">
        <ele>301.892151</ele>
        <time>2021-04-04T11:28:12.575Z</time>
      </trkpt>
      <trkpt lat="44.42466" lon="1.07845">
        <ele>302.488654</ele>
        <time>2021-04-04T11:28:14.571Z</time>
      </trkpt>
      <trkpt lat="44.42475" lon="1.07837">
        <ele>303.018533</ele>
        <time>2021-04-04T11:28:16.578Z</time>
      </trkpt>
      <trkpt lat="44.42484" lon="1.07829">
        <ele>303.534467</ele>
        <time>2021-04-04T11:28:18.591Z</time>
      </trkpt>
      <trkpt lat="44.42492" lon="1.0782">
        <ele>304.038112</ele>
        <time>2021-04-04T11:28:20.580Z</time>
      </trkpt>
      <trkpt lat="44.42501" lon="1.07813">
        <ele>304.571408</ele>
        <time>2021-04-04T11:28:22.582Z</time>
      </trkpt>
      <trkpt lat="44.42511" lon="1.07807">
        <ele>305.092111</ele>
        <time>2021-04-04T11:28:24.579Z</time>
      </trkpt>
      <trkpt lat="44.42521" lon="1.078">
        <ele>305.669368</ele>
        <time>2021-04-04T11:28:26.592Z</time>
      </trkpt>
      <trkpt lat="44.42532" lon="1.07793">
        <ele>306.260292</ele>
        <time>2021-04-04T11:28:28.591Z</time>
      </trkpt>
      <trkpt lat="44.42541" lon="1.07784">
        <ele>306.81744</ele>
        <time>2021-04-04T11:28:30.586Z</time>
      </trkpt>
      <trkpt lat="44.42551" lon="1.07775">
        <ele>307.377918</ele>
        <time>2021-04-04T11:28:32.577Z</time>
      </trkpt>
      <trkpt lat="44.4256" lon="1.07765">
        <ele>307.971139</ele>
        <time>2021-04-04T11:28:34.582Z</time>
      </trkpt>
      <trkpt lat="44.4257" lon="1.07755">
        <ele>308.594927</ele>
        <time>2021-04-04T11:28:36.572Z</time>
      </trkpt>
      <trkpt lat="44.4258" lon="1.07744">
        <ele>309.189991</ele>
        <time>2021-04-04T11:28:38.591Z</time>
      </trkpt>
      <trkpt lat="44.42589" lon="1.07734">
        <ele>309.777434</ele>
        <time>2021-04-04T11:28:40.582Z</time>
      </trkpt>
      <trkpt lat="44.42598" lon="1.07723">
        <ele>310.371831</ele>
        <time>2021-04-04T11:28:42.590Z</time>
      </trkpt>
      <trkpt lat="44.42607" lon="1.07711">
        <ele>310.526328</ele>
        <time>2021-04-04T11:28:44.580Z</time>
      </trkpt>
      <trkpt lat="44.42617" lon="1.077">
        <ele>310.614576</ele>
        <time>2021-04-04T11:28:46.587Z</time>
      </trkpt>
      <trkpt lat="44.42627" lon="1.07688">
        <ele>310.703973</ele>
        <time>2021-04-04T11:28:48.581Z</time>
      </trkpt>
      <trkpt lat="44.42637" lon="1.07676">
        <ele>310.791503</ele>
        <time>2021-04-04T11:28:50.579Z</time>
      </trkpt>
      <trkpt lat="44.42647" lon="1.07665">
        <ele>310.87843</ele>
        <time>2021-04-04T11:28:52.568Z</time>
      </trkpt>
      <trkpt lat="44.42657" lon="1.07654">
        <ele>310.966271</ele>
        <time>2021-04-04T11:28:54.585Z</time>
      </trkpt>
      <trkpt lat="44.42667" lon="1.07643">
        <ele>311.053434</ele>
        <time>2021-04-04T11:28:56.589Z</time>
      </trkpt>
      <trkpt lat="44.42676" lon="1.0763">
        <ele>311.142577</ele>
        <time>2021-04-04T11:28:58.579Z</time>
      </trkpt>
      <trkpt lat="44.42686" lon="1.07618">
        <ele>311.230622</ele>
        <time>2021-04-04T11:29:00.574Z</time>
      </trkpt>
      <trkpt lat="44.42695" lon="1.07609">
        <ele>311.308051</ele>
        <time>2021-04-04T11:29:02.578Z</time>
      </trkpt>
      <trkpt lat="44.42704" lon="1.07597">
        <ele>311.392868</ele>
        <time>2021-04-04T11:29:04.575Z</time>
      </trkpt>
      <trkpt lat="44.42714" lon="1.07586">
        <ele>311.476631</ele>
        <time>2021-04-04T11:29:06.589Z</time>
      </trkpt>
      <trkpt lat="44.42724" lon="1.07574">
        <ele>311.567594</ele>
        <time>2021-04-04T11:29:08.585Z</time>
      </trkpt>
      <trkpt lat="44.42735" lon="1.07562">
        <ele>311.659774</ele>
        <time>2021-04-04T11:29:10.609Z</time>
      </trkpt>
      <trkpt lat="44.42744" lon="1.07549">
        <ele>311.674039</ele>
        <time>2021-04-04T11:29:12.583Z</time>
      </trkpt>
      <trkpt lat="44.42754" lon="1.07538">
        <ele>311.66929</ele>
        <time>2021-04-04T11:29:14.585Z</time>
      </trkpt>
      <trkpt lat="44.42764" lon="1.07526">
        <ele>311.664222</ele>
        <time>2021-04-04T11:29:16.590Z</time>
      </trkpt>
      <trkpt lat="44.42773" lon="1.07515">
        <ele>311.659618</ele>
        <time>2021-04-04T11:29:18.574Z</time>
      </trkpt>
      <trkpt lat="44.42784" lon="1.07503">
        <ele>311.654347</ele>
        <time>2021-04-04T11:29:20.575Z</time>
      </trkpt>
      <trkpt lat="44.42794" lon="1.0749">
        <ele>311.649296</ele>
        <time>2021-04-04T11:29:22.593Z</time>
      </trkpt>
      <trkpt lat="44.42804" lon="1.07477">
        <ele>311.644054</ele>
        <time>2021-04-04T11:29:24.577Z</time>
      </trkpt>
      <trkpt lat="44.42815" lon="1.07465">
        <ele>311.638636</ele>
        <time>2021-04-04T11:29:26.589Z</time>
      </trkpt>
      <trkpt lat="44.42826" lon="1.07453">
        <ele>311.633533</ele>
        <time>2021-04-04T11:29:28.588Z</time>
      </trkpt>
      <trkpt lat="44.42837" lon="1.07441">
        <ele>311.628227</ele>
        <time>2021-04-04T11:29:30.586Z</time>
      </trkpt>
      <trkpt lat="44.42847" lon="1.07431">
        <ele>311.623578</ele>
        <time>2021-04-04T11:29:32.583Z</time>
      </trkpt>
      <trkpt lat="44.42858" lon="1.07422">
        <ele>311.618583</ele>
        <time>2021-04-04T11:29:34.579Z</time>
      </trkpt>
      <trkpt lat="44.4287" lon="1.07414">
        <ele>311.613687</ele>
        <time>2021-04-04T11:29:36.591Z</time>
      </trkpt>
      <trkpt lat="44.42883" lon="1.07407">
        <ele>310.831936</ele>
        <time>2021-04-04T11:29:38.575Z</time>
      </trkpt>
      <trkpt lat="44.42896" lon="1.07402">
        <ele>307.913677</ele>
        <time>2021-04-04T11:29:40.573Z</time>
      </trkpt>
      <trkpt lat="44.42909" lon="1.07398">
        <ele>305.261492</ele>
        <time>2021-04-04T11:29:42.578Z</time>
      </trkpt>
      <trkpt lat="44.42923" lon="1.07397">
        <ele>302.273158</ele>
        <time>2021-04-04T11:29:44.589Z</time>
      </trkpt>
      <trkpt lat="44.42934" lon="1.07399">
        <ele>300.034491</ele>
        <time>2021-04-04T11:29:46.590Z</time>
      </trkpt>
      <trkpt lat="44.42948" lon="1.07398">
        <ele>297.091787</ele>
        <time>2021-04-04T11:29:48.605Z</time>
      </trkpt>
      <trkpt lat="44.42961" lon="1.07397">
        <ele>294.2309</ele>
        <time>2021-04-04T11:29:50.565Z</time>
      </trkpt>
      <trkpt lat="44.42974" lon="1.07398">
        <ele>291.539796</ele>
        <time>2021-04-04T11:29:52.578Z</time>
      </trkpt>
      <trkpt lat="44.42987" lon="1.07398">
        <ele>288.744975</ele>
        <time>2021-04-04T11:29:54.579Z</time>
      </trkpt>
      <trkpt lat="44.43" lon="1.07399">
        <ele>286.07129</ele>
        <time>2021-04-04T11:29:56.578Z</time>
      </trkpt>
      <trkpt lat="44.43012" lon="1.07399">
        <ele>283.444044</ele>
        <time>2021-04-04T11:29:58.592Z</time>
      </trkpt>
      <trkpt lat="44.43026" lon="1.07404">
        <ele>280.45289</ele>
        <time>2021-04-04T11:30:00.581Z</time>
      </trkpt>
      <trkpt lat="44.4304" lon="1.07408">
        <ele>277.513017</ele>
        <time>2021-04-04T11:30:02.580Z</time>
      </trkpt>
      <trkpt lat="44.43052" lon="1.0741">
        <ele>274.874099</ele>
        <time>2021-04-04T11:30:04.585Z</time>
      </trkpt>
      <trkpt lat="44.43064" lon="1.07414">
        <ele>274.049938</ele>
        <time>2021-04-04T11:30:06.575Z</time>
      </trkpt>
      <trkpt lat="44.43075" lon="1.07419">
        <ele>274.495126</ele>
        <time>2021-04-04T11:30:08.586Z</time>
      </trkpt>
      <trkpt lat="44.43086" lon="1.07423">
        <ele>274.896425</ele>
        <time>2021-04-04T11:30:10.579Z</time>
      </trkpt>
      <trkpt lat="44.43097" lon="1.07427">
        <ele>275.309816</ele>
        <time>2021-04-04T11:30:12.589Z</time>
      </trkpt>
      <trkpt lat="44.43108" lon="1.07433">
        <ele>275.740683</ele>
        <time>2021-04-04T11:30:14.598Z</time>
      </trkpt>
      <trkpt lat="44.43119" lon="1.07437">
        <ele>276.137413</ele>
        <time>2021-04-04T11:30:16.580Z</time>
      </trkpt>
      <trkpt lat="44.4313" lon="1.07441">
        <ele>276.572387</ele>
        <time>2021-04-04T11:30:18.577Z</time>
      </trkpt>
      <trkpt lat="44.43143" lon="1.07443">
        <ele>277.044948</ele>
        <time>2021-04-04T11:30:20.572Z</time>
      </trkpt>
      <trkpt lat="44.43158" lon="1.07445">
        <ele>277.580564</ele>
        <time>2021-04-04T11:30:22.594Z</time>
      </trkpt>
      <trkpt lat="44.43172" lon="1.07446">
        <ele>278.076924</ele>
        <time>2021-04-04T11:30:24.586Z</time>
      </trkpt>
      <trkpt lat="44.43186" lon="1.07447">
        <ele>278.603337</ele>
        <time>2021-04-04T11:30:26.592Z</time>
      </trkpt>
      <trkpt lat="44.43201" lon="1.0745">
        <ele>279.147668</ele>
        <time>2021-04-04T11:30:28.590Z</time>
      </trkpt>
      <trkpt lat="44.43215" lon="1.07452">
        <ele>279.667211</ele>
        <time>2021-04-04T11:30:30.588Z</time>
      </trkpt>
      <trkpt lat="44.43232" lon="1.07451">
        <ele>280.265462</ele>
        <time>2021-04-04T11:30:32.585Z</time>
      </trkpt>
      <trkpt lat="44.43247" lon="1.07449">
        <ele>282.102039</ele>
        <time>2021-04-04T11:30:34.572Z</time>
      </trkpt>
      <trkpt lat="44.43262" lon="1.07439">
        <ele>284.293465</ele>
        <time>2021-04-04T11:30:36.573Z</time>
      </trkpt>
      <trkpt lat="44.43275" lon="1.07424">
        <ele>286.576311</ele>
        <time>2021-04-04T11:30:38.575Z</time>
      </trkpt>
      <trkpt lat="44.43286" lon="1.07406">
        <ele>288.783967</ele>
        <time>2021-04-04T11:30:40.582Z</time>
      </trkpt>
      <trkpt lat="44.43295" lon="1.07386">
        <ele>291.005378</ele>
        <time>2021-04-04T11:30:42.575Z</time>
      </trkpt>
      <trkpt lat="44.43301" lon="1.07375">
        <ele>292.31152</ele>
        <time>2021-04-04T11:30:43.590Z</time>
      </trkpt>
      <trkpt lat="44.43306" lon="1.07365">
        <ele>293.552439</ele>
        <time>2021-04-04T11:30:44.573Z</time>
      </trkpt>
      <trkpt lat="44.43311" lon="1.07354">
        <ele>294.789547</ele>
        <time>2021-04-04T11:30:45.585Z</time>
      </trkpt>
      <trkpt lat="44.43321" lon="1.0733">
        <ele>297.343877</ele>
        <time>2021-04-04T11:30:47.588Z</time>
      </trkpt>
      <trkpt lat="44.43325" lon="1.07319">
        <ele>298.538353</ele>
        <time>2021-04-04T11:30:48.586Z</time>
      </trkpt>
      <trkpt lat="44.4333" lon="1.07308">
        <ele>299.805416</ele>
        <time>2021-04-04T11:30:49.579Z</time>
      </trkpt>
      <trkpt lat="44.43335" lon="1.07296">
        <ele>301.029082</ele>
        <time>2021-04-04T11:30:50.594Z</time>
      </trkpt>
      <trkpt lat="44.4334" lon="1.07285">
        <ele>302.293304</ele>
        <time>2021-04-04T11:30:51.592Z</time>
      </trkpt>
      <trkpt lat="44.43346" lon="1.07274">
        <ele>303.588162</ele>
        <time>2021-04-04T11:30:52.589Z</time>
      </trkpt>
      <trkpt lat="44.43357" lon="1.07255">
        <ele>303.871399</ele>
        <time>2021-04-04T11:30:54.590Z</time>
      </trkpt>
      <trkpt lat="44.43363" lon="1.07245">
        <ele>303.653655</ele>
        <time>2021-04-04T11:30:55.574Z</time>
      </trkpt>
      <trkpt lat="44.43369" lon="1.07236">
        <ele>303.442526</ele>
        <time>2021-04-04T11:30:56.590Z</time>
      </trkpt>
      <trkpt lat="44.43378" lon="1.07224">
        <ele>303.158995</ele>
        <time>2021-04-04T11:30:57.582Z</time>
      </trkpt>
      <trkpt lat="44.43384" lon="1.07215">
        <ele>302.942938</ele>
        <time>2021-04-04T11:30:58.591Z</time>
      </trkpt>
      <trkpt lat="44.43391" lon="1.07205">
        <ele>302.712758</ele>
        <time>2021-04-04T11:30:59.579Z</time>
      </trkpt>
      <trkpt lat="44.43404" lon="1.07187">
        <ele>302.284826</ele>
        <time>2021-04-04T11:31:01.592Z</time>
      </trkpt>
      <trkpt lat="44.4341" lon="1.07177">
        <ele>302.069227</ele>
        <time>2021-04-04T11:31:02.583Z</time>
      </trkpt>
      <trkpt lat="44.43417" lon="1.07169">
        <ele>301.856076</ele>
        <time>2021-04-04T11:31:03.585Z</time>
      </trkpt>
      <trkpt lat="44.43429" lon="1.07153">
        <ele>301.458543</ele>
        <time>2021-04-04T11:31:05.585Z</time>
      </trkpt>
      <trkpt lat="44.43436" lon="1.07143">
        <ele>301.225868</ele>
        <time>2021-04-04T11:31:06.581Z</time>
      </trkpt>
      <trkpt lat="44.43443" lon="1.07134">
        <ele>301.010948</ele>
        <time>2021-04-04T11:31:07.581Z</time>
      </trkpt>
      <trkpt lat="44.43456" lon="1.0712">
        <ele>300.621704</ele>
        <time>2021-04-04T11:31:09.601Z</time>
      </trkpt>
      <trkpt lat="44.43465" lon="1.07114">
        <ele>300.389905</ele>
        <time>2021-04-04T11:31:10.592Z</time>
      </trkpt>
      <trkpt lat="44.43482" lon="1.07104">
        <ele>299.957555</ele>
        <time>2021-04-04T11:31:12.583Z</time>
      </trkpt>
      <trkpt lat="44.43498" lon="1.07097">
        <ele>299.679837</ele>
        <time>2021-04-04T11:31:14.573Z</time>
      </trkpt>
      <trkpt lat="44.43507" lon="1.07095">
        <ele>299.5253</ele>
        <time>2021-04-04T11:31:15.578Z</time>
      </trkpt>
      <trkpt lat="44.43517" lon="1.07091">
        <ele>299.349643</ele>
        <time>2021-04-04T11:31:16.578Z</time>
      </trkpt>
      <trkpt lat="44.43528" lon="1.07088">
        <ele>299.167975</ele>
        <time>2021-04-04T11:31:17.571Z</time>
      </trkpt>
      <trkpt lat="44.43537" lon="1.07085">
        <ele>299.011808</ele>
        <time>2021-04-04T11:31:18.577Z</time>
      </trkpt>
      <trkpt lat="44.43553" lon="1.07076">
        <ele>298.725544</ele>
        <time>2021-04-04T11:31:20.580Z</time>
      </trkpt>
      <trkpt lat="44.43561" lon="1.07069">
        <ele>298.566003</ele>
        <time>2021-04-04T11:31:21.581Z</time>
      </trkpt>
      <trkpt lat="44.43569" lon="1.07062">
        <ele>298.412568</ele>
        <time>2021-04-04T11:31:22.588Z</time>
      </trkpt>
      <trkpt lat="44.43577" lon="1.07054">
        <ele>298.256732</ele>
        <time>2021-04-04T11:31:23.574Z</time>
      </trkpt>
      <trkpt lat="44.43585" lon="1.07046">
        <ele>298.094771</ele>
        <time>2021-04-04T11:31:24.582Z</time>
      </trkpt>
      <trkpt lat="44.43592" lon="1.07039">
        <ele>297.945037</ele>
        <time>2021-04-04T11:31:25.582Z</time>
      </trkpt>
      <trkpt lat="44.43601" lon="1.07031">
        <ele>297.767397</ele>
        <time>2021-04-04T11:31:26.583Z</time>
      </trkpt>
      <trkpt lat="44.43609" lon="1.07022">
        <ele>297.599851</ele>
        <time>2021-04-04T11:31:27.576Z</time>
      </trkpt>
      <trkpt lat="44.43617" lon="1.07015">
        <ele>297.443943</ele>
        <time>2021-04-04T11:31:28.584Z</time>
      </trkpt>
      <trkpt lat="44.43624" lon="1.07007">
        <ele>297.287427</ele>
        <time>2021-04-04T11:31:29.589Z</time>
      </trkpt>
      <trkpt lat="44.43633" lon="1.06999">
        <ele>297.111827</ele>
        <time>2021-04-04T11:31:30.577Z</time>
      </trkpt>
      <trkpt lat="44.4364" lon="1.06991">
        <ele>296.942343</ele>
        <time>2021-04-04T11:31:31.595Z</time>
      </trkpt>
      <trkpt lat="44.43649" lon="1.06981">
        <ele>296.602342</ele>
        <time>2021-04-04T11:31:32.590Z</time>
      </trkpt>
      <trkpt lat="44.43657" lon="1.06973">
        <ele>296.277774</ele>
        <time>2021-04-04T11:31:33.575Z</time>
      </trkpt>
      <trkpt lat="44.43665" lon="1.06964">
        <ele>295.957824</ele>
        <time>2021-04-04T11:31:34.587Z</time>
      </trkpt>
      <trkpt lat="44.43673" lon="1.06955">
        <ele>295.632234</ele>
        <time>2021-04-04T11:31:35.588Z</time>
      </trkpt>
      <trkpt lat="44.43681" lon="1.06946">
        <ele>295.325777</ele>
        <time>2021-04-04T11:31:36.583Z</time>
      </trkpt>
      <trkpt lat="44.43689" lon="1.06937">
        <ele>295.003376</ele>
        <time>2021-04-04T11:31:37.593Z</time>
      </trkpt>
      <trkpt lat="44.43696" lon="1.06927">
        <ele>294.677133</ele>
        <time>2021-04-04T11:31:38.581Z</time>
      </trkpt>
      <trkpt lat="44.43704" lon="1.06917">
        <ele>294.350239</ele>
        <time>2021-04-04T11:31:39.574Z</time>
      </trkpt>
      <trkpt lat="44.43711" lon="1.06906">
        <ele>294.030117</ele>
        <time>2021-04-04T11:31:40.578Z</time>
      </trkpt>
      <trkpt lat="44.43717" lon="1.06895">
        <ele>293.695908</ele>
        <time>2021-04-04T11:31:41.590Z</time>
      </trkpt>
      <trkpt lat="44.43723" lon="1.06882">
        <ele>293.36524</ele>
        <time>2021-04-04T11:31:42.573Z</time>
      </trkpt>
      <trkpt lat="44.43728" lon="1.06869">
        <ele>293.034931</ele>
        <time>2021-04-04T11:31:43.581Z</time>
      </trkpt>
      <trkpt lat="44.43732" lon="1.06856">
        <ele>292.711464</ele>
        <time>2021-04-04T11:31:44.574Z</time>
      </trkpt>
      <trkpt lat="44.43736" lon="1.06844">
        <ele>292.420675</ele>
        <time>2021-04-04T11:31:45.600Z</time>
      </trkpt>
      <trkpt lat="44.43739" lon="1.06831">
        <ele>292.115144</ele>
        <time>2021-04-04T11:31:46.569Z</time>
      </trkpt>
      <trkpt lat="44.43742" lon="1.06819">
        <ele>291.825686</ele>
        <time>2021-04-04T11:31:47.586Z</time>
      </trkpt>
      <trkpt lat="44.43748" lon="1.06795">
        <ele>291.318388</ele>
        <time>2021-04-04T11:31:49.593Z</time>
      </trkpt>
      <trkpt lat="44.43751" lon="1.06783">
        <ele>291.308832</ele>
        <time>2021-04-04T11:31:50.590Z</time>
      </trkpt>
      <trkpt lat="44.43754" lon="1.06771">
        <ele>291.299309</ele>
        <time>2021-04-04T11:31:51.589Z</time>
      </trkpt>
      <trkpt lat="44.4376" lon="1.06748">
        <ele>291.281204</ele>
        <time>2021-04-04T11:31:53.584Z</time>
      </trkpt>
      <trkpt lat="44.43766" lon="1.06724">
        <ele>291.263063</ele>
        <time>2021-04-04T11:31:55.584Z</time>
      </trkpt>
      <trkpt lat="44.43772" lon="1.06702">
        <ele>291.24513</ele>
        <time>2021-04-04T11:31:57.583Z</time>
      </trkpt>
      <trkpt lat="44.43777" lon="1.06679">
        <ele>291.227528</ele>
        <time>2021-04-04T11:31:59.578Z</time>
      </trkpt>
      <trkpt lat="44.4378" lon="1.06667">
        <ele>291.218111</ele>
        <time>2021-04-04T11:32:00.585Z</time>
      </trkpt>
      <trkpt lat="44.43786" lon="1.06644">
        <ele>291.199999</ele>
        <time>2021-04-04T11:32:02.584Z</time>
      </trkpt>
      <trkpt lat="44.43793" lon="1.06621">
        <ele>291.181882</ele>
        <time>2021-04-04T11:32:04.590Z</time>
      </trkpt>
      <trkpt lat="44.43798" lon="1.066">
        <ele>291.165162</ele>
        <time>2021-04-04T11:32:06.586Z</time>
      </trkpt>
      <trkpt lat="44.43804" lon="1.06577">
        <ele>291.147611</ele>
        <time>2021-04-04T11:32:08.592Z</time>
      </trkpt>
      <trkpt lat="44.43809" lon="1.06556">
        <ele>291.0924</ele>
        <time>2021-04-04T11:32:10.589Z</time>
      </trkpt>
      <trkpt lat="44.43814" lon="1.06534">
        <ele>290.886736</ele>
        <time>2021-04-04T11:32:12.581Z</time>
      </trkpt>
      <trkpt lat="44.4382" lon="1.06513">
        <ele>290.688935</ele>
        <time>2021-04-04T11:32:14.587Z</time>
      </trkpt>
      <trkpt lat="44.43826" lon="1.0649">
        <ele>290.473371</ele>
        <time>2021-04-04T11:32:16.584Z</time>
      </trkpt>
      <trkpt lat="44.43832" lon="1.06468">
        <ele>290.272091</ele>
        <time>2021-04-04T11:32:18.589Z</time>
      </trkpt>
      <trkpt lat="44.43837" lon="1.06448">
        <ele>290.080071</ele>
        <time>2021-04-04T11:32:20.575Z</time>
      </trkpt>
      <trkpt lat="44.43842" lon="1.06428">
        <ele>289.895825</ele>
        <time>2021-04-04T11:32:22.587Z</time>
      </trkpt>
      <trkpt lat="44.43851" lon="1.06406">
        <ele>289.677883</ele>
        <time>2021-04-04T11:32:24.581Z</time>
      </trkpt>
      <trkpt lat="44.43858" lon="1.06389">
        <ele>289.499582</ele>
        <time>2021-04-04T11:32:26.583Z</time>
      </trkpt>
      <trkpt lat="44.43868" lon="1.06373">
        <ele>289.317102</ele>
        <time>2021-04-04T11:32:28.593Z</time>
      </trkpt>
      <trkpt lat="44.43879" lon="1.0636">
        <ele>289.143596</ele>
        <time>2021-04-04T11:32:30.579Z</time>
      </trkpt>
      <trkpt lat="44.43891" lon="1.06348">
        <ele>288.966325</ele>
        <time>2021-04-04T11:32:32.566Z</time>
      </trkpt>
      <trkpt lat="44.43903" lon="1.06336">
        <ele>288.931455</ele>
        <time>2021-04-04T11:32:34.588Z</time>
      </trkpt>
      <trkpt lat="44.43917" lon="1.06324">
        <ele>288.932784</ele>
        <time>2021-04-04T11:32:36.567Z</time>
      </trkpt>
      <trkpt lat="44.43932" lon="1.06312">
        <ele>288.934198</ele>
        <time>2021-04-04T11:32:38.581Z</time>
      </trkpt>
      <trkpt lat="44.43943" lon="1.063">
        <ele>288.935381</ele>
        <time>2021-04-04T11:32:40.580Z</time>
      </trkpt>
      <trkpt lat="44.43958" lon="1.06287">
        <ele>288.936814</ele>
        <time>2021-04-04T11:32:42.570Z</time>
      </trkpt>
      <trkpt lat="44.43971" lon="1.06278">
        <ele>288.938069</ele>
        <time>2021-04-04T11:32:44.580Z</time>
      </trkpt>
      <trkpt lat="44.43982" lon="1.06266">
        <ele>288.939246</ele>
        <time>2021-04-04T11:32:46.578Z</time>
      </trkpt>
      <trkpt lat="44.43991" lon="1.0626">
        <ele>288.940011</ele>
        <time>2021-04-04T11:32:47.565Z</time>
      </trkpt>
      <trkpt lat="44.43999" lon="1.06255">
        <ele>288.940781</ele>
        <time>2021-04-04T11:32:48.580Z</time>
      </trkpt>
      <trkpt lat="44.44008" lon="1.0625">
        <ele>288.941571</ele>
        <time>2021-04-04T11:32:49.579Z</time>
      </trkpt>
      <trkpt lat="44.44018" lon="1.06247">
        <ele>288.942402</ele>
        <time>2021-04-04T11:32:50.591Z</time>
      </trkpt>
      <trkpt lat="44.44027" lon="1.06246">
        <ele>288.943168</ele>
        <time>2021-04-04T11:32:51.574Z</time>
      </trkpt>
      <trkpt lat="44.44036" lon="1.06245">
        <ele>288.943927</ele>
        <time>2021-04-04T11:32:52.585Z</time>
      </trkpt>
      <trkpt lat="44.44045" lon="1.06246">
        <ele>288.94471</ele>
        <time>2021-04-04T11:32:53.577Z</time>
      </trkpt>
      <trkpt lat="44.44064" lon="1.06247">
        <ele>288.900493</ele>
        <time>2021-04-04T11:32:55.577Z</time>
      </trkpt>
      <trkpt lat="44.44073" lon="1.06247">
        <ele>288.860825</ele>
        <time>2021-04-04T11:32:56.586Z</time>
      </trkpt>
      <trkpt lat="44.44083" lon="1.06249">
        <ele>288.817645</ele>
        <time>2021-04-04T11:32:57.588Z</time>
      </trkpt>
      <trkpt lat="44.44093" lon="1.0625">
        <ele>288.77746</ele>
        <time>2021-04-04T11:32:58.586Z</time>
      </trkpt>
      <trkpt lat="44.44102" lon="1.06252">
        <ele>288.736605</ele>
        <time>2021-04-04T11:32:59.582Z</time>
      </trkpt>
      <trkpt lat="44.44111" lon="1.06254">
        <ele>288.6976</ele>
        <time>2021-04-04T11:33:00.576Z</time>
      </trkpt>
      <trkpt lat="44.4413" lon="1.06257">
        <ele>288.618348</ele>
        <time>2021-04-04T11:33:02.588Z</time>
      </trkpt>
      <trkpt lat="44.44139" lon="1.06259">
        <ele>288.578493</ele>
        <time>2021-04-04T11:33:03.588Z</time>
      </trkpt>
      <trkpt lat="44.44149" lon="1.06258">
        <ele>288.535059</ele>
        <time>2021-04-04T11:33:04.586Z</time>
      </trkpt>
      <trkpt lat="44.44159" lon="1.06259">
        <ele>288.494147</ele>
        <time>2021-04-04T11:33:05.581Z</time>
      </trkpt>
      <trkpt lat="44.44168" lon="1.06259">
        <ele>288.45285</ele>
        <time>2021-04-04T11:33:06.588Z</time>
      </trkpt>
      <trkpt lat="44.4418" lon="1.06259">
        <ele>288.405585</ele>
        <time>2021-04-04T11:33:07.585Z</time>
      </trkpt>
      <trkpt lat="44.44191" lon="1.06259">
        <ele>288.356191</ele>
        <time>2021-04-04T11:33:08.589Z</time>
      </trkpt>
      <trkpt lat="44.44202" lon="1.06259">
        <ele>288.311906</ele>
        <time>2021-04-04T11:33:09.589Z</time>
      </trkpt>
      <trkpt lat="44.44222" lon="1.06259">
        <ele>288.226758</ele>
        <time>2021-04-04T11:33:11.590Z</time>
      </trkpt>
      <trkpt lat="44.44233" lon="1.06255">
        <ele>288.169063</ele>
        <time>2021-04-04T11:33:12.590Z</time>
      </trkpt>
      <trkpt lat="44.44242" lon="1.06252">
        <ele>287.996033</ele>
        <time>2021-04-04T11:33:13.595Z</time>
      </trkpt>
      <trkpt lat="44.44252" lon="1.06248">
        <ele>287.79495</ele>
        <time>2021-04-04T11:33:14.575Z</time>
      </trkpt>
      <trkpt lat="44.44263" lon="1.06244">
        <ele>287.600066</ele>
        <time>2021-04-04T11:33:15.579Z</time>
      </trkpt>
      <trkpt lat="44.44272" lon="1.06239">
        <ele>287.407338</ele>
        <time>2021-04-04T11:33:16.577Z</time>
      </trkpt>
      <trkpt lat="44.44282" lon="1.06233">
        <ele>287.212329</ele>
        <time>2021-04-04T11:33:17.579Z</time>
      </trkpt>
      <trkpt lat="44.44291" lon="1.06226">
        <ele>287.02408</ele>
        <time>2021-04-04T11:33:18.574Z</time>
      </trkpt>
      <trkpt lat="44.44299" lon="1.06219">
        <ele>286.841772</ele>
        <time>2021-04-04T11:33:19.586Z</time>
      </trkpt>
      <trkpt lat="44.44307" lon="1.06211">
        <ele>286.649029</ele>
        <time>2021-04-04T11:33:20.578Z</time>
      </trkpt>
      <trkpt lat="44.44316" lon="1.06204">
        <ele>286.462657</ele>
        <time>2021-04-04T11:33:21.588Z</time>
      </trkpt>
      <trkpt lat="44.44332" lon="1.0619">
        <ele>286.118845</ele>
        <time>2021-04-04T11:33:23.579Z</time>
      </trkpt>
      <trkpt lat="44.44341" lon="1.06184">
        <ele>285.936663</ele>
        <time>2021-04-04T11:33:24.576Z</time>
      </trkpt>
      <trkpt lat="44.4435" lon="1.06178">
        <ele>285.748994</ele>
        <time>2021-04-04T11:33:25.589Z</time>
      </trkpt>
      <trkpt lat="44.44359" lon="1.06174">
        <ele>285.576482</ele>
        <time>2021-04-04T11:33:26.581Z</time>
      </trkpt>
      <trkpt lat="44.44367" lon="1.06169">
        <ele>285.40378</ele>
        <time>2021-04-04T11:33:27.596Z</time>
      </trkpt>
      <trkpt lat="44.44376" lon="1.06164">
        <ele>285.234003</ele>
        <time>2021-04-04T11:33:28.591Z</time>
      </trkpt>
      <trkpt lat="44.44392" lon="1.06156">
        <ele>284.910084</ele>
        <time>2021-04-04T11:33:30.591Z</time>
      </trkpt>
      <trkpt lat="44.44409" lon="1.06148">
        <ele>284.416108</ele>
        <time>2021-04-04T11:33:32.583Z</time>
      </trkpt>
      <trkpt lat="44.44418" lon="1.06144">
        <ele>284.134524</ele>
        <time>2021-04-04T11:33:33.585Z</time>
      </trkpt>
      <trkpt lat="44.44428" lon="1.06141">
        <ele>283.839571</ele>
        <time>2021-04-04T11:33:34.592Z</time>
      </trkpt>
      <trkpt lat="44.44437" lon="1.06138">
        <ele>283.571705</ele>
        <time>2021-04-04T11:33:35.588Z</time>
      </trkpt>
      <trkpt lat="44.44447" lon="1.06133">
        <ele>283.249121</ele>
        <time>2021-04-04T11:33:36.585Z</time>
      </trkpt>
      <trkpt lat="44.44456" lon="1.0613">
        <ele>282.963513</ele>
        <time>2021-04-04T11:33:37.586Z</time>
      </trkpt>
      <trkpt lat="44.44465" lon="1.06126">
        <ele>282.684611</ele>
        <time>2021-04-04T11:33:38.583Z</time>
      </trkpt>
      <trkpt lat="44.44473" lon="1.0612">
        <ele>282.402487</ele>
        <time>2021-04-04T11:33:39.573Z</time>
      </trkpt>
      <trkpt lat="44.44482" lon="1.06113">
        <ele>282.111904</ele>
        <time>2021-04-04T11:33:40.590Z</time>
      </trkpt>
      <trkpt lat="44.4449" lon="1.06107">
        <ele>281.837763</ele>
        <time>2021-04-04T11:33:41.573Z</time>
      </trkpt>
      <trkpt lat="44.44497" lon="1.06098">
        <ele>281.540803</ele>
        <time>2021-04-04T11:33:42.580Z</time>
      </trkpt>
      <trkpt lat="44.44504" lon="1.06089">
        <ele>281.260919</ele>
        <time>2021-04-04T11:33:43.573Z</time>
      </trkpt>
      <trkpt lat="44.44511" lon="1.06079">
        <ele>280.977336</ele>
        <time>2021-04-04T11:33:44.581Z</time>
      </trkpt>
      <trkpt lat="44.44518" lon="1.0607">
        <ele>280.686212</ele>
        <time>2021-04-04T11:33:45.592Z</time>
      </trkpt>
      <trkpt lat="44.44531" lon="1.06051">
        <ele>280.132224</ele>
        <time>2021-04-04T11:33:47.583Z</time>
      </trkpt>
      <trkpt lat="44.44537" lon="1.06041">
        <ele>279.851602</ele>
        <time>2021-04-04T11:33:48.574Z</time>
      </trkpt>
      <trkpt lat="44.44543" lon="1.06031">
        <ele>279.571701</ele>
        <time>2021-04-04T11:33:49.586Z</time>
      </trkpt>
      <trkpt lat="44.4455" lon="1.06022">
        <ele>279.332666</ele>
        <time>2021-04-04T11:33:50.584Z</time>
      </trkpt>
      <trkpt lat="44.44556" lon="1.06012">
        <ele>279.125125</ele>
        <time>2021-04-04T11:33:51.587Z</time>
      </trkpt>
      <trkpt lat="44.44563" lon="1.06001">
        <ele>278.893187</ele>
        <time>2021-04-04T11:33:52.588Z</time>
      </trkpt>
      <trkpt lat="44.44568" lon="1.05991">
        <ele>278.688272</ele>
        <time>2021-04-04T11:33:53.581Z</time>
      </trkpt>
      <trkpt lat="44.44575" lon="1.0598">
        <ele>278.448218</ele>
        <time>2021-04-04T11:33:54.585Z</time>
      </trkpt>
      <trkpt lat="44.4458" lon="1.05969">
        <ele>278.228753</ele>
        <time>2021-04-04T11:33:55.586Z</time>
      </trkpt>
      <trkpt lat="44.44585" lon="1.05959">
        <ele>278.023743</ele>
        <time>2021-04-04T11:33:56.587Z</time>
      </trkpt>
      <trkpt lat="44.44591" lon="1.05947">
        <ele>277.802939</ele>
        <time>2021-04-04T11:33:57.594Z</time>
      </trkpt>
      <trkpt lat="44.44596" lon="1.05936">
        <ele>277.585616</ele>
        <time>2021-04-04T11:33:58.571Z</time>
      </trkpt>
      <trkpt lat="44.44602" lon="1.05925">
        <ele>277.358221</ele>
        <time>2021-04-04T11:33:59.577Z</time>
      </trkpt>
      <trkpt lat="44.44608" lon="1.05912">
        <ele>277.106779</ele>
        <time>2021-04-04T11:34:00.578Z</time>
      </trkpt>
      <trkpt lat="44.44614" lon="1.059">
        <ele>276.867443</ele>
        <time>2021-04-04T11:34:01.593Z</time>
      </trkpt>
      <trkpt lat="44.4462" lon="1.0589">
        <ele>276.648366</ele>
        <time>2021-04-04T11:34:02.570Z</time>
      </trkpt>
      <trkpt lat="44.4463" lon="1.05869">
        <ele>276.241113</ele>
        <time>2021-04-04T11:34:04.584Z</time>
      </trkpt>
      <trkpt lat="44.44636" lon="1.05858">
        <ele>276.024209</ele>
        <time>2021-04-04T11:34:05.585Z</time>
      </trkpt>
      <trkpt lat="44.44641" lon="1.05847">
        <ele>275.807398</ele>
        <time>2021-04-04T11:34:06.574Z</time>
      </trkpt>
      <trkpt lat="44.44648" lon="1.05836">
        <ele>275.578163</ele>
        <time>2021-04-04T11:34:07.577Z</time>
      </trkpt>
      <trkpt lat="44.44653" lon="1.05825">
        <ele>275.356993</ele>
        <time>2021-04-04T11:34:08.591Z</time>
      </trkpt>
      <trkpt lat="44.44659" lon="1.05814">
        <ele>275.048062</ele>
        <time>2021-04-04T11:34:09.588Z</time>
      </trkpt>
      <trkpt lat="44.44665" lon="1.05804">
        <ele>274.766614</ele>
        <time>2021-04-04T11:34:10.579Z</time>
      </trkpt>
      <trkpt lat="44.44671" lon="1.05793">
        <ele>274.469889</ele>
        <time>2021-04-04T11:34:11.586Z</time>
      </trkpt>
      <trkpt lat="44.44677" lon="1.05781">
        <ele>274.164475</ele>
        <time>2021-04-04T11:34:12.576Z</time>
      </trkpt>
      <trkpt lat="44.44684" lon="1.05771">
        <ele>273.851006</ele>
        <time>2021-04-04T11:34:13.586Z</time>
      </trkpt>
      <trkpt lat="44.4469" lon="1.0576">
        <ele>273.555474</ele>
        <time>2021-04-04T11:34:14.584Z</time>
      </trkpt>
      <trkpt lat="44.44697" lon="1.0575">
        <ele>273.262962</ele>
        <time>2021-04-04T11:34:15.588Z</time>
      </trkpt>
      <trkpt lat="44.44703" lon="1.05738">
        <ele>272.946628</ele>
        <time>2021-04-04T11:34:16.579Z</time>
      </trkpt>
      <trkpt lat="44.44709" lon="1.05727">
        <ele>272.639117</ele>
        <time>2021-04-04T11:34:17.585Z</time>
      </trkpt>
      <trkpt lat="44.44716" lon="1.05716">
        <ele>272.329728</ele>
        <time>2021-04-04T11:34:18.587Z</time>
      </trkpt>
      <trkpt lat="44.44722" lon="1.05705">
        <ele>272.035575</ele>
        <time>2021-04-04T11:34:19.575Z</time>
      </trkpt>
      <trkpt lat="44.4473" lon="1.05694">
        <ele>271.705972</ele>
        <time>2021-04-04T11:34:20.587Z</time>
      </trkpt>
      <trkpt lat="44.44737" lon="1.05683">
        <ele>271.390179</ele>
        <time>2021-04-04T11:34:21.594Z</time>
      </trkpt>
      <trkpt lat="44.44743" lon="1.05672">
        <ele>271.086466</ele>
        <time>2021-04-04T11:34:22.599Z</time>
      </trkpt>
      <trkpt lat="44.44749" lon="1.0566">
        <ele>270.761311</ele>
        <time>2021-04-04T11:34:23.582Z</time>
      </trkpt>
      <trkpt lat="44.44756" lon="1.05648">
        <ele>270.422483</ele>
        <time>2021-04-04T11:34:24.588Z</time>
      </trkpt>
      <trkpt lat="44.44763" lon="1.05636">
        <ele>270.105067</ele>
        <time>2021-04-04T11:34:25.584Z</time>
      </trkpt>
      <trkpt lat="44.4477" lon="1.05624">
        <ele>270.039556</ele>
        <time>2021-04-04T11:34:26.585Z</time>
      </trkpt>
      <trkpt lat="44.44777" lon="1.05612">
        <ele>270.208687</ele>
        <time>2021-04-04T11:34:27.584Z</time>
      </trkpt>
      <trkpt lat="44.44784" lon="1.05601">
        <ele>270.37013</ele>
        <time>2021-04-04T11:34:28.589Z</time>
      </trkpt>
      <trkpt lat="44.4479" lon="1.0559">
        <ele>270.532277</ele>
        <time>2021-04-04T11:34:29.581Z</time>
      </trkpt>
      <trkpt lat="44.44796" lon="1.05579">
        <ele>270.685003</ele>
        <time>2021-04-04T11:34:30.599Z</time>
      </trkpt>
      <trkpt lat="44.44803" lon="1.05567">
        <ele>270.854318</ele>
        <time>2021-04-04T11:34:31.586Z</time>
      </trkpt>
      <trkpt lat="44.4481" lon="1.05556">
        <ele>271.016137</ele>
        <time>2021-04-04T11:34:32.585Z</time>
      </trkpt>
      <trkpt lat="44.44817" lon="1.05546">
        <ele>271.175499</ele>
        <time>2021-04-04T11:34:33.598Z</time>
      </trkpt>
      <trkpt lat="44.44825" lon="1.05536">
        <ele>271.337812</ele>
        <time>2021-04-04T11:34:34.583Z</time>
      </trkpt>
      <trkpt lat="44.44832" lon="1.05525">
        <ele>271.508451</ele>
        <time>2021-04-04T11:34:35.579Z</time>
      </trkpt>
      <trkpt lat="44.4484" lon="1.05516">
        <ele>271.666308</ele>
        <time>2021-04-04T11:34:36.584Z</time>
      </trkpt>
      <trkpt lat="44.44848" lon="1.05508">
        <ele>271.824514</ele>
        <time>2021-04-04T11:34:37.572Z</time>
      </trkpt>
      <trkpt lat="44.44857" lon="1.05501">
        <ele>271.982828</ele>
        <time>2021-04-04T11:34:38.578Z</time>
      </trkpt>
      <trkpt lat="44.44865" lon="1.05494">
        <ele>272.127188</ele>
        <time>2021-04-04T11:34:39.574Z</time>
      </trkpt>
      <trkpt lat="44.44875" lon="1.05487">
        <ele>272.301134</ele>
        <time>2021-04-04T11:34:40.588Z</time>
      </trkpt>
      <trkpt lat="44.44883" lon="1.05483">
        <ele>272.443249</ele>
        <time>2021-04-04T11:34:41.567Z</time>
      </trkpt>
      <trkpt lat="44.449" lon="1.05475">
        <ele>272.712282</ele>
        <time>2021-04-04T11:34:43.580Z</time>
      </trkpt>
      <trkpt lat="44.44915" lon="1.05465">
        <ele>272.289858</ele>
        <time>2021-04-04T11:34:45.583Z</time>
      </trkpt>
      <trkpt lat="44.44923" lon="1.0546">
        <ele>271.992369</ele>
        <time>2021-04-04T11:34:46.586Z</time>
      </trkpt>
      <trkpt lat="44.44939" lon="1.0545">
        <ele>271.420203</ele>
        <time>2021-04-04T11:34:48.591Z</time>
      </trkpt>
      <trkpt lat="44.44953" lon="1.05443">
        <ele>270.930651</ele>
        <time>2021-04-04T11:34:50.585Z</time>
      </trkpt>
      <trkpt lat="44.44962" lon="1.05439">
        <ele>270.619317</ele>
        <time>2021-04-04T11:34:51.577Z</time>
      </trkpt>
      <trkpt lat="44.44979" lon="1.05432">
        <ele>270.038432</ele>
        <time>2021-04-04T11:34:53.578Z</time>
      </trkpt>
      <trkpt lat="44.4499" lon="1.05429">
        <ele>269.67984</ele>
        <time>2021-04-04T11:34:54.609Z</time>
      </trkpt>
      <trkpt lat="44.45006" lon="1.05422">
        <ele>269.120322</ele>
        <time>2021-04-04T11:34:56.588Z</time>
      </trkpt>
      <trkpt lat="44.45021" lon="1.05417">
        <ele>268.614631</ele>
        <time>2021-04-04T11:34:58.580Z</time>
      </trkpt>
      <trkpt lat="44.45038" lon="1.05409">
        <ele>268.042206</ele>
        <time>2021-04-04T11:35:00.577Z</time>
      </trkpt>
      <trkpt lat="44.45053" lon="1.05403">
        <ele>267.530888</ele>
        <time>2021-04-04T11:35:02.571Z</time>
      </trkpt>
      <trkpt lat="44.45068" lon="1.05397">
        <ele>267.021435</ele>
        <time>2021-04-04T11:35:04.586Z</time>
      </trkpt>
      <trkpt lat="44.4508" lon="1.05392">
        <ele>266.291677</ele>
        <time>2021-04-04T11:35:06.593Z</time>
      </trkpt>
      <trkpt lat="44.45093" lon="1.05383">
        <ele>265.182444</ele>
        <time>2021-04-04T11:35:08.589Z</time>
      </trkpt>
      <trkpt lat="44.45106" lon="1.05371">
        <ele>264.075452</ele>
        <time>2021-04-04T11:35:10.578Z</time>
      </trkpt>
      <trkpt lat="44.45118" lon="1.05354">
        <ele>262.80346</ele>
        <time>2021-04-04T11:35:12.570Z</time>
      </trkpt>
      <trkpt lat="44.45127" lon="1.05337">
        <ele>261.667578</ele>
        <time>2021-04-04T11:35:14.575Z</time>
      </trkpt>
      <trkpt lat="44.45133" lon="1.05319">
        <ele>260.601363</ele>
        <time>2021-04-04T11:35:16.569Z</time>
      </trkpt>
      <trkpt lat="44.45138" lon="1.053">
        <ele>259.535907</ele>
        <time>2021-04-04T11:35:18.572Z</time>
      </trkpt>
      <trkpt lat="44.45143" lon="1.05282">
        <ele>258.542317</ele>
        <time>2021-04-04T11:35:20.578Z</time>
      </trkpt>
      <trkpt lat="44.45147" lon="1.05263">
        <ele>257.493174</ele>
        <time>2021-04-04T11:35:22.591Z</time>
      </trkpt>
      <trkpt lat="44.45151" lon="1.05246">
        <ele>256.529213</ele>
        <time>2021-04-04T11:35:24.573Z</time>
      </trkpt>
      <trkpt lat="44.45157" lon="1.05227">
        <ele>255.451543</ele>
        <time>2021-04-04T11:35:26.597Z</time>
      </trkpt>
      <trkpt lat="44.45162" lon="1.05208">
        <ele>254.383171</ele>
        <time>2021-04-04T11:35:28.587Z</time>
      </trkpt>
      <trkpt lat="44.45166" lon="1.05193">
        <ele>253.549331</ele>
        <time>2021-04-04T11:35:30.574Z</time>
      </trkpt>
      <trkpt lat="44.45171" lon="1.0518">
        <ele>253.705783</ele>
        <time>2021-04-04T11:35:32.574Z</time>
      </trkpt>
      <trkpt lat="44.45177" lon="1.05164">
        <ele>253.911778</ele>
        <time>2021-04-04T11:35:34.588Z</time>
      </trkpt>
      <trkpt lat="44.45182" lon="1.05151">
        <ele>254.087657</ele>
        <time>2021-04-04T11:35:36.588Z</time>
      </trkpt>
      <trkpt lat="44.45187" lon="1.05138">
        <ele>254.253294</ele>
        <time>2021-04-04T11:35:38.593Z</time>
      </trkpt>
      <trkpt lat="44.45193" lon="1.05125">
        <ele>254.424502</ele>
        <time>2021-04-04T11:35:40.577Z</time>
      </trkpt>
      <trkpt lat="44.45199" lon="1.05111">
        <ele>254.611618</ele>
        <time>2021-04-04T11:35:42.579Z</time>
      </trkpt>
      <trkpt lat="44.45204" lon="1.05099">
        <ele>254.776453</ele>
        <time>2021-04-04T11:35:44.588Z</time>
      </trkpt>
      <trkpt lat="44.45209" lon="1.05086">
        <ele>254.938314</ele>
        <time>2021-04-04T11:35:46.583Z</time>
      </trkpt>
      <trkpt lat="44.45214" lon="1.05073">
        <ele>255.106483</ele>
        <time>2021-04-04T11:35:48.592Z</time>
      </trkpt>
      <trkpt lat="44.4522" lon="1.05061">
        <ele>255.277945</ele>
        <time>2021-04-04T11:35:50.595Z</time>
      </trkpt>
      <trkpt lat="44.45225" lon="1.05047">
        <ele>255.462674</ele>
        <time>2021-04-04T11:35:52.590Z</time>
      </trkpt>
      <trkpt lat="44.45231" lon="1.05035">
        <ele>255.624228</ele>
        <time>2021-04-04T11:35:54.581Z</time>
      </trkpt>
      <trkpt lat="44.45236" lon="1.05022">
        <ele>255.791501</ele>
        <time>2021-04-04T11:35:56.580Z</time>
      </trkpt>
      <trkpt lat="44.45243" lon="1.05009">
        <ele>255.978879</ele>
        <time>2021-04-04T11:35:58.590Z</time>
      </trkpt>
      <trkpt lat="44.45249" lon="1.04993">
        <ele>256.193227</ele>
        <time>2021-04-04T11:36:00.587Z</time>
      </trkpt>
      <trkpt lat="44.45257" lon="1.04976">
        <ele>256.415162</ele>
        <time>2021-04-04T11:36:02.568Z</time>
      </trkpt>
      <trkpt lat="44.45264" lon="1.0496">
        <ele>256.386671</ele>
        <time>2021-04-04T11:36:04.593Z</time>
      </trkpt>
      <trkpt lat="44.45272" lon="1.04944">
        <ele>256.354044</ele>
        <time>2021-04-04T11:36:06.582Z</time>
      </trkpt>
      <trkpt lat="44.45279" lon="1.04928">
        <ele>256.323014</ele>
        <time>2021-04-04T11:36:08.580Z</time>
      </trkpt>
      <trkpt lat="44.45286" lon="1.04914">
        <ele>256.294035</ele>
        <time>2021-04-04T11:36:10.590Z</time>
      </trkpt>
      <trkpt lat="44.45292" lon="1.04898">
        <ele>256.264348</ele>
        <time>2021-04-04T11:36:12.592Z</time>
      </trkpt>
      <trkpt lat="44.45299" lon="1.04882">
        <ele>256.232786</ele>
        <time>2021-04-04T11:36:14.584Z</time>
      </trkpt>
      <trkpt lat="44.45307" lon="1.04865">
        <ele>256.198702</ele>
        <time>2021-04-04T11:36:16.582Z</time>
      </trkpt>
      <trkpt lat="44.45312" lon="1.04846">
        <ele>256.165232</ele>
        <time>2021-04-04T11:36:18.578Z</time>
      </trkpt>
      <trkpt lat="44.4532" lon="1.04827">
        <ele>256.128674</ele>
        <time>2021-04-04T11:36:20.575Z</time>
      </trkpt>
      <trkpt lat="44.45328" lon="1.0481">
        <ele>256.094714</ele>
        <time>2021-04-04T11:36:22.586Z</time>
      </trkpt>
      <trkpt lat="44.45338" lon="1.04795">
        <ele>256.060567</ele>
        <time>2021-04-04T11:36:24.585Z</time>
      </trkpt>
      <trkpt lat="44.45347" lon="1.04781">
        <ele>256.028979</ele>
        <time>2021-04-04T11:36:26.592Z</time>
      </trkpt>
      <trkpt lat="44.45357" lon="1.04769">
        <ele>255.99787</ele>
        <time>2021-04-04T11:36:28.579Z</time>
      </trkpt>
      <trkpt lat="44.45368" lon="1.04756">
        <ele>255.933711</ele>
        <time>2021-04-04T11:36:30.584Z</time>
      </trkpt>
      <trkpt lat="44.45379" lon="1.04744">
        <ele>255.873131</ele>
        <time>2021-04-04T11:36:32.589Z</time>
      </trkpt>
      <trkpt lat="44.45388" lon="1.04737">
        <ele>255.826091</ele>
        <time>2021-04-04T11:36:34.578Z</time>
      </trkpt>
      <trkpt lat="44.45401" lon="1.04729">
        <ele>255.761753</ele>
        <time>2021-04-04T11:36:36.576Z</time>
      </trkpt>
      <trkpt lat="44.45414" lon="1.04718">
        <ele>255.695663</ele>
        <time>2021-04-04T11:36:38.582Z</time>
      </trkpt>
      <trkpt lat="44.45426" lon="1.04708">
        <ele>255.632659</ele>
        <time>2021-04-04T11:36:40.589Z</time>
      </trkpt>
      <trkpt lat="44.45438" lon="1.04698">
        <ele>255.571425</ele>
        <time>2021-04-04T11:36:42.585Z</time>
      </trkpt>
      <trkpt lat="44.45451" lon="1.04687">
        <ele>255.503169</ele>
        <time>2021-04-04T11:36:44.579Z</time>
      </trkpt>
      <trkpt lat="44.45465" lon="1.0468">
        <ele>255.43733</ele>
        <time>2021-04-04T11:36:46.585Z</time>
      </trkpt>
      <trkpt lat="44.4548" lon="1.04682">
        <ele>255.368418</ele>
        <time>2021-04-04T11:36:48.568Z</time>
      </trkpt>
      <trkpt lat="44.45489" lon="1.04686">
        <ele>255.326049</ele>
        <time>2021-04-04T11:36:49.582Z</time>
      </trkpt>
      <trkpt lat="44.45501" lon="1.04693">
        <ele>255.268574</ele>
        <time>2021-04-04T11:36:51.568Z</time>
      </trkpt>
      <trkpt lat="44.45514" lon="1.04702">
        <ele>255.205302</ele>
        <time>2021-04-04T11:36:53.580Z</time>
      </trkpt>
      <trkpt lat="44.45529" lon="1.0471">
        <ele>254.774465</ele>
        <time>2021-04-04T11:36:55.581Z</time>
      </trkpt>
      <trkpt lat="44.45542" lon="1.04719">
        <ele>254.352012</ele>
        <time>2021-04-04T11:36:57.575Z</time>
      </trkpt>
      <trkpt lat="44.45555" lon="1.04729">
        <ele>253.928503</ele>
        <time>2021-04-04T11:36:59.573Z</time>
      </trkpt>
      <trkpt lat="44.45561" lon="1.04747">
        <ele>253.52027</ele>
        <time>2021-04-04T11:37:01.566Z</time>
      </trkpt>
      <trkpt lat="44.45563" lon="1.04764">
        <ele>253.162364</ele>
        <time>2021-04-04T11:37:03.570Z</time>
      </trkpt>
      <trkpt lat="44.4556" lon="1.04777">
        <ele>252.869952</ele>
        <time>2021-04-04T11:37:04.579Z</time>
      </trkpt>
      <trkpt lat="44.45555" lon="1.04801">
        <ele>252.353704</ele>
        <time>2021-04-04T11:37:06.570Z</time>
      </trkpt>
      <trkpt lat="44.45552" lon="1.04813">
        <ele>252.079684</ele>
        <time>2021-04-04T11:37:07.579Z</time>
      </trkpt>
      <trkpt lat="44.45547" lon="1.04838">
        <ele>251.546041</ele>
        <time>2021-04-04T11:37:09.573Z</time>
      </trkpt>
      <trkpt lat="44.45543" lon="1.04863">
        <ele>251.017223</ele>
        <time>2021-04-04T11:37:11.583Z</time>
      </trkpt>
      <trkpt lat="44.45542" lon="1.04875">
        <ele>250.748509</ele>
        <time>2021-04-04T11:37:12.583Z</time>
      </trkpt>
      <trkpt lat="44.45541" lon="1.04889">
        <ele>250.468558</ele>
        <time>2021-04-04T11:37:13.573Z</time>
      </trkpt>
      <trkpt lat="44.45542" lon="1.04902">
        <ele>250.202461</ele>
        <time>2021-04-04T11:37:14.571Z</time>
      </trkpt>
      <trkpt lat="44.45545" lon="1.04914">
        <ele>249.937806</ele>
        <time>2021-04-04T11:37:15.595Z</time>
      </trkpt>
      <trkpt lat="44.45547" lon="1.04928">
        <ele>249.733131</ele>
        <time>2021-04-04T11:37:16.582Z</time>
      </trkpt>
      <trkpt lat="44.45551" lon="1.04941">
        <ele>249.524333</ele>
        <time>2021-04-04T11:37:17.589Z</time>
      </trkpt>
      <trkpt lat="44.45554" lon="1.04955">
        <ele>249.314482</ele>
        <time>2021-04-04T11:37:18.569Z</time>
      </trkpt>
      <trkpt lat="44.45557" lon="1.04968">
        <ele>249.100382</ele>
        <time>2021-04-04T11:37:19.578Z</time>
      </trkpt>
      <trkpt lat="44.4556" lon="1.04983">
        <ele>248.875586</ele>
        <time>2021-04-04T11:37:20.579Z</time>
      </trkpt>
      <trkpt lat="44.45563" lon="1.04996">
        <ele>248.677356</ele>
        <time>2021-04-04T11:37:21.581Z</time>
      </trkpt>
      <trkpt lat="44.45566" lon="1.0501">
        <ele>248.460749</ele>
        <time>2021-04-04T11:37:22.582Z</time>
      </trkpt>
      <trkpt lat="44.45567" lon="1.05024">
        <ele>248.249588</ele>
        <time>2021-04-04T11:37:23.575Z</time>
      </trkpt>
      <trkpt lat="44.45568" lon="1.05039">
        <ele>248.030108</ele>
        <time>2021-04-04T11:37:24.577Z</time>
      </trkpt>
      <trkpt lat="44.45568" lon="1.05054">
        <ele>247.807192</ele>
        <time>2021-04-04T11:37:25.583Z</time>
      </trkpt>
      <trkpt lat="44.45568" lon="1.05069">
        <ele>247.597434</ele>
        <time>2021-04-04T11:37:26.573Z</time>
      </trkpt>
      <trkpt lat="44.45566" lon="1.05084">
        <ele>247.369564</ele>
        <time>2021-04-04T11:37:27.579Z</time>
      </trkpt>
      <trkpt lat="44.45564" lon="1.05097">
        <ele>247.172478</ele>
        <time>2021-04-04T11:37:28.568Z</time>
      </trkpt>
      <trkpt lat="44.4556" lon="1.05111">
        <ele>246.952464</ele>
        <time>2021-04-04T11:37:29.576Z</time>
      </trkpt>
      <trkpt lat="44.45556" lon="1.05124">
        <ele>246.740806</ele>
        <time>2021-04-04T11:37:30.578Z</time>
      </trkpt>
      <trkpt lat="44.45552" lon="1.05138">
        <ele>246.517521</ele>
        <time>2021-04-04T11:37:31.569Z</time>
      </trkpt>
      <trkpt lat="44.45548" lon="1.05152">
        <ele>246.295348</ele>
        <time>2021-04-04T11:37:32.576Z</time>
      </trkpt>
      <trkpt lat="44.45543" lon="1.05166">
        <ele>246.221427</ele>
        <time>2021-04-04T11:37:33.588Z</time>
      </trkpt>
      <trkpt lat="44.45538" lon="1.0518">
        <ele>246.178001</ele>
        <time>2021-04-04T11:37:34.581Z</time>
      </trkpt>
      <trkpt lat="44.45533" lon="1.05193">
        <ele>246.133558</ele>
        <time>2021-04-04T11:37:35.579Z</time>
      </trkpt>
      <trkpt lat="44.45526" lon="1.05205">
        <ele>246.088684</ele>
        <time>2021-04-04T11:37:36.578Z</time>
      </trkpt>
      <trkpt lat="44.45518" lon="1.05216">
        <ele>246.04085</ele>
        <time>2021-04-04T11:37:37.584Z</time>
      </trkpt>
      <trkpt lat="44.45508" lon="1.05224">
        <ele>245.996545</ele>
        <time>2021-04-04T11:37:38.576Z</time>
      </trkpt>
      <trkpt lat="44.45497" lon="1.05227">
        <ele>245.951457</ele>
        <time>2021-04-04T11:37:39.575Z</time>
      </trkpt>
      <trkpt lat="44.45487" lon="1.05226">
        <ele>245.907308</ele>
        <time>2021-04-04T11:37:40.574Z</time>
      </trkpt>
      <trkpt lat="44.45476" lon="1.05226">
        <ele>245.863625</ele>
        <time>2021-04-04T11:37:41.571Z</time>
      </trkpt>
      <trkpt lat="44.45466" lon="1.05228">
        <ele>245.821854</ele>
        <time>2021-04-04T11:37:42.576Z</time>
      </trkpt>
      <trkpt lat="44.45458" lon="1.05238">
        <ele>245.779417</ele>
        <time>2021-04-04T11:37:43.573Z</time>
      </trkpt>
      <trkpt lat="44.45452" lon="1.0525">
        <ele>245.737052</ele>
        <time>2021-04-04T11:37:44.570Z</time>
      </trkpt>
      <trkpt lat="44.45449" lon="1.05264">
        <ele>245.694786</ele>
        <time>2021-04-04T11:37:45.566Z</time>
      </trkpt>
      <trkpt lat="44.4545" lon="1.05278">
        <ele>245.652382</ele>
        <time>2021-04-04T11:37:46.593Z</time>
      </trkpt>
      <trkpt lat="44.45452" lon="1.05291">
        <ele>245.614708</ele>
        <time>2021-04-04T11:37:47.573Z</time>
      </trkpt>
      <trkpt lat="44.45456" lon="1.05313">
        <ele>245.546396</ele>
        <time>2021-04-04T11:37:49.583Z</time>
      </trkpt>
      <trkpt lat="44.45471" lon="1.05324">
        <ele>245.773692</ele>
        <time>2021-04-04T11:37:51.571Z</time>
      </trkpt>
      <trkpt lat="44.4548" lon="1.05336">
        <ele>246.039417</ele>
        <time>2021-04-04T11:37:53.572Z</time>
      </trkpt>
      <trkpt lat="44.45493" lon="1.05345">
        <ele>246.363152</ele>
        <time>2021-04-04T11:37:55.582Z</time>
      </trkpt>
      <trkpt lat="44.45506" lon="1.0535">
        <ele>246.645346</ele>
        <time>2021-04-04T11:37:57.577Z</time>
      </trkpt>
      <trkpt lat="44.45518" lon="1.05353">
        <ele>246.913731</ele>
        <time>2021-04-04T11:37:59.570Z</time>
      </trkpt>
      <trkpt lat="44.45533" lon="1.05351">
        <ele>247.236725</ele>
        <time>2021-04-04T11:38:01.572Z</time>
      </trkpt>
      <trkpt lat="44.45545" lon="1.05351">
        <ele>247.500112</ele>
        <time>2021-04-04T11:38:03.581Z</time>
      </trkpt>
      <trkpt lat="44.45557" lon="1.05353">
        <ele>247.755468</ele>
        <time>2021-04-04T11:38:05.591Z</time>
      </trkpt>
      <trkpt lat="44.45567" lon="1.05353">
        <ele>247.990553</ele>
        <time>2021-04-04T11:38:07.585Z</time>
      </trkpt>
      <trkpt lat="44.45579" lon="1.05352">
        <ele>248.234364</ele>
        <time>2021-04-04T11:38:09.575Z</time>
      </trkpt>
      <trkpt lat="44.4559" lon="1.05351">
        <ele>248.483751</ele>
        <time>2021-04-04T11:38:11.587Z</time>
      </trkpt>
      <trkpt lat="44.45603" lon="1.05352">
        <ele>248.775765</ele>
        <time>2021-04-04T11:38:14.583Z</time>
      </trkpt>
      <trkpt lat="44.45613" lon="1.05355">
        <ele>248.995158</ele>
        <time>2021-04-04T11:38:17.579Z</time>
      </trkpt>
      <trkpt lat="44.45623" lon="1.05354">
        <ele>249.204405</ele>
        <time>2021-04-04T11:38:19.571Z</time>
      </trkpt>
      <trkpt lat="44.45634" lon="1.05356">
        <ele>249.443864</ele>
        <time>2021-04-04T11:38:22.585Z</time>
      </trkpt>
      <trkpt lat="44.45643" lon="1.05354">
        <ele>249.550374</ele>
        <time>2021-04-04T11:38:24.582Z</time>
      </trkpt>
      <trkpt lat="44.45652" lon="1.05351">
        <ele>249.649704</ele>
        <time>2021-04-04T11:38:26.590Z</time>
      </trkpt>
      <trkpt lat="44.45662" lon="1.05349">
        <ele>249.754243</ele>
        <time>2021-04-04T11:38:28.593Z</time>
      </trkpt>
      <trkpt lat="44.45671" lon="1.05347">
        <ele>249.860023</ele>
        <time>2021-04-04T11:38:30.592Z</time>
      </trkpt>
      <trkpt lat="44.45686" lon="1.05341">
        <ele>250.03156</ele>
        <time>2021-04-04T11:38:33.588Z</time>
      </trkpt>
      <trkpt lat="44.45695" lon="1.05338">
        <ele>250.135432</ele>
        <time>2021-04-04T11:38:35.583Z</time>
      </trkpt>
      <trkpt lat="44.45704" lon="1.05333">
        <ele>250.242001</ele>
        <time>2021-04-04T11:38:37.577Z</time>
      </trkpt>
      <trkpt lat="44.45713" lon="1.05329">
        <ele>250.347356</ele>
        <time>2021-04-04T11:38:39.573Z</time>
      </trkpt>
      <trkpt lat="44.45724" lon="1.05325">
        <ele>250.465883</ele>
        <time>2021-04-04T11:38:42.598Z</time>
      </trkpt>
      <trkpt lat="44.45733" lon="1.0532">
        <ele>250.578618</ele>
        <time>2021-04-04T11:38:44.587Z</time>
      </trkpt>
      <trkpt lat="44.45742" lon="1.05314">
        <ele>250.682731</ele>
        <time>2021-04-04T11:38:46.583Z</time>
      </trkpt>
      <trkpt lat="44.45751" lon="1.05309">
        <ele>250.791819</ele>
        <time>2021-04-04T11:38:48.574Z</time>
      </trkpt>
      <trkpt lat="44.45763" lon="1.05304">
        <ele>250.927068</ele>
        <time>2021-04-04T11:38:51.593Z</time>
      </trkpt>
      <trkpt lat="44.45775" lon="1.05299">
        <ele>251.06465</ele>
        <time>2021-04-04T11:38:54.591Z</time>
      </trkpt>
      <trkpt lat="44.45788" lon="1.05296">
        <ele>251.207273</ele>
        <time>2021-04-04T11:38:57.580Z</time>
      </trkpt>
      <trkpt lat="44.45801" lon="1.05292">
        <ele>251.353448</ele>
        <time>2021-04-04T11:39:00.587Z</time>
      </trkpt>
      <trkpt lat="44.45813" lon="1.05288">
        <ele>251.590069</ele>
        <time>2021-04-04T11:39:03.592Z</time>
      </trkpt>
      <trkpt lat="44.45826" lon="1.05286">
        <ele>251.891247</ele>
        <time>2021-04-04T11:39:06.588Z</time>
      </trkpt>
      <trkpt lat="44.45837" lon="1.05285">
        <ele>252.16977</ele>
        <time>2021-04-04T11:39:09.585Z</time>
      </trkpt>
      <trkpt lat="44.45849" lon="1.05283">
        <ele>252.45732</ele>
        <time>2021-04-04T11:39:12.588Z</time>
      </trkpt>
      <trkpt lat="44.45859" lon="1.05277">
        <ele>252.732403</ele>
        <time>2021-04-04T11:39:15.587Z</time>
      </trkpt>
      <trkpt lat="44.45867" lon="1.05262">
        <ele>253.040647</ele>
        <time>2021-04-04T11:39:18.573Z</time>
      </trkpt>
      <trkpt lat="44.45874" lon="1.05247">
        <ele>253.356351</ele>
        <time>2021-04-04T11:39:21.578Z</time>
      </trkpt>
      <trkpt lat="44.45877" lon="1.05233">
        <ele>253.613223</ele>
        <time>2021-04-04T11:39:24.589Z</time>
      </trkpt>
      <trkpt lat="44.45881" lon="1.05221">
        <ele>253.83918</ele>
        <time>2021-04-04T11:39:26.584Z</time>
      </trkpt>
      <trkpt lat="44.45887" lon="1.05205">
        <ele>254.144026</ele>
        <time>2021-04-04T11:39:29.579Z</time>
      </trkpt>
      <trkpt lat="44.45891" lon="1.05191">
        <ele>254.420567</ele>
        <time>2021-04-04T11:39:32.584Z</time>
      </trkpt>
      <trkpt lat="44.45896" lon="1.05176">
        <ele>254.705558</ele>
        <time>2021-04-04T11:39:35.580Z</time>
      </trkpt>
      <trkpt lat="44.45902" lon="1.0516">
        <ele>255.016927</ele>
        <time>2021-04-04T11:39:38.574Z</time>
      </trkpt>
      <trkpt lat="44.4591" lon="1.05147">
        <ele>255.322843</ele>
        <time>2021-04-04T11:39:41.573Z</time>
      </trkpt>
      <trkpt lat="44.45922" lon="1.05141">
        <ele>255.634098</ele>
        <time>2021-04-04T11:39:44.571Z</time>
      </trkpt>
      <trkpt lat="44.45935" lon="1.05146">
        <ele>255.77116</ele>
        <time>2021-04-04T11:39:47.569Z</time>
      </trkpt>
      <trkpt lat="44.45945" lon="1.05158">
        <ele>255.709339</ele>
        <time>2021-04-04T11:39:50.595Z</time>
      </trkpt>
      <trkpt lat="44.45951" lon="1.05168">
        <ele>255.667159</ele>
        <time>2021-04-04T11:39:52.570Z</time>
      </trkpt>
      <trkpt lat="44.45957" lon="1.0518">
        <ele>255.618674</ele>
        <time>2021-04-04T11:39:54.591Z</time>
      </trkpt>
      <trkpt lat="44.45963" lon="1.0519">
        <ele>255.571538</ele>
        <time>2021-04-04T11:39:56.594Z</time>
      </trkpt>
      <trkpt lat="44.45972" lon="1.05202">
        <ele>255.516957</ele>
        <time>2021-04-04T11:39:58.589Z</time>
      </trkpt>
      <trkpt lat="44.45982" lon="1.05212">
        <ele>255.459686</ele>
        <time>2021-04-04T11:40:00.591Z</time>
      </trkpt>
      <trkpt lat="44.45992" lon="1.05227">
        <ele>255.392875</ele>
        <time>2021-04-04T11:40:02.582Z</time>
      </trkpt>
      <trkpt lat="44.46002" lon="1.05239">
        <ele>255.331319</ele>
        <time>2021-04-04T11:40:04.589Z</time>
      </trkpt>
      <trkpt lat="44.46014" lon="1.05252">
        <ele>255.262281</ele>
        <time>2021-04-04T11:40:06.587Z</time>
      </trkpt>
      <trkpt lat="44.46025" lon="1.05267">
        <ele>255.192312</ele>
        <time>2021-04-04T11:40:08.586Z</time>
      </trkpt>
      <trkpt lat="44.46034" lon="1.05282">
        <ele>255.12548</ele>
        <time>2021-04-04T11:40:10.585Z</time>
      </trkpt>
      <trkpt lat="44.46044" lon="1.05298">
        <ele>255.056524</ele>
        <time>2021-04-04T11:40:12.575Z</time>
      </trkpt>
      <trkpt lat="44.46055" lon="1.05312">
        <ele>254.98828</ele>
        <time>2021-04-04T11:40:14.586Z</time>
      </trkpt>
      <trkpt lat="44.46064" lon="1.0533">
        <ele>255.383358</ele>
        <time>2021-04-04T11:40:16.591Z</time>
      </trkpt>
      <trkpt lat="44.46074" lon="1.05343">
        <ele>255.908192</ele>
        <time>2021-04-04T11:40:18.592Z</time>
      </trkpt>
      <trkpt lat="44.4608" lon="1.05361">
        <ele>256.457223</ele>
        <time>2021-04-04T11:40:20.599Z</time>
      </trkpt>
      <trkpt lat="44.46087" lon="1.05379">
        <ele>257.004888</ele>
        <time>2021-04-04T11:40:22.582Z</time>
      </trkpt>
      <trkpt lat="44.46094" lon="1.05397">
        <ele>257.549816</ele>
        <time>2021-04-04T11:40:24.581Z</time>
      </trkpt>
      <trkpt lat="44.461" lon="1.05415">
        <ele>258.098922</ele>
        <time>2021-04-04T11:40:26.584Z</time>
      </trkpt>
      <trkpt lat="44.46106" lon="1.05433">
        <ele>258.628409</ele>
        <time>2021-04-04T11:40:28.599Z</time>
      </trkpt>
      <trkpt lat="44.46112" lon="1.0545">
        <ele>259.131867</ele>
        <time>2021-04-04T11:40:30.567Z</time>
      </trkpt>
      <trkpt lat="44.46118" lon="1.05466">
        <ele>259.62424</ele>
        <time>2021-04-04T11:40:32.586Z</time>
      </trkpt>
      <trkpt lat="44.46124" lon="1.05482">
        <ele>260.101158</ele>
        <time>2021-04-04T11:40:34.583Z</time>
      </trkpt>
      <trkpt lat="44.4613" lon="1.05495">
        <ele>260.5493</ele>
        <time>2021-04-04T11:40:36.585Z</time>
      </trkpt>
      <trkpt lat="44.46136" lon="1.05511">
        <ele>261.003252</ele>
        <time>2021-04-04T11:40:38.571Z</time>
      </trkpt>
      <trkpt lat="44.46141" lon="1.05524">
        <ele>261.418906</ele>
        <time>2021-04-04T11:40:40.590Z</time>
      </trkpt>
      <trkpt lat="44.46148" lon="1.05539">
        <ele>262.003057</ele>
        <time>2021-04-04T11:40:42.581Z</time>
      </trkpt>
      <trkpt lat="44.46154" lon="1.05554">
        <ele>262.73273</ele>
        <time>2021-04-04T11:40:44.581Z</time>
      </trkpt>
      <trkpt lat="44.46161" lon="1.05567">
        <ele>263.459462</ele>
        <time>2021-04-04T11:40:46.577Z</time>
      </trkpt>
      <trkpt lat="44.46168" lon="1.05581">
        <ele>264.221758</ele>
        <time>2021-04-04T11:40:48.598Z</time>
      </trkpt>
      <trkpt lat="44.46177" lon="1.05593">
        <ele>264.972711</ele>
        <time>2021-04-04T11:40:50.584Z</time>
      </trkpt>
      <trkpt lat="44.46185" lon="1.05607">
        <ele>265.782022</ele>
        <time>2021-04-04T11:40:52.570Z</time>
      </trkpt>
      <trkpt lat="44.46194" lon="1.0562">
        <ele>266.595929</ele>
        <time>2021-04-04T11:40:54.583Z</time>
      </trkpt>
      <trkpt lat="44.46204" lon="1.05635">
        <ele>267.487743</ele>
        <time>2021-04-04T11:40:56.586Z</time>
      </trkpt>
      <trkpt lat="44.46212" lon="1.05651">
        <ele>268.36179</ele>
        <time>2021-04-04T11:40:58.591Z</time>
      </trkpt>
      <trkpt lat="44.46221" lon="1.05665">
        <ele>269.17558</ele>
        <time>2021-04-04T11:41:00.595Z</time>
      </trkpt>
      <trkpt lat="44.46228" lon="1.0568">
        <ele>269.984647</ele>
        <time>2021-04-04T11:41:02.583Z</time>
      </trkpt>
      <trkpt lat="44.46237" lon="1.05693">
        <ele>270.78258</ele>
        <time>2021-04-04T11:41:04.588Z</time>
      </trkpt>
      <trkpt lat="44.46243" lon="1.05711">
        <ele>271.651229</ele>
        <time>2021-04-04T11:41:06.577Z</time>
      </trkpt>
      <trkpt lat="44.4625" lon="1.05729">
        <ele>272.545181</ele>
        <time>2021-04-04T11:41:08.574Z</time>
      </trkpt>
      <trkpt lat="44.46256" lon="1.05748">
        <ele>273.093328</ele>
        <time>2021-04-04T11:41:10.588Z</time>
      </trkpt>
      <trkpt lat="44.4626" lon="1.05766">
        <ele>273.393932</ele>
        <time>2021-04-04T11:41:12.592Z</time>
      </trkpt>
      <trkpt lat="44.46264" lon="1.05784">
        <ele>273.686312</ele>
        <time>2021-04-04T11:41:14.585Z</time>
      </trkpt>
      <trkpt lat="44.46268" lon="1.05802">
        <ele>273.97391</ele>
        <time>2021-04-04T11:41:16.579Z</time>
      </trkpt>
      <trkpt lat="44.46273" lon="1.05822">
        <ele>274.291544</ele>
        <time>2021-04-04T11:41:18.585Z</time>
      </trkpt>
      <trkpt lat="44.46277" lon="1.05839">
        <ele>274.567687</ele>
        <time>2021-04-04T11:41:20.584Z</time>
      </trkpt>
      <trkpt lat="44.4628" lon="1.05854">
        <ele>274.81143</ele>
        <time>2021-04-04T11:41:22.583Z</time>
      </trkpt>
      <trkpt lat="44.46283" lon="1.0587">
        <ele>275.068504</ele>
        <time>2021-04-04T11:41:24.589Z</time>
      </trkpt>
      <trkpt lat="44.46287" lon="1.05888">
        <ele>275.359009</ele>
        <time>2021-04-04T11:41:27.576Z</time>
      </trkpt>
      <trkpt lat="44.4629" lon="1.05906">
        <ele>275.643526</ele>
        <time>2021-04-04T11:41:30.595Z</time>
      </trkpt>
      <trkpt lat="44.46293" lon="1.05922">
        <ele>275.904764</ele>
        <time>2021-04-04T11:41:33.589Z</time>
      </trkpt>
      <trkpt lat="44.46296" lon="1.0594">
        <ele>276.185262</ele>
        <time>2021-04-04T11:41:36.583Z</time>
      </trkpt>
      <trkpt lat="44.46298" lon="1.05958">
        <ele>276.457353</ele>
        <time>2021-04-04T11:41:39.571Z</time>
      </trkpt>
      <trkpt lat="44.46301" lon="1.05974">
        <ele>276.720075</ele>
        <time>2021-04-04T11:41:42.587Z</time>
      </trkpt>
      <trkpt lat="44.46304" lon="1.05991">
        <ele>276.943323</ele>
        <time>2021-04-04T11:41:45.598Z</time>
      </trkpt>
      <trkpt lat="44.46306" lon="1.06006">
        <ele>277.120854</ele>
        <time>2021-04-04T11:41:48.579Z</time>
      </trkpt>
      <trkpt lat="44.4631" lon="1.06019">
        <ele>277.286366</ele>
        <time>2021-04-04T11:41:51.584Z</time>
      </trkpt>
      <trkpt lat="44.46314" lon="1.06035">
        <ele>277.469722</ele>
        <time>2021-04-04T11:41:54.573Z</time>
      </trkpt>
      <trkpt lat="44.46317" lon="1.0605">
        <ele>277.652888</ele>
        <time>2021-04-04T11:41:57.584Z</time>
      </trkpt>
      <trkpt lat="44.4632" lon="1.06063">
        <ele>277.817991</ele>
        <time>2021-04-04T11:42:00.574Z</time>
      </trkpt>
      <trkpt lat="44.46322" lon="1.06079">
        <ele>278.003434</ele>
        <time>2021-04-04T11:42:03.588Z</time>
      </trkpt>
      <trkpt lat="44.46325" lon="1.06095">
        <ele>278.199566</ele>
        <time>2021-04-04T11:42:06.590Z</time>
      </trkpt>
      <trkpt lat="44.46328" lon="1.06111">
        <ele>278.389233</ele>
        <time>2021-04-04T11:42:09.587Z</time>
      </trkpt>
      <trkpt lat="44.46331" lon="1.06127">
        <ele>278.583767</ele>
        <time>2021-04-04T11:42:12.586Z</time>
      </trkpt>
      <trkpt lat="44.46333" lon="1.06143">
        <ele>278.772456</ele>
        <time>2021-04-04T11:42:15.599Z</time>
      </trkpt>
      <trkpt lat="44.46337" lon="1.06159">
        <ele>278.957841</ele>
        <time>2021-04-04T11:42:18.588Z</time>
      </trkpt>
      <trkpt lat="44.4634" lon="1.06174">
        <ele>279.146559</ele>
        <time>2021-04-04T11:42:21.579Z</time>
      </trkpt>
      <trkpt lat="44.46343" lon="1.0619">
        <ele>279.331235</ele>
        <time>2021-04-04T11:42:24.594Z</time>
      </trkpt>
      <trkpt lat="44.46345" lon="1.06206">
        <ele>279.521579</ele>
        <time>2021-04-04T11:42:27.583Z</time>
      </trkpt>
      <trkpt lat="44.46349" lon="1.06221">
        <ele>279.712751</ele>
        <time>2021-04-04T11:42:30.581Z</time>
      </trkpt>
      <trkpt lat="44.46352" lon="1.06237">
        <ele>279.972663</ele>
        <time>2021-04-04T11:42:33.577Z</time>
      </trkpt>
      <trkpt lat="44.46355" lon="1.06253">
        <ele>280.233063</ele>
        <time>2021-04-04T11:42:36.580Z</time>
      </trkpt>
      <trkpt lat="44.46356" lon="1.06269">
        <ele>280.503611</ele>
        <time>2021-04-04T11:42:39.569Z</time>
      </trkpt>
      <trkpt lat="44.46357" lon="1.06286">
        <ele>280.770742</ele>
        <time>2021-04-04T11:42:42.588Z</time>
      </trkpt>
      <trkpt lat="44.46355" lon="1.06302">
        <ele>281.034441</ele>
        <time>2021-04-04T11:42:45.589Z</time>
      </trkpt>
      <trkpt lat="44.46353" lon="1.06319">
        <ele>281.299089</ele>
        <time>2021-04-04T11:42:48.584Z</time>
      </trkpt>
      <trkpt lat="44.46349" lon="1.06335">
        <ele>281.570331</ele>
        <time>2021-04-04T11:42:51.578Z</time>
      </trkpt>
      <trkpt lat="44.46345" lon="1.06351">
        <ele>281.846797</ele>
        <time>2021-04-04T11:42:54.592Z</time>
      </trkpt>
      <trkpt lat="44.46341" lon="1.06367">
        <ele>282.115822</ele>
        <time>2021-04-04T11:42:57.585Z</time>
      </trkpt>
      <trkpt lat="44.46337" lon="1.06384">
        <ele>282.404316</ele>
        <time>2021-04-04T11:43:00.575Z</time>
      </trkpt>
      <trkpt lat="44.46334" lon="1.06396">
        <ele>282.609301</ele>
        <time>2021-04-04T11:43:02.589Z</time>
      </trkpt>
      <trkpt lat="44.46331" lon="1.06415">
        <ele>282.911199</ele>
        <time>2021-04-04T11:43:05.591Z</time>
      </trkpt>
      <trkpt lat="44.46331" lon="1.06427">
        <ele>283.112753</ele>
        <time>2021-04-04T11:43:07.573Z</time>
      </trkpt>
      <trkpt lat="44.46329" lon="1.0644">
        <ele>283.318658</ele>
        <time>2021-04-04T11:43:09.570Z</time>
      </trkpt>
      <trkpt lat="44.46329" lon="1.06453">
        <ele>283.525594</ele>
        <time>2021-04-04T11:43:11.586Z</time>
      </trkpt>
      <trkpt lat="44.46328" lon="1.06466">
        <ele>283.733969</ele>
        <time>2021-04-04T11:43:13.595Z</time>
      </trkpt>
      <trkpt lat="44.46329" lon="1.06484">
        <ele>283.909499</ele>
        <time>2021-04-04T11:43:16.585Z</time>
      </trkpt>
      <trkpt lat="44.4633" lon="1.06498">
        <ele>284.041137</ele>
        <time>2021-04-04T11:43:18.589Z</time>
      </trkpt>
      <trkpt lat="44.46334" lon="1.06516">
        <ele>284.22292</ele>
        <time>2021-04-04T11:43:21.598Z</time>
      </trkpt>
      <trkpt lat="44.46339" lon="1.06534">
        <ele>284.398405</ele>
        <time>2021-04-04T11:43:24.574Z</time>
      </trkpt>
      <trkpt lat="44.46342" lon="1.06546">
        <ele>284.52345</ele>
        <time>2021-04-04T11:43:26.590Z</time>
      </trkpt>
      <trkpt lat="44.4635" lon="1.0656">
        <ele>284.697265</ele>
        <time>2021-04-04T11:43:29.592Z</time>
      </trkpt>
      <trkpt lat="44.46355" lon="1.06575">
        <ele>284.849101</ele>
        <time>2021-04-04T11:43:31.581Z</time>
      </trkpt>
      <trkpt lat="44.46358" lon="1.06588">
        <ele>284.984445</ele>
        <time>2021-04-04T11:43:33.587Z</time>
      </trkpt>
      <trkpt lat="44.46362" lon="1.06601">
        <ele>285.117425</ele>
        <time>2021-04-04T11:43:35.601Z</time>
      </trkpt>
      <trkpt lat="44.46367" lon="1.06614">
        <ele>285.256796</ele>
        <time>2021-04-04T11:43:37.585Z</time>
      </trkpt>
      <trkpt lat="44.46372" lon="1.06628">
        <ele>285.405493</ele>
        <time>2021-04-04T11:43:39.595Z</time>
      </trkpt>
      <trkpt lat="44.46377" lon="1.06641">
        <ele>285.544466</ele>
        <time>2021-04-04T11:43:41.603Z</time>
      </trkpt>
      <trkpt lat="44.46381" lon="1.06656">
        <ele>285.699868</ele>
        <time>2021-04-04T11:43:43.582Z</time>
      </trkpt>
      <trkpt lat="44.46385" lon="1.06671">
        <ele>285.845849</ele>
        <time>2021-04-04T11:43:45.579Z</time>
      </trkpt>
      <trkpt lat="44.46389" lon="1.06686">
        <ele>285.998355</ele>
        <time>2021-04-04T11:43:47.592Z</time>
      </trkpt>
      <trkpt lat="44.46394" lon="1.067">
        <ele>286.123563</ele>
        <time>2021-04-04T11:43:49.590Z</time>
      </trkpt>
      <trkpt lat="44.46399" lon="1.06716">
        <ele>286.080817</ele>
        <time>2021-04-04T11:43:51.585Z</time>
      </trkpt>
      <trkpt lat="44.46404" lon="1.06731">
        <ele>286.036564</ele>
        <time>2021-04-04T11:43:53.590Z</time>
      </trkpt>
      <trkpt lat="44.46409" lon="1.06746">
        <ele>285.995887</ele>
        <time>2021-04-04T11:43:55.571Z</time>
      </trkpt>
      <trkpt lat="44.46414" lon="1.06761">
        <ele>285.953092</ele>
        <time>2021-04-04T11:43:57.595Z</time>
      </trkpt>
      <trkpt lat="44.46419" lon="1.06778">
        <ele>285.907801</ele>
        <time>2021-04-04T11:43:59.588Z</time>
      </trkpt>
      <trkpt lat="44.46423" lon="1.06791">
        <ele>285.870644</ele>
        <time>2021-04-04T11:44:01.588Z</time>
      </trkpt>
      <trkpt lat="44.46428" lon="1.06807">
        <ele>285.827306</ele>
        <time>2021-04-04T11:44:03.580Z</time>
      </trkpt>
      <trkpt lat="44.46433" lon="1.06824">
        <ele>285.779806</ele>
        <time>2021-04-04T11:44:05.587Z</time>
      </trkpt>
      <trkpt lat="44.46438" lon="1.0684">
        <ele>285.735724</ele>
        <time>2021-04-04T11:44:07.591Z</time>
      </trkpt>
      <trkpt lat="44.46443" lon="1.06857">
        <ele>285.689039</ele>
        <time>2021-04-04T11:44:09.588Z</time>
      </trkpt>
      <trkpt lat="44.46448" lon="1.06874">
        <ele>285.642496</ele>
        <time>2021-04-04T11:44:11.592Z</time>
      </trkpt>
      <trkpt lat="44.46454" lon="1.06892">
        <ele>285.592912</ele>
        <time>2021-04-04T11:44:13.584Z</time>
      </trkpt>
      <trkpt lat="44.4646" lon="1.06908">
        <ele>285.545936</ele>
        <time>2021-04-04T11:44:15.583Z</time>
      </trkpt>
      <trkpt lat="44.46466" lon="1.06924">
        <ele>285.499797</ele>
        <time>2021-04-04T11:44:17.588Z</time>
      </trkpt>
      <trkpt lat="44.46471" lon="1.06941">
        <ele>285.391156</ele>
        <time>2021-04-04T11:44:19.579Z</time>
      </trkpt>
      <trkpt lat="44.46475" lon="1.06959">
        <ele>285.26409</ele>
        <time>2021-04-04T11:44:21.578Z</time>
      </trkpt>
      <trkpt lat="44.46481" lon="1.06975">
        <ele>285.142641</ele>
        <time>2021-04-04T11:44:23.585Z</time>
      </trkpt>
      <trkpt lat="44.46488" lon="1.06992">
        <ele>285.013678</ele>
        <time>2021-04-04T11:44:25.588Z</time>
      </trkpt>
      <trkpt lat="44.46494" lon="1.07011">
        <ele>284.876179</ele>
        <time>2021-04-04T11:44:27.587Z</time>
      </trkpt>
      <trkpt lat="44.46501" lon="1.07029">
        <ele>284.735075</ele>
        <time>2021-04-04T11:44:29.591Z</time>
      </trkpt>
      <trkpt lat="44.46506" lon="1.0705">
        <ele>284.588037</ele>
        <time>2021-04-04T11:44:31.582Z</time>
      </trkpt>
      <trkpt lat="44.46511" lon="1.07069">
        <ele>284.447894</ele>
        <time>2021-04-04T11:44:33.593Z</time>
      </trkpt>
      <trkpt lat="44.46516" lon="1.0709">
        <ele>284.30326</ele>
        <time>2021-04-04T11:44:35.593Z</time>
      </trkpt>
      <trkpt lat="44.46519" lon="1.0711">
        <ele>284.160229</ele>
        <time>2021-04-04T11:44:37.583Z</time>
      </trkpt>
      <trkpt lat="44.46521" lon="1.07131">
        <ele>284.017481</ele>
        <time>2021-04-04T11:44:39.589Z</time>
      </trkpt>
      <trkpt lat="44.46522" lon="1.07152">
        <ele>283.880425</ele>
        <time>2021-04-04T11:44:41.601Z</time>
      </trkpt>
      <trkpt lat="44.46525" lon="1.07171">
        <ele>283.781509</ele>
        <time>2021-04-04T11:44:43.591Z</time>
      </trkpt>
      <trkpt lat="44.46528" lon="1.07191">
        <ele>283.754123</ele>
        <time>2021-04-04T11:44:45.600Z</time>
      </trkpt>
      <trkpt lat="44.46529" lon="1.07211">
        <ele>283.725191</ele>
        <time>2021-04-04T11:44:47.589Z</time>
      </trkpt>
      <trkpt lat="44.46532" lon="1.0723">
        <ele>283.699001</ele>
        <time>2021-04-04T11:44:49.593Z</time>
      </trkpt>
      <trkpt lat="44.46533" lon="1.0725">
        <ele>283.670723</ele>
        <time>2021-04-04T11:44:51.583Z</time>
      </trkpt>
      <trkpt lat="44.46534" lon="1.0727">
        <ele>283.64307</ele>
        <time>2021-04-04T11:44:53.604Z</time>
      </trkpt>
      <trkpt lat="44.46536" lon="1.07289">
        <ele>283.616982</ele>
        <time>2021-04-04T11:44:55.574Z</time>
      </trkpt>
      <trkpt lat="44.46538" lon="1.07307">
        <ele>283.591654</ele>
        <time>2021-04-04T11:44:57.583Z</time>
      </trkpt>
      <trkpt lat="44.46539" lon="1.07326">
        <ele>283.56462</ele>
        <time>2021-04-04T11:44:59.584Z</time>
      </trkpt>
      <trkpt lat="44.46541" lon="1.07346">
        <ele>283.537429</ele>
        <time>2021-04-04T11:45:01.575Z</time>
      </trkpt>
      <trkpt lat="44.46543" lon="1.07364">
        <ele>283.511222</ele>
        <time>2021-04-04T11:45:03.595Z</time>
      </trkpt>
      <trkpt lat="44.46544" lon="1.07383">
        <ele>283.485593</ele>
        <time>2021-04-04T11:45:05.588Z</time>
      </trkpt>
      <trkpt lat="44.46547" lon="1.074">
        <ele>283.46056</ele>
        <time>2021-04-04T11:45:07.582Z</time>
      </trkpt>
      <trkpt lat="44.46549" lon="1.07419">
        <ele>283.465543</ele>
        <time>2021-04-04T11:45:09.573Z</time>
      </trkpt>
      <trkpt lat="44.4655" lon="1.07438">
        <ele>283.574399</ele>
        <time>2021-04-04T11:45:11.589Z</time>
      </trkpt>
      <trkpt lat="44.46552" lon="1.07458">
        <ele>283.68243</ele>
        <time>2021-04-04T11:45:13.577Z</time>
      </trkpt>
      <trkpt lat="44.46554" lon="1.07478">
        <ele>283.78981</ele>
        <time>2021-04-04T11:45:15.593Z</time>
      </trkpt>
      <trkpt lat="44.46557" lon="1.07496">
        <ele>283.892201</ele>
        <time>2021-04-04T11:45:17.585Z</time>
      </trkpt>
      <trkpt lat="44.46558" lon="1.07514">
        <ele>283.992369</ele>
        <time>2021-04-04T11:45:19.584Z</time>
      </trkpt>
      <trkpt lat="44.46559" lon="1.07531">
        <ele>284.085411</ele>
        <time>2021-04-04T11:45:21.584Z</time>
      </trkpt>
      <trkpt lat="44.46561" lon="1.07551">
        <ele>284.191151</ele>
        <time>2021-04-04T11:45:23.578Z</time>
      </trkpt>
      <trkpt lat="44.46563" lon="1.07568">
        <ele>284.289368</ele>
        <time>2021-04-04T11:45:25.586Z</time>
      </trkpt>
      <trkpt lat="44.46564" lon="1.07585">
        <ele>284.383102</ele>
        <time>2021-04-04T11:45:27.589Z</time>
      </trkpt>
      <trkpt lat="44.46565" lon="1.07602">
        <ele>284.473844</ele>
        <time>2021-04-04T11:45:29.576Z</time>
      </trkpt>
      <trkpt lat="44.46567" lon="1.07619">
        <ele>284.567951</ele>
        <time>2021-04-04T11:45:31.584Z</time>
      </trkpt>
      <trkpt lat="44.46567" lon="1.07634">
        <ele>284.650345</ele>
        <time>2021-04-04T11:45:33.588Z</time>
      </trkpt>
      <trkpt lat="44.46567" lon="1.07651">
        <ele>284.74312</ele>
        <time>2021-04-04T11:45:35.585Z</time>
      </trkpt>
      <trkpt lat="44.46566" lon="1.07669">
        <ele>284.87037</ele>
        <time>2021-04-04T11:45:37.582Z</time>
      </trkpt>
      <trkpt lat="44.46567" lon="1.07685">
        <ele>285.068533</ele>
        <time>2021-04-04T11:45:39.580Z</time>
      </trkpt>
      <trkpt lat="44.46566" lon="1.07703">
        <ele>285.294521</ele>
        <time>2021-04-04T11:45:41.578Z</time>
      </trkpt>
      <trkpt lat="44.46565" lon="1.0772">
        <ele>285.507964</ele>
        <time>2021-04-04T11:45:43.583Z</time>
      </trkpt>
      <trkpt lat="44.46564" lon="1.07738">
        <ele>285.730005</ele>
        <time>2021-04-04T11:45:45.593Z</time>
      </trkpt>
      <trkpt lat="44.46564" lon="1.07754">
        <ele>285.933057</ele>
        <time>2021-04-04T11:45:47.578Z</time>
      </trkpt>
      <trkpt lat="44.46564" lon="1.07772">
        <ele>286.160073</ele>
        <time>2021-04-04T11:45:49.591Z</time>
      </trkpt>
      <trkpt lat="44.46563" lon="1.07789">
        <ele>286.367427</ele>
        <time>2021-04-04T11:45:51.584Z</time>
      </trkpt>
      <trkpt lat="44.46561" lon="1.07808">
        <ele>286.60201</ele>
        <time>2021-04-04T11:45:53.590Z</time>
      </trkpt>
      <trkpt lat="44.46561" lon="1.07825">
        <ele>286.813758</ele>
        <time>2021-04-04T11:45:55.581Z</time>
      </trkpt>
      <trkpt lat="44.46561" lon="1.07844">
        <ele>287.052957</ele>
        <time>2021-04-04T11:45:57.588Z</time>
      </trkpt>
      <trkpt lat="44.4656" lon="1.07861">
        <ele>287.263568</ele>
        <time>2021-04-04T11:45:59.588Z</time>
      </trkpt>
      <trkpt lat="44.4656" lon="1.07879">
        <ele>287.490584</ele>
        <time>2021-04-04T11:46:01.577Z</time>
      </trkpt>
      <trkpt lat="44.4656" lon="1.07896">
        <ele>287.707314</ele>
        <time>2021-04-04T11:46:03.580Z</time>
      </trkpt>
      <trkpt lat="44.46559" lon="1.07914">
        <ele>287.926639</ele>
        <time>2021-04-04T11:46:05.595Z</time>
      </trkpt>
      <trkpt lat="44.46559" lon="1.0793">
        <ele>288.17259</ele>
        <time>2021-04-04T11:46:07.596Z</time>
      </trkpt>
      <trkpt lat="44.46558" lon="1.07947">
        <ele>288.428535</ele>
        <time>2021-04-04T11:46:09.575Z</time>
      </trkpt>
      <trkpt lat="44.46557" lon="1.07961">
        <ele>288.651941</ele>
        <time>2021-04-04T11:46:11.576Z</time>
      </trkpt>
      <trkpt lat="44.46557" lon="1.07974">
        <ele>288.856533</ele>
        <time>2021-04-04T11:46:13.587Z</time>
      </trkpt>
      <trkpt lat="44.46556" lon="1.07989">
        <ele>289.093757</ele>
        <time>2021-04-04T11:46:15.589Z</time>
      </trkpt>
      <trkpt lat="44.46555" lon="1.08003">
        <ele>289.306451</ele>
        <time>2021-04-04T11:46:17.592Z</time>
      </trkpt>
      <trkpt lat="44.46556" lon="1.08017">
        <ele>289.515747</ele>
        <time>2021-04-04T11:46:19.583Z</time>
      </trkpt>
      <trkpt lat="44.46554" lon="1.08031">
        <ele>289.746509</ele>
        <time>2021-04-04T11:46:21.583Z</time>
      </trkpt>
      <trkpt lat="44.46554" lon="1.08045">
        <ele>289.960452</ele>
        <time>2021-04-04T11:46:23.586Z</time>
      </trkpt>
      <trkpt lat="44.46555" lon="1.08063">
        <ele>290.233397</ele>
        <time>2021-04-04T11:46:26.583Z</time>
      </trkpt>
      <trkpt lat="44.46554" lon="1.0808">
        <ele>290.502188</ele>
        <time>2021-04-04T11:46:29.590Z</time>
      </trkpt>
      <trkpt lat="44.46553" lon="1.08098">
        <ele>290.775228</ele>
        <time>2021-04-04T11:46:32.587Z</time>
      </trkpt>
      <trkpt lat="44.46554" lon="1.08115">
        <ele>291.052496</ele>
        <time>2021-04-04T11:46:35.580Z</time>
      </trkpt>
      <trkpt lat="44.46553" lon="1.08134">
        <ele>291.342807</ele>
        <time>2021-04-04T11:46:38.576Z</time>
      </trkpt>
      <trkpt lat="44.46553" lon="1.08152">
        <ele>291.615544</ele>
        <time>2021-04-04T11:46:41.589Z</time>
      </trkpt>
      <trkpt lat="44.46552" lon="1.08169">
        <ele>291.893172</ele>
        <time>2021-04-04T11:46:44.573Z</time>
      </trkpt>
      <trkpt lat="44.46552" lon="1.08187">
        <ele>292.2699</ele>
        <time>2021-04-04T11:46:47.585Z</time>
      </trkpt>
      <trkpt lat="44.46551" lon="1.08204">
        <ele>292.630273</ele>
        <time>2021-04-04T11:46:50.596Z</time>
      </trkpt>
      <trkpt lat="44.4655" lon="1.08222">
        <ele>292.99526</ele>
        <time>2021-04-04T11:46:53.584Z</time>
      </trkpt>
      <trkpt lat="44.46551" lon="1.08239">
        <ele>293.361593</ele>
        <time>2021-04-04T11:46:56.577Z</time>
      </trkpt>
      <trkpt lat="44.46551" lon="1.08256">
        <ele>293.717699</ele>
        <time>2021-04-04T11:46:59.584Z</time>
      </trkpt>
      <trkpt lat="44.46552" lon="1.08275">
        <ele>294.099706</ele>
        <time>2021-04-04T11:47:02.593Z</time>
      </trkpt>
      <trkpt lat="44.46552" lon="1.08292">
        <ele>294.45989</ele>
        <time>2021-04-04T11:47:05.584Z</time>
      </trkpt>
      <trkpt lat="44.46555" lon="1.08309">
        <ele>294.82207</ele>
        <time>2021-04-04T11:47:08.588Z</time>
      </trkpt>
      <trkpt lat="44.46558" lon="1.08327">
        <ele>295.210186</ele>
        <time>2021-04-04T11:47:11.578Z</time>
      </trkpt>
      <trkpt lat="44.46564" lon="1.08344">
        <ele>295.605691</ele>
        <time>2021-04-04T11:47:14.580Z</time>
      </trkpt>
      <trkpt lat="44.46572" lon="1.08358">
        <ele>295.983874</ele>
        <time>2021-04-04T11:47:17.593Z</time>
      </trkpt>
      <trkpt lat="44.46579" lon="1.0837">
        <ele>296.304618</ele>
        <time>2021-04-04T11:47:19.590Z</time>
      </trkpt>
      <trkpt lat="44.46586" lon="1.08383">
        <ele>296.64009</ele>
        <time>2021-04-04T11:47:21.582Z</time>
      </trkpt>
      <trkpt lat="44.46594" lon="1.08396">
        <ele>297.000849</ele>
        <time>2021-04-04T11:47:23.579Z</time>
      </trkpt>
      <trkpt lat="44.46602" lon="1.0841">
        <ele>297.030988</ele>
        <time>2021-04-04T11:47:25.612Z</time>
      </trkpt>
      <trkpt lat="44.4661" lon="1.08423">
        <ele>296.929424</ele>
        <time>2021-04-04T11:47:27.590Z</time>
      </trkpt>
      <trkpt lat="44.46618" lon="1.08438">
        <ele>296.820079</ele>
        <time>2021-04-04T11:47:29.594Z</time>
      </trkpt>
      <trkpt lat="44.46627" lon="1.08452">
        <ele>296.710751</ele>
        <time>2021-04-04T11:47:31.585Z</time>
      </trkpt>
      <trkpt lat="44.46634" lon="1.08466">
        <ele>296.609059</ele>
        <time>2021-04-04T11:47:33.575Z</time>
      </trkpt>
      <trkpt lat="44.46642" lon="1.08481">
        <ele>296.499238</ele>
        <time>2021-04-04T11:47:35.585Z</time>
      </trkpt>
      <trkpt lat="44.46649" lon="1.08496">
        <ele>296.392771</ele>
        <time>2021-04-04T11:47:37.582Z</time>
      </trkpt>
      <trkpt lat="44.46657" lon="1.08512">
        <ele>296.277231</ele>
        <time>2021-04-04T11:47:39.579Z</time>
      </trkpt>
      <trkpt lat="44.46667" lon="1.08526">
        <ele>296.161367</ele>
        <time>2021-04-04T11:47:41.590Z</time>
      </trkpt>
      <trkpt lat="44.46675" lon="1.08542">
        <ele>296.048608</ele>
        <time>2021-04-04T11:47:43.586Z</time>
      </trkpt>
      <trkpt lat="44.46685" lon="1.08557">
        <ele>295.932155</ele>
        <time>2021-04-04T11:47:45.587Z</time>
      </trkpt>
      <trkpt lat="44.46693" lon="1.08572">
        <ele>295.815522</ele>
        <time>2021-04-04T11:47:47.574Z</time>
      </trkpt>
      <trkpt lat="44.46702" lon="1.08586">
        <ele>295.709144</ele>
        <time>2021-04-04T11:47:49.580Z</time>
      </trkpt>
      <trkpt lat="44.46711" lon="1.08602">
        <ele>294.865964</ele>
        <time>2021-04-04T11:47:51.592Z</time>
      </trkpt>
      <trkpt lat="44.46721" lon="1.08617">
        <ele>292.641804</ele>
        <time>2021-04-04T11:47:53.597Z</time>
      </trkpt>
      <trkpt lat="44.46731" lon="1.08634">
        <ele>290.308872</ele>
        <time>2021-04-04T11:47:55.583Z</time>
      </trkpt>
      <trkpt lat="44.4674" lon="1.08651">
        <ele>288.03742</ele>
        <time>2021-04-04T11:47:57.592Z</time>
      </trkpt>
      <trkpt lat="44.4675" lon="1.08667">
        <ele>285.693194</ele>
        <time>2021-04-04T11:47:59.584Z</time>
      </trkpt>
      <trkpt lat="44.4676" lon="1.08684">
        <ele>283.319215</ele>
        <time>2021-04-04T11:48:01.581Z</time>
      </trkpt>
      <trkpt lat="44.46771" lon="1.08702">
        <ele>280.762442</ele>
        <time>2021-04-04T11:48:03.579Z</time>
      </trkpt>
      <trkpt lat="44.46781" lon="1.08718">
        <ele>278.402571</ele>
        <time>2021-04-04T11:48:05.579Z</time>
      </trkpt>
      <trkpt lat="44.46792" lon="1.08733">
        <ele>276.062483</ele>
        <time>2021-04-04T11:48:07.595Z</time>
      </trkpt>
      <trkpt lat="44.46804" lon="1.08745">
        <ele>273.808872</ele>
        <time>2021-04-04T11:48:09.575Z</time>
      </trkpt>
      <trkpt lat="44.46816" lon="1.08758">
        <ele>271.561125</ele>
        <time>2021-04-04T11:48:11.574Z</time>
      </trkpt>
      <trkpt lat="44.46828" lon="1.08769">
        <ele>269.313466</ele>
        <time>2021-04-04T11:48:13.585Z</time>
      </trkpt>
      <trkpt lat="44.4684" lon="1.08781">
        <ele>268.895844</ele>
        <time>2021-04-04T11:48:15.610Z</time>
      </trkpt>
      <trkpt lat="44.46853" lon="1.08792">
        <ele>270.121005</ele>
        <time>2021-04-04T11:48:17.577Z</time>
      </trkpt>
      <trkpt lat="44.46867" lon="1.08803">
        <ele>271.398346</ele>
        <time>2021-04-04T11:48:19.578Z</time>
      </trkpt>
      <trkpt lat="44.46882" lon="1.08816">
        <ele>272.825571</ele>
        <time>2021-04-04T11:48:21.597Z</time>
      </trkpt>
      <trkpt lat="44.46898" lon="1.08827">
        <ele>274.260588</ele>
        <time>2021-04-04T11:48:23.584Z</time>
      </trkpt>
      <trkpt lat="44.46915" lon="1.08834">
        <ele>275.685924</ele>
        <time>2021-04-04T11:48:25.600Z</time>
      </trkpt>
      <trkpt lat="44.46924" lon="1.08835">
        <ele>276.415174</ele>
        <time>2021-04-04T11:48:26.582Z</time>
      </trkpt>
      <trkpt lat="44.46933" lon="1.08832">
        <ele>277.151041</ele>
        <time>2021-04-04T11:48:27.572Z</time>
      </trkpt>
      <trkpt lat="44.46941" lon="1.08825">
        <ele>277.942136</ele>
        <time>2021-04-04T11:48:28.573Z</time>
      </trkpt>
      <trkpt lat="44.4695" lon="1.08819">
        <ele>278.712421</ele>
        <time>2021-04-04T11:48:29.572Z</time>
      </trkpt>
      <trkpt lat="44.46955" lon="1.08806">
        <ele>279.536894</ele>
        <time>2021-04-04T11:48:30.568Z</time>
      </trkpt>
      <trkpt lat="44.46959" lon="1.08793">
        <ele>280.381272</ele>
        <time>2021-04-04T11:48:31.571Z</time>
      </trkpt>
      <trkpt lat="44.46961" lon="1.08779">
        <ele>281.175544</ele>
        <time>2021-04-04T11:48:32.567Z</time>
      </trkpt>
      <trkpt lat="44.4696" lon="1.08765">
        <ele>281.982099</ele>
        <time>2021-04-04T11:48:33.570Z</time>
      </trkpt>
      <trkpt lat="44.46957" lon="1.08752">
        <ele>282.76323</ele>
        <time>2021-04-04T11:48:34.573Z</time>
      </trkpt>
      <trkpt lat="44.46954" lon="1.08738">
        <ele>282.488603</ele>
        <time>2021-04-04T11:48:35.566Z</time>
      </trkpt>
      <trkpt lat="44.46952" lon="1.08723">
        <ele>282.207907</ele>
        <time>2021-04-04T11:48:36.577Z</time>
      </trkpt>
      <trkpt lat="44.4695" lon="1.08709">
        <ele>281.926189</ele>
        <time>2021-04-04T11:48:37.580Z</time>
      </trkpt>
      <trkpt lat="44.46948" lon="1.08693">
        <ele>281.637491</ele>
        <time>2021-04-04T11:48:38.583Z</time>
      </trkpt>
      <trkpt lat="44.46947" lon="1.08678">
        <ele>281.35108</ele>
        <time>2021-04-04T11:48:39.588Z</time>
      </trkpt>
      <trkpt lat="44.46949" lon="1.08665">
        <ele>281.099727</ele>
        <time>2021-04-04T11:48:40.575Z</time>
      </trkpt>
      <trkpt lat="44.46952" lon="1.08651">
        <ele>280.810214</ele>
        <time>2021-04-04T11:48:41.579Z</time>
      </trkpt>
      <trkpt lat="44.46957" lon="1.08637">
        <ele>280.519544</ele>
        <time>2021-04-04T11:48:42.575Z</time>
      </trkpt>
      <trkpt lat="44.46964" lon="1.08624">
        <ele>280.214</ele>
        <time>2021-04-04T11:48:43.574Z</time>
      </trkpt>
      <trkpt lat="44.4697" lon="1.08611">
        <ele>279.919097</ele>
        <time>2021-04-04T11:48:44.577Z</time>
      </trkpt>
      <trkpt lat="44.46979" lon="1.08599">
        <ele>279.597567</ele>
        <time>2021-04-04T11:48:45.573Z</time>
      </trkpt>
      <trkpt lat="44.46987" lon="1.08587">
        <ele>279.286173</ele>
        <time>2021-04-04T11:48:46.590Z</time>
      </trkpt>
      <trkpt lat="44.46995" lon="1.08575">
        <ele>278.968833</ele>
        <time>2021-04-04T11:48:47.572Z</time>
      </trkpt>
      <trkpt lat="44.47004" lon="1.08563">
        <ele>278.6553</ele>
        <time>2021-04-04T11:48:48.576Z</time>
      </trkpt>
      <trkpt lat="44.47012" lon="1.08553">
        <ele>278.362329</ele>
        <time>2021-04-04T11:48:49.590Z</time>
      </trkpt>
      <trkpt lat="44.47021" lon="1.08542">
        <ele>278.055194</ele>
        <time>2021-04-04T11:48:50.589Z</time>
      </trkpt>
      <trkpt lat="44.4703" lon="1.08532">
        <ele>277.446137</ele>
        <time>2021-04-04T11:48:51.578Z</time>
      </trkpt>
      <trkpt lat="44.4704" lon="1.08522">
        <ele>276.799643</ele>
        <time>2021-04-04T11:48:52.583Z</time>
      </trkpt>
      <trkpt lat="44.4705" lon="1.08513">
        <ele>276.166379</ele>
        <time>2021-04-04T11:48:53.577Z</time>
      </trkpt>
      <trkpt lat="44.47059" lon="1.08505">
        <ele>275.571296</ele>
        <time>2021-04-04T11:48:54.581Z</time>
      </trkpt>
      <trkpt lat="44.47068" lon="1.08498">
        <ele>275.033661</ele>
        <time>2021-04-04T11:48:55.591Z</time>
      </trkpt>
      <trkpt lat="44.47075" lon="1.08481">
        <ele>274.251863</ele>
        <time>2021-04-04T11:48:57.578Z</time>
      </trkpt>
      <trkpt lat="44.47072" lon="1.08458">
        <ele>273.359584</ele>
        <time>2021-04-04T11:48:59.568Z</time>
      </trkpt>
      <trkpt lat="44.4706" lon="1.08441">
        <ele>272.430066</ele>
        <time>2021-04-04T11:49:01.572Z</time>
      </trkpt>
      <trkpt lat="44.47052" lon="1.08434">
        <ele>271.918983</ele>
        <time>2021-04-04T11:49:02.567Z</time>
      </trkpt>
      <trkpt lat="44.47043" lon="1.08427">
        <ele>271.355695</ele>
        <time>2021-04-04T11:49:03.567Z</time>
      </trkpt>
      <trkpt lat="44.47035" lon="1.0842">
        <ele>270.832991</ele>
        <time>2021-04-04T11:49:04.567Z</time>
      </trkpt>
      <trkpt lat="44.47025" lon="1.08415">
        <ele>270.285873</ele>
        <time>2021-04-04T11:49:05.583Z</time>
      </trkpt>
      <trkpt lat="44.47015" lon="1.08411">
        <ele>269.706104</ele>
        <time>2021-04-04T11:49:06.586Z</time>
      </trkpt>
      <trkpt lat="44.47004" lon="1.08408">
        <ele>269.098916</ele>
        <time>2021-04-04T11:49:07.589Z</time>
      </trkpt>
      <trkpt lat="44.46994" lon="1.08405">
        <ele>268.530339</ele>
        <time>2021-04-04T11:49:08.585Z</time>
      </trkpt>
      <trkpt lat="44.46984" lon="1.08402">
        <ele>267.970655</ele>
        <time>2021-04-04T11:49:09.588Z</time>
      </trkpt>
      <trkpt lat="44.46972" lon="1.08398">
        <ele>267.332092</ele>
        <time>2021-04-04T11:49:10.574Z</time>
      </trkpt>
      <trkpt lat="44.46961" lon="1.08396">
        <ele>266.706181</ele>
        <time>2021-04-04T11:49:11.582Z</time>
      </trkpt>
      <trkpt lat="44.46951" lon="1.08394">
        <ele>266.16117</ele>
        <time>2021-04-04T11:49:12.581Z</time>
      </trkpt>
      <trkpt lat="44.46939" lon="1.08394">
        <ele>265.516245</ele>
        <time>2021-04-04T11:49:13.589Z</time>
      </trkpt>
      <trkpt lat="44.46926" lon="1.08395">
        <ele>264.848334</ele>
        <time>2021-04-04T11:49:14.572Z</time>
      </trkpt>
      <trkpt lat="44.46915" lon="1.08397">
        <ele>264.221674</ele>
        <time>2021-04-04T11:49:15.597Z</time>
      </trkpt>
      <trkpt lat="44.46904" lon="1.08397">
        <ele>263.647193</ele>
        <time>2021-04-04T11:49:16.572Z</time>
      </trkpt>
      <trkpt lat="44.46895" lon="1.08395">
        <ele>263.112063</ele>
        <time>2021-04-04T11:49:17.579Z</time>
      </trkpt>
      <trkpt lat="44.46886" lon="1.08389">
        <ele>262.58313</ele>
        <time>2021-04-04T11:49:18.578Z</time>
      </trkpt>
      <trkpt lat="44.46879" lon="1.08381">
        <ele>262.096965</ele>
        <time>2021-04-04T11:49:19.572Z</time>
      </trkpt>
      <trkpt lat="44.46876" lon="1.08367">
        <ele>261.542765</ele>
        <time>2021-04-04T11:49:20.565Z</time>
      </trkpt>
      <trkpt lat="44.46878" lon="1.08353">
        <ele>260.993565</ele>
        <time>2021-04-04T11:49:21.580Z</time>
      </trkpt>
      <trkpt lat="44.46882" lon="1.0834">
        <ele>260.442525</ele>
        <time>2021-04-04T11:49:22.581Z</time>
      </trkpt>
      <trkpt lat="44.46887" lon="1.08329">
        <ele>259.904214</ele>
        <time>2021-04-04T11:49:23.575Z</time>
      </trkpt>
      <trkpt lat="44.46894" lon="1.0832">
        <ele>259.401205</ele>
        <time>2021-04-04T11:49:24.572Z</time>
      </trkpt>
      <trkpt lat="44.46903" lon="1.08312">
        <ele>258.848467</ele>
        <time>2021-04-04T11:49:25.573Z</time>
      </trkpt>
      <trkpt lat="44.46913" lon="1.08303">
        <ele>258.507501</ele>
        <time>2021-04-04T11:49:26.570Z</time>
      </trkpt>
      <trkpt lat="44.46923" lon="1.08293">
        <ele>258.431259</ele>
        <time>2021-04-04T11:49:27.575Z</time>
      </trkpt>
      <trkpt lat="44.46937" lon="1.08285">
        <ele>258.331249</ele>
        <time>2021-04-04T11:49:28.575Z</time>
      </trkpt>
      <trkpt lat="44.46948" lon="1.08277">
        <ele>258.256152</ele>
        <time>2021-04-04T11:49:29.580Z</time>
      </trkpt>
      <trkpt lat="44.46959" lon="1.0827">
        <ele>258.179384</ele>
        <time>2021-04-04T11:49:30.574Z</time>
      </trkpt>
      <trkpt lat="44.4697" lon="1.08263">
        <ele>258.10396</ele>
        <time>2021-04-04T11:49:31.576Z</time>
      </trkpt>
      <trkpt lat="44.46982" lon="1.08255">
        <ele>258.017981</ele>
        <time>2021-04-04T11:49:32.590Z</time>
      </trkpt>
      <trkpt lat="44.46993" lon="1.08248">
        <ele>257.941709</ele>
        <time>2021-04-04T11:49:33.583Z</time>
      </trkpt>
      <trkpt lat="44.47004" lon="1.08242">
        <ele>257.863671</ele>
        <time>2021-04-04T11:49:34.600Z</time>
      </trkpt>
      <trkpt lat="44.47015" lon="1.08236">
        <ele>257.788329</ele>
        <time>2021-04-04T11:49:35.586Z</time>
      </trkpt>
      <trkpt lat="44.47027" lon="1.08231">
        <ele>257.709726</ele>
        <time>2021-04-04T11:49:36.592Z</time>
      </trkpt>
      <trkpt lat="44.4704" lon="1.08226">
        <ele>257.624332</ele>
        <time>2021-04-04T11:49:37.585Z</time>
      </trkpt>
      <trkpt lat="44.47053" lon="1.08226">
        <ele>257.545453</ele>
        <time>2021-04-04T11:49:38.599Z</time>
      </trkpt>
      <trkpt lat="44.47065" lon="1.08226">
        <ele>257.464669</ele>
        <time>2021-04-04T11:49:39.575Z</time>
      </trkpt>
      <trkpt lat="44.47078" lon="1.08228">
        <ele>257.395483</ele>
        <time>2021-04-04T11:49:40.575Z</time>
      </trkpt>
      <trkpt lat="44.47091" lon="1.0823">
        <ele>257.354332</ele>
        <time>2021-04-04T11:49:41.594Z</time>
      </trkpt>
      <trkpt lat="44.47105" lon="1.08232">
        <ele>257.314026</ele>
        <time>2021-04-04T11:49:42.573Z</time>
      </trkpt>
      <trkpt lat="44.47117" lon="1.08234">
        <ele>257.275752</ele>
        <time>2021-04-04T11:49:43.583Z</time>
      </trkpt>
      <trkpt lat="44.47129" lon="1.08236">
        <ele>257.239185</ele>
        <time>2021-04-04T11:49:44.582Z</time>
      </trkpt>
      <trkpt lat="44.47148" lon="1.08243">
        <ele>257.177599</ele>
        <time>2021-04-04T11:49:46.579Z</time>
      </trkpt>
      <trkpt lat="44.47162" lon="1.08247">
        <ele>257.135107</ele>
        <time>2021-04-04T11:49:47.589Z</time>
      </trkpt>
      <trkpt lat="44.47173" lon="1.08253">
        <ele>257.097681</ele>
        <time>2021-04-04T11:49:48.585Z</time>
      </trkpt>
      <trkpt lat="44.47185" lon="1.0826">
        <ele>257.059201</ele>
        <time>2021-04-04T11:49:49.577Z</time>
      </trkpt>
      <trkpt lat="44.47197" lon="1.08268">
        <ele>257.017215</ele>
        <time>2021-04-04T11:49:50.572Z</time>
      </trkpt>
      <trkpt lat="44.47209" lon="1.08276">
        <ele>256.977446</ele>
        <time>2021-04-04T11:49:51.583Z</time>
      </trkpt>
      <trkpt lat="44.47219" lon="1.08285">
        <ele>256.939807</ele>
        <time>2021-04-04T11:49:52.576Z</time>
      </trkpt>
      <trkpt lat="44.47229" lon="1.08297">
        <ele>256.901651</ele>
        <time>2021-04-04T11:49:53.576Z</time>
      </trkpt>
      <trkpt lat="44.4724" lon="1.08309">
        <ele>256.856333</ele>
        <time>2021-04-04T11:49:54.576Z</time>
      </trkpt>
      <trkpt lat="44.47252" lon="1.08322">
        <ele>256.436691</ele>
        <time>2021-04-04T11:49:55.575Z</time>
      </trkpt>
      <trkpt lat="44.47263" lon="1.08336">
        <ele>256.017522</ele>
        <time>2021-04-04T11:49:56.569Z</time>
      </trkpt>
      <trkpt lat="44.47273" lon="1.0835">
        <ele>255.613934</ele>
        <time>2021-04-04T11:49:57.581Z</time>
      </trkpt>
      <trkpt lat="44.47282" lon="1.08367">
        <ele>255.203003</ele>
        <time>2021-04-04T11:49:58.577Z</time>
      </trkpt>
      <trkpt lat="44.4729" lon="1.08383">
        <ele>254.800156</ele>
        <time>2021-04-04T11:49:59.580Z</time>
      </trkpt>
      <trkpt lat="44.47296" lon="1.084">
        <ele>254.413998</ele>
        <time>2021-04-04T11:50:00.569Z</time>
      </trkpt>
      <trkpt lat="44.47303" lon="1.08416">
        <ele>254.038883</ele>
        <time>2021-04-04T11:50:01.590Z</time>
      </trkpt>
      <trkpt lat="44.47309" lon="1.08433">
        <ele>253.656091</ele>
        <time>2021-04-04T11:50:02.574Z</time>
      </trkpt>
      <trkpt lat="44.47317" lon="1.08446">
        <ele>253.304378</ele>
        <time>2021-04-04T11:50:03.580Z</time>
      </trkpt>
      <trkpt lat="44.47323" lon="1.08462">
        <ele>252.946243</ele>
        <time>2021-04-04T11:50:04.581Z</time>
      </trkpt>
      <trkpt lat="44.47329" lon="1.08478">
        <ele>252.577855</ele>
        <time>2021-04-04T11:50:05.583Z</time>
      </trkpt>
      <trkpt lat="44.47335" lon="1.08495">
        <ele>252.205879</ele>
        <time>2021-04-04T11:50:06.589Z</time>
      </trkpt>
      <trkpt lat="44.47342" lon="1.08511">
        <ele>251.827962</ele>
        <time>2021-04-04T11:50:07.592Z</time>
      </trkpt>
      <trkpt lat="44.47349" lon="1.08526">
        <ele>251.319529</ele>
        <time>2021-04-04T11:50:08.577Z</time>
      </trkpt>
      <trkpt lat="44.47359" lon="1.08538">
        <ele>250.779287</ele>
        <time>2021-04-04T11:50:09.596Z</time>
      </trkpt>
      <trkpt lat="44.47369" lon="1.0855">
        <ele>250.266183</ele>
        <time>2021-04-04T11:50:10.569Z</time>
      </trkpt>
      <trkpt lat="44.47379" lon="1.08561">
        <ele>249.75059</ele>
        <time>2021-04-04T11:50:11.567Z</time>
      </trkpt>
      <trkpt lat="44.47389" lon="1.08573">
        <ele>249.220431</ele>
        <time>2021-04-04T11:50:12.574Z</time>
      </trkpt>
      <trkpt lat="44.474" lon="1.08583">
        <ele>248.687258</ele>
        <time>2021-04-04T11:50:13.583Z</time>
      </trkpt>
      <trkpt lat="44.47413" lon="1.08591">
        <ele>248.13488</ele>
        <time>2021-04-04T11:50:14.567Z</time>
      </trkpt>
      <trkpt lat="44.47425" lon="1.08598">
        <ele>247.620342</ele>
        <time>2021-04-04T11:50:15.594Z</time>
      </trkpt>
      <trkpt lat="44.47436" lon="1.08606">
        <ele>247.096011</ele>
        <time>2021-04-04T11:50:16.570Z</time>
      </trkpt>
      <trkpt lat="44.47447" lon="1.08615">
        <ele>246.583362</ele>
        <time>2021-04-04T11:50:17.580Z</time>
      </trkpt>
      <trkpt lat="44.47459" lon="1.08622">
        <ele>246.078223</ele>
        <time>2021-04-04T11:50:18.584Z</time>
      </trkpt>
      <trkpt lat="44.4747" lon="1.0863">
        <ele>245.553735</ele>
        <time>2021-04-04T11:50:19.590Z</time>
      </trkpt>
      <trkpt lat="44.47482" lon="1.08637">
        <ele>245.043936</ele>
        <time>2021-04-04T11:50:20.576Z</time>
      </trkpt>
      <trkpt lat="44.47493" lon="1.08644">
        <ele>244.568116</ele>
        <time>2021-04-04T11:50:21.596Z</time>
      </trkpt>
      <trkpt lat="44.47504" lon="1.08652">
        <ele>244.242949</ele>
        <time>2021-04-04T11:50:22.589Z</time>
      </trkpt>
      <trkpt lat="44.47517" lon="1.08656">
        <ele>243.904204</ele>
        <time>2021-04-04T11:50:23.575Z</time>
      </trkpt>
      <trkpt lat="44.47527" lon="1.08662">
        <ele>243.6353</ele>
        <time>2021-04-04T11:50:24.580Z</time>
      </trkpt>
      <trkpt lat="44.47538" lon="1.08665">
        <ele>243.348503</ele>
        <time>2021-04-04T11:50:25.586Z</time>
      </trkpt>
      <trkpt lat="44.47549" lon="1.08668">
        <ele>243.083573</ele>
        <time>2021-04-04T11:50:26.577Z</time>
      </trkpt>
      <trkpt lat="44.4756" lon="1.0867">
        <ele>242.800349</ele>
        <time>2021-04-04T11:50:27.588Z</time>
      </trkpt>
      <trkpt lat="44.47571" lon="1.08669">
        <ele>242.529498</ele>
        <time>2021-04-04T11:50:28.574Z</time>
      </trkpt>
      <trkpt lat="44.47583" lon="1.0867">
        <ele>242.233293</ele>
        <time>2021-04-04T11:50:29.580Z</time>
      </trkpt>
      <trkpt lat="44.47594" lon="1.08674">
        <ele>241.954155</ele>
        <time>2021-04-04T11:50:30.582Z</time>
      </trkpt>
      <trkpt lat="44.47608" lon="1.08676">
        <ele>241.603024</ele>
        <time>2021-04-04T11:50:31.583Z</time>
      </trkpt>
      <trkpt lat="44.47619" lon="1.08683">
        <ele>241.299042</ele>
        <time>2021-04-04T11:50:32.579Z</time>
      </trkpt>
      <trkpt lat="44.47633" lon="1.08691">
        <ele>240.941496</ele>
        <time>2021-04-04T11:50:33.582Z</time>
      </trkpt>
      <trkpt lat="44.47642" lon="1.087">
        <ele>240.652534</ele>
        <time>2021-04-04T11:50:34.575Z</time>
      </trkpt>
      <trkpt lat="44.47653" lon="1.0871">
        <ele>240.341036</ele>
        <time>2021-04-04T11:50:35.573Z</time>
      </trkpt>
      <trkpt lat="44.47665" lon="1.08729">
        <ele>240.088514</ele>
        <time>2021-04-04T11:50:37.588Z</time>
      </trkpt>
      <trkpt lat="44.47676" lon="1.08739">
        <ele>240.154777</ele>
        <time>2021-04-04T11:50:38.584Z</time>
      </trkpt>
      <trkpt lat="44.47685" lon="1.08753">
        <ele>240.221183</ele>
        <time>2021-04-04T11:50:39.583Z</time>
      </trkpt>
      <trkpt lat="44.47691" lon="1.08767">
        <ele>240.282902</ele>
        <time>2021-04-04T11:50:40.579Z</time>
      </trkpt>
      <trkpt lat="44.47702" lon="1.08777">
        <ele>240.348739</ele>
        <time>2021-04-04T11:50:41.569Z</time>
      </trkpt>
      <trkpt lat="44.47711" lon="1.08792">
        <ele>240.418862</ele>
        <time>2021-04-04T11:50:42.585Z</time>
      </trkpt>
      <trkpt lat="44.47717" lon="1.08807">
        <ele>240.482626</ele>
        <time>2021-04-04T11:50:43.575Z</time>
      </trkpt>
      <trkpt lat="44.47727" lon="1.0882">
        <ele>240.551499</ele>
        <time>2021-04-04T11:50:44.588Z</time>
      </trkpt>
      <trkpt lat="44.47734" lon="1.08835">
        <ele>240.618886</ele>
        <time>2021-04-04T11:50:45.574Z</time>
      </trkpt>
      <trkpt lat="44.47741" lon="1.0885">
        <ele>240.684189</ele>
        <time>2021-04-04T11:50:46.580Z</time>
      </trkpt>
      <trkpt lat="44.47748" lon="1.08866">
        <ele>240.750995</ele>
        <time>2021-04-04T11:50:47.585Z</time>
      </trkpt>
      <trkpt lat="44.47755" lon="1.0888">
        <ele>240.815923</ele>
        <time>2021-04-04T11:50:48.588Z</time>
      </trkpt>
      <trkpt lat="44.47763" lon="1.08897">
        <ele>240.885162</ele>
        <time>2021-04-04T11:50:49.584Z</time>
      </trkpt>
      <trkpt lat="44.4777" lon="1.08913">
        <ele>240.955023</ele>
        <time>2021-04-04T11:50:50.578Z</time>
      </trkpt>
      <trkpt lat="44.47778" lon="1.08927">
        <ele>240.626031</ele>
        <time>2021-04-04T11:50:51.585Z</time>
      </trkpt>
      <trkpt lat="44.47785" lon="1.08942">
        <ele>240.145162</ele>
        <time>2021-04-04T11:50:52.590Z</time>
      </trkpt>
      <trkpt lat="44.47792" lon="1.08956">
        <ele>239.69343</ele>
        <time>2021-04-04T11:50:53.581Z</time>
      </trkpt>
      <trkpt lat="44.47798" lon="1.08973">
        <ele>239.210047</ele>
        <time>2021-04-04T11:50:54.580Z</time>
      </trkpt>
      <trkpt lat="44.47805" lon="1.08989">
        <ele>238.721053</ele>
        <time>2021-04-04T11:50:55.578Z</time>
      </trkpt>
      <trkpt lat="44.4781" lon="1.09006">
        <ele>238.232139</ele>
        <time>2021-04-04T11:50:56.578Z</time>
      </trkpt>
      <trkpt lat="44.47815" lon="1.09024">
        <ele>237.728377</ele>
        <time>2021-04-04T11:50:57.592Z</time>
      </trkpt>
      <trkpt lat="44.4782" lon="1.09042">
        <ele>237.221852</ele>
        <time>2021-04-04T11:50:58.581Z</time>
      </trkpt>
      <trkpt lat="44.47824" lon="1.09061">
        <ele>236.707097</ele>
        <time>2021-04-04T11:50:59.587Z</time>
      </trkpt>
      <trkpt lat="44.47829" lon="1.0908">
        <ele>236.187682</ele>
        <time>2021-04-04T11:51:00.576Z</time>
      </trkpt>
      <trkpt lat="44.47834" lon="1.09096">
        <ele>235.715307</ele>
        <time>2021-04-04T11:51:01.592Z</time>
      </trkpt>
      <trkpt lat="44.47837" lon="1.09115">
        <ele>235.221685</ele>
        <time>2021-04-04T11:51:02.586Z</time>
      </trkpt>
      <trkpt lat="44.47842" lon="1.09133">
        <ele>234.710821</ele>
        <time>2021-04-04T11:51:03.574Z</time>
      </trkpt>
      <trkpt lat="44.47847" lon="1.09151">
        <ele>233.672438</ele>
        <time>2021-04-04T11:51:04.592Z</time>
      </trkpt>
      <trkpt lat="44.47852" lon="1.09168">
        <ele>231.668665</ele>
        <time>2021-04-04T11:51:05.582Z</time>
      </trkpt>
      <trkpt lat="44.47856" lon="1.09184">
        <ele>229.778869</ele>
        <time>2021-04-04T11:51:06.583Z</time>
      </trkpt>
      <trkpt lat="44.4786" lon="1.09199">
        <ele>227.946711</ele>
        <time>2021-04-04T11:51:07.596Z</time>
      </trkpt>
      <trkpt lat="44.47864" lon="1.09215">
        <ele>226.150873</ele>
        <time>2021-04-04T11:51:08.585Z</time>
      </trkpt>
      <trkpt lat="44.47867" lon="1.0923">
        <ele>224.395295</ele>
        <time>2021-04-04T11:51:09.582Z</time>
      </trkpt>
      <trkpt lat="44.4787" lon="1.09245">
        <ele>222.707828</ele>
        <time>2021-04-04T11:51:10.582Z</time>
      </trkpt>
      <trkpt lat="44.47874" lon="1.09258">
        <ele>221.103717</ele>
        <time>2021-04-04T11:51:11.590Z</time>
      </trkpt>
      <trkpt lat="44.47877" lon="1.09271">
        <ele>219.670316</ele>
        <time>2021-04-04T11:51:12.575Z</time>
      </trkpt>
      <trkpt lat="44.47881" lon="1.09291">
        <ele>217.289898</ele>
        <time>2021-04-04T11:51:14.588Z</time>
      </trkpt>
      <trkpt lat="44.4788" lon="1.09306">
        <ele>215.622673</ele>
        <time>2021-04-04T11:51:16.573Z</time>
      </trkpt>
      <trkpt lat="44.47869" lon="1.09321">
        <ele>213.338972</ele>
        <time>2021-04-04T11:51:19.572Z</time>
      </trkpt>
      <trkpt lat="44.47858" lon="1.09333">
        <ele>211.147942</ele>
        <time>2021-04-04T11:51:21.574Z</time>
      </trkpt>
      <trkpt lat="44.47846" lon="1.09345">
        <ele>208.898569</ele>
        <time>2021-04-04T11:51:23.590Z</time>
      </trkpt>
      <trkpt lat="44.47835" lon="1.09358">
        <ele>206.692235</ele>
        <time>2021-04-04T11:51:25.583Z</time>
      </trkpt>
      <trkpt lat="44.47825" lon="1.0937">
        <ele>206.472028</ele>
        <time>2021-04-04T11:51:27.597Z</time>
      </trkpt>
      <trkpt lat="44.47815" lon="1.09382">
        <ele>206.343947</ele>
        <time>2021-04-04T11:51:29.592Z</time>
      </trkpt>
      <trkpt lat="44.47806" lon="1.09393">
        <ele>206.223094</ele>
        <time>2021-04-04T11:51:31.589Z</time>
      </trkpt>
      <trkpt lat="44.47796" lon="1.09404">
        <ele>206.097366</ele>
        <time>2021-04-04T11:51:33.585Z</time>
      </trkpt>
      <trkpt lat="44.47786" lon="1.09413">
        <ele>205.975059</ele>
        <time>2021-04-04T11:51:35.590Z</time>
      </trkpt>
      <trkpt lat="44.47776" lon="1.09425">
        <ele>205.841124</ele>
        <time>2021-04-04T11:51:37.585Z</time>
      </trkpt>
      <trkpt lat="44.47765" lon="1.09436">
        <ele>205.703574</ele>
        <time>2021-04-04T11:51:39.587Z</time>
      </trkpt>
      <trkpt lat="44.47754" lon="1.09445">
        <ele>205.576261</ele>
        <time>2021-04-04T11:51:41.580Z</time>
      </trkpt>
      <trkpt lat="44.47743" lon="1.09456">
        <ele>205.444853</ele>
        <time>2021-04-04T11:51:43.585Z</time>
      </trkpt>
      <trkpt lat="44.47733" lon="1.09466">
        <ele>205.321311</ele>
        <time>2021-04-04T11:51:45.589Z</time>
      </trkpt>
      <trkpt lat="44.47723" lon="1.09476">
        <ele>205.193543</ele>
        <time>2021-04-04T11:51:47.585Z</time>
      </trkpt>
      <trkpt lat="44.47711" lon="1.09485">
        <ele>205.061774</ele>
        <time>2021-04-04T11:51:49.582Z</time>
      </trkpt>
      <trkpt lat="44.47698" lon="1.09492">
        <ele>204.921046</ele>
        <time>2021-04-04T11:51:51.572Z</time>
      </trkpt>
      <trkpt lat="44.47686" lon="1.09492">
        <ele>204.795336</ele>
        <time>2021-04-04T11:51:53.572Z</time>
      </trkpt>
      <trkpt lat="44.47675" lon="1.0949">
        <ele>205.686269</ele>
        <time>2021-04-04T11:51:55.572Z</time>
      </trkpt>
      <trkpt lat="44.47665" lon="1.09488">
        <ele>206.634951</ele>
        <time>2021-04-04T11:51:57.584Z</time>
      </trkpt>
      <trkpt lat="44.47655" lon="1.09485">
        <ele>207.49569</ele>
        <time>2021-04-04T11:51:59.588Z</time>
      </trkpt>
      <trkpt lat="44.47646" lon="1.09481">
        <ele>208.319685</ele>
        <time>2021-04-04T11:52:01.587Z</time>
      </trkpt>
      <trkpt lat="44.47635" lon="1.0948">
        <ele>209.221973</ele>
        <time>2021-04-04T11:52:03.579Z</time>
      </trkpt>
      <trkpt lat="44.47627" lon="1.09477">
        <ele>210.009819</ele>
        <time>2021-04-04T11:52:05.584Z</time>
      </trkpt>
      <trkpt lat="44.47616" lon="1.09476">
        <ele>210.941266</ele>
        <time>2021-04-04T11:52:07.580Z</time>
      </trkpt>
      <trkpt lat="44.47603" lon="1.09472">
        <ele>212.072781</ele>
        <time>2021-04-04T11:52:10.587Z</time>
      </trkpt>
      <trkpt lat="44.4759" lon="1.0947">
        <ele>213.207516</ele>
        <time>2021-04-04T11:52:13.582Z</time>
      </trkpt>
      <trkpt lat="44.47579" lon="1.09467">
        <ele>214.240352</ele>
        <time>2021-04-04T11:52:16.577Z</time>
      </trkpt>
      <trkpt lat="44.47567" lon="1.09465">
        <ele>215.261104</ele>
        <time>2021-04-04T11:52:19.581Z</time>
      </trkpt>
      <trkpt lat="44.47555" lon="1.09464">
        <ele>216.283608</ele>
        <time>2021-04-04T11:52:22.566Z</time>
      </trkpt>
      <trkpt lat="44.47543" lon="1.09461">
        <ele>217.315382</ele>
        <time>2021-04-04T11:52:25.588Z</time>
      </trkpt>
      <trkpt lat="44.47532" lon="1.09456">
        <ele>218.385216</ele>
        <time>2021-04-04T11:52:28.584Z</time>
      </trkpt>
      <trkpt lat="44.4752" lon="1.09451">
        <ele>219.404577</ele>
        <time>2021-04-04T11:52:31.573Z</time>
      </trkpt>
      <trkpt lat="44.47509" lon="1.09447">
        <ele>220.459779</ele>
        <time>2021-04-04T11:52:34.575Z</time>
      </trkpt>
      <trkpt lat="44.47496" lon="1.09442">
        <ele>221.206691</ele>
        <time>2021-04-04T11:52:37.568Z</time>
      </trkpt>
      <trkpt lat="44.47483" lon="1.0944">
        <ele>221.987506</ele>
        <time>2021-04-04T11:52:40.579Z</time>
      </trkpt>
      <trkpt lat="44.47473" lon="1.09442">
        <ele>222.539055</ele>
        <time>2021-04-04T11:52:42.570Z</time>
      </trkpt>
      <trkpt lat="44.47463" lon="1.09454">
        <ele>223.311609</ele>
        <time>2021-04-04T11:52:44.573Z</time>
      </trkpt>
      <trkpt lat="44.47456" lon="1.09464">
        <ele>223.895205</ele>
        <time>2021-04-04T11:52:46.579Z</time>
      </trkpt>
      <trkpt lat="44.4745" lon="1.09474">
        <ele>224.419633</ele>
        <time>2021-04-04T11:52:48.577Z</time>
      </trkpt>
      <trkpt lat="44.47444" lon="1.09486">
        <ele>225.038168</ele>
        <time>2021-04-04T11:52:50.588Z</time>
      </trkpt>
      <trkpt lat="44.47438" lon="1.09499">
        <ele>225.677538</ele>
        <time>2021-04-04T11:52:52.588Z</time>
      </trkpt>
      <trkpt lat="44.47433" lon="1.09511">
        <ele>226.251399</ele>
        <time>2021-04-04T11:52:54.576Z</time>
      </trkpt>
      <trkpt lat="44.47425" lon="1.09526">
        <ele>227.034837</ele>
        <time>2021-04-04T11:52:57.575Z</time>
      </trkpt>
      <trkpt lat="44.47418" lon="1.09538">
        <ele>227.685472</ele>
        <time>2021-04-04T11:52:59.597Z</time>
      </trkpt>
      <trkpt lat="44.47409" lon="1.09554">
        <ele>228.517576</ele>
        <time>2021-04-04T11:53:01.588Z</time>
      </trkpt>
      <trkpt lat="44.474" lon="1.09567">
        <ele>229.244903</ele>
        <time>2021-04-04T11:53:03.598Z</time>
      </trkpt>
      <trkpt lat="44.47393" lon="1.09577">
        <ele>229.855279</ele>
        <time>2021-04-04T11:53:05.586Z</time>
      </trkpt>
      <trkpt lat="44.47385" lon="1.09588">
        <ele>230.472925</ele>
        <time>2021-04-04T11:53:07.584Z</time>
      </trkpt>
      <trkpt lat="44.47377" lon="1.09598">
        <ele>230.797711</ele>
        <time>2021-04-04T11:53:09.583Z</time>
      </trkpt>
      <trkpt lat="44.47369" lon="1.09608">
        <ele>230.70785</ele>
        <time>2021-04-04T11:53:11.590Z</time>
      </trkpt>
      <trkpt lat="44.4736" lon="1.09617">
        <ele>230.61928</ele>
        <time>2021-04-04T11:53:13.583Z</time>
      </trkpt>
      <trkpt lat="44.47352" lon="1.09626">
        <ele>230.530943</ele>
        <time>2021-04-04T11:53:15.590Z</time>
      </trkpt>
      <trkpt lat="44.47343" lon="1.09634">
        <ele>230.450141</ele>
        <time>2021-04-04T11:53:17.575Z</time>
      </trkpt>
      <trkpt lat="44.47334" lon="1.09641">
        <ele>230.364762</ele>
        <time>2021-04-04T11:53:19.587Z</time>
      </trkpt>
      <trkpt lat="44.47323" lon="1.09651">
        <ele>230.250432</ele>
        <time>2021-04-04T11:53:22.572Z</time>
      </trkpt>
      <trkpt lat="44.47312" lon="1.09659">
        <ele>230.1541</ele>
        <time>2021-04-04T11:53:24.574Z</time>
      </trkpt>
      <trkpt lat="44.47303" lon="1.09665">
        <ele>230.072856</ele>
        <time>2021-04-04T11:53:26.579Z</time>
      </trkpt>
      <trkpt lat="44.4729" lon="1.09671">
        <ele>229.957206</ele>
        <time>2021-04-04T11:53:28.569Z</time>
      </trkpt>
      <trkpt lat="44.47281" lon="1.09675">
        <ele>229.874403</ele>
        <time>2021-04-04T11:53:30.567Z</time>
      </trkpt>
      <trkpt lat="44.47272" lon="1.09677">
        <ele>229.799298</ele>
        <time>2021-04-04T11:53:32.585Z</time>
      </trkpt>
      <trkpt lat="44.47262" lon="1.09678">
        <ele>229.717348</ele>
        <time>2021-04-04T11:53:34.592Z</time>
      </trkpt>
      <trkpt lat="44.47252" lon="1.0968">
        <ele>229.64003</ele>
        <time>2021-04-04T11:53:36.580Z</time>
      </trkpt>
      <trkpt lat="44.47243" lon="1.09681">
        <ele>229.55977</ele>
        <time>2021-04-04T11:53:38.583Z</time>
      </trkpt>
      <trkpt lat="44.47233" lon="1.09682">
        <ele>229.482022</ele>
        <time>2021-04-04T11:53:40.586Z</time>
      </trkpt>
      <trkpt lat="44.47224" lon="1.09682">
        <ele>229.402749</ele>
        <time>2021-04-04T11:53:42.570Z</time>
      </trkpt>
      <trkpt lat="44.47214" lon="1.09683">
        <ele>229.316593</ele>
        <time>2021-04-04T11:53:44.573Z</time>
      </trkpt>
      <trkpt lat="44.47201" lon="1.09683">
        <ele>229.167384</ele>
        <time>2021-04-04T11:53:47.586Z</time>
      </trkpt>
      <trkpt lat="44.47192" lon="1.09682">
        <ele>229.067734</ele>
        <time>2021-04-04T11:53:49.580Z</time>
      </trkpt>
      <trkpt lat="44.47182" lon="1.09681">
        <ele>228.960406</ele>
        <time>2021-04-04T11:53:51.585Z</time>
      </trkpt>
      <trkpt lat="44.47173" lon="1.09681">
        <ele>228.857638</ele>
        <time>2021-04-04T11:53:53.582Z</time>
      </trkpt>
      <trkpt lat="44.4716" lon="1.09679">
        <ele>228.712746</ele>
        <time>2021-04-04T11:53:56.581Z</time>
      </trkpt>
      <trkpt lat="44.47148" lon="1.0968">
        <ele>228.586529</ele>
        <time>2021-04-04T11:53:58.583Z</time>
      </trkpt>
      <trkpt lat="44.47139" lon="1.09679">
        <ele>228.48261</ele>
        <time>2021-04-04T11:54:00.580Z</time>
      </trkpt>
      <trkpt lat="44.4713" lon="1.09678">
        <ele>228.377339</ele>
        <time>2021-04-04T11:54:02.577Z</time>
      </trkpt>
      <trkpt lat="44.47119" lon="1.09678">
        <ele>228.26129</ele>
        <time>2021-04-04T11:54:04.587Z</time>
      </trkpt>
      <trkpt lat="44.4711" lon="1.09677">
        <ele>228.15919</ele>
        <time>2021-04-04T11:54:06.595Z</time>
      </trkpt>
      <trkpt lat="44.47096" lon="1.09674">
        <ele>228.001827</ele>
        <time>2021-04-04T11:54:09.578Z</time>
      </trkpt>
      <trkpt lat="44.47084" lon="1.09671">
        <ele>227.867528</ele>
        <time>2021-04-04T11:54:12.582Z</time>
      </trkpt>
      <trkpt lat="44.4707" lon="1.09671">
        <ele>227.720427</ele>
        <time>2021-04-04T11:54:15.597Z</time>
      </trkpt>
      <trkpt lat="44.47061" lon="1.09668">
        <ele>227.61702</ele>
        <time>2021-04-04T11:54:17.583Z</time>
      </trkpt>
      <trkpt lat="44.47052" lon="1.09668">
        <ele>227.51536</ele>
        <time>2021-04-04T11:54:19.577Z</time>
      </trkpt>
      <trkpt lat="44.47038" lon="1.09666">
        <ele>227.377193</ele>
        <time>2021-04-04T11:54:22.573Z</time>
      </trkpt>
      <trkpt lat="44.47029" lon="1.09664">
        <ele>227.884648</ele>
        <time>2021-04-04T11:54:24.575Z</time>
      </trkpt>
      <trkpt lat="44.47019" lon="1.09661">
        <ele>228.415572</ele>
        <time>2021-04-04T11:54:26.583Z</time>
      </trkpt>
      <trkpt lat="44.4701" lon="1.09659">
        <ele>228.897808</ele>
        <time>2021-04-04T11:54:28.584Z</time>
      </trkpt>
      <trkpt lat="44.47001" lon="1.09657">
        <ele>229.380044</ele>
        <time>2021-04-04T11:54:30.588Z</time>
      </trkpt>
      <trkpt lat="44.46988" lon="1.09655">
        <ele>230.118239</ele>
        <time>2021-04-04T11:54:33.574Z</time>
      </trkpt>
      <trkpt lat="44.46978" lon="1.09653">
        <ele>230.625164</ele>
        <time>2021-04-04T11:54:35.583Z</time>
      </trkpt>
      <trkpt lat="44.46965" lon="1.0965">
        <ele>231.336339</ele>
        <time>2021-04-04T11:54:38.588Z</time>
      </trkpt>
      <trkpt lat="44.46952" lon="1.09646">
        <ele>232.042256</ele>
        <time>2021-04-04T11:54:41.598Z</time>
      </trkpt>
      <trkpt lat="44.46939" lon="1.09643">
        <ele>232.748863</ele>
        <time>2021-04-04T11:54:44.575Z</time>
      </trkpt>
      <trkpt lat="44.46929" lon="1.09641">
        <ele>233.280919</ele>
        <time>2021-04-04T11:54:46.584Z</time>
      </trkpt>
      <trkpt lat="44.46916" lon="1.09639">
        <ele>233.974823</ele>
        <time>2021-04-04T11:54:49.588Z</time>
      </trkpt>
      <trkpt lat="44.46903" lon="1.09637">
        <ele>234.668298</ele>
        <time>2021-04-04T11:54:52.585Z</time>
      </trkpt>
      <trkpt lat="44.46894" lon="1.09637">
        <ele>235.159929</ele>
        <time>2021-04-04T11:54:54.579Z</time>
      </trkpt>
      <trkpt lat="44.46885" lon="1.09638">
        <ele>235.646695</ele>
        <time>2021-04-04T11:54:56.575Z</time>
      </trkpt>
      <trkpt lat="44.46872" lon="1.09638">
        <ele>236.336343</ele>
        <time>2021-04-04T11:54:59.584Z</time>
      </trkpt>
      <trkpt lat="44.4686" lon="1.09641">
        <ele>236.983708</ele>
        <time>2021-04-04T11:55:02.569Z</time>
      </trkpt>
      <trkpt lat="44.46848" lon="1.09644">
        <ele>237.159879</ele>
        <time>2021-04-04T11:55:05.597Z</time>
      </trkpt>
      <trkpt lat="44.46836" lon="1.09647">
        <ele>237.332625</ele>
        <time>2021-04-04T11:55:08.608Z</time>
      </trkpt>
      <trkpt lat="44.46825" lon="1.09652">
        <ele>237.510614</ele>
        <time>2021-04-04T11:55:11.566Z</time>
      </trkpt>
      <trkpt lat="44.46813" lon="1.09658">
        <ele>237.696016</ele>
        <time>2021-04-04T11:55:14.576Z</time>
      </trkpt>
      <trkpt lat="44.46801" lon="1.09663">
        <ele>237.879625</ele>
        <time>2021-04-04T11:55:17.587Z</time>
      </trkpt>
      <trkpt lat="44.46789" lon="1.0967">
        <ele>238.062023</ele>
        <time>2021-04-04T11:55:20.579Z</time>
      </trkpt>
      <trkpt lat="44.46778" lon="1.09676">
        <ele>238.237265</ele>
        <time>2021-04-04T11:55:23.578Z</time>
      </trkpt>
      <trkpt lat="44.46769" lon="1.09685">
        <ele>238.398729</ele>
        <time>2021-04-04T11:55:26.572Z</time>
      </trkpt>
      <trkpt lat="44.46761" lon="1.09696">
        <ele>238.563746</ele>
        <time>2021-04-04T11:55:29.581Z</time>
      </trkpt>
      <trkpt lat="44.46755" lon="1.09708">
        <ele>238.719026</ele>
        <time>2021-04-04T11:55:32.571Z</time>
      </trkpt>
      <trkpt lat="44.46751" lon="1.09722">
        <ele>238.874116</ele>
        <time>2021-04-04T11:55:35.591Z</time>
      </trkpt>
      <trkpt lat="44.46749" lon="1.09736">
        <ele>239.026967</ele>
        <time>2021-04-04T11:55:38.574Z</time>
      </trkpt>
      <trkpt lat="44.46746" lon="1.09751">
        <ele>239.184109</ele>
        <time>2021-04-04T11:55:41.587Z</time>
      </trkpt>
      <trkpt lat="44.46741" lon="1.09764">
        <ele>239.338468</ele>
        <time>2021-04-04T11:55:44.567Z</time>
      </trkpt>
      <trkpt lat="44.46736" lon="1.09775">
        <ele>239.474919</ele>
        <time>2021-04-04T11:55:47.578Z</time>
      </trkpt>
      <trkpt lat="44.46732" lon="1.09787">
        <ele>239.50366</ele>
        <time>2021-04-04T11:55:50.578Z</time>
      </trkpt>
      <trkpt lat="44.46726" lon="1.098">
        <ele>238.609437</ele>
        <time>2021-04-04T11:55:53.582Z</time>
      </trkpt>
      <trkpt lat="44.46722" lon="1.09812">
        <ele>237.753547</ele>
        <time>2021-04-04T11:55:56.586Z</time>
      </trkpt>
      <trkpt lat="44.46717" lon="1.09825">
        <ele>236.850313</ele>
        <time>2021-04-04T11:55:59.585Z</time>
      </trkpt>
      <trkpt lat="44.46712" lon="1.09837">
        <ele>236.037117</ele>
        <time>2021-04-04T11:56:02.589Z</time>
      </trkpt>
      <trkpt lat="44.46707" lon="1.09847">
        <ele>235.236707</ele>
        <time>2021-04-04T11:56:05.584Z</time>
      </trkpt>
      <trkpt lat="44.46701" lon="1.09859">
        <ele>234.396085</ele>
        <time>2021-04-04T11:56:08.577Z</time>
      </trkpt>
      <trkpt lat="44.46696" lon="1.09871">
        <ele>233.556286</ele>
        <time>2021-04-04T11:56:11.587Z</time>
      </trkpt>
      <trkpt lat="44.4669" lon="1.09885">
        <ele>232.508084</ele>
        <time>2021-04-04T11:56:15.591Z</time>
      </trkpt>
      <trkpt lat="44.46684" lon="1.09897">
        <ele>231.592926</ele>
        <time>2021-04-04T11:56:18.573Z</time>
      </trkpt>
      <trkpt lat="44.46679" lon="1.0991">
        <ele>230.710186</ele>
        <time>2021-04-04T11:56:21.588Z</time>
      </trkpt>
      <trkpt lat="44.46673" lon="1.09921">
        <ele>229.868579</ele>
        <time>2021-04-04T11:56:24.571Z</time>
      </trkpt>
      <trkpt lat="44.46668" lon="1.09933">
        <ele>229.016542</ele>
        <time>2021-04-04T11:56:27.589Z</time>
      </trkpt>
      <trkpt lat="44.46663" lon="1.09945">
        <ele>228.156124</ele>
        <time>2021-04-04T11:56:30.573Z</time>
      </trkpt>
      <trkpt lat="44.46656" lon="1.09956">
        <ele>227.270296</ele>
        <time>2021-04-04T11:56:33.583Z</time>
      </trkpt>
      <trkpt lat="44.46649" lon="1.09965">
        <ele>226.446094</ele>
        <time>2021-04-04T11:56:36.574Z</time>
      </trkpt>
      <trkpt lat="44.46641" lon="1.09973">
        <ele>225.564601</ele>
        <time>2021-04-04T11:56:39.585Z</time>
      </trkpt>
      <trkpt lat="44.46631" lon="1.09979">
        <ele>224.661447</ele>
        <time>2021-04-04T11:56:42.580Z</time>
      </trkpt>
      <trkpt lat="44.46622" lon="1.09983">
        <ele>224.235347</ele>
        <time>2021-04-04T11:56:45.584Z</time>
      </trkpt>
      <trkpt lat="44.46612" lon="1.09986">
        <ele>224.577252</ele>
        <time>2021-04-04T11:56:48.578Z</time>
      </trkpt>
      <trkpt lat="44.46603" lon="1.09988">
        <ele>224.904367</ele>
        <time>2021-04-04T11:56:51.584Z</time>
      </trkpt>
      <trkpt lat="44.46593" lon="1.09989">
        <ele>225.231427</ele>
        <time>2021-04-04T11:56:54.579Z</time>
      </trkpt>
      <trkpt lat="44.46583" lon="1.09989">
        <ele>225.578527</ele>
        <time>2021-04-04T11:56:57.587Z</time>
      </trkpt>
      <trkpt lat="44.46573" lon="1.0999">
        <ele>225.929363</ele>
        <time>2021-04-04T11:57:00.587Z</time>
      </trkpt>
      <trkpt lat="44.46563" lon="1.09991">
        <ele>226.270649</ele>
        <time>2021-04-04T11:57:03.577Z</time>
      </trkpt>
      <trkpt lat="44.46554" lon="1.09991">
        <ele>226.600639</ele>
        <time>2021-04-04T11:57:06.575Z</time>
      </trkpt>
      <trkpt lat="44.46544" lon="1.0999">
        <ele>226.938142</ele>
        <time>2021-04-04T11:57:09.574Z</time>
      </trkpt>
      <trkpt lat="44.46532" lon="1.09989">
        <ele>227.334439</ele>
        <time>2021-04-04T11:57:13.578Z</time>
      </trkpt>
      <trkpt lat="44.46523" lon="1.09991">
        <ele>227.647593</ele>
        <time>2021-04-04T11:57:16.584Z</time>
      </trkpt>
      <trkpt lat="44.46515" lon="1.09999">
        <ele>228.015005</ele>
        <time>2021-04-04T11:57:19.577Z</time>
      </trkpt>
      <trkpt lat="44.46511" lon="1.10015">
        <ele>228.422535</ele>
        <time>2021-04-04T11:57:22.573Z</time>
      </trkpt>
      <trkpt lat="44.46516" lon="1.1003">
        <ele>228.821604</ele>
        <time>2021-04-04T11:57:25.569Z</time>
      </trkpt>
      <trkpt lat="44.46523" lon="1.10042">
        <ele>229.196401</ele>
        <time>2021-04-04T11:57:28.568Z</time>
      </trkpt>
      <trkpt lat="44.46531" lon="1.1005">
        <ele>229.538695</ele>
        <time>2021-04-04T11:57:31.583Z</time>
      </trkpt>
      <trkpt lat="44.46539" lon="1.10057">
        <ele>229.873626</ele>
        <time>2021-04-04T11:57:34.586Z</time>
      </trkpt>
      <trkpt lat="44.46547" lon="1.10065">
        <ele>230.194495</ele>
        <time>2021-04-04T11:57:37.581Z</time>
      </trkpt>
      <trkpt lat="44.46555" lon="1.10074">
        <ele>230.358825</ele>
        <time>2021-04-04T11:57:40.592Z</time>
      </trkpt>
      <trkpt lat="44.46563" lon="1.10083">
        <ele>230.441658</ele>
        <time>2021-04-04T11:57:43.572Z</time>
      </trkpt>
      <trkpt lat="44.4657" lon="1.10092">
        <ele>230.524191</ele>
        <time>2021-04-04T11:57:46.567Z</time>
      </trkpt>
      <trkpt lat="44.46577" lon="1.101">
        <ele>230.599407</ele>
        <time>2021-04-04T11:57:49.587Z</time>
      </trkpt>
      <trkpt lat="44.46585" lon="1.10111">
        <ele>230.689976</ele>
        <time>2021-04-04T11:57:53.591Z</time>
      </trkpt>
      <trkpt lat="44.46596" lon="1.10119">
        <ele>230.78968</ele>
        <time>2021-04-04T11:57:57.593Z</time>
      </trkpt>
      <trkpt lat="44.46605" lon="1.10125">
        <ele>230.871964</ele>
        <time>2021-04-04T11:58:00.589Z</time>
      </trkpt>
      <trkpt lat="44.46614" lon="1.10132">
        <ele>230.957262</ele>
        <time>2021-04-04T11:58:03.574Z</time>
      </trkpt>
      <trkpt lat="44.46623" lon="1.10141">
        <ele>231.046047</ele>
        <time>2021-04-04T11:58:06.579Z</time>
      </trkpt>
      <trkpt lat="44.46628" lon="1.10153">
        <ele>231.12965</ele>
        <time>2021-04-04T11:58:09.568Z</time>
      </trkpt>
      <trkpt lat="44.46627" lon="1.10167">
        <ele>231.21144</ele>
        <time>2021-04-04T11:58:12.578Z</time>
      </trkpt>
      <trkpt lat="44.4662" lon="1.10178">
        <ele>231.294937</ele>
        <time>2021-04-04T11:58:15.570Z</time>
      </trkpt>
      <trkpt lat="44.46612" lon="1.10186">
        <ele>231.377316</ele>
        <time>2021-04-04T11:58:18.590Z</time>
      </trkpt>
      <trkpt lat="44.46605" lon="1.10196">
        <ele>231.459063</ele>
        <time>2021-04-04T11:58:21.589Z</time>
      </trkpt>
      <trkpt lat="44.466" lon="1.10209">
        <ele>231.545311</ele>
        <time>2021-04-04T11:58:24.574Z</time>
      </trkpt>
      <trkpt lat="44.46597" lon="1.10221">
        <ele>231.62123</ele>
        <time>2021-04-04T11:58:27.588Z</time>
      </trkpt>
      <trkpt lat="44.46594" lon="1.10233">
        <ele>231.698807</ele>
        <time>2021-04-04T11:58:30.585Z</time>
      </trkpt>
      <trkpt lat="44.46589" lon="1.10245">
        <ele>231.779968</ele>
        <time>2021-04-04T11:58:33.572Z</time>
      </trkpt>
      <trkpt lat="44.46583" lon="1.10258">
        <ele>231.984244</ele>
        <time>2021-04-04T11:58:36.590Z</time>
      </trkpt>
      <trkpt lat="44.46577" lon="1.10269">
        <ele>232.181917</ele>
        <time>2021-04-04T11:58:39.589Z</time>
      </trkpt>
      <trkpt lat="44.46571" lon="1.10281">
        <ele>232.373935</ele>
        <time>2021-04-04T11:58:42.590Z</time>
      </trkpt>
      <trkpt lat="44.46565" lon="1.10293">
        <ele>232.571543</ele>
        <time>2021-04-04T11:58:45.594Z</time>
      </trkpt>
      <trkpt lat="44.4656" lon="1.10304">
        <ele>232.754801</ele>
        <time>2021-04-04T11:58:48.585Z</time>
      </trkpt>
      <trkpt lat="44.46554" lon="1.10315">
        <ele>232.941244</ele>
        <time>2021-04-04T11:58:51.580Z</time>
      </trkpt>
      <trkpt lat="44.46548" lon="1.10326">
        <ele>233.132305</ele>
        <time>2021-04-04T11:58:54.590Z</time>
      </trkpt>
      <trkpt lat="44.46542" lon="1.10338">
        <ele>233.339119</ele>
        <time>2021-04-04T11:58:57.590Z</time>
      </trkpt>
      <trkpt lat="44.46535" lon="1.10349">
        <ele>233.547135</ele>
        <time>2021-04-04T11:59:00.592Z</time>
      </trkpt>
      <trkpt lat="44.46528" lon="1.1036">
        <ele>233.745945</ele>
        <time>2021-04-04T11:59:03.574Z</time>
      </trkpt>
      <trkpt lat="44.46521" lon="1.10371">
        <ele>233.947646</ele>
        <time>2021-04-04T11:59:06.612Z</time>
      </trkpt>
      <trkpt lat="44.46513" lon="1.1038">
        <ele>234.141946</ele>
        <time>2021-04-04T11:59:09.585Z</time>
      </trkpt>
      <trkpt lat="44.46505" lon="1.10387">
        <ele>234.333775</ele>
        <time>2021-04-04T11:59:12.582Z</time>
      </trkpt>
      <trkpt lat="44.46496" lon="1.10392">
        <ele>234.51836</ele>
        <time>2021-04-04T11:59:15.583Z</time>
      </trkpt>
      <trkpt lat="44.46485" lon="1.10392">
        <ele>234.71827</ele>
        <time>2021-04-04T11:59:18.571Z</time>
      </trkpt>
      <trkpt lat="44.46475" lon="1.10391">
        <ele>234.908401</ele>
        <time>2021-04-04T11:59:21.573Z</time>
      </trkpt>
      <trkpt lat="44.46465" lon="1.10388">
        <ele>235.103058</ele>
        <time>2021-04-04T11:59:24.581Z</time>
      </trkpt>
      <trkpt lat="44.46456" lon="1.10384">
        <ele>235.326105</ele>
        <time>2021-04-04T11:59:27.581Z</time>
      </trkpt>
      <trkpt lat="44.46446" lon="1.10383">
        <ele>235.61976</ele>
        <time>2021-04-04T11:59:30.589Z</time>
      </trkpt>
      <trkpt lat="44.46437" lon="1.10386">
        <ele>235.890974</ele>
        <time>2021-04-04T11:59:33.571Z</time>
      </trkpt>
      <trkpt lat="44.4643" lon="1.10398">
        <ele>236.219505</ele>
        <time>2021-04-04T11:59:36.571Z</time>
      </trkpt>
      <trkpt lat="44.46428" lon="1.10414">
        <ele>236.577872</ele>
        <time>2021-04-04T11:59:39.568Z</time>
      </trkpt>
      <trkpt lat="44.4643" lon="1.1043">
        <ele>236.923602</ele>
        <time>2021-04-04T11:59:42.571Z</time>
      </trkpt>
      <trkpt lat="44.46435" lon="1.10444">
        <ele>237.266202</ele>
        <time>2021-04-04T11:59:45.565Z</time>
      </trkpt>
      <trkpt lat="44.4644" lon="1.10459">
        <ele>237.608955</ele>
        <time>2021-04-04T11:59:48.580Z</time>
      </trkpt>
      <trkpt lat="44.46441" lon="1.10472">
        <ele>237.907082</ele>
        <time>2021-04-04T11:59:51.570Z</time>
      </trkpt>
      <trkpt lat="44.4644" lon="1.10486">
        <ele>238.203153</ele>
        <time>2021-04-04T11:59:54.572Z</time>
      </trkpt>
      <trkpt lat="44.46438" lon="1.10499">
        <ele>238.495684</ele>
        <time>2021-04-04T11:59:57.588Z</time>
      </trkpt>
      <trkpt lat="44.46436" lon="1.10515">
        <ele>238.837662</ele>
        <time>2021-04-04T12:00:01.588Z</time>
      </trkpt>
      <trkpt lat="44.46434" lon="1.10529">
        <ele>239.137138</ele>
        <time>2021-04-04T12:00:04.600Z</time>
      </trkpt>
      <trkpt lat="44.46432" lon="1.10542">
        <ele>239.418855</ele>
        <time>2021-04-04T12:00:07.588Z</time>
      </trkpt>
      <trkpt lat="44.46431" lon="1.10555">
        <ele>239.713531</ele>
        <time>2021-04-04T12:00:10.591Z</time>
      </trkpt>
      <trkpt lat="44.4643" lon="1.10568">
        <ele>240.000579</ele>
        <time>2021-04-04T12:00:13.581Z</time>
      </trkpt>
      <trkpt lat="44.46426" lon="1.10582">
        <ele>240.315657</ele>
        <time>2021-04-04T12:00:16.582Z</time>
      </trkpt>
      <trkpt lat="44.4642" lon="1.10593">
        <ele>240.609644</ele>
        <time>2021-04-04T12:00:19.577Z</time>
      </trkpt>
      <trkpt lat="44.46413" lon="1.10605">
        <ele>241.001286</ele>
        <time>2021-04-04T12:00:22.581Z</time>
      </trkpt>
      <trkpt lat="44.46405" lon="1.10616">
        <ele>241.402774</ele>
        <time>2021-04-04T12:00:25.575Z</time>
      </trkpt>
      <trkpt lat="44.46396" lon="1.10624">
        <ele>241.778879</ele>
        <time>2021-04-04T12:00:28.590Z</time>
      </trkpt>
      <trkpt lat="44.46387" lon="1.10632">
        <ele>242.137601</ele>
        <time>2021-04-04T12:00:31.587Z</time>
      </trkpt>
      <trkpt lat="44.46379" lon="1.1064">
        <ele>242.49336</ele>
        <time>2021-04-04T12:00:34.588Z</time>
      </trkpt>
      <trkpt lat="44.46371" lon="1.10649">
        <ele>242.868306</ele>
        <time>2021-04-04T12:00:38.579Z</time>
      </trkpt>
      <trkpt lat="44.46362" lon="1.1066">
        <ele>243.273241</ele>
        <time>2021-04-04T12:00:42.584Z</time>
      </trkpt>
      <trkpt lat="44.46356" lon="1.10669">
        <ele>243.608249</ele>
        <time>2021-04-04T12:00:45.587Z</time>
      </trkpt>
      <trkpt lat="44.46349" lon="1.10679">
        <ele>243.969002</ele>
        <time>2021-04-04T12:00:48.577Z</time>
      </trkpt>
      <trkpt lat="44.46343" lon="1.1069">
        <ele>244.319157</ele>
        <time>2021-04-04T12:00:51.574Z</time>
      </trkpt>
      <trkpt lat="44.46337" lon="1.107">
        <ele>244.646833</ele>
        <time>2021-04-04T12:00:54.588Z</time>
      </trkpt>
      <trkpt lat="44.4633" lon="1.1071">
        <ele>244.997294</ele>
        <time>2021-04-04T12:00:57.589Z</time>
      </trkpt>
      <trkpt lat="44.46323" lon="1.10719">
        <ele>245.342729</ele>
        <time>2021-04-04T12:01:00.589Z</time>
      </trkpt>
      <trkpt lat="44.46316" lon="1.10727">
        <ele>245.666705</ele>
        <time>2021-04-04T12:01:03.570Z</time>
      </trkpt>
      <trkpt lat="44.46305" lon="1.10735">
        <ele>246.097242</ele>
        <time>2021-04-04T12:01:07.594Z</time>
      </trkpt>
      <trkpt lat="44.46296" lon="1.10739">
        <ele>246.44846</ele>
        <time>2021-04-04T12:01:10.590Z</time>
      </trkpt>
      <trkpt lat="44.46286" lon="1.10741">
        <ele>246.804519</ele>
        <time>2021-04-04T12:01:13.566Z</time>
      </trkpt>
      <trkpt lat="44.46276" lon="1.10743">
        <ele>247.442767</ele>
        <time>2021-04-04T12:01:16.581Z</time>
      </trkpt>
      <trkpt lat="44.46267" lon="1.10744">
        <ele>248.989386</ele>
        <time>2021-04-04T12:01:19.582Z</time>
      </trkpt>
      <trkpt lat="44.46255" lon="1.10746">
        <ele>250.876978</ele>
        <time>2021-04-04T12:01:23.570Z</time>
      </trkpt>
      <trkpt lat="44.46245" lon="1.10745">
        <ele>252.394779</ele>
        <time>2021-04-04T12:01:26.578Z</time>
      </trkpt>
      <trkpt lat="44.46236" lon="1.10744">
        <ele>253.894402</ele>
        <time>2021-04-04T12:01:29.592Z</time>
      </trkpt>
      <trkpt lat="44.46226" lon="1.10743">
        <ele>255.432646</ele>
        <time>2021-04-04T12:01:32.590Z</time>
      </trkpt>
      <trkpt lat="44.46217" lon="1.10741">
        <ele>256.861658</ele>
        <time>2021-04-04T12:01:35.582Z</time>
      </trkpt>
      <trkpt lat="44.46205" lon="1.10745">
        <ele>258.752699</ele>
        <time>2021-04-04T12:01:39.574Z</time>
      </trkpt>
      <trkpt lat="44.46198" lon="1.10753">
        <ele>260.267906</ele>
        <time>2021-04-04T12:01:42.574Z</time>
      </trkpt>
      <trkpt lat="44.46192" lon="1.10764">
        <ele>261.783074</ele>
        <time>2021-04-04T12:01:45.569Z</time>
      </trkpt>
      <trkpt lat="44.46188" lon="1.10776">
        <ele>263.32622</ele>
        <time>2021-04-04T12:01:48.593Z</time>
      </trkpt>
      <trkpt lat="44.46185" lon="1.10789">
        <ele>264.803141</ele>
        <time>2021-04-04T12:01:51.581Z</time>
      </trkpt>
      <trkpt lat="44.46182" lon="1.10801">
        <ele>266.248312</ele>
        <time>2021-04-04T12:01:54.583Z</time>
      </trkpt>
      <trkpt lat="44.46177" lon="1.10816">
        <ele>268.180469</ele>
        <time>2021-04-04T12:01:58.591Z</time>
      </trkpt>
      <trkpt lat="44.46173" lon="1.10828">
        <ele>269.61356</ele>
        <time>2021-04-04T12:02:01.579Z</time>
      </trkpt>
      <trkpt lat="44.46169" lon="1.1084">
        <ele>271.121638</ele>
        <time>2021-04-04T12:02:04.582Z</time>
      </trkpt>
      <trkpt lat="44.46165" lon="1.10852">
        <ele>272.649713</ele>
        <time>2021-04-04T12:02:07.590Z</time>
      </trkpt>
      <trkpt lat="44.4616" lon="1.10864">
        <ele>274.137274</ele>
        <time>2021-04-04T12:02:10.590Z</time>
      </trkpt>
      <trkpt lat="44.46156" lon="1.10876">
        <ele>275.579073</ele>
        <time>2021-04-04T12:02:13.574Z</time>
      </trkpt>
      <trkpt lat="44.46152" lon="1.10889">
        <ele>276.273131</ele>
        <time>2021-04-04T12:02:16.585Z</time>
      </trkpt>
      <trkpt lat="44.46148" lon="1.10901">
        <ele>276.93906</ele>
        <time>2021-04-04T12:02:19.589Z</time>
      </trkpt>
      <trkpt lat="44.46143" lon="1.10916">
        <ele>277.752445</ele>
        <time>2021-04-04T12:02:23.574Z</time>
      </trkpt>
      <trkpt lat="44.46137" lon="1.10931">
        <ele>278.599584</ele>
        <time>2021-04-04T12:02:27.570Z</time>
      </trkpt>
      <trkpt lat="44.46132" lon="1.10943">
        <ele>279.266319</ele>
        <time>2021-04-04T12:02:30.582Z</time>
      </trkpt>
      <trkpt lat="44.46126" lon="1.10956">
        <ele>280.056309</ele>
        <time>2021-04-04T12:02:34.572Z</time>
      </trkpt>
      <trkpt lat="44.46119" lon="1.10967">
        <ele>280.752262</ele>
        <time>2021-04-04T12:02:37.585Z</time>
      </trkpt>
      <trkpt lat="44.4611" lon="1.10979">
        <ele>281.599906</ele>
        <time>2021-04-04T12:02:40.577Z</time>
      </trkpt>
      <trkpt lat="44.46102" lon="1.10988">
        <ele>282.297395</ele>
        <time>2021-04-04T12:02:42.590Z</time>
      </trkpt>
      <trkpt lat="44.46095" lon="1.10996">
        <ele>282.942033</ele>
        <time>2021-04-04T12:02:44.582Z</time>
      </trkpt>
      <trkpt lat="44.46088" lon="1.11006">
        <ele>283.616738</ele>
        <time>2021-04-04T12:02:46.579Z</time>
      </trkpt>
      <trkpt lat="44.46078" lon="1.11017">
        <ele>284.512957</ele>
        <time>2021-04-04T12:02:48.592Z</time>
      </trkpt>
      <trkpt lat="44.46071" lon="1.11027">
        <ele>285.198211</ele>
        <time>2021-04-04T12:02:50.568Z</time>
      </trkpt>
      <trkpt lat="44.46063" lon="1.1104">
        <ele>286.052116</ele>
        <time>2021-04-04T12:02:52.588Z</time>
      </trkpt>
      <trkpt lat="44.46054" lon="1.11052">
        <ele>286.892071</ele>
        <time>2021-04-04T12:02:54.577Z</time>
      </trkpt>
      <trkpt lat="44.46046" lon="1.11066">
        <ele>287.790124</ele>
        <time>2021-04-04T12:02:56.590Z</time>
      </trkpt>
      <trkpt lat="44.46037" lon="1.11079">
        <ele>287.832875</ele>
        <time>2021-04-04T12:02:58.584Z</time>
      </trkpt>
      <trkpt lat="44.46028" lon="1.11092">
        <ele>287.752986</ele>
        <time>2021-04-04T12:03:00.585Z</time>
      </trkpt>
      <trkpt lat="44.46018" lon="1.11105">
        <ele>287.674001</ele>
        <time>2021-04-04T12:03:02.584Z</time>
      </trkpt>
      <trkpt lat="44.46009" lon="1.11116">
        <ele>287.600453</ele>
        <time>2021-04-04T12:03:04.582Z</time>
      </trkpt>
      <trkpt lat="44.45998" lon="1.11127">
        <ele>287.519165</ele>
        <time>2021-04-04T12:03:06.569Z</time>
      </trkpt>
      <trkpt lat="44.45988" lon="1.11137">
        <ele>287.449633</ele>
        <time>2021-04-04T12:03:08.581Z</time>
      </trkpt>
      <trkpt lat="44.4598" lon="1.11145">
        <ele>287.391319</ele>
        <time>2021-04-04T12:03:10.581Z</time>
      </trkpt>
      <trkpt lat="44.45969" lon="1.11155">
        <ele>287.308083</ele>
        <time>2021-04-04T12:03:12.575Z</time>
      </trkpt>
      <trkpt lat="44.45956" lon="1.11166">
        <ele>287.2189</ele>
        <time>2021-04-04T12:03:14.588Z</time>
      </trkpt>
      <trkpt lat="44.45941" lon="1.11177">
        <ele>287.121302</ele>
        <time>2021-04-04T12:03:16.585Z</time>
      </trkpt>
      <trkpt lat="44.45927" lon="1.11186">
        <ele>287.028094</ele>
        <time>2021-04-04T12:03:18.585Z</time>
      </trkpt>
      <trkpt lat="44.45914" lon="1.11192">
        <ele>286.944221</ele>
        <time>2021-04-04T12:03:20.575Z</time>
      </trkpt>
      <trkpt lat="44.459" lon="1.11195">
        <ele>286.861021</ele>
        <time>2021-04-04T12:03:22.573Z</time>
      </trkpt>
      <trkpt lat="44.45887" lon="1.11197">
        <ele>286.998918</ele>
        <time>2021-04-04T12:03:24.574Z</time>
      </trkpt>
      <trkpt lat="44.45874" lon="1.11199">
        <ele>287.295124</ele>
        <time>2021-04-04T12:03:26.581Z</time>
      </trkpt>
      <trkpt lat="44.45861" lon="1.11199">
        <ele>287.594217</ele>
        <time>2021-04-04T12:03:28.572Z</time>
      </trkpt>
      <trkpt lat="44.45849" lon="1.11201">
        <ele>287.869319</ele>
        <time>2021-04-04T12:03:30.580Z</time>
      </trkpt>
      <trkpt lat="44.45838" lon="1.11202">
        <ele>288.134661</ele>
        <time>2021-04-04T12:03:32.604Z</time>
      </trkpt>
      <trkpt lat="44.45826" lon="1.11203">
        <ele>288.39726</ele>
        <time>2021-04-04T12:03:34.585Z</time>
      </trkpt>
      <trkpt lat="44.45816" lon="1.11205">
        <ele>288.635783</ele>
        <time>2021-04-04T12:03:36.568Z</time>
      </trkpt>
      <trkpt lat="44.45805" lon="1.11207">
        <ele>288.881768</ele>
        <time>2021-04-04T12:03:38.574Z</time>
      </trkpt>
      <trkpt lat="44.45795" lon="1.11208">
        <ele>289.108494</ele>
        <time>2021-04-04T12:03:40.597Z</time>
      </trkpt>
      <trkpt lat="44.45784" lon="1.1121">
        <ele>289.365676</ele>
        <time>2021-04-04T12:03:42.589Z</time>
      </trkpt>
      <trkpt lat="44.45774" lon="1.11211">
        <ele>289.595807</ele>
        <time>2021-04-04T12:03:44.591Z</time>
      </trkpt>
      <trkpt lat="44.45765" lon="1.11212">
        <ele>289.812616</ele>
        <time>2021-04-04T12:03:46.573Z</time>
      </trkpt>
      <trkpt lat="44.45755" lon="1.11213">
        <ele>290.043915</ele>
        <time>2021-04-04T12:03:48.582Z</time>
      </trkpt>
      <trkpt lat="44.45745" lon="1.11215">
        <ele>290.281264</ele>
        <time>2021-04-04T12:03:50.588Z</time>
      </trkpt>
      <trkpt lat="44.45731" lon="1.11216">
        <ele>290.589724</ele>
        <time>2021-04-04T12:03:53.584Z</time>
      </trkpt>
      <trkpt lat="44.45717" lon="1.11218">
        <ele>290.920579</ele>
        <time>2021-04-04T12:03:56.587Z</time>
      </trkpt>
      <trkpt lat="44.45708" lon="1.1122">
        <ele>291.075902</ele>
        <time>2021-04-04T12:03:58.580Z</time>
      </trkpt>
      <trkpt lat="44.45695" lon="1.11226">
        <ele>291.265186</ele>
        <time>2021-04-04T12:04:01.581Z</time>
      </trkpt>
      <trkpt lat="44.45687" lon="1.11233">
        <ele>291.404322</ele>
        <time>2021-04-04T12:04:03.578Z</time>
      </trkpt>
      <trkpt lat="44.45674" lon="1.1124">
        <ele>291.61244</ele>
        <time>2021-04-04T12:04:06.575Z</time>
      </trkpt>
      <trkpt lat="44.45666" lon="1.11246">
        <ele>291.752219</ele>
        <time>2021-04-04T12:04:08.581Z</time>
      </trkpt>
      <trkpt lat="44.45656" lon="1.11252">
        <ele>291.905756</ele>
        <time>2021-04-04T12:04:10.585Z</time>
      </trkpt>
      <trkpt lat="44.45645" lon="1.1126">
        <ele>292.095341</ele>
        <time>2021-04-04T12:04:12.590Z</time>
      </trkpt>
      <trkpt lat="44.45634" lon="1.11268">
        <ele>292.270947</ele>
        <time>2021-04-04T12:04:14.575Z</time>
      </trkpt>
      <trkpt lat="44.45623" lon="1.11275">
        <ele>292.443788</ele>
        <time>2021-04-04T12:04:16.573Z</time>
      </trkpt>
      <trkpt lat="44.45613" lon="1.11282">
        <ele>292.614632</ele>
        <time>2021-04-04T12:04:18.580Z</time>
      </trkpt>
      <trkpt lat="44.45601" lon="1.11289">
        <ele>292.796586</ele>
        <time>2021-04-04T12:04:20.581Z</time>
      </trkpt>
      <trkpt lat="44.4559" lon="1.11295">
        <ele>292.972021</ele>
        <time>2021-04-04T12:04:22.584Z</time>
      </trkpt>
      <trkpt lat="44.45579" lon="1.11301">
        <ele>293.151361</ele>
        <time>2021-04-04T12:04:24.588Z</time>
      </trkpt>
      <trkpt lat="44.45568" lon="1.11304">
        <ele>293.318979</ele>
        <time>2021-04-04T12:04:26.579Z</time>
      </trkpt>
      <trkpt lat="44.45557" lon="1.11308">
        <ele>293.479703</ele>
        <time>2021-04-04T12:04:28.592Z</time>
      </trkpt>
      <trkpt lat="44.45546" lon="1.11313">
        <ele>293.610358</ele>
        <time>2021-04-04T12:04:30.575Z</time>
      </trkpt>
      <trkpt lat="44.45536" lon="1.11318">
        <ele>293.624768</ele>
        <time>2021-04-04T12:04:32.578Z</time>
      </trkpt>
      <trkpt lat="44.45525" lon="1.11322">
        <ele>293.640023</ele>
        <time>2021-04-04T12:04:34.605Z</time>
      </trkpt>
      <trkpt lat="44.45513" lon="1.11326">
        <ele>293.655725</ele>
        <time>2021-04-04T12:04:36.584Z</time>
      </trkpt>
      <trkpt lat="44.45501" lon="1.11329">
        <ele>293.672155</ele>
        <time>2021-04-04T12:04:38.589Z</time>
      </trkpt>
      <trkpt lat="44.4549" lon="1.11332">
        <ele>293.687936</ele>
        <time>2021-04-04T12:04:40.584Z</time>
      </trkpt>
      <trkpt lat="44.45477" lon="1.11334">
        <ele>293.704747</ele>
        <time>2021-04-04T12:04:42.574Z</time>
      </trkpt>
      <trkpt lat="44.45463" lon="1.11338">
        <ele>293.72335</ele>
        <time>2021-04-04T12:04:44.592Z</time>
      </trkpt>
      <trkpt lat="44.45451" lon="1.11341">
        <ele>293.739702</ele>
        <time>2021-04-04T12:04:46.582Z</time>
      </trkpt>
      <trkpt lat="44.4544" lon="1.11347">
        <ele>293.75499</ele>
        <time>2021-04-04T12:04:48.569Z</time>
      </trkpt>
      <trkpt lat="44.45429" lon="1.11356">
        <ele>293.7717</ele>
        <time>2021-04-04T12:04:50.588Z</time>
      </trkpt>
      <trkpt lat="44.45418" lon="1.11363">
        <ele>293.787685</ele>
        <time>2021-04-04T12:04:52.594Z</time>
      </trkpt>
      <trkpt lat="44.45407" lon="1.11372">
        <ele>293.804826</ele>
        <time>2021-04-04T12:04:54.590Z</time>
      </trkpt>
      <trkpt lat="44.45396" lon="1.11382">
        <ele>293.822393</ele>
        <time>2021-04-04T12:04:56.591Z</time>
      </trkpt>
      <trkpt lat="44.45385" lon="1.11392">
        <ele>293.839259</ele>
        <time>2021-04-04T12:04:58.581Z</time>
      </trkpt>
      <trkpt lat="44.45373" lon="1.11402">
        <ele>293.792014</ele>
        <time>2021-04-04T12:05:00.588Z</time>
      </trkpt>
      <trkpt lat="44.45362" lon="1.11413">
        <ele>293.715398</ele>
        <time>2021-04-04T12:05:02.574Z</time>
      </trkpt>
      <trkpt lat="44.4535" lon="1.11423">
        <ele>293.637602</ele>
        <time>2021-04-04T12:05:04.595Z</time>
      </trkpt>
      <trkpt lat="44.45337" lon="1.11433">
        <ele>293.561403</ele>
        <time>2021-04-04T12:05:06.589Z</time>
      </trkpt>
      <trkpt lat="44.45326" lon="1.11443">
        <ele>293.486128</ele>
        <time>2021-04-04T12:05:08.581Z</time>
      </trkpt>
      <trkpt lat="44.45312" lon="1.11456">
        <ele>293.397679</ele>
        <time>2021-04-04T12:05:10.585Z</time>
      </trkpt>
      <trkpt lat="44.45301" lon="1.11467">
        <ele>293.319334</ele>
        <time>2021-04-04T12:05:12.584Z</time>
      </trkpt>
      <trkpt lat="44.45288" lon="1.11478">
        <ele>293.239267</ele>
        <time>2021-04-04T12:05:14.583Z</time>
      </trkpt>
      <trkpt lat="44.45276" lon="1.11488">
        <ele>293.162281</ele>
        <time>2021-04-04T12:05:16.591Z</time>
      </trkpt>
      <trkpt lat="44.45265" lon="1.115">
        <ele>293.086355</ele>
        <time>2021-04-04T12:05:18.594Z</time>
      </trkpt>
      <trkpt lat="44.45254" lon="1.11514">
        <ele>293.005257</ele>
        <time>2021-04-04T12:05:20.581Z</time>
      </trkpt>
      <trkpt lat="44.45245" lon="1.11529">
        <ele>292.9278</ele>
        <time>2021-04-04T12:05:22.588Z</time>
      </trkpt>
      <trkpt lat="44.45237" lon="1.11546">
        <ele>292.86236</ele>
        <time>2021-04-04T12:05:24.567Z</time>
      </trkpt>
      <trkpt lat="44.45231" lon="1.11565">
        <ele>292.865191</ele>
        <time>2021-04-04T12:05:26.575Z</time>
      </trkpt>
      <trkpt lat="44.45224" lon="1.11585">
        <ele>292.868195</ele>
        <time>2021-04-04T12:05:28.573Z</time>
      </trkpt>
      <trkpt lat="44.45219" lon="1.11604">
        <ele>292.870853</ele>
        <time>2021-04-04T12:05:30.582Z</time>
      </trkpt>
      <trkpt lat="44.45213" lon="1.11623">
        <ele>292.873701</ele>
        <time>2021-04-04T12:05:32.580Z</time>
      </trkpt>
      <trkpt lat="44.45207" lon="1.11643">
        <ele>292.876571</ele>
        <time>2021-04-04T12:05:34.575Z</time>
      </trkpt>
      <trkpt lat="44.45202" lon="1.11662">
        <ele>292.879248</ele>
        <time>2021-04-04T12:05:36.578Z</time>
      </trkpt>
      <trkpt lat="44.45197" lon="1.1168">
        <ele>292.881879</ele>
        <time>2021-04-04T12:05:38.583Z</time>
      </trkpt>
      <trkpt lat="44.45192" lon="1.11699">
        <ele>292.884671</ele>
        <time>2021-04-04T12:05:40.589Z</time>
      </trkpt>
      <trkpt lat="44.45186" lon="1.11717">
        <ele>292.887299</ele>
        <time>2021-04-04T12:05:42.583Z</time>
      </trkpt>
      <trkpt lat="44.45181" lon="1.11734">
        <ele>292.889818</ele>
        <time>2021-04-04T12:05:44.594Z</time>
      </trkpt>
      <trkpt lat="44.45178" lon="1.11752">
        <ele>292.892267</ele>
        <time>2021-04-04T12:05:46.586Z</time>
      </trkpt>
      <trkpt lat="44.45174" lon="1.11769">
        <ele>292.89471</ele>
        <time>2021-04-04T12:05:48.585Z</time>
      </trkpt>
      <trkpt lat="44.45169" lon="1.11785">
        <ele>292.750902</ele>
        <time>2021-04-04T12:05:50.583Z</time>
      </trkpt>
      <trkpt lat="44.45165" lon="1.11804">
        <ele>292.41934</ele>
        <time>2021-04-04T12:05:52.578Z</time>
      </trkpt>
      <trkpt lat="44.45161" lon="1.11818">
        <ele>292.162129</ele>
        <time>2021-04-04T12:05:55.582Z</time>
      </trkpt>
      <trkpt lat="44.45166" lon="1.1183">
        <ele>291.925542</ele>
        <time>2021-04-04T12:05:58.569Z</time>
      </trkpt>
      <trkpt lat="44.45175" lon="1.11834">
        <ele>291.708165</ele>
        <time>2021-04-04T12:06:00.572Z</time>
      </trkpt>
      <trkpt lat="44.45187" lon="1.11834">
        <ele>291.413132</ele>
        <time>2021-04-04T12:06:02.569Z</time>
      </trkpt>
      <trkpt lat="44.45201" lon="1.11838">
        <ele>291.08644</ele>
        <time>2021-04-04T12:06:04.585Z</time>
      </trkpt>
      <trkpt lat="44.45215" lon="1.11842">
        <ele>290.751543</ele>
        <time>2021-04-04T12:06:06.591Z</time>
      </trkpt>
      <trkpt lat="44.4523" lon="1.11847">
        <ele>290.384782</ele>
        <time>2021-04-04T12:06:08.583Z</time>
      </trkpt>
      <trkpt lat="44.45246" lon="1.11853">
        <ele>290.002383</ele>
        <time>2021-04-04T12:06:10.582Z</time>
      </trkpt>
      <trkpt lat="44.45262" lon="1.11861">
        <ele>289.597384</ele>
        <time>2021-04-04T12:06:12.567Z</time>
      </trkpt>
      <trkpt lat="44.45277" lon="1.1187">
        <ele>289.210338</ele>
        <time>2021-04-04T12:06:14.582Z</time>
      </trkpt>
      <trkpt lat="44.45292" lon="1.11883">
        <ele>288.791061</ele>
        <time>2021-04-04T12:06:16.574Z</time>
      </trkpt>
      <trkpt lat="44.45308" lon="1.11898">
        <ele>288.529682</ele>
        <time>2021-04-04T12:06:18.572Z</time>
      </trkpt>
      <trkpt lat="44.45316" lon="1.11905">
        <ele>288.419164</ele>
        <time>2021-04-04T12:06:19.563Z</time>
      </trkpt>
      <trkpt lat="44.45324" lon="1.11913">
        <ele>288.304348</ele>
        <time>2021-04-04T12:06:20.579Z</time>
      </trkpt>
      <trkpt lat="44.45333" lon="1.11922">
        <ele>288.18905</ele>
        <time>2021-04-04T12:06:21.590Z</time>
      </trkpt>
      <trkpt lat="44.45346" lon="1.11938">
        <ele>287.9905</ele>
        <time>2021-04-04T12:06:23.572Z</time>
      </trkpt>
      <trkpt lat="44.45355" lon="1.11944">
        <ele>287.883321</ele>
        <time>2021-04-04T12:06:24.573Z</time>
      </trkpt>
      <trkpt lat="44.45364" lon="1.11946">
        <ele>287.774412</ele>
        <time>2021-04-04T12:06:25.566Z</time>
      </trkpt>
      <trkpt lat="44.4538" lon="1.11943">
        <ele>287.593677</ele>
        <time>2021-04-04T12:06:27.573Z</time>
      </trkpt>
      <trkpt lat="44.45388" lon="1.11938">
        <ele>287.492339</ele>
        <time>2021-04-04T12:06:28.570Z</time>
      </trkpt>
      <trkpt lat="44.45395" lon="1.11928">
        <ele>287.3882</ele>
        <time>2021-04-04T12:06:29.565Z</time>
      </trkpt>
      <trkpt lat="44.45405" lon="1.11916">
        <ele>287.240275</ele>
        <time>2021-04-04T12:06:30.570Z</time>
      </trkpt>
      <trkpt lat="44.45413" lon="1.11902">
        <ele>287.09484</ele>
        <time>2021-04-04T12:06:31.575Z</time>
      </trkpt>
      <trkpt lat="44.45421" lon="1.11892">
        <ele>286.970023</ele>
        <time>2021-04-04T12:06:32.567Z</time>
      </trkpt>
      <trkpt lat="44.4543" lon="1.11883">
        <ele>286.847844</ele>
        <time>2021-04-04T12:06:33.571Z</time>
      </trkpt>
      <trkpt lat="44.4544" lon="1.11871">
        <ele>286.705713</ele>
        <time>2021-04-04T12:06:34.588Z</time>
      </trkpt>
      <trkpt lat="44.45448" lon="1.11861">
        <ele>286.434044</ele>
        <time>2021-04-04T12:06:35.586Z</time>
      </trkpt>
      <trkpt lat="44.45457" lon="1.11851">
        <ele>286.110925</ele>
        <time>2021-04-04T12:06:36.589Z</time>
      </trkpt>
      <trkpt lat="44.45466" lon="1.1184">
        <ele>285.771812</ele>
        <time>2021-04-04T12:06:37.588Z</time>
      </trkpt>
      <trkpt lat="44.45476" lon="1.11831">
        <ele>285.444464</ele>
        <time>2021-04-04T12:06:38.578Z</time>
      </trkpt>
      <trkpt lat="44.45485" lon="1.11821">
        <ele>285.104805</ele>
        <time>2021-04-04T12:06:39.582Z</time>
      </trkpt>
      <trkpt lat="44.45495" lon="1.11812">
        <ele>284.778228</ele>
        <time>2021-04-04T12:06:40.576Z</time>
      </trkpt>
      <trkpt lat="44.45505" lon="1.11805">
        <ele>284.449415</ele>
        <time>2021-04-04T12:06:41.593Z</time>
      </trkpt>
      <trkpt lat="44.45515" lon="1.118">
        <ele>284.150294</ele>
        <time>2021-04-04T12:06:42.572Z</time>
      </trkpt>
      <trkpt lat="44.45528" lon="1.11794">
        <ele>283.746637</ele>
        <time>2021-04-04T12:06:43.569Z</time>
      </trkpt>
      <trkpt lat="44.45539" lon="1.11788">
        <ele>283.417965</ele>
        <time>2021-04-04T12:06:44.571Z</time>
      </trkpt>
      <trkpt lat="44.45551" lon="1.11784">
        <ele>283.064494</ele>
        <time>2021-04-04T12:06:45.570Z</time>
      </trkpt>
      <trkpt lat="44.45561" lon="1.11778">
        <ele>282.776022</ele>
        <time>2021-04-04T12:06:46.571Z</time>
      </trkpt>
      <trkpt lat="44.45572" lon="1.11774">
        <ele>282.446747</ele>
        <time>2021-04-04T12:06:47.591Z</time>
      </trkpt>
      <trkpt lat="44.45583" lon="1.11771">
        <ele>282.119637</ele>
        <time>2021-04-04T12:06:48.590Z</time>
      </trkpt>
      <trkpt lat="44.45596" lon="1.11768">
        <ele>281.753569</ele>
        <time>2021-04-04T12:06:49.585Z</time>
      </trkpt>
      <trkpt lat="44.45607" lon="1.11766">
        <ele>281.484604</ele>
        <time>2021-04-04T12:06:50.580Z</time>
      </trkpt>
      <trkpt lat="44.45619" lon="1.11765">
        <ele>281.308582</ele>
        <time>2021-04-04T12:06:51.591Z</time>
      </trkpt>
      <trkpt lat="44.45631" lon="1.11763">
        <ele>281.132874</ele>
        <time>2021-04-04T12:06:52.567Z</time>
      </trkpt>
      <trkpt lat="44.45644" lon="1.11761">
        <ele>280.9574</ele>
        <time>2021-04-04T12:06:53.587Z</time>
      </trkpt>
      <trkpt lat="44.45655" lon="1.1176">
        <ele>280.791789</ele>
        <time>2021-04-04T12:06:54.581Z</time>
      </trkpt>
      <trkpt lat="44.45668" lon="1.11755">
        <ele>280.609509</ele>
        <time>2021-04-04T12:06:55.570Z</time>
      </trkpt>
      <trkpt lat="44.45679" lon="1.11751">
        <ele>280.446985</ele>
        <time>2021-04-04T12:06:56.566Z</time>
      </trkpt>
      <trkpt lat="44.4569" lon="1.11747">
        <ele>280.278758</ele>
        <time>2021-04-04T12:06:57.586Z</time>
      </trkpt>
      <trkpt lat="44.45702" lon="1.11741">
        <ele>280.10836</ele>
        <time>2021-04-04T12:06:58.570Z</time>
      </trkpt>
      <trkpt lat="44.45713" lon="1.11736">
        <ele>279.937312</ele>
        <time>2021-04-04T12:06:59.586Z</time>
      </trkpt>
      <trkpt lat="44.45724" lon="1.11732">
        <ele>279.782648</ele>
        <time>2021-04-04T12:07:00.581Z</time>
      </trkpt>
      <trkpt lat="44.45735" lon="1.11727">
        <ele>279.615784</ele>
        <time>2021-04-04T12:07:01.587Z</time>
      </trkpt>
      <trkpt lat="44.45747" lon="1.11725">
        <ele>279.44417</ele>
        <time>2021-04-04T12:07:02.592Z</time>
      </trkpt>
      <trkpt lat="44.45759" lon="1.11725">
        <ele>279.272541</ele>
        <time>2021-04-04T12:07:03.572Z</time>
      </trkpt>
      <trkpt lat="44.4577" lon="1.11726">
        <ele>279.114672</ele>
        <time>2021-04-04T12:07:04.598Z</time>
      </trkpt>
      <trkpt lat="44.45782" lon="1.11729">
        <ele>278.864817</ele>
        <time>2021-04-04T12:07:05.573Z</time>
      </trkpt>
      <trkpt lat="44.45793" lon="1.11734">
        <ele>278.303169</ele>
        <time>2021-04-04T12:07:06.595Z</time>
      </trkpt>
      <trkpt lat="44.45805" lon="1.1174">
        <ele>277.704042</ele>
        <time>2021-04-04T12:07:07.566Z</time>
      </trkpt>
      <trkpt lat="44.45817" lon="1.11745">
        <ele>277.105551</ele>
        <time>2021-04-04T12:07:08.582Z</time>
      </trkpt>
      <trkpt lat="44.45828" lon="1.11751">
        <ele>276.588027</ele>
        <time>2021-04-04T12:07:09.571Z</time>
      </trkpt>
      <trkpt lat="44.45837" lon="1.11757">
        <ele>276.083386</ele>
        <time>2021-04-04T12:07:10.581Z</time>
      </trkpt>
      <trkpt lat="44.45848" lon="1.11763">
        <ele>275.528566</ele>
        <time>2021-04-04T12:07:11.579Z</time>
      </trkpt>
      <trkpt lat="44.45861" lon="1.11768">
        <ele>274.930498</ele>
        <time>2021-04-04T12:07:12.577Z</time>
      </trkpt>
      <trkpt lat="44.45873" lon="1.11774">
        <ele>274.334497</ele>
        <time>2021-04-04T12:07:13.581Z</time>
      </trkpt>
      <trkpt lat="44.45884" lon="1.11782">
        <ele>273.755882</ele>
        <time>2021-04-04T12:07:14.589Z</time>
      </trkpt>
      <trkpt lat="44.45894" lon="1.1179">
        <ele>273.206935</ele>
        <time>2021-04-04T12:07:15.589Z</time>
      </trkpt>
      <trkpt lat="44.45903" lon="1.11799">
        <ele>272.67058</ele>
        <time>2021-04-04T12:07:16.564Z</time>
      </trkpt>
      <trkpt lat="44.45913" lon="1.1181">
        <ele>272.071809</ele>
        <time>2021-04-04T12:07:17.579Z</time>
      </trkpt>
      <trkpt lat="44.45922" lon="1.11821">
        <ele>271.498426</ele>
        <time>2021-04-04T12:07:18.569Z</time>
      </trkpt>
      <trkpt lat="44.45932" lon="1.11831">
        <ele>270.919694</ele>
        <time>2021-04-04T12:07:19.564Z</time>
      </trkpt>
      <trkpt lat="44.45942" lon="1.1184">
        <ele>270.532887</ele>
        <time>2021-04-04T12:07:20.591Z</time>
      </trkpt>
      <trkpt lat="44.45953" lon="1.11847">
        <ele>270.50218</ele>
        <time>2021-04-04T12:07:21.589Z</time>
      </trkpt>
      <trkpt lat="44.45966" lon="1.11849">
        <ele>270.46876</ele>
        <time>2021-04-04T12:07:22.580Z</time>
      </trkpt>
      <trkpt lat="44.4598" lon="1.11851">
        <ele>270.432852</ele>
        <time>2021-04-04T12:07:23.572Z</time>
      </trkpt>
      <trkpt lat="44.45993" lon="1.11853">
        <ele>270.400805</ele>
        <time>2021-04-04T12:07:24.568Z</time>
      </trkpt>
      <trkpt lat="44.46004" lon="1.11856">
        <ele>270.371326</ele>
        <time>2021-04-04T12:07:25.572Z</time>
      </trkpt>
      <trkpt lat="44.46017" lon="1.11862">
        <ele>270.33754</ele>
        <time>2021-04-04T12:07:26.581Z</time>
      </trkpt>
      <trkpt lat="44.46028" lon="1.11866">
        <ele>270.308203</ele>
        <time>2021-04-04T12:07:27.579Z</time>
      </trkpt>
      <trkpt lat="44.4604" lon="1.11869">
        <ele>270.275386</ele>
        <time>2021-04-04T12:07:28.568Z</time>
      </trkpt>
      <trkpt lat="44.46053" lon="1.11871">
        <ele>270.243538</ele>
        <time>2021-04-04T12:07:29.586Z</time>
      </trkpt>
      <trkpt lat="44.46064" lon="1.1187">
        <ele>270.213046</ele>
        <time>2021-04-04T12:07:30.574Z</time>
      </trkpt>
      <trkpt lat="44.46076" lon="1.11869">
        <ele>270.183584</ele>
        <time>2021-04-04T12:07:31.571Z</time>
      </trkpt>
      <trkpt lat="44.46088" lon="1.11869">
        <ele>270.15157</ele>
        <time>2021-04-04T12:07:32.569Z</time>
      </trkpt>
      <trkpt lat="44.461" lon="1.11869">
        <ele>270.121102</ele>
        <time>2021-04-04T12:07:33.584Z</time>
      </trkpt>
      <trkpt lat="44.46112" lon="1.1187">
        <ele>270.090034</ele>
        <time>2021-04-04T12:07:34.592Z</time>
      </trkpt>
      <trkpt lat="44.46124" lon="1.11872">
        <ele>269.581476</ele>
        <time>2021-04-04T12:07:35.601Z</time>
      </trkpt>
      <trkpt lat="44.46137" lon="1.11873">
        <ele>268.887358</ele>
        <time>2021-04-04T12:07:36.605Z</time>
      </trkpt>
      <trkpt lat="44.46148" lon="1.11875">
        <ele>268.23985</ele>
        <time>2021-04-04T12:07:37.584Z</time>
      </trkpt>
      <trkpt lat="44.46161" lon="1.11875">
        <ele>267.514937</ele>
        <time>2021-04-04T12:07:38.589Z</time>
      </trkpt>
      <trkpt lat="44.46172" lon="1.11877">
        <ele>266.848313</ele>
        <time>2021-04-04T12:07:39.589Z</time>
      </trkpt>
      <trkpt lat="44.46184" lon="1.11878">
        <ele>266.154961</ele>
        <time>2021-04-04T12:07:40.592Z</time>
      </trkpt>
      <trkpt lat="44.46197" lon="1.1188">
        <ele>265.421801</ele>
        <time>2021-04-04T12:07:41.589Z</time>
      </trkpt>
      <trkpt lat="44.46209" lon="1.11883">
        <ele>264.733343</ele>
        <time>2021-04-04T12:07:42.582Z</time>
      </trkpt>
      <trkpt lat="44.46221" lon="1.11887">
        <ele>264.032872</ele>
        <time>2021-04-04T12:07:43.571Z</time>
      </trkpt>
      <trkpt lat="44.46233" lon="1.11891">
        <ele>263.331537</ele>
        <time>2021-04-04T12:07:44.581Z</time>
      </trkpt>
      <trkpt lat="44.46243" lon="1.11895">
        <ele>262.744356</ele>
        <time>2021-04-04T12:07:45.577Z</time>
      </trkpt>
      <trkpt lat="44.46254" lon="1.119">
        <ele>262.078844</ele>
        <time>2021-04-04T12:07:46.590Z</time>
      </trkpt>
      <trkpt lat="44.46264" lon="1.11906">
        <ele>261.467914</ele>
        <time>2021-04-04T12:07:47.566Z</time>
      </trkpt>
      <trkpt lat="44.46276" lon="1.11909">
        <ele>260.751641</ele>
        <time>2021-04-04T12:07:48.590Z</time>
      </trkpt>
      <trkpt lat="44.46288" lon="1.1191">
        <ele>260.086326</ele>
        <time>2021-04-04T12:07:49.585Z</time>
      </trkpt>
      <trkpt lat="44.46299" lon="1.1191">
        <ele>259.748499</ele>
        <time>2021-04-04T12:07:50.569Z</time>
      </trkpt>
      <trkpt lat="44.4631" lon="1.11905">
        <ele>259.63178</ele>
        <time>2021-04-04T12:07:51.567Z</time>
      </trkpt>
      <trkpt lat="44.46321" lon="1.119">
        <ele>259.514119</ele>
        <time>2021-04-04T12:07:52.569Z</time>
      </trkpt>
      <trkpt lat="44.46333" lon="1.11898">
        <ele>259.393292</ele>
        <time>2021-04-04T12:07:53.571Z</time>
      </trkpt>
      <trkpt lat="44.46344" lon="1.11896">
        <ele>259.277845</ele>
        <time>2021-04-04T12:07:54.568Z</time>
      </trkpt>
      <trkpt lat="44.46356" lon="1.11893">
        <ele>259.161498</ele>
        <time>2021-04-04T12:07:55.578Z</time>
      </trkpt>
      <trkpt lat="44.46367" lon="1.11892">
        <ele>259.050911</ele>
        <time>2021-04-04T12:07:56.574Z</time>
      </trkpt>
      <trkpt lat="44.46379" lon="1.11892">
        <ele>258.931354</ele>
        <time>2021-04-04T12:07:57.586Z</time>
      </trkpt>
      <trkpt lat="44.4639" lon="1.11893">
        <ele>258.816664</ele>
        <time>2021-04-04T12:07:58.583Z</time>
      </trkpt>
      <trkpt lat="44.46402" lon="1.11898">
        <ele>258.695652</ele>
        <time>2021-04-04T12:07:59.575Z</time>
      </trkpt>
      <trkpt lat="44.46411" lon="1.11907">
        <ele>258.583494</ele>
        <time>2021-04-04T12:08:00.570Z</time>
      </trkpt>
      <trkpt lat="44.46422" lon="1.11914">
        <ele>258.458627</ele>
        <time>2021-04-04T12:08:01.579Z</time>
      </trkpt>
      <trkpt lat="44.46432" lon="1.1192">
        <ele>258.356209</ele>
        <time>2021-04-04T12:08:02.575Z</time>
      </trkpt>
      <trkpt lat="44.46441" lon="1.11927">
        <ele>258.247307</ele>
        <time>2021-04-04T12:08:03.571Z</time>
      </trkpt>
      <trkpt lat="44.46452" lon="1.11933">
        <ele>258.131273</ele>
        <time>2021-04-04T12:08:04.579Z</time>
      </trkpt>
      <trkpt lat="44.46462" lon="1.11938">
        <ele>258.027081</ele>
        <time>2021-04-04T12:08:05.586Z</time>
      </trkpt>
      <trkpt lat="44.46473" lon="1.11945">
        <ele>257.047727</ele>
        <time>2021-04-04T12:08:06.576Z</time>
      </trkpt>
      <trkpt lat="44.46481" lon="1.11956">
        <ele>256.068082</ele>
        <time>2021-04-04T12:08:07.585Z</time>
      </trkpt>
      <trkpt lat="44.46487" lon="1.11967">
        <ele>255.154554</ele>
        <time>2021-04-04T12:08:08.571Z</time>
      </trkpt>
      <trkpt lat="44.46494" lon="1.11981">
        <ele>254.133381</ele>
        <time>2021-04-04T12:08:09.563Z</time>
      </trkpt>
      <trkpt lat="44.46499" lon="1.11995">
        <ele>253.1493</ele>
        <time>2021-04-04T12:08:10.570Z</time>
      </trkpt>
      <trkpt lat="44.46502" lon="1.1201">
        <ele>252.149406</ele>
        <time>2021-04-04T12:08:11.575Z</time>
      </trkpt>
      <trkpt lat="44.46506" lon="1.12025">
        <ele>251.098935</ele>
        <time>2021-04-04T12:08:12.572Z</time>
      </trkpt>
      <trkpt lat="44.46511" lon="1.1204">
        <ele>250.076711</ele>
        <time>2021-04-04T12:08:13.573Z</time>
      </trkpt>
      <trkpt lat="44.46516" lon="1.12055">
        <ele>249.029376</ele>
        <time>2021-04-04T12:08:14.581Z</time>
      </trkpt>
      <trkpt lat="44.46522" lon="1.12068">
        <ele>248.025566</ele>
        <time>2021-04-04T12:08:15.578Z</time>
      </trkpt>
      <trkpt lat="44.46528" lon="1.12081">
        <ele>247.040409</ele>
        <time>2021-04-04T12:08:16.574Z</time>
      </trkpt>
      <trkpt lat="44.46536" lon="1.12094">
        <ele>245.974891</ele>
        <time>2021-04-04T12:08:17.583Z</time>
      </trkpt>
      <trkpt lat="44.46544" lon="1.12106">
        <ele>244.94408</ele>
        <time>2021-04-04T12:08:18.578Z</time>
      </trkpt>
      <trkpt lat="44.46551" lon="1.12118">
        <ele>243.954652</ele>
        <time>2021-04-04T12:08:19.571Z</time>
      </trkpt>
      <trkpt lat="44.46558" lon="1.1213">
        <ele>242.979509</ele>
        <time>2021-04-04T12:08:20.585Z</time>
      </trkpt>
      <trkpt lat="44.46566" lon="1.12141">
        <ele>242.093246</ele>
        <time>2021-04-04T12:08:21.574Z</time>
      </trkpt>
      <trkpt lat="44.46574" lon="1.12151">
        <ele>242.930171</ele>
        <time>2021-04-04T12:08:22.587Z</time>
      </trkpt>
      <trkpt lat="44.46583" lon="1.12161">
        <ele>243.768751</ele>
        <time>2021-04-04T12:08:23.578Z</time>
      </trkpt>
      <trkpt lat="44.46591" lon="1.12173">
        <ele>244.59844</ele>
        <time>2021-04-04T12:08:24.591Z</time>
      </trkpt>
      <trkpt lat="44.46597" lon="1.12186">
        <ele>245.451277</ele>
        <time>2021-04-04T12:08:25.585Z</time>
      </trkpt>
      <trkpt lat="44.46604" lon="1.12199">
        <ele>246.295834</ele>
        <time>2021-04-04T12:08:26.577Z</time>
      </trkpt>
      <trkpt lat="44.4661" lon="1.12212">
        <ele>247.105369</ele>
        <time>2021-04-04T12:08:27.571Z</time>
      </trkpt>
      <trkpt lat="44.46618" lon="1.12222">
        <ele>247.947681</ele>
        <time>2021-04-04T12:08:28.581Z</time>
      </trkpt>
      <trkpt lat="44.46626" lon="1.12234">
        <ele>248.811788</ele>
        <time>2021-04-04T12:08:29.577Z</time>
      </trkpt>
      <trkpt lat="44.46636" lon="1.12243">
        <ele>249.654075</ele>
        <time>2021-04-04T12:08:30.574Z</time>
      </trkpt>
      <trkpt lat="44.46645" lon="1.12253">
        <ele>250.521112</ele>
        <time>2021-04-04T12:08:31.579Z</time>
      </trkpt>
      <trkpt lat="44.46653" lon="1.12263">
        <ele>251.341419</ele>
        <time>2021-04-04T12:08:32.574Z</time>
      </trkpt>
      <trkpt lat="44.46662" lon="1.12273">
        <ele>252.181079</ele>
        <time>2021-04-04T12:08:33.599Z</time>
      </trkpt>
      <trkpt lat="44.4667" lon="1.12282">
        <ele>252.98099</ele>
        <time>2021-04-04T12:08:34.584Z</time>
      </trkpt>
      <trkpt lat="44.46679" lon="1.12293">
        <ele>253.831044</ele>
        <time>2021-04-04T12:08:35.591Z</time>
      </trkpt>
      <trkpt lat="44.46688" lon="1.12301">
        <ele>254.618409</ele>
        <time>2021-04-04T12:08:36.589Z</time>
      </trkpt>
      <trkpt lat="44.46698" lon="1.1231">
        <ele>255.400677</ele>
        <time>2021-04-04T12:08:37.572Z</time>
      </trkpt>
      <trkpt lat="44.46705" lon="1.1232">
        <ele>254.966607</ele>
        <time>2021-04-04T12:08:38.595Z</time>
      </trkpt>
      <trkpt lat="44.46714" lon="1.12331">
        <ele>254.485502</ele>
        <time>2021-04-04T12:08:39.573Z</time>
      </trkpt>
      <trkpt lat="44.4672" lon="1.12344">
        <ele>254.008204</ele>
        <time>2021-04-04T12:08:40.574Z</time>
      </trkpt>
      <trkpt lat="44.46724" lon="1.12358">
        <ele>253.57331</ele>
        <time>2021-04-04T12:08:41.568Z</time>
      </trkpt>
      <trkpt lat="44.46726" lon="1.12372">
        <ele>253.153052</ele>
        <time>2021-04-04T12:08:42.570Z</time>
      </trkpt>
      <trkpt lat="44.46725" lon="1.12387">
        <ele>252.692795</ele>
        <time>2021-04-04T12:08:43.568Z</time>
      </trkpt>
      <trkpt lat="44.46725" lon="1.12403">
        <ele>252.220175</ele>
        <time>2021-04-04T12:08:44.571Z</time>
      </trkpt>
      <trkpt lat="44.46727" lon="1.12418">
        <ele>251.743292</ele>
        <time>2021-04-04T12:08:45.567Z</time>
      </trkpt>
      <trkpt lat="44.46729" lon="1.12435">
        <ele>251.253042</ele>
        <time>2021-04-04T12:08:46.573Z</time>
      </trkpt>
      <trkpt lat="44.46732" lon="1.1245">
        <ele>250.77784</ele>
        <time>2021-04-04T12:08:47.578Z</time>
      </trkpt>
      <trkpt lat="44.46737" lon="1.12463">
        <ele>250.320783</ele>
        <time>2021-04-04T12:08:48.574Z</time>
      </trkpt>
      <trkpt lat="44.46742" lon="1.12478">
        <ele>249.845237</ele>
        <time>2021-04-04T12:08:49.571Z</time>
      </trkpt>
      <trkpt lat="44.46747" lon="1.12492">
        <ele>249.34297</ele>
        <time>2021-04-04T12:08:50.577Z</time>
      </trkpt>
      <trkpt lat="44.46752" lon="1.12507">
        <ele>248.861929</ele>
        <time>2021-04-04T12:08:51.571Z</time>
      </trkpt>
      <trkpt lat="44.46756" lon="1.12524">
        <ele>248.336679</ele>
        <time>2021-04-04T12:08:52.578Z</time>
      </trkpt>
      <trkpt lat="44.46762" lon="1.12539">
        <ele>247.362847</ele>
        <time>2021-04-04T12:08:53.583Z</time>
      </trkpt>
      <trkpt lat="44.46768" lon="1.12553">
        <ele>244.18175</ele>
        <time>2021-04-04T12:08:54.583Z</time>
      </trkpt>
      <trkpt lat="44.46774" lon="1.12567">
        <ele>241.020396</ele>
        <time>2021-04-04T12:08:55.576Z</time>
      </trkpt>
      <trkpt lat="44.4678" lon="1.12582">
        <ele>237.696665</ele>
        <time>2021-04-04T12:08:56.592Z</time>
      </trkpt>
      <trkpt lat="44.46787" lon="1.12596">
        <ele>234.518674</ele>
        <time>2021-04-04T12:08:57.575Z</time>
      </trkpt>
      <trkpt lat="44.46794" lon="1.1261">
        <ele>231.29479</ele>
        <time>2021-04-04T12:08:58.577Z</time>
      </trkpt>
      <trkpt lat="44.46801" lon="1.12623">
        <ele>228.118525</ele>
        <time>2021-04-04T12:08:59.585Z</time>
      </trkpt>
      <trkpt lat="44.46807" lon="1.12636">
        <ele>224.989198</ele>
        <time>2021-04-04T12:09:00.575Z</time>
      </trkpt>
      <trkpt lat="44.46813" lon="1.12652">
        <ele>221.594153</ele>
        <time>2021-04-04T12:09:01.581Z</time>
      </trkpt>
      <trkpt lat="44.46819" lon="1.12665">
        <ele>218.649573</ele>
        <time>2021-04-04T12:09:02.582Z</time>
      </trkpt>
      <trkpt lat="44.46824" lon="1.12678">
        <ele>215.781475</ele>
        <time>2021-04-04T12:09:03.570Z</time>
      </trkpt>
      <trkpt lat="44.4683" lon="1.12689">
        <ele>213.10246</ele>
        <time>2021-04-04T12:09:04.576Z</time>
      </trkpt>
      <trkpt lat="44.46835" lon="1.127">
        <ele>210.566494</ele>
        <time>2021-04-04T12:09:05.582Z</time>
      </trkpt>
      <trkpt lat="44.4685" lon="1.12716">
        <ele>205.652618</ele>
        <time>2021-04-04T12:09:07.578Z</time>
      </trkpt>
      <trkpt lat="44.46858" lon="1.12722">
        <ele>203.175523</ele>
        <time>2021-04-04T12:09:08.574Z</time>
      </trkpt>
      <trkpt lat="44.46866" lon="1.12728">
        <ele>200.669875</ele>
        <time>2021-04-04T12:09:09.575Z</time>
      </trkpt>
      <trkpt lat="44.46884" lon="1.12728">
        <ele>196.997521</ele>
        <time>2021-04-04T12:09:11.571Z</time>
      </trkpt>
      <trkpt lat="44.46901" lon="1.12727">
        <ele>193.955168</ele>
        <time>2021-04-04T12:09:13.571Z</time>
      </trkpt>
      <trkpt lat="44.46917" lon="1.12725">
        <ele>191.045542</ele>
        <time>2021-04-04T12:09:15.574Z</time>
      </trkpt>
      <trkpt lat="44.46926" lon="1.12722">
        <ele>189.425907</ele>
        <time>2021-04-04T12:09:16.576Z</time>
      </trkpt>
      <trkpt lat="44.46941" lon="1.12719">
        <ele>186.706896</ele>
        <time>2021-04-04T12:09:18.577Z</time>
      </trkpt>
      <trkpt lat="44.46958" lon="1.12719">
        <ele>183.739359</ele>
        <time>2021-04-04T12:09:20.575Z</time>
      </trkpt>
      <trkpt lat="44.46975" lon="1.12719">
        <ele>180.628962</ele>
        <time>2021-04-04T12:09:22.580Z</time>
      </trkpt>
      <trkpt lat="44.46991" lon="1.12722">
        <ele>177.669762</ele>
        <time>2021-04-04T12:09:24.592Z</time>
      </trkpt>
      <trkpt lat="44.47007" lon="1.12731">
        <ele>174.620002</ele>
        <time>2021-04-04T12:09:26.585Z</time>
      </trkpt>
      <trkpt lat="44.47015" lon="1.12738">
        <ele>172.98181</ele>
        <time>2021-04-04T12:09:27.576Z</time>
      </trkpt>
      <trkpt lat="44.47029" lon="1.12749">
        <ele>170.014533</ele>
        <time>2021-04-04T12:09:29.575Z</time>
      </trkpt>
      <trkpt lat="44.47038" lon="1.12753">
        <ele>168.303636</ele>
        <time>2021-04-04T12:09:30.572Z</time>
      </trkpt>
      <trkpt lat="44.47053" lon="1.12763">
        <ele>166.570017</ele>
        <time>2021-04-04T12:09:32.565Z</time>
      </trkpt>
      <trkpt lat="44.47069" lon="1.12765">
        <ele>165.559834</ele>
        <time>2021-04-04T12:09:34.567Z</time>
      </trkpt>
      <trkpt lat="44.47087" lon="1.12766">
        <ele>164.52692</ele>
        <time>2021-04-04T12:09:36.569Z</time>
      </trkpt>
      <trkpt lat="44.47103" lon="1.12772">
        <ele>163.516786</ele>
        <time>2021-04-04T12:09:38.588Z</time>
      </trkpt>
      <trkpt lat="44.47112" lon="1.12775">
        <ele>162.964774</ele>
        <time>2021-04-04T12:09:39.576Z</time>
      </trkpt>
      <trkpt lat="44.47128" lon="1.12783">
        <ele>161.958277</ele>
        <time>2021-04-04T12:09:41.564Z</time>
      </trkpt>
      <trkpt lat="44.47144" lon="1.12794">
        <ele>160.926136</ele>
        <time>2021-04-04T12:09:43.571Z</time>
      </trkpt>
      <trkpt lat="44.47159" lon="1.12802">
        <ele>159.96223</ele>
        <time>2021-04-04T12:09:45.570Z</time>
      </trkpt>
      <trkpt lat="44.47176" lon="1.1281">
        <ele>158.903521</ele>
        <time>2021-04-04T12:09:47.582Z</time>
      </trkpt>
      <trkpt lat="44.47185" lon="1.12815">
        <ele>158.363687</ele>
        <time>2021-04-04T12:09:48.573Z</time>
      </trkpt>
      <trkpt lat="44.47193" lon="1.12821">
        <ele>157.812873</ele>
        <time>2021-04-04T12:09:49.572Z</time>
      </trkpt>
      <trkpt lat="44.47206" lon="1.12839">
        <ele>156.734518</ele>
        <time>2021-04-04T12:09:51.582Z</time>
      </trkpt>
      <trkpt lat="44.47212" lon="1.12848">
        <ele>156.281438</ele>
        <time>2021-04-04T12:09:52.580Z</time>
      </trkpt>
      <trkpt lat="44.47222" lon="1.12869">
        <ele>155.553812</ele>
        <time>2021-04-04T12:09:54.591Z</time>
      </trkpt>
      <trkpt lat="44.47227" lon="1.12879">
        <ele>155.187763</ele>
        <time>2021-04-04T12:09:55.565Z</time>
      </trkpt>
      <trkpt lat="44.47232" lon="1.1289">
        <ele>154.812006</ele>
        <time>2021-04-04T12:09:56.578Z</time>
      </trkpt>
      <trkpt lat="44.47238" lon="1.12914">
        <ele>154.088918</ele>
        <time>2021-04-04T12:09:58.580Z</time>
      </trkpt>
      <trkpt lat="44.47243" lon="1.12925">
        <ele>153.722806</ele>
        <time>2021-04-04T12:09:59.568Z</time>
      </trkpt>
      <trkpt lat="44.47253" lon="1.12943">
        <ele>153.040277</ele>
        <time>2021-04-04T12:10:01.569Z</time>
      </trkpt>
      <trkpt lat="44.47266" lon="1.12961">
        <ele>152.312582</ele>
        <time>2021-04-04T12:10:03.572Z</time>
      </trkpt>
      <trkpt lat="44.47274" lon="1.12971">
        <ele>151.894369</ele>
        <time>2021-04-04T12:10:04.588Z</time>
      </trkpt>
      <trkpt lat="44.47281" lon="1.1298">
        <ele>151.513287</ele>
        <time>2021-04-04T12:10:05.565Z</time>
      </trkpt>
      <trkpt lat="44.47288" lon="1.12989">
        <ele>151.132117</ele>
        <time>2021-04-04T12:10:06.571Z</time>
      </trkpt>
      <trkpt lat="44.47294" lon="1.12998">
        <ele>150.755192</ele>
        <time>2021-04-04T12:10:07.594Z</time>
      </trkpt>
      <trkpt lat="44.47306" lon="1.13017">
        <ele>150.024142</ele>
        <time>2021-04-04T12:10:09.582Z</time>
      </trkpt>
      <trkpt lat="44.47318" lon="1.13034">
        <ele>149.33189</ele>
        <time>2021-04-04T12:10:11.575Z</time>
      </trkpt>
      <trkpt lat="44.47325" lon="1.13044">
        <ele>148.935507</ele>
        <time>2021-04-04T12:10:12.590Z</time>
      </trkpt>
      <trkpt lat="44.47332" lon="1.13051">
        <ele>148.532405</ele>
        <time>2021-04-04T12:10:13.566Z</time>
      </trkpt>
      <trkpt lat="44.47347" lon="1.13066">
        <ele>147.739411</ele>
        <time>2021-04-04T12:10:15.587Z</time>
      </trkpt>
      <trkpt lat="44.47361" lon="1.13081">
        <ele>146.97683</ele>
        <time>2021-04-04T12:10:17.592Z</time>
      </trkpt>
      <trkpt lat="44.47375" lon="1.13094">
        <ele>146.205271</ele>
        <time>2021-04-04T12:10:19.589Z</time>
      </trkpt>
      <trkpt lat="44.47389" lon="1.1311">
        <ele>145.431477</ele>
        <time>2021-04-04T12:10:21.593Z</time>
      </trkpt>
      <trkpt lat="44.47397" lon="1.13116">
        <ele>145.029162</ele>
        <time>2021-04-04T12:10:22.589Z</time>
      </trkpt>
      <trkpt lat="44.47404" lon="1.13124">
        <ele>144.625681</ele>
        <time>2021-04-04T12:10:23.587Z</time>
      </trkpt>
      <trkpt lat="44.47411" lon="1.13132">
        <ele>144.226481</ele>
        <time>2021-04-04T12:10:24.575Z</time>
      </trkpt>
      <trkpt lat="44.47426" lon="1.13147">
        <ele>143.447518</ele>
        <time>2021-04-04T12:10:26.581Z</time>
      </trkpt>
      <trkpt lat="44.47442" lon="1.13158">
        <ele>142.662159</ele>
        <time>2021-04-04T12:10:28.574Z</time>
      </trkpt>
      <trkpt lat="44.47456" lon="1.1317">
        <ele>141.936143</ele>
        <time>2021-04-04T12:10:30.590Z</time>
      </trkpt>
      <trkpt lat="44.4747" lon="1.13182">
        <ele>141.30519</ele>
        <time>2021-04-04T12:10:32.579Z</time>
      </trkpt>
      <trkpt lat="44.47482" lon="1.13198">
        <ele>141.319701</ele>
        <time>2021-04-04T12:10:34.581Z</time>
      </trkpt>
      <trkpt lat="44.47487" lon="1.13209">
        <ele>141.327884</ele>
        <time>2021-04-04T12:10:35.586Z</time>
      </trkpt>
      <trkpt lat="44.47496" lon="1.13229">
        <ele>141.3427</ele>
        <time>2021-04-04T12:10:37.564Z</time>
      </trkpt>
      <trkpt lat="44.47497" lon="1.13251">
        <ele>141.35679</ele>
        <time>2021-04-04T12:10:39.568Z</time>
      </trkpt>
      <trkpt lat="44.47496" lon="1.13264">
        <ele>141.364812</ele>
        <time>2021-04-04T12:10:40.568Z</time>
      </trkpt>
      <trkpt lat="44.47491" lon="1.13285">
        <ele>141.378721</ele>
        <time>2021-04-04T12:10:42.565Z</time>
      </trkpt>
      <trkpt lat="44.47487" lon="1.13307">
        <ele>141.393354</ele>
        <time>2021-04-04T12:10:44.569Z</time>
      </trkpt>
      <trkpt lat="44.47487" lon="1.13331">
        <ele>141.408629</ele>
        <time>2021-04-04T12:10:46.576Z</time>
      </trkpt>
      <trkpt lat="44.47493" lon="1.13351">
        <ele>141.422117</ele>
        <time>2021-04-04T12:10:48.569Z</time>
      </trkpt>
      <trkpt lat="44.47499" lon="1.13374">
        <ele>141.437275</ele>
        <time>2021-04-04T12:10:50.577Z</time>
      </trkpt>
      <trkpt lat="44.47502" lon="1.13396">
        <ele>141.451827</ele>
        <time>2021-04-04T12:10:52.580Z</time>
      </trkpt>
      <trkpt lat="44.47505" lon="1.13418">
        <ele>141.36914</ele>
        <time>2021-04-04T12:10:54.570Z</time>
      </trkpt>
      <trkpt lat="44.47509" lon="1.1344">
        <ele>141.021576</ele>
        <time>2021-04-04T12:10:56.592Z</time>
      </trkpt>
      <trkpt lat="44.47516" lon="1.13461">
        <ele>140.666606</ele>
        <time>2021-04-04T12:10:58.568Z</time>
      </trkpt>
      <trkpt lat="44.47527" lon="1.1348">
        <ele>140.303305</ele>
        <time>2021-04-04T12:11:00.565Z</time>
      </trkpt>
      <trkpt lat="44.47538" lon="1.13497">
        <ele>139.954206</ele>
        <time>2021-04-04T12:11:02.573Z</time>
      </trkpt>
      <trkpt lat="44.47553" lon="1.13509">
        <ele>139.582627</ele>
        <time>2021-04-04T12:11:04.569Z</time>
      </trkpt>
      <trkpt lat="44.47567" lon="1.13523">
        <ele>139.211581</ele>
        <time>2021-04-04T12:11:06.567Z</time>
      </trkpt>
      <trkpt lat="44.4758" lon="1.13537">
        <ele>138.869142</ele>
        <time>2021-04-04T12:11:08.588Z</time>
      </trkpt>
      <trkpt lat="44.47586" lon="1.13546">
        <ele>138.678099</ele>
        <time>2021-04-04T12:11:09.572Z</time>
      </trkpt>
      <trkpt lat="44.47598" lon="1.13564">
        <ele>138.306876</ele>
        <time>2021-04-04T12:11:11.588Z</time>
      </trkpt>
      <trkpt lat="44.47608" lon="1.13585">
        <ele>137.917921</ele>
        <time>2021-04-04T12:11:13.564Z</time>
      </trkpt>
      <trkpt lat="44.47619" lon="1.13603">
        <ele>137.642424</ele>
        <time>2021-04-04T12:11:15.576Z</time>
      </trkpt>
      <trkpt lat="44.47624" lon="1.13614">
        <ele>137.682024</ele>
        <time>2021-04-04T12:11:16.618Z</time>
      </trkpt>
      <trkpt lat="44.47636" lon="1.13632">
        <ele>137.758702</ele>
        <time>2021-04-04T12:11:18.589Z</time>
      </trkpt>
      <trkpt lat="44.47646" lon="1.13649">
        <ele>137.824647</ele>
        <time>2021-04-04T12:11:20.578Z</time>
      </trkpt>
      <trkpt lat="44.47657" lon="1.13666">
        <ele>137.896174</ele>
        <time>2021-04-04T12:11:22.579Z</time>
      </trkpt>
      <trkpt lat="44.47669" lon="1.13681">
        <ele>137.96596</ele>
        <time>2021-04-04T12:11:24.582Z</time>
      </trkpt>
      <trkpt lat="44.47681" lon="1.13694">
        <ele>138.030816</ele>
        <time>2021-04-04T12:11:26.580Z</time>
      </trkpt>
      <trkpt lat="44.47688" lon="1.13705">
        <ele>138.076251</ele>
        <time>2021-04-04T12:11:28.589Z</time>
      </trkpt>
      <trkpt lat="44.47684" lon="1.13726">
        <ele>138.141495</ele>
        <time>2021-04-04T12:11:31.566Z</time>
      </trkpt>
      <trkpt lat="44.47675" lon="1.13738">
        <ele>138.194254</ele>
        <time>2021-04-04T12:11:33.575Z</time>
      </trkpt>
      <trkpt lat="44.47666" lon="1.13755">
        <ele>138.258158</ele>
        <time>2021-04-04T12:11:35.575Z</time>
      </trkpt>
      <trkpt lat="44.47659" lon="1.13772">
        <ele>138.321129</ele>
        <time>2021-04-04T12:11:37.592Z</time>
      </trkpt>
      <trkpt lat="44.47649" lon="1.13792">
        <ele>138.394855</ele>
        <time>2021-04-04T12:11:39.589Z</time>
      </trkpt>
      <trkpt lat="44.4764" lon="1.13809">
        <ele>138.400938</ele>
        <time>2021-04-04T12:11:41.580Z</time>
      </trkpt>
      <trkpt lat="44.47634" lon="1.13826">
        <ele>138.398195</ele>
        <time>2021-04-04T12:11:43.589Z</time>
      </trkpt>
      <trkpt lat="44.47628" lon="1.13836">
        <ele>138.396301</ele>
        <time>2021-04-04T12:11:44.576Z</time>
      </trkpt>
      <trkpt lat="44.47622" lon="1.13853">
        <ele>138.393596</ele>
        <time>2021-04-04T12:11:46.593Z</time>
      </trkpt>
      <trkpt lat="44.47617" lon="1.13869">
        <ele>138.390996</ele>
        <time>2021-04-04T12:11:48.600Z</time>
      </trkpt>
      <trkpt lat="44.4761" lon="1.13886">
        <ele>138.388224</ele>
        <time>2021-04-04T12:11:50.594Z</time>
      </trkpt>
      <trkpt lat="44.47607" lon="1.13904">
        <ele>138.385568</ele>
        <time>2021-04-04T12:11:52.597Z</time>
      </trkpt>
      <trkpt lat="44.47601" lon="1.13921">
        <ele>138.382843</ele>
        <time>2021-04-04T12:11:54.588Z</time>
      </trkpt>
      <trkpt lat="44.47591" lon="1.13941">
        <ele>138.379281</ele>
        <time>2021-04-04T12:11:56.581Z</time>
      </trkpt>
      <trkpt lat="44.47588" lon="1.13954">
        <ele>138.377429</ele>
        <time>2021-04-04T12:11:57.576Z</time>
      </trkpt>
      <trkpt lat="44.47585" lon="1.13972">
        <ele>138.374708</ele>
        <time>2021-04-04T12:11:59.572Z</time>
      </trkpt>
      <trkpt lat="44.4758" lon="1.13991">
        <ele>138.371825</ele>
        <time>2021-04-04T12:12:01.589Z</time>
      </trkpt>
      <trkpt lat="44.47575" lon="1.14014">
        <ele>138.368313</ele>
        <time>2021-04-04T12:12:03.576Z</time>
      </trkpt>
      <trkpt lat="44.47573" lon="1.14037">
        <ele>138.354782</ele>
        <time>2021-04-04T12:12:05.575Z</time>
      </trkpt>
      <trkpt lat="44.47569" lon="1.14057">
        <ele>138.337766</ele>
        <time>2021-04-04T12:12:07.595Z</time>
      </trkpt>
      <trkpt lat="44.47567" lon="1.14075">
        <ele>138.322124</ele>
        <time>2021-04-04T12:12:09.587Z</time>
      </trkpt>
      <trkpt lat="44.47565" lon="1.14094">
        <ele>138.306927</ele>
        <time>2021-04-04T12:12:11.579Z</time>
      </trkpt>
      <trkpt lat="44.47561" lon="1.14112">
        <ele>138.29131</ele>
        <time>2021-04-04T12:12:13.594Z</time>
      </trkpt>
      <trkpt lat="44.47558" lon="1.1413">
        <ele>138.276423</ele>
        <time>2021-04-04T12:12:15.579Z</time>
      </trkpt>
      <trkpt lat="44.47556" lon="1.14146">
        <ele>138.262458</ele>
        <time>2021-04-04T12:12:17.584Z</time>
      </trkpt>
      <trkpt lat="44.47551" lon="1.14164">
        <ele>138.247376</ele>
        <time>2021-04-04T12:12:19.581Z</time>
      </trkpt>
      <trkpt lat="44.47545" lon="1.14177">
        <ele>138.234186</ele>
        <time>2021-04-04T12:12:21.574Z</time>
      </trkpt>
      <trkpt lat="44.47544" lon="1.14196">
        <ele>138.218491</ele>
        <time>2021-04-04T12:12:23.575Z</time>
      </trkpt>
      <trkpt lat="44.47542" lon="1.14213">
        <ele>138.204223</ele>
        <time>2021-04-04T12:12:25.597Z</time>
      </trkpt>
      <trkpt lat="44.47538" lon="1.14231">
        <ele>138.18894</ele>
        <time>2021-04-04T12:12:27.585Z</time>
      </trkpt>
      <trkpt lat="44.47537" lon="1.14248">
        <ele>138.175038</ele>
        <time>2021-04-04T12:12:29.580Z</time>
      </trkpt>
      <trkpt lat="44.47535" lon="1.14264">
        <ele>138.162043</ele>
        <time>2021-04-04T12:12:31.602Z</time>
      </trkpt>
      <trkpt lat="44.47532" lon="1.14281">
        <ele>137.85147</ele>
        <time>2021-04-04T12:12:33.592Z</time>
      </trkpt>
      <trkpt lat="44.47528" lon="1.14297">
        <ele>137.496616</ele>
        <time>2021-04-04T12:12:35.570Z</time>
      </trkpt>
      <trkpt lat="44.47524" lon="1.14315">
        <ele>137.115662</ele>
        <time>2021-04-04T12:12:37.590Z</time>
      </trkpt>
      <trkpt lat="44.4752" lon="1.1433">
        <ele>136.794239</ele>
        <time>2021-04-04T12:12:39.572Z</time>
      </trkpt>
      <trkpt lat="44.47517" lon="1.14343">
        <ele>136.502062</ele>
        <time>2021-04-04T12:12:41.595Z</time>
      </trkpt>
      <trkpt lat="44.47511" lon="1.14361">
        <ele>136.121114</ele>
        <time>2021-04-04T12:12:43.588Z</time>
      </trkpt>
      <trkpt lat="44.47506" lon="1.1438">
        <ele>135.70312</ele>
        <time>2021-04-04T12:12:45.583Z</time>
      </trkpt>
      <trkpt lat="44.47501" lon="1.14396">
        <ele>135.347215</ele>
        <time>2021-04-04T12:12:47.594Z</time>
      </trkpt>
      <trkpt lat="44.47496" lon="1.14412">
        <ele>134.985004</ele>
        <time>2021-04-04T12:12:49.568Z</time>
      </trkpt>
      <trkpt lat="44.47491" lon="1.1443">
        <ele>134.591662</ele>
        <time>2021-04-04T12:12:51.577Z</time>
      </trkpt>
      <trkpt lat="44.47485" lon="1.14447">
        <ele>134.208958</ele>
        <time>2021-04-04T12:12:53.581Z</time>
      </trkpt>
      <trkpt lat="44.47479" lon="1.14465">
        <ele>133.80241</ele>
        <time>2021-04-04T12:12:55.575Z</time>
      </trkpt>
      <trkpt lat="44.47474" lon="1.14482">
        <ele>133.436067</ele>
        <time>2021-04-04T12:12:57.587Z</time>
      </trkpt>
      <trkpt lat="44.47467" lon="1.14502">
        <ele>133.057984</ele>
        <time>2021-04-04T12:12:59.573Z</time>
      </trkpt>
      <trkpt lat="44.47461" lon="1.1452">
        <ele>133.184249</ele>
        <time>2021-04-04T12:13:01.575Z</time>
      </trkpt>
      <trkpt lat="44.47458" lon="1.14535">
        <ele>133.286373</ele>
        <time>2021-04-04T12:13:03.565Z</time>
      </trkpt>
      <trkpt lat="44.47456" lon="1.1455">
        <ele>133.382462</ele>
        <time>2021-04-04T12:13:05.578Z</time>
      </trkpt>
      <trkpt lat="44.4745" lon="1.14568">
        <ele>133.512798</ele>
        <time>2021-04-04T12:13:07.576Z</time>
      </trkpt>
      <trkpt lat="44.47446" lon="1.14584">
        <ele>133.620183</ele>
        <time>2021-04-04T12:13:09.570Z</time>
      </trkpt>
      <trkpt lat="44.47443" lon="1.146">
        <ele>133.726507</ele>
        <time>2021-04-04T12:13:11.582Z</time>
      </trkpt>
      <trkpt lat="44.4744" lon="1.14612">
        <ele>133.807967</ele>
        <time>2021-04-04T12:13:12.585Z</time>
      </trkpt>
      <trkpt lat="44.47436" lon="1.14627">
        <ele>133.911989</ele>
        <time>2021-04-04T12:13:14.584Z</time>
      </trkpt>
      <trkpt lat="44.47434" lon="1.14645">
        <ele>134.029735</ele>
        <time>2021-04-04T12:13:16.579Z</time>
      </trkpt>
      <trkpt lat="44.47432" lon="1.14662">
        <ele>134.138879</ele>
        <time>2021-04-04T12:13:18.576Z</time>
      </trkpt>
      <trkpt lat="44.47433" lon="1.14679">
        <ele>134.250966</ele>
        <time>2021-04-04T12:13:20.575Z</time>
      </trkpt>
      <trkpt lat="44.47435" lon="1.14695">
        <ele>134.3499</ele>
        <time>2021-04-04T12:13:22.579Z</time>
      </trkpt>
      <trkpt lat="44.47436" lon="1.14712">
        <ele>134.463779</ele>
        <time>2021-04-04T12:13:24.583Z</time>
      </trkpt>
      <trkpt lat="44.47435" lon="1.14732">
        <ele>134.58739</ele>
        <time>2021-04-04T12:13:26.590Z</time>
      </trkpt>
      <trkpt lat="44.47436" lon="1.14749">
        <ele>134.564122</ele>
        <time>2021-04-04T12:13:28.574Z</time>
      </trkpt>
      <trkpt lat="44.47438" lon="1.14767">
        <ele>134.311042</ele>
        <time>2021-04-04T12:13:30.615Z</time>
      </trkpt>
      <trkpt lat="44.4744" lon="1.14784">
        <ele>134.059682</ele>
        <time>2021-04-04T12:13:32.582Z</time>
      </trkpt>
      <trkpt lat="44.47441" lon="1.14802">
        <ele>133.802754</ele>
        <time>2021-04-04T12:13:34.590Z</time>
      </trkpt>
      <trkpt lat="44.47441" lon="1.14821">
        <ele>133.532801</ele>
        <time>2021-04-04T12:13:36.589Z</time>
      </trkpt>
      <trkpt lat="44.47442" lon="1.14839">
        <ele>133.278425</ele>
        <time>2021-04-04T12:13:38.590Z</time>
      </trkpt>
      <trkpt lat="44.47442" lon="1.14858">
        <ele>133.007103</ele>
        <time>2021-04-04T12:13:40.583Z</time>
      </trkpt>
      <trkpt lat="44.47442" lon="1.14877">
        <ele>132.732669</ele>
        <time>2021-04-04T12:13:42.588Z</time>
      </trkpt>
      <trkpt lat="44.47443" lon="1.14895">
        <ele>132.480701</ele>
        <time>2021-04-04T12:13:44.579Z</time>
      </trkpt>
      <trkpt lat="44.47442" lon="1.14914">
        <ele>132.209919</ele>
        <time>2021-04-04T12:13:46.576Z</time>
      </trkpt>
      <trkpt lat="44.47443" lon="1.1493">
        <ele>131.973616</ele>
        <time>2021-04-04T12:13:48.582Z</time>
      </trkpt>
      <trkpt lat="44.47445" lon="1.14947">
        <ele>131.731316</ele>
        <time>2021-04-04T12:13:50.576Z</time>
      </trkpt>
      <trkpt lat="44.47446" lon="1.14962">
        <ele>131.512711</ele>
        <time>2021-04-04T12:13:52.588Z</time>
      </trkpt>
      <trkpt lat="44.47447" lon="1.14979">
        <ele>131.275364</ele>
        <time>2021-04-04T12:13:54.591Z</time>
      </trkpt>
      <trkpt lat="44.47448" lon="1.14996">
        <ele>131.102235</ele>
        <time>2021-04-04T12:13:56.591Z</time>
      </trkpt>
      <trkpt lat="44.47444" lon="1.15009">
        <ele>131.398478</ele>
        <time>2021-04-04T12:13:58.591Z</time>
      </trkpt>
      <trkpt lat="44.47436" lon="1.15018">
        <ele>131.680377</ele>
        <time>2021-04-04T12:14:00.568Z</time>
      </trkpt>
      <trkpt lat="44.47427" lon="1.15021">
        <ele>131.953735</ele>
        <time>2021-04-04T12:14:02.560Z</time>
      </trkpt>
      <trkpt lat="44.47417" lon="1.15024">
        <ele>132.257518</ele>
        <time>2021-04-04T12:14:04.562Z</time>
      </trkpt>
      <trkpt lat="44.47408" lon="1.15028">
        <ele>132.520143</ele>
        <time>2021-04-04T12:14:06.573Z</time>
      </trkpt>
      <trkpt lat="44.47399" lon="1.15033">
        <ele>132.79755</ele>
        <time>2021-04-04T12:14:08.566Z</time>
      </trkpt>
      <trkpt lat="44.4739" lon="1.15037">
        <ele>133.074242</ele>
        <time>2021-04-04T12:14:10.572Z</time>
      </trkpt>
      <trkpt lat="44.47376" lon="1.15044">
        <ele>133.47816</ele>
        <time>2021-04-04T12:14:13.583Z</time>
      </trkpt>
      <trkpt lat="44.47367" lon="1.15048">
        <ele>133.767812</ele>
        <time>2021-04-04T12:14:15.598Z</time>
      </trkpt>
      <trkpt lat="44.47353" lon="1.15053">
        <ele>134.179016</ele>
        <time>2021-04-04T12:14:18.585Z</time>
      </trkpt>
      <trkpt lat="44.47339" lon="1.15055">
        <ele>134.556545</ele>
        <time>2021-04-04T12:14:21.572Z</time>
      </trkpt>
      <trkpt lat="44.47329" lon="1.15056">
        <ele>134.853958</ele>
        <time>2021-04-04T12:14:23.567Z</time>
      </trkpt>
      <trkpt lat="44.4732" lon="1.15058">
        <ele>135.125529</ele>
        <time>2021-04-04T12:14:26.589Z</time>
      </trkpt>
      <trkpt lat="44.47308" lon="1.1506">
        <ele>135.447652</ele>
        <time>2021-04-04T12:14:29.590Z</time>
      </trkpt>
      <trkpt lat="44.47297" lon="1.15061">
        <ele>135.768286</ele>
        <time>2021-04-04T12:14:32.578Z</time>
      </trkpt>
      <trkpt lat="44.47286" lon="1.15062">
        <ele>136.082542</ele>
        <time>2021-04-04T12:14:35.576Z</time>
      </trkpt>
      <trkpt lat="44.47276" lon="1.15064">
        <ele>136.249188</ele>
        <time>2021-04-04T12:14:38.588Z</time>
      </trkpt>
      <trkpt lat="44.47265" lon="1.15067">
        <ele>136.338163</ele>
        <time>2021-04-04T12:14:41.581Z</time>
      </trkpt>
      <trkpt lat="44.47255" lon="1.15068">
        <ele>136.427045</ele>
        <time>2021-04-04T12:14:44.567Z</time>
      </trkpt>
      <trkpt lat="44.47243" lon="1.15071">
        <ele>136.52434</ele>
        <time>2021-04-04T12:14:47.588Z</time>
      </trkpt>
      <trkpt lat="44.47231" lon="1.15072">
        <ele>136.628558</ele>
        <time>2021-04-04T12:14:50.568Z</time>
      </trkpt>
      <trkpt lat="44.47218" lon="1.15074">
        <ele>136.738546</ele>
        <time>2021-04-04T12:14:53.586Z</time>
      </trkpt>
      <trkpt lat="44.47209" lon="1.15074">
        <ele>136.814437</ele>
        <time>2021-04-04T12:14:55.587Z</time>
      </trkpt>
      <trkpt lat="44.47199" lon="1.15075">
        <ele>136.89809</ele>
        <time>2021-04-04T12:14:57.583Z</time>
      </trkpt>
      <trkpt lat="44.47187" lon="1.15078">
        <ele>136.999938</ele>
        <time>2021-04-04T12:14:59.579Z</time>
      </trkpt>
      <trkpt lat="44.47176" lon="1.15079">
        <ele>137.098857</ele>
        <time>2021-04-04T12:15:01.606Z</time>
      </trkpt>
      <trkpt lat="44.47164" lon="1.15082">
        <ele>137.196554</ele>
        <time>2021-04-04T12:15:03.569Z</time>
      </trkpt>
      <trkpt lat="44.47153" lon="1.15085">
        <ele>137.296736</ele>
        <time>2021-04-04T12:15:05.581Z</time>
      </trkpt>
      <trkpt lat="44.47139" lon="1.15089">
        <ele>137.409904</ele>
        <time>2021-04-04T12:15:07.580Z</time>
      </trkpt>
      <trkpt lat="44.47127" lon="1.15093">
        <ele>137.51624</ele>
        <time>2021-04-04T12:15:09.579Z</time>
      </trkpt>
      <trkpt lat="44.47116" lon="1.15096">
        <ele>137.616294</ele>
        <time>2021-04-04T12:15:11.584Z</time>
      </trkpt>
      <trkpt lat="44.47104" lon="1.15101">
        <ele>137.696689</ele>
        <time>2021-04-04T12:15:13.583Z</time>
      </trkpt>
      <trkpt lat="44.47092" lon="1.15101">
        <ele>137.607345</ele>
        <time>2021-04-04T12:15:15.576Z</time>
      </trkpt>
      <trkpt lat="44.47078" lon="1.15098">
        <ele>137.507316</ele>
        <time>2021-04-04T12:15:17.576Z</time>
      </trkpt>
      <trkpt lat="44.47069" lon="1.15097">
        <ele>137.440072</ele>
        <time>2021-04-04T12:15:18.599Z</time>
      </trkpt>
      <trkpt lat="44.47056" lon="1.15096">
        <ele>137.342421</ele>
        <time>2021-04-04T12:15:20.574Z</time>
      </trkpt>
      <trkpt lat="44.47042" lon="1.15094">
        <ele>137.235453</ele>
        <time>2021-04-04T12:15:22.579Z</time>
      </trkpt>
      <trkpt lat="44.47029" lon="1.15092">
        <ele>137.137425</ele>
        <time>2021-04-04T12:15:24.585Z</time>
      </trkpt>
      <trkpt lat="44.47015" lon="1.1509">
        <ele>137.032506</ele>
        <time>2021-04-04T12:15:26.584Z</time>
      </trkpt>
      <trkpt lat="44.47002" lon="1.15089">
        <ele>136.936113</ele>
        <time>2021-04-04T12:15:28.581Z</time>
      </trkpt>
      <trkpt lat="44.46987" lon="1.15085">
        <ele>136.821729</ele>
        <time>2021-04-04T12:15:30.593Z</time>
      </trkpt>
      <trkpt lat="44.46971" lon="1.15082">
        <ele>136.706737</ele>
        <time>2021-04-04T12:15:32.578Z</time>
      </trkpt>
      <trkpt lat="44.46957" lon="1.15077">
        <ele>136.596419</ele>
        <time>2021-04-04T12:15:34.575Z</time>
      </trkpt>
      <trkpt lat="44.46944" lon="1.15079">
        <ele>136.50238</ele>
        <time>2021-04-04T12:15:36.571Z</time>
      </trkpt>
      <trkpt lat="44.4693" lon="1.1508">
        <ele>136.39787</ele>
        <time>2021-04-04T12:15:38.568Z</time>
      </trkpt>
      <trkpt lat="44.46916" lon="1.15083">
        <ele>136.885538</ele>
        <time>2021-04-04T12:15:40.580Z</time>
      </trkpt>
      <trkpt lat="44.46903" lon="1.15082">
        <ele>137.481962</ele>
        <time>2021-04-04T12:15:42.589Z</time>
      </trkpt>
      <trkpt lat="44.4689" lon="1.15082">
        <ele>138.101389</ele>
        <time>2021-04-04T12:15:44.592Z</time>
      </trkpt>
      <trkpt lat="44.46876" lon="1.15081">
        <ele>138.740649</ele>
        <time>2021-04-04T12:15:46.570Z</time>
      </trkpt>
      <trkpt lat="44.46863" lon="1.15079">
        <ele>139.342007</ele>
        <time>2021-04-04T12:15:48.584Z</time>
      </trkpt>
      <trkpt lat="44.4685" lon="1.15078">
        <ele>139.962529</ele>
        <time>2021-04-04T12:15:50.571Z</time>
      </trkpt>
      <trkpt lat="44.46836" lon="1.15074">
        <ele>140.632811</ele>
        <time>2021-04-04T12:15:52.577Z</time>
      </trkpt>
      <trkpt lat="44.46823" lon="1.15069">
        <ele>141.273592</ele>
        <time>2021-04-04T12:15:54.566Z</time>
      </trkpt>
      <trkpt lat="44.46811" lon="1.15061">
        <ele>141.885898</ele>
        <time>2021-04-04T12:15:56.563Z</time>
      </trkpt>
      <trkpt lat="44.46799" lon="1.15053">
        <ele>142.517312</ele>
        <time>2021-04-04T12:15:58.568Z</time>
      </trkpt>
      <trkpt lat="44.46785" lon="1.15047">
        <ele>143.218591</ele>
        <time>2021-04-04T12:16:00.590Z</time>
      </trkpt>
      <trkpt lat="44.46772" lon="1.15041">
        <ele>143.848593</ele>
        <time>2021-04-04T12:16:02.578Z</time>
      </trkpt>
      <trkpt lat="44.46759" lon="1.15035">
        <ele>144.50574</ele>
        <time>2021-04-04T12:16:04.587Z</time>
      </trkpt>
      <trkpt lat="44.46745" lon="1.1503">
        <ele>145.013978</ele>
        <time>2021-04-04T12:16:06.573Z</time>
      </trkpt>
      <trkpt lat="44.46732" lon="1.15025">
        <ele>145.35364</ele>
        <time>2021-04-04T12:16:08.573Z</time>
      </trkpt>
      <trkpt lat="44.46719" lon="1.1502">
        <ele>145.698677</ele>
        <time>2021-04-04T12:16:10.573Z</time>
      </trkpt>
      <trkpt lat="44.46705" lon="1.15015">
        <ele>146.050585</ele>
        <time>2021-04-04T12:16:12.587Z</time>
      </trkpt>
      <trkpt lat="44.46693" lon="1.15009">
        <ele>146.390701</ele>
        <time>2021-04-04T12:16:14.591Z</time>
      </trkpt>
      <trkpt lat="44.4668" lon="1.15002">
        <ele>146.73299</ele>
        <time>2021-04-04T12:16:16.589Z</time>
      </trkpt>
      <trkpt lat="44.46668" lon="1.14993">
        <ele>147.081029</ele>
        <time>2021-04-04T12:16:18.581Z</time>
      </trkpt>
      <trkpt lat="44.46654" lon="1.14986">
        <ele>147.446961</ele>
        <time>2021-04-04T12:16:20.577Z</time>
      </trkpt>
      <trkpt lat="44.46642" lon="1.14979">
        <ele>147.790627</ele>
        <time>2021-04-04T12:16:22.571Z</time>
      </trkpt>
      <trkpt lat="44.4663" lon="1.14972">
        <ele>148.119569</ele>
        <time>2021-04-04T12:16:24.581Z</time>
      </trkpt>
      <trkpt lat="44.46619" lon="1.14964">
        <ele>148.435344</ele>
        <time>2021-04-04T12:16:26.608Z</time>
      </trkpt>
      <trkpt lat="44.46607" lon="1.14956">
        <ele>148.756031</ele>
        <time>2021-04-04T12:16:28.583Z</time>
      </trkpt>
      <trkpt lat="44.46596" lon="1.14949">
        <ele>149.083373</ele>
        <time>2021-04-04T12:16:30.581Z</time>
      </trkpt>
      <trkpt lat="44.46584" lon="1.14942">
        <ele>149.403102</ele>
        <time>2021-04-04T12:16:32.587Z</time>
      </trkpt>
      <trkpt lat="44.46573" lon="1.14934">
        <ele>149.672612</ele>
        <time>2021-04-04T12:16:34.584Z</time>
      </trkpt>
      <trkpt lat="44.46561" lon="1.14928">
        <ele>149.941178</ele>
        <time>2021-04-04T12:16:36.582Z</time>
      </trkpt>
      <trkpt lat="44.4655" lon="1.1492">
        <ele>150.210689</ele>
        <time>2021-04-04T12:16:38.585Z</time>
      </trkpt>
      <trkpt lat="44.46538" lon="1.14913">
        <ele>150.475104</ele>
        <time>2021-04-04T12:16:40.580Z</time>
      </trkpt>
      <trkpt lat="44.46527" lon="1.14906">
        <ele>150.748005</ele>
        <time>2021-04-04T12:16:42.592Z</time>
      </trkpt>
      <trkpt lat="44.46514" lon="1.14899">
        <ele>151.03637</ele>
        <time>2021-04-04T12:16:44.588Z</time>
      </trkpt>
      <trkpt lat="44.46503" lon="1.1489">
        <ele>151.311254</ele>
        <time>2021-04-04T12:16:46.583Z</time>
      </trkpt>
      <trkpt lat="44.46492" lon="1.14881">
        <ele>151.593507</ele>
        <time>2021-04-04T12:16:48.579Z</time>
      </trkpt>
      <trkpt lat="44.4648" lon="1.14871">
        <ele>151.888819</ele>
        <time>2021-04-04T12:16:50.577Z</time>
      </trkpt>
      <trkpt lat="44.4647" lon="1.1486">
        <ele>152.162485</ele>
        <time>2021-04-04T12:16:52.590Z</time>
      </trkpt>
      <trkpt lat="44.4646" lon="1.1485">
        <ele>152.427123</ele>
        <time>2021-04-04T12:16:54.570Z</time>
      </trkpt>
      <trkpt lat="44.46451" lon="1.14839">
        <ele>152.680559</ele>
        <time>2021-04-04T12:16:56.581Z</time>
      </trkpt>
      <trkpt lat="44.46442" lon="1.14828">
        <ele>152.940646</ele>
        <time>2021-04-04T12:16:58.593Z</time>
      </trkpt>
      <trkpt lat="44.46432" lon="1.14819">
        <ele>153.186879</ele>
        <time>2021-04-04T12:17:00.586Z</time>
      </trkpt>
      <trkpt lat="44.46423" lon="1.14812">
        <ele>153.16226</ele>
        <time>2021-04-04T12:17:02.573Z</time>
      </trkpt>
      <trkpt lat="44.46411" lon="1.14806">
        <ele>153.051478</ele>
        <time>2021-04-04T12:17:04.580Z</time>
      </trkpt>
      <trkpt lat="44.464" lon="1.148">
        <ele>152.943674</ele>
        <time>2021-04-04T12:17:06.588Z</time>
      </trkpt>
      <trkpt lat="44.46388" lon="1.14794">
        <ele>152.837418</ele>
        <time>2021-04-04T12:17:08.590Z</time>
      </trkpt>
      <trkpt lat="44.46376" lon="1.14789">
        <ele>152.729109</ele>
        <time>2021-04-04T12:17:10.581Z</time>
      </trkpt>
      <trkpt lat="44.46366" lon="1.14783">
        <ele>152.629369</ele>
        <time>2021-04-04T12:17:12.583Z</time>
      </trkpt>
      <trkpt lat="44.46355" lon="1.14777">
        <ele>152.532955</ele>
        <time>2021-04-04T12:17:14.582Z</time>
      </trkpt>
      <trkpt lat="44.46345" lon="1.1477">
        <ele>152.432293</ele>
        <time>2021-04-04T12:17:16.588Z</time>
      </trkpt>
      <trkpt lat="44.46333" lon="1.14766">
        <ele>152.328628</ele>
        <time>2021-04-04T12:17:18.601Z</time>
      </trkpt>
      <trkpt lat="44.46323" lon="1.1476">
        <ele>152.23242</ele>
        <time>2021-04-04T12:17:20.595Z</time>
      </trkpt>
      <trkpt lat="44.46312" lon="1.14754">
        <ele>152.128145</ele>
        <time>2021-04-04T12:17:22.591Z</time>
      </trkpt>
      <trkpt lat="44.463" lon="1.14748">
        <ele>152.020647</ele>
        <time>2021-04-04T12:17:24.562Z</time>
      </trkpt>
      <trkpt lat="44.46291" lon="1.1474">
        <ele>151.92781</ele>
        <time>2021-04-04T12:17:26.573Z</time>
      </trkpt>
      <trkpt lat="44.46283" lon="1.14729">
        <ele>151.826673</ele>
        <time>2021-04-04T12:17:28.574Z</time>
      </trkpt>
      <trkpt lat="44.46276" lon="1.14716">
        <ele>151.732227</ele>
        <time>2021-04-04T12:17:30.569Z</time>
      </trkpt>
      <trkpt lat="44.46271" lon="1.147">
        <ele>151.812182</ele>
        <time>2021-04-04T12:17:33.579Z</time>
      </trkpt>
      <trkpt lat="44.46262" lon="1.14689">
        <ele>152.128278</ele>
        <time>2021-04-04T12:17:36.596Z</time>
      </trkpt>
      <trkpt lat="44.46252" lon="1.14682">
        <ele>152.411241</ele>
        <time>2021-04-04T12:17:39.571Z</time>
      </trkpt>
      <trkpt lat="44.46242" lon="1.14679">
        <ele>152.683408</ele>
        <time>2021-04-04T12:17:42.561Z</time>
      </trkpt>
      <trkpt lat="44.46232" lon="1.14677">
        <ele>152.938584</ele>
        <time>2021-04-04T12:17:45.591Z</time>
      </trkpt>
      <trkpt lat="44.46222" lon="1.14676">
        <ele>153.187619</ele>
        <time>2021-04-04T12:17:48.575Z</time>
      </trkpt>
      <trkpt lat="44.46213" lon="1.14675">
        <ele>153.420957</ele>
        <time>2021-04-04T12:17:51.583Z</time>
      </trkpt>
      <trkpt lat="44.46204" lon="1.14675">
        <ele>153.664537</ele>
        <time>2021-04-04T12:17:54.584Z</time>
      </trkpt>
      <trkpt lat="44.46195" lon="1.14675">
        <ele>153.908082</ele>
        <time>2021-04-04T12:17:57.576Z</time>
      </trkpt>
      <trkpt lat="44.46183" lon="1.14675">
        <ele>154.213773</ele>
        <time>2021-04-04T12:18:01.579Z</time>
      </trkpt>
      <trkpt lat="44.46174" lon="1.14674">
        <ele>154.44766</ele>
        <time>2021-04-04T12:18:04.566Z</time>
      </trkpt>
      <trkpt lat="44.46164" lon="1.14674">
        <ele>154.699281</ele>
        <time>2021-04-04T12:18:07.604Z</time>
      </trkpt>
      <trkpt lat="44.46155" lon="1.14675">
        <ele>154.949733</ele>
        <time>2021-04-04T12:18:10.571Z</time>
      </trkpt>
      <trkpt lat="44.46145" lon="1.14677">
        <ele>155.196041</ele>
        <time>2021-04-04T12:18:13.588Z</time>
      </trkpt>
      <trkpt lat="44.46136" lon="1.14679">
        <ele>155.435985</ele>
        <time>2021-04-04T12:18:16.585Z</time>
      </trkpt>
      <trkpt lat="44.46127" lon="1.14679">
        <ele>155.669323</ele>
        <time>2021-04-04T12:18:19.577Z</time>
      </trkpt>
      <trkpt lat="44.46117" lon="1.14679">
        <ele>155.915431</ele>
        <time>2021-04-04T12:18:22.560Z</time>
      </trkpt>
      <trkpt lat="44.46108" lon="1.14681">
        <ele>156.158645</ele>
        <time>2021-04-04T12:18:25.574Z</time>
      </trkpt>
      <trkpt lat="44.46096" lon="1.14681">
        <ele>156.64122</ele>
        <time>2021-04-04T12:18:29.579Z</time>
      </trkpt>
      <trkpt lat="44.46086" lon="1.14682">
        <ele>157.227426</ele>
        <time>2021-04-04T12:18:32.583Z</time>
      </trkpt>
      <trkpt lat="44.46076" lon="1.14683">
        <ele>157.808739</ele>
        <time>2021-04-04T12:18:35.588Z</time>
      </trkpt>
      <trkpt lat="44.46067" lon="1.14683">
        <ele>158.382283</ele>
        <time>2021-04-04T12:18:38.584Z</time>
      </trkpt>
      <trkpt lat="44.46057" lon="1.14682">
        <ele>158.946113</ele>
        <time>2021-04-04T12:18:41.580Z</time>
      </trkpt>
      <trkpt lat="44.46047" lon="1.14681">
        <ele>159.512181</ele>
        <time>2021-04-04T12:18:44.587Z</time>
      </trkpt>
      <trkpt lat="44.46037" lon="1.14679">
        <ele>160.102536</ele>
        <time>2021-04-04T12:18:47.571Z</time>
      </trkpt>
      <trkpt lat="44.46028" lon="1.14677">
        <ele>160.668096</ele>
        <time>2021-04-04T12:18:50.593Z</time>
      </trkpt>
      <trkpt lat="44.46018" lon="1.14675">
        <ele>161.222069</ele>
        <time>2021-04-04T12:18:53.581Z</time>
      </trkpt>
      <trkpt lat="44.46007" lon="1.14672">
        <ele>161.909298</ele>
        <time>2021-04-04T12:18:57.571Z</time>
      </trkpt>
      <trkpt lat="44.45998" lon="1.14673">
        <ele>162.44245</ele>
        <time>2021-04-04T12:19:00.583Z</time>
      </trkpt>
      <trkpt lat="44.45988" lon="1.14675">
        <ele>163.005074</ele>
        <time>2021-04-04T12:19:03.574Z</time>
      </trkpt>
      <trkpt lat="44.45979" lon="1.14679">
        <ele>163.560022</ele>
        <time>2021-04-04T12:19:06.582Z</time>
      </trkpt>
      <trkpt lat="44.4597" lon="1.14684">
        <ele>164.149713</ele>
        <time>2021-04-04T12:19:09.584Z</time>
      </trkpt>
      <trkpt lat="44.45961" lon="1.14689">
        <ele>164.698247</ele>
        <time>2021-04-04T12:19:12.580Z</time>
      </trkpt>
      <trkpt lat="44.45952" lon="1.14693">
        <ele>165.266176</ele>
        <time>2021-04-04T12:19:15.588Z</time>
      </trkpt>
      <trkpt lat="44.45943" lon="1.14695">
        <ele>165.815216</ele>
        <time>2021-04-04T12:19:18.572Z</time>
      </trkpt>
      <trkpt lat="44.45934" lon="1.14697">
        <ele>166.347659</ele>
        <time>2021-04-04T12:19:21.577Z</time>
      </trkpt>
      <trkpt lat="44.45922" lon="1.14697">
        <ele>167.187538</ele>
        <time>2021-04-04T12:19:25.574Z</time>
      </trkpt>
      <trkpt lat="44.45912" lon="1.14696">
        <ele>168.084881</ele>
        <time>2021-04-04T12:19:28.582Z</time>
      </trkpt>
      <trkpt lat="44.45903" lon="1.14693">
        <ele>169.007455</ele>
        <time>2021-04-04T12:19:31.576Z</time>
      </trkpt>
      <trkpt lat="44.45894" lon="1.14689">
        <ele>169.902012</ele>
        <time>2021-04-04T12:19:34.578Z</time>
      </trkpt>
      <trkpt lat="44.45885" lon="1.14687">
        <ele>170.824586</ele>
        <time>2021-04-04T12:19:37.578Z</time>
      </trkpt>
      <trkpt lat="44.45875" lon="1.14688">
        <ele>171.732106</ele>
        <time>2021-04-04T12:19:40.572Z</time>
      </trkpt>
      <trkpt lat="44.45867" lon="1.14693">
        <ele>172.62358</ele>
        <time>2021-04-04T12:19:43.572Z</time>
      </trkpt>
      <trkpt lat="44.45858" lon="1.14703">
        <ele>173.72242</ele>
        <time>2021-04-04T12:19:47.592Z</time>
      </trkpt>
      <trkpt lat="44.45849" lon="1.14709">
        <ele>174.611866</ele>
        <time>2021-04-04T12:19:50.573Z</time>
      </trkpt>
      <trkpt lat="44.4584" lon="1.14713">
        <ele>175.573873</ele>
        <time>2021-04-04T12:19:53.578Z</time>
      </trkpt>
      <trkpt lat="44.45828" lon="1.14717">
        <ele>176.732146</ele>
        <time>2021-04-04T12:19:57.580Z</time>
      </trkpt>
      <trkpt lat="44.45819" lon="1.14719">
        <ele>177.650807</ele>
        <time>2021-04-04T12:20:00.569Z</time>
      </trkpt>
      <trkpt lat="44.45809" lon="1.14722">
        <ele>178.638582</ele>
        <time>2021-04-04T12:20:03.568Z</time>
      </trkpt>
      <trkpt lat="44.45798" lon="1.14726">
        <ele>179.704381</ele>
        <time>2021-04-04T12:20:06.575Z</time>
      </trkpt>
      <trkpt lat="44.45788" lon="1.14729">
        <ele>180.703723</ele>
        <time>2021-04-04T12:20:09.583Z</time>
      </trkpt>
      <trkpt lat="44.45778" lon="1.14731">
        <ele>181.606086</ele>
        <time>2021-04-04T12:20:12.580Z</time>
      </trkpt>
      <trkpt lat="44.45769" lon="1.14735">
        <ele>182.498835</ele>
        <time>2021-04-04T12:20:15.595Z</time>
      </trkpt>
      <trkpt lat="44.4576" lon="1.14737">
        <ele>183.406822</ele>
        <time>2021-04-04T12:20:18.584Z</time>
      </trkpt>
      <trkpt lat="44.45751" lon="1.14739">
        <ele>184.27442</ele>
        <time>2021-04-04T12:20:21.579Z</time>
      </trkpt>
      <trkpt lat="44.45741" lon="1.1474">
        <ele>184.960739</ele>
        <time>2021-04-04T12:20:24.575Z</time>
      </trkpt>
      <trkpt lat="44.45732" lon="1.14738">
        <ele>185.619979</ele>
        <time>2021-04-04T12:20:27.579Z</time>
      </trkpt>
      <trkpt lat="44.45721" lon="1.14731">
        <ele>186.490291</ele>
        <time>2021-04-04T12:20:31.579Z</time>
      </trkpt>
      <trkpt lat="44.45713" lon="1.14722">
        <ele>187.197363</ele>
        <time>2021-04-04T12:20:34.595Z</time>
      </trkpt>
      <trkpt lat="44.45706" lon="1.14713">
        <ele>187.899305</ele>
        <time>2021-04-04T12:20:37.593Z</time>
      </trkpt>
      <trkpt lat="44.457" lon="1.14702">
        <ele>188.578983</ele>
        <time>2021-04-04T12:20:40.571Z</time>
      </trkpt>
      <trkpt lat="44.45696" lon="1.1469">
        <ele>189.257765</ele>
        <time>2021-04-04T12:20:43.565Z</time>
      </trkpt>
      <trkpt lat="44.45691" lon="1.14678">
        <ele>189.948819</ele>
        <time>2021-04-04T12:20:46.579Z</time>
      </trkpt>
      <trkpt lat="44.45687" lon="1.14666">
        <ele>190.644902</ele>
        <time>2021-04-04T12:20:49.585Z</time>
      </trkpt>
      <trkpt lat="44.45684" lon="1.14654">
        <ele>191.325163</ele>
        <time>2021-04-04T12:20:52.575Z</time>
      </trkpt>
      <trkpt lat="44.45679" lon="1.14643">
        <ele>191.972596</ele>
        <time>2021-04-04T12:20:55.592Z</time>
      </trkpt>
      <trkpt lat="44.4567" lon="1.14634">
        <ele>192.752387</ele>
        <time>2021-04-04T12:20:59.571Z</time>
      </trkpt>
      <trkpt lat="44.4566" lon="1.1463">
        <ele>193.448989</ele>
        <time>2021-04-04T12:21:02.569Z</time>
      </trkpt>
      <trkpt lat="44.45653" lon="1.14623">
        <ele>194.126512</ele>
        <time>2021-04-04T12:21:05.561Z</time>
      </trkpt>
      <trkpt lat="44.45648" lon="1.14611">
        <ele>194.806643</ele>
        <time>2021-04-04T12:21:08.563Z</time>
      </trkpt>
      <trkpt lat="44.45651" lon="1.14598">
        <ele>195.501915</ele>
        <time>2021-04-04T12:21:11.571Z</time>
      </trkpt>
      <trkpt lat="44.45662" lon="1.1459">
        <ele>196.363573</ele>
        <time>2021-04-04T12:21:15.566Z</time>
      </trkpt>
      <trkpt lat="44.45673" lon="1.14594">
        <ele>197.148336</ele>
        <time>2021-04-04T12:21:18.575Z</time>
      </trkpt>
      <trkpt lat="44.45681" lon="1.14604">
        <ele>197.935363</ele>
        <time>2021-04-04T12:21:21.566Z</time>
      </trkpt>
      <trkpt lat="44.45687" lon="1.14616">
        <ele>198.752407</ele>
        <time>2021-04-04T12:21:24.565Z</time>
      </trkpt>
      <trkpt lat="44.45692" lon="1.1463">
        <ele>199.558734</ele>
        <time>2021-04-04T12:21:27.578Z</time>
      </trkpt>
      <trkpt lat="44.45698" lon="1.14642">
        <ele>200.376363</ele>
        <time>2021-04-04T12:21:30.576Z</time>
      </trkpt>
      <trkpt lat="44.45704" lon="1.14653">
        <ele>201.141369</ele>
        <time>2021-04-04T12:21:33.581Z</time>
      </trkpt>
      <trkpt lat="44.45712" lon="1.14662">
        <ele>201.886715</ele>
        <time>2021-04-04T12:21:36.565Z</time>
      </trkpt>
      <trkpt lat="44.45721" lon="1.14667">
        <ele>202.631706</ele>
        <time>2021-04-04T12:21:39.571Z</time>
      </trkpt>
      <trkpt lat="44.45731" lon="1.14669">
        <ele>203.395321</ele>
        <time>2021-04-04T12:21:42.569Z</time>
      </trkpt>
      <trkpt lat="44.45741" lon="1.14667">
        <ele>204.170083</ele>
        <time>2021-04-04T12:21:45.564Z</time>
      </trkpt>
      <trkpt lat="44.45751" lon="1.14664">
        <ele>204.932954</ele>
        <time>2021-04-04T12:21:48.581Z</time>
      </trkpt>
      <trkpt lat="44.4576" lon="1.14658">
        <ele>205.690961</ele>
        <time>2021-04-04T12:21:51.565Z</time>
      </trkpt>
      <trkpt lat="44.45769" lon="1.14651">
        <ele>206.428833</ele>
        <time>2021-04-04T12:21:54.582Z</time>
      </trkpt>
      <trkpt lat="44.45778" lon="1.14645">
        <ele>207.183393</ele>
        <time>2021-04-04T12:21:57.589Z</time>
      </trkpt>
      <trkpt lat="44.45787" lon="1.14638">
        <ele>207.956379</ele>
        <time>2021-04-04T12:22:00.589Z</time>
      </trkpt>
      <trkpt lat="44.45795" lon="1.14632">
        <ele>208.685853</ele>
        <time>2021-04-04T12:22:03.572Z</time>
      </trkpt>
      <trkpt lat="44.45803" lon="1.14625">
        <ele>209.379739</ele>
        <time>2021-04-04T12:22:06.588Z</time>
      </trkpt>
      <trkpt lat="44.45811" lon="1.14614">
        <ele>210.258443</ele>
        <time>2021-04-04T12:22:10.583Z</time>
      </trkpt>
      <trkpt lat="44.45818" lon="1.14604">
        <ele>210.892946</ele>
        <time>2021-04-04T12:22:13.566Z</time>
      </trkpt>
      <trkpt lat="44.45823" lon="1.14594">
        <ele>211.498748</ele>
        <time>2021-04-04T12:22:16.567Z</time>
      </trkpt>
      <trkpt lat="44.45829" lon="1.14582">
        <ele>212.165253</ele>
        <time>2021-04-04T12:22:19.588Z</time>
      </trkpt>
      <trkpt lat="44.45835" lon="1.14572">
        <ele>212.767338</ele>
        <time>2021-04-04T12:22:22.587Z</time>
      </trkpt>
      <trkpt lat="44.45839" lon="1.14561">
        <ele>213.360002</ele>
        <time>2021-04-04T12:22:25.581Z</time>
      </trkpt>
      <trkpt lat="44.45845" lon="1.1455">
        <ele>213.977091</ele>
        <time>2021-04-04T12:22:28.578Z</time>
      </trkpt>
      <trkpt lat="44.4585" lon="1.14539">
        <ele>214.59062</ele>
        <time>2021-04-04T12:22:31.571Z</time>
      </trkpt>
      <trkpt lat="44.45858" lon="1.1453">
        <ele>215.206782</ele>
        <time>2021-04-04T12:22:34.589Z</time>
      </trkpt>
      <trkpt lat="44.45867" lon="1.14526">
        <ele>215.869199</ele>
        <time>2021-04-04T12:22:37.574Z</time>
      </trkpt>
      <trkpt lat="44.45877" lon="1.14528">
        <ele>216.493866</ele>
        <time>2021-04-04T12:22:40.563Z</time>
      </trkpt>
      <trkpt lat="44.45886" lon="1.14533">
        <ele>217.140702</ele>
        <time>2021-04-04T12:22:43.567Z</time>
      </trkpt>
      <trkpt lat="44.45895" lon="1.14538">
        <ele>217.758367</ele>
        <time>2021-04-04T12:22:46.581Z</time>
      </trkpt>
      <trkpt lat="44.45905" lon="1.1454">
        <ele>218.382008</ele>
        <time>2021-04-04T12:22:49.575Z</time>
      </trkpt>
      <trkpt lat="44.45914" lon="1.14539">
        <ele>218.991455</ele>
        <time>2021-04-04T12:22:52.584Z</time>
      </trkpt>
      <trkpt lat="44.45923" lon="1.14533">
        <ele>219.666658</ele>
        <time>2021-04-04T12:22:55.570Z</time>
      </trkpt>
      <trkpt lat="44.45932" lon="1.14523">
        <ele>220.38756</ele>
        <time>2021-04-04T12:22:58.580Z</time>
      </trkpt>
      <trkpt lat="44.4594" lon="1.14513">
        <ele>221.081944</ele>
        <time>2021-04-04T12:23:01.562Z</time>
      </trkpt>
      <trkpt lat="44.45949" lon="1.14503">
        <ele>221.788397</ele>
        <time>2021-04-04T12:23:04.571Z</time>
      </trkpt>
      <trkpt lat="44.45956" lon="1.14494">
        <ele>222.113062</ele>
        <time>2021-04-04T12:23:07.572Z</time>
      </trkpt>
      <trkpt lat="44.45964" lon="1.14485">
        <ele>221.817971</ele>
        <time>2021-04-04T12:23:10.563Z</time>
      </trkpt>
      <trkpt lat="44.45972" lon="1.14477">
        <ele>221.514588</ele>
        <time>2021-04-04T12:23:13.562Z</time>
      </trkpt>
      <trkpt lat="44.45979" lon="1.14469">
        <ele>221.235288</ele>
        <time>2021-04-04T12:23:16.562Z</time>
      </trkpt>
      <trkpt lat="44.45987" lon="1.14462">
        <ele>220.964572</ele>
        <time>2021-04-04T12:23:19.561Z</time>
      </trkpt>
      <trkpt lat="44.45996" lon="1.14457">
        <ele>220.683702</ele>
        <time>2021-04-04T12:23:22.563Z</time>
      </trkpt>
      <trkpt lat="44.46005" lon="1.14454">
        <ele>220.410416</ele>
        <time>2021-04-04T12:23:25.571Z</time>
      </trkpt>
      <trkpt lat="44.46014" lon="1.14452">
        <ele>220.134685</ele>
        <time>2021-04-04T12:23:28.564Z</time>
      </trkpt>
      <trkpt lat="44.46024" lon="1.14452">
        <ele>219.834217</ele>
        <time>2021-04-04T12:23:31.560Z</time>
      </trkpt>
      <trkpt lat="44.46035" lon="1.14451">
        <ele>219.521049</ele>
        <time>2021-04-04T12:23:34.562Z</time>
      </trkpt>
      <trkpt lat="44.46044" lon="1.14448">
        <ele>219.220658</ele>
        <time>2021-04-04T12:23:37.564Z</time>
      </trkpt>
      <trkpt lat="44.46054" lon="1.14442">
        <ele>218.914306</ele>
        <time>2021-04-04T12:23:40.562Z</time>
      </trkpt>
      <trkpt lat="44.46061" lon="1.14433">
        <ele>218.623769</ele>
        <time>2021-04-04T12:23:43.567Z</time>
      </trkpt>
      <trkpt lat="44.46066" lon="1.14421">
        <ele>218.327597</ele>
        <time>2021-04-04T12:23:46.563Z</time>
      </trkpt>
      <trkpt lat="44.46067" lon="1.14406">
        <ele>218.024972</ele>
        <time>2021-04-04T12:23:49.563Z</time>
      </trkpt>
      <trkpt lat="44.46067" lon="1.14393">
        <ele>217.734085</ele>
        <time>2021-04-04T12:23:52.568Z</time>
      </trkpt>
      <trkpt lat="44.46065" lon="1.14379">
        <ele>217.447259</ele>
        <time>2021-04-04T12:23:55.564Z</time>
      </trkpt>
      <trkpt lat="44.46062" lon="1.14366">
        <ele>217.152898</ele>
        <time>2021-04-04T12:23:58.563Z</time>
      </trkpt>
      <trkpt lat="44.46058" lon="1.14354">
        <ele>216.86462</ele>
        <time>2021-04-04T12:24:01.589Z</time>
      </trkpt>
      <trkpt lat="44.46052" lon="1.14343">
        <ele>214.637944</ele>
        <time>2021-04-04T12:24:04.565Z</time>
      </trkpt>
      <trkpt lat="44.46044" lon="1.14334">
        <ele>212.403542</ele>
        <time>2021-04-04T12:24:07.567Z</time>
      </trkpt>
      <trkpt lat="44.46037" lon="1.14326">
        <ele>210.315115</ele>
        <time>2021-04-04T12:24:10.585Z</time>
      </trkpt>
      <trkpt lat="44.46029" lon="1.14317">
        <ele>208.160595</ele>
        <time>2021-04-04T12:24:13.564Z</time>
      </trkpt>
      <trkpt lat="44.46022" lon="1.14308">
        <ele>206.028326</ele>
        <time>2021-04-04T12:24:16.564Z</time>
      </trkpt>
      <trkpt lat="44.46016" lon="1.14298">
        <ele>203.901173</ele>
        <time>2021-04-04T12:24:19.564Z</time>
      </trkpt>
      <trkpt lat="44.46008" lon="1.14285">
        <ele>201.284552</ele>
        <time>2021-04-04T12:24:23.574Z</time>
      </trkpt>
      <trkpt lat="44.46003" lon="1.14275">
        <ele>199.276626</ele>
        <time>2021-04-04T12:24:26.564Z</time>
      </trkpt>
      <trkpt lat="44.45997" lon="1.14265">
        <ele>197.266652</ele>
        <time>2021-04-04T12:24:29.572Z</time>
      </trkpt>
      <trkpt lat="44.4599" lon="1.14256">
        <ele>195.275005</ele>
        <time>2021-04-04T12:24:32.564Z</time>
      </trkpt>
      <trkpt lat="44.45983" lon="1.14248">
        <ele>193.151662</ele>
        <time>2021-04-04T12:24:35.575Z</time>
      </trkpt>
      <trkpt lat="44.45974" lon="1.14239">
        <ele>190.810751</ele>
        <time>2021-04-04T12:24:38.584Z</time>
      </trkpt>
      <trkpt lat="44.45965" lon="1.14232">
        <ele>188.4796</ele>
        <time>2021-04-04T12:24:41.573Z</time>
      </trkpt>
      <trkpt lat="44.45957" lon="1.14224">
        <ele>186.238116</ele>
        <time>2021-04-04T12:24:44.569Z</time>
      </trkpt>
      <trkpt lat="44.45949" lon="1.14217">
        <ele>184.058441</ele>
        <time>2021-04-04T12:24:47.579Z</time>
      </trkpt>
      <trkpt lat="44.45941" lon="1.14208">
        <ele>181.90598</ele>
        <time>2021-04-04T12:24:50.567Z</time>
      </trkpt>
      <trkpt lat="44.45932" lon="1.14199">
        <ele>179.401083</ele>
        <time>2021-04-04T12:24:54.565Z</time>
      </trkpt>
      <trkpt lat="44.45922" lon="1.1419">
        <ele>177.145815</ele>
        <time>2021-04-04T12:24:58.565Z</time>
      </trkpt>
      <trkpt lat="44.45911" lon="1.14183">
        <ele>178.686296</ele>
        <time>2021-04-04T12:25:02.566Z</time>
      </trkpt>
      <trkpt lat="44.45899" lon="1.14179">
        <ele>180.259603</ele>
        <time>2021-04-04T12:25:06.566Z</time>
      </trkpt>
      <trkpt lat="44.45889" lon="1.14178">
        <ele>181.50214</ele>
        <time>2021-04-04T12:25:09.562Z</time>
      </trkpt>
      <trkpt lat="44.45879" lon="1.14177">
        <ele>182.803537</ele>
        <time>2021-04-04T12:25:12.575Z</time>
      </trkpt>
      <trkpt lat="44.45869" lon="1.14178">
        <ele>184.078846</ele>
        <time>2021-04-04T12:25:15.593Z</time>
      </trkpt>
      <trkpt lat="44.4586" lon="1.14181">
        <ele>185.326743</ele>
        <time>2021-04-04T12:25:18.574Z</time>
      </trkpt>
      <trkpt lat="44.45851" lon="1.14184">
        <ele>186.576534</ele>
        <time>2021-04-04T12:25:21.563Z</time>
      </trkpt>
      <trkpt lat="44.45841" lon="1.14188">
        <ele>187.861761</ele>
        <time>2021-04-04T12:25:24.562Z</time>
      </trkpt>
      <trkpt lat="44.45832" lon="1.14192">
        <ele>189.131124</ele>
        <time>2021-04-04T12:25:27.570Z</time>
      </trkpt>
      <trkpt lat="44.45822" lon="1.14196">
        <ele>190.393184</ele>
        <time>2021-04-04T12:25:30.587Z</time>
      </trkpt>
      <trkpt lat="44.45813" lon="1.142">
        <ele>191.592981</ele>
        <time>2021-04-04T12:25:33.589Z</time>
      </trkpt>
      <trkpt lat="44.45805" lon="1.14205">
        <ele>192.778048</ele>
        <time>2021-04-04T12:25:36.568Z</time>
      </trkpt>
      <trkpt lat="44.45796" lon="1.14209">
        <ele>193.951097</ele>
        <time>2021-04-04T12:25:39.564Z</time>
      </trkpt>
      <trkpt lat="44.45785" lon="1.14216">
        <ele>195.476136</ele>
        <time>2021-04-04T12:25:43.577Z</time>
      </trkpt>
      <trkpt lat="44.45777" lon="1.14221">
        <ele>196.712908</ele>
        <time>2021-04-04T12:25:46.576Z</time>
      </trkpt>
      <trkpt lat="44.45767" lon="1.14226">
        <ele>198.02823</ele>
        <time>2021-04-04T12:25:49.568Z</time>
      </trkpt>
      <trkpt lat="44.45757" lon="1.14229">
        <ele>199.277988</ele>
        <time>2021-04-04T12:25:52.565Z</time>
      </trkpt>
      <trkpt lat="44.45748" lon="1.14228">
        <ele>200.251101</ele>
        <time>2021-04-04T12:25:55.563Z</time>
      </trkpt>
      <trkpt lat="44.45738" lon="1.14224">
        <ele>200.530912</ele>
        <time>2021-04-04T12:25:58.568Z</time>
      </trkpt>
      <trkpt lat="44.4573" lon="1.14218">
        <ele>200.800838</ele>
        <time>2021-04-04T12:26:01.564Z</time>
      </trkpt>
      <trkpt lat="44.45722" lon="1.14209">
        <ele>201.087836</ele>
        <time>2021-04-04T12:26:04.566Z</time>
      </trkpt>
      <trkpt lat="44.45715" lon="1.14198">
        <ele>201.378236</ele>
        <time>2021-04-04T12:26:07.565Z</time>
      </trkpt>
      <trkpt lat="44.45709" lon="1.14187">
        <ele>201.659276</ele>
        <time>2021-04-04T12:26:10.562Z</time>
      </trkpt>
      <trkpt lat="44.45702" lon="1.14177">
        <ele>201.938774</ele>
        <time>2021-04-04T12:26:13.565Z</time>
      </trkpt>
      <trkpt lat="44.45697" lon="1.14167">
        <ele>202.199604</ele>
        <time>2021-04-04T12:26:16.564Z</time>
      </trkpt>
      <trkpt lat="44.4569" lon="1.14157">
        <ele>202.476393</ele>
        <time>2021-04-04T12:26:19.588Z</time>
      </trkpt>
      <trkpt lat="44.45684" lon="1.14147">
        <ele>202.739872</ele>
        <time>2021-04-04T12:26:22.568Z</time>
      </trkpt>
      <trkpt lat="44.45677" lon="1.14138">
        <ele>202.996493</ele>
        <time>2021-04-04T12:26:25.564Z</time>
      </trkpt>
      <trkpt lat="44.45671" lon="1.14128">
        <ele>203.277271</ele>
        <time>2021-04-04T12:26:28.567Z</time>
      </trkpt>
      <trkpt lat="44.45665" lon="1.14118">
        <ele>203.531389</ele>
        <time>2021-04-04T12:26:31.560Z</time>
      </trkpt>
      <trkpt lat="44.4566" lon="1.14106">
        <ele>203.809925</ele>
        <time>2021-04-04T12:26:34.563Z</time>
      </trkpt>
      <trkpt lat="44.45656" lon="1.14094">
        <ele>204.087598</ele>
        <time>2021-04-04T12:26:37.560Z</time>
      </trkpt>
      <trkpt lat="44.45654" lon="1.14079">
        <ele>204.385625</ele>
        <time>2021-04-04T12:26:40.564Z</time>
      </trkpt>
      <trkpt lat="44.45652" lon="1.14066">
        <ele>204.669403</ele>
        <time>2021-04-04T12:26:43.568Z</time>
      </trkpt>
      <trkpt lat="44.45651" lon="1.14051">
        <ele>204.96026</ele>
        <time>2021-04-04T12:26:46.562Z</time>
      </trkpt>
      <trkpt lat="44.4565" lon="1.14037">
        <ele>205.260465</ele>
        <time>2021-04-04T12:26:49.574Z</time>
      </trkpt>
      <trkpt lat="44.45649" lon="1.14022">
        <ele>205.964547</ele>
        <time>2021-04-04T12:26:52.567Z</time>
      </trkpt>
      <trkpt lat="44.45647" lon="1.14008">
        <ele>206.658072</ele>
        <time>2021-04-04T12:26:55.565Z</time>
      </trkpt>
      <trkpt lat="44.45646" lon="1.13994">
        <ele>207.354238</ele>
        <time>2021-04-04T12:26:58.563Z</time>
      </trkpt>
      <trkpt lat="44.45646" lon="1.13981">
        <ele>208.013357</ele>
        <time>2021-04-04T12:27:01.569Z</time>
      </trkpt>
      <trkpt lat="44.45647" lon="1.13968">
        <ele>208.658499</ele>
        <time>2021-04-04T12:27:04.564Z</time>
      </trkpt>
      <trkpt lat="44.45649" lon="1.13955">
        <ele>209.277312</ele>
        <time>2021-04-04T12:27:07.564Z</time>
      </trkpt>
      <trkpt lat="44.45652" lon="1.13943">
        <ele>209.905004</ele>
        <time>2021-04-04T12:27:10.586Z</time>
      </trkpt>
      <trkpt lat="44.45658" lon="1.1393">
        <ele>210.689738</ele>
        <time>2021-04-04T12:27:13.563Z</time>
      </trkpt>
      <trkpt lat="44.45664" lon="1.1392">
        <ele>211.33022</ele>
        <time>2021-04-04T12:27:16.565Z</time>
      </trkpt>
      <trkpt lat="44.45669" lon="1.13909">
        <ele>211.974801</ele>
        <time>2021-04-04T12:27:19.578Z</time>
      </trkpt>
      <trkpt lat="44.45675" lon="1.13897">
        <ele>212.687459</ele>
        <time>2021-04-04T12:27:22.569Z</time>
      </trkpt>
      <trkpt lat="44.45682" lon="1.13887">
        <ele>213.390378</ele>
        <time>2021-04-04T12:27:25.564Z</time>
      </trkpt>
      <trkpt lat="44.45688" lon="1.13875">
        <ele>214.079054</ele>
        <time>2021-04-04T12:27:28.564Z</time>
      </trkpt>
      <trkpt lat="44.45692" lon="1.13864">
        <ele>214.717971</ele>
        <time>2021-04-04T12:27:31.563Z</time>
      </trkpt>
      <trkpt lat="44.45696" lon="1.13852">
        <ele>215.363561</ele>
        <time>2021-04-04T12:27:34.568Z</time>
      </trkpt>
      <trkpt lat="44.45699" lon="1.13838">
        <ele>216.077684</ele>
        <time>2021-04-04T12:27:37.568Z</time>
      </trkpt>
      <trkpt lat="44.45697" lon="1.13823">
        <ele>216.840241</ele>
        <time>2021-04-04T12:27:40.567Z</time>
      </trkpt>
      <trkpt lat="44.45689" lon="1.1381">
        <ele>217.633459</ele>
        <time>2021-04-04T12:27:43.565Z</time>
      </trkpt>
      <trkpt lat="44.45681" lon="1.13805">
        <ele>216.942552</ele>
        <time>2021-04-04T12:27:45.565Z</time>
      </trkpt>
      <trkpt lat="44.45671" lon="1.13801">
        <ele>216.211378</ele>
        <time>2021-04-04T12:27:47.569Z</time>
      </trkpt>
      <trkpt lat="44.45662" lon="1.13797">
        <ele>215.471887</ele>
        <time>2021-04-04T12:27:49.585Z</time>
      </trkpt>
      <trkpt lat="44.45652" lon="1.13784">
        <ele>214.420947</ele>
        <time>2021-04-04T12:27:52.563Z</time>
      </trkpt>
      <trkpt lat="44.45646" lon="1.13773">
        <ele>213.70466</ele>
        <time>2021-04-04T12:27:54.565Z</time>
      </trkpt>
      <trkpt lat="44.45643" lon="1.13761">
        <ele>213.001951</ele>
        <time>2021-04-04T12:27:56.569Z</time>
      </trkpt>
      <trkpt lat="44.4564" lon="1.1375">
        <ele>212.31032</ele>
        <time>2021-04-04T12:27:58.567Z</time>
      </trkpt>
      <trkpt lat="44.45637" lon="1.13736">
        <ele>211.545433</ele>
        <time>2021-04-04T12:28:00.564Z</time>
      </trkpt>
      <trkpt lat="44.45634" lon="1.13718">
        <ele>210.527294</ele>
        <time>2021-04-04T12:28:03.562Z</time>
      </trkpt>
      <trkpt lat="44.45632" lon="1.13703">
        <ele>209.728615</ele>
        <time>2021-04-04T12:28:05.566Z</time>
      </trkpt>
      <trkpt lat="44.45629" lon="1.13692">
        <ele>209.03943</ele>
        <time>2021-04-04T12:28:07.565Z</time>
      </trkpt>
      <trkpt lat="44.45625" lon="1.13673">
        <ele>207.984045</ele>
        <time>2021-04-04T12:28:10.566Z</time>
      </trkpt>
      <trkpt lat="44.45623" lon="1.13661">
        <ele>207.282922</ele>
        <time>2021-04-04T12:28:12.565Z</time>
      </trkpt>
      <trkpt lat="44.45617" lon="1.13644">
        <ele>206.250857</ele>
        <time>2021-04-04T12:28:15.564Z</time>
      </trkpt>
      <trkpt lat="44.45611" lon="1.13633">
        <ele>205.497757</ele>
        <time>2021-04-04T12:28:17.566Z</time>
      </trkpt>
      <trkpt lat="44.45603" lon="1.13626">
        <ele>204.807987</ele>
        <time>2021-04-04T12:28:19.568Z</time>
      </trkpt>
      <trkpt lat="44.45594" lon="1.13624">
        <ele>204.098665</ele>
        <time>2021-04-04T12:28:21.567Z</time>
      </trkpt>
      <trkpt lat="44.45583" lon="1.13626">
        <ele>203.351216</ele>
        <time>2021-04-04T12:28:23.569Z</time>
      </trkpt>
      <trkpt lat="44.45574" lon="1.1363">
        <ele>202.693673</ele>
        <time>2021-04-04T12:28:25.566Z</time>
      </trkpt>
      <trkpt lat="44.45564" lon="1.13637">
        <ele>201.932115</ele>
        <time>2021-04-04T12:28:27.567Z</time>
      </trkpt>
      <trkpt lat="44.45553" lon="1.13649">
        <ele>200.979997</ele>
        <time>2021-04-04T12:28:30.563Z</time>
      </trkpt>
      <trkpt lat="44.45544" lon="1.13658">
        <ele>200.249481</ele>
        <time>2021-04-04T12:28:32.565Z</time>
      </trkpt>
      <trkpt lat="44.45535" lon="1.13666">
        <ele>199.516608</ele>
        <time>2021-04-04T12:28:34.561Z</time>
      </trkpt>
      <trkpt lat="44.45524" lon="1.13675">
        <ele>198.616094</ele>
        <time>2021-04-04T12:28:36.569Z</time>
      </trkpt>
      <trkpt lat="44.45513" lon="1.13681">
        <ele>197.864833</ele>
        <time>2021-04-04T12:28:38.568Z</time>
      </trkpt>
      <trkpt lat="44.45501" lon="1.13688">
        <ele>196.959305</ele>
        <time>2021-04-04T12:28:40.565Z</time>
      </trkpt>
      <trkpt lat="44.45487" lon="1.13697">
        <ele>195.928147</ele>
        <time>2021-04-04T12:28:42.563Z</time>
      </trkpt>
      <trkpt lat="44.45474" lon="1.13704">
        <ele>194.992062</ele>
        <time>2021-04-04T12:28:44.560Z</time>
      </trkpt>
      <trkpt lat="44.45461" lon="1.13712">
        <ele>194.014668</ele>
        <time>2021-04-04T12:28:46.567Z</time>
      </trkpt>
      <trkpt lat="44.45449" lon="1.13719">
        <ele>193.109853</ele>
        <time>2021-04-04T12:28:48.564Z</time>
      </trkpt>
      <trkpt lat="44.45434" lon="1.1372">
        <ele>192.131789</ele>
        <time>2021-04-04T12:28:50.579Z</time>
      </trkpt>
      <trkpt lat="44.4542" lon="1.13718">
        <ele>192.39342</ele>
        <time>2021-04-04T12:28:52.561Z</time>
      </trkpt>
      <trkpt lat="44.45404" lon="1.13714">
        <ele>193.682811</ele>
        <time>2021-04-04T12:28:54.575Z</time>
      </trkpt>
      <trkpt lat="44.45389" lon="1.13711">
        <ele>194.960281</ele>
        <time>2021-04-04T12:28:56.567Z</time>
      </trkpt>
      <trkpt lat="44.45372" lon="1.13708">
        <ele>196.341442</ele>
        <time>2021-04-04T12:28:58.565Z</time>
      </trkpt>
      <trkpt lat="44.45355" lon="1.13704">
        <ele>197.743058</ele>
        <time>2021-04-04T12:29:00.563Z</time>
      </trkpt>
      <trkpt lat="44.45339" lon="1.137">
        <ele>199.10153</ele>
        <time>2021-04-04T12:29:02.565Z</time>
      </trkpt>
      <trkpt lat="44.45323" lon="1.13697">
        <ele>200.456775</ele>
        <time>2021-04-04T12:29:04.561Z</time>
      </trkpt>
      <trkpt lat="44.45306" lon="1.13694">
        <ele>201.806293</ele>
        <time>2021-04-04T12:29:06.570Z</time>
      </trkpt>
      <trkpt lat="44.45291" lon="1.13692">
        <ele>203.090465</ele>
        <time>2021-04-04T12:29:08.571Z</time>
      </trkpt>
      <trkpt lat="44.45275" lon="1.13693">
        <ele>204.40408</ele>
        <time>2021-04-04T12:29:10.564Z</time>
      </trkpt>
      <trkpt lat="44.45258" lon="1.13691">
        <ele>205.749727</ele>
        <time>2021-04-04T12:29:12.566Z</time>
      </trkpt>
      <trkpt lat="44.45243" lon="1.13687">
        <ele>209.327746</ele>
        <time>2021-04-04T12:29:14.564Z</time>
      </trkpt>
      <trkpt lat="44.45228" lon="1.13685">
        <ele>216.075238</ele>
        <time>2021-04-04T12:29:16.568Z</time>
      </trkpt>
      <trkpt lat="44.45213" lon="1.13683">
        <ele>222.896013</ele>
        <time>2021-04-04T12:29:18.567Z</time>
      </trkpt>
      <trkpt lat="44.45197" lon="1.13681">
        <ele>229.590862</ele>
        <time>2021-04-04T12:29:20.576Z</time>
      </trkpt>
      <trkpt lat="44.45181" lon="1.1368">
        <ele>236.625883</ele>
        <time>2021-04-04T12:29:22.590Z</time>
      </trkpt>
      <trkpt lat="44.45166" lon="1.13681">
        <ele>243.29784</ele>
        <time>2021-04-04T12:29:24.565Z</time>
      </trkpt>
      <trkpt lat="44.45152" lon="1.1368">
        <ele>249.621513</ele>
        <time>2021-04-04T12:29:26.564Z</time>
      </trkpt>
      <trkpt lat="44.45138" lon="1.13679">
        <ele>255.550768</ele>
        <time>2021-04-04T12:29:28.566Z</time>
      </trkpt>
      <trkpt lat="44.45126" lon="1.13678">
        <ele>261.170502</ele>
        <time>2021-04-04T12:29:30.565Z</time>
      </trkpt>
      <trkpt lat="44.45113" lon="1.13677">
        <ele>266.720881</ele>
        <time>2021-04-04T12:29:32.562Z</time>
      </trkpt>
      <trkpt lat="44.45102" lon="1.13675">
        <ele>271.610232</ele>
        <time>2021-04-04T12:29:34.564Z</time>
      </trkpt>
      <trkpt lat="44.45091" lon="1.13673">
        <ele>276.389494</ele>
        <time>2021-04-04T12:29:36.575Z</time>
      </trkpt>
      <trkpt lat="44.4508" lon="1.13671">
        <ele>281.3863</ele>
        <time>2021-04-04T12:29:38.568Z</time>
      </trkpt>
      <trkpt lat="44.45068" lon="1.13669">
        <ele>285.398729</ele>
        <time>2021-04-04T12:29:40.562Z</time>
      </trkpt>
      <trkpt lat="44.45057" lon="1.13666">
        <ele>285.526454</ele>
        <time>2021-04-04T12:29:42.565Z</time>
      </trkpt>
      <trkpt lat="44.45046" lon="1.13665">
        <ele>285.656822</ele>
        <time>2021-04-04T12:29:44.564Z</time>
      </trkpt>
      <trkpt lat="44.45035" lon="1.13662">
        <ele>285.780232</ele>
        <time>2021-04-04T12:29:46.563Z</time>
      </trkpt>
      <trkpt lat="44.45025" lon="1.1366">
        <ele>285.904785</ele>
        <time>2021-04-04T12:29:48.562Z</time>
      </trkpt>
      <trkpt lat="44.45016" lon="1.13657">
        <ele>286.015555</ele>
        <time>2021-04-04T12:29:50.567Z</time>
      </trkpt>
      <trkpt lat="44.45005" lon="1.13653">
        <ele>286.14326</ele>
        <time>2021-04-04T12:29:52.564Z</time>
      </trkpt>
      <trkpt lat="44.44995" lon="1.13649">
        <ele>286.257337</ele>
        <time>2021-04-04T12:29:54.564Z</time>
      </trkpt>
      <trkpt lat="44.44985" lon="1.13646">
        <ele>286.377895</ele>
        <time>2021-04-04T12:29:56.564Z</time>
      </trkpt>
      <trkpt lat="44.44974" lon="1.1364">
        <ele>286.516562</ele>
        <time>2021-04-04T12:29:58.564Z</time>
      </trkpt>
      <trkpt lat="44.44964" lon="1.13636">
        <ele>286.638225</ele>
        <time>2021-04-04T12:30:00.565Z</time>
      </trkpt>
      <trkpt lat="44.44953" lon="1.13631">
        <ele>286.777033</ele>
        <time>2021-04-04T12:30:02.561Z</time>
      </trkpt>
      <trkpt lat="44.44941" lon="1.13626">
        <ele>286.915954</ele>
        <time>2021-04-04T12:30:04.563Z</time>
      </trkpt>
      <trkpt lat="44.44929" lon="1.1362">
        <ele>287.062513</ele>
        <time>2021-04-04T12:30:06.567Z</time>
      </trkpt>
      <trkpt lat="44.44916" lon="1.13613">
        <ele>287.224974</ele>
        <time>2021-04-04T12:30:08.564Z</time>
      </trkpt>
      <trkpt lat="44.44903" lon="1.13606">
        <ele>287.391488</ele>
        <time>2021-04-04T12:30:10.565Z</time>
      </trkpt>
      <trkpt lat="44.44889" lon="1.13597">
        <ele>287.579586</ele>
        <time>2021-04-04T12:30:12.563Z</time>
      </trkpt>
      <trkpt lat="44.44874" lon="1.1359">
        <ele>287.785872</ele>
        <time>2021-04-04T12:30:14.561Z</time>
      </trkpt>
      <trkpt lat="44.44863" lon="1.13578">
        <ele>287.974334</ele>
        <time>2021-04-04T12:30:16.566Z</time>
      </trkpt>
      <trkpt lat="44.44853" lon="1.13564">
        <ele>288.163453</ele>
        <time>2021-04-04T12:30:18.567Z</time>
      </trkpt>
      <trkpt lat="44.44844" lon="1.13549">
        <ele>288.342759</ele>
        <time>2021-04-04T12:30:20.591Z</time>
      </trkpt>
      <trkpt lat="44.44836" lon="1.13535">
        <ele>288.515655</ele>
        <time>2021-04-04T12:30:22.565Z</time>
      </trkpt>
      <trkpt lat="44.44829" lon="1.13522">
        <ele>288.668744</ele>
        <time>2021-04-04T12:30:24.570Z</time>
      </trkpt>
      <trkpt lat="44.44822" lon="1.13509">
        <ele>288.817794</ele>
        <time>2021-04-04T12:30:26.563Z</time>
      </trkpt>
      <trkpt lat="44.44817" lon="1.13496">
        <ele>288.960522</ele>
        <time>2021-04-04T12:30:28.566Z</time>
      </trkpt>
      <trkpt lat="44.44813" lon="1.13484">
        <ele>289.089728</ele>
        <time>2021-04-04T12:30:30.560Z</time>
      </trkpt>
      <trkpt lat="44.44808" lon="1.13471">
        <ele>289.226456</ele>
        <time>2021-04-04T12:30:32.564Z</time>
      </trkpt>
      <trkpt lat="44.44806" lon="1.13457">
        <ele>289.358226</ele>
        <time>2021-04-04T12:30:34.563Z</time>
      </trkpt>
      <trkpt lat="44.44803" lon="1.13441">
        <ele>289.522939</ele>
        <time>2021-04-04T12:30:37.561Z</time>
      </trkpt>
      <trkpt lat="44.44802" lon="1.13428">
        <ele>289.643116</ele>
        <time>2021-04-04T12:30:39.565Z</time>
      </trkpt>
      <trkpt lat="44.44802" lon="1.1341">
        <ele>289.808501</ele>
        <time>2021-04-04T12:30:42.565Z</time>
      </trkpt>
      <trkpt lat="44.44802" lon="1.13394">
        <ele>289.670128</ele>
        <time>2021-04-04T12:30:45.563Z</time>
      </trkpt>
      <trkpt lat="44.44803" lon="1.13377">
        <ele>289.466712</ele>
        <time>2021-04-04T12:30:48.567Z</time>
      </trkpt>
      <trkpt lat="44.44804" lon="1.1336">
        <ele>289.270696</ele>
        <time>2021-04-04T12:30:51.565Z</time>
      </trkpt>
      <trkpt lat="44.44805" lon="1.13343">
        <ele>289.083517</ele>
        <time>2021-04-04T12:30:54.563Z</time>
      </trkpt>
      <trkpt lat="44.44805" lon="1.13327">
        <ele>288.895724</ele>
        <time>2021-04-04T12:30:57.561Z</time>
      </trkpt>
      <trkpt lat="44.44803" lon="1.1331">
        <ele>288.696204</ele>
        <time>2021-04-04T12:31:00.576Z</time>
      </trkpt>
      <trkpt lat="44.44794" lon="1.13295">
        <ele>288.474485</ele>
        <time>2021-04-04T12:31:03.560Z</time>
      </trkpt>
      <trkpt lat="44.44784" lon="1.13284">
        <ele>288.27731</ele>
        <time>2021-04-04T12:31:05.568Z</time>
      </trkpt>
      <trkpt lat="44.44774" lon="1.1327">
        <ele>288.045983</ele>
        <time>2021-04-04T12:31:07.570Z</time>
      </trkpt>
      <trkpt lat="44.44761" lon="1.13255">
        <ele>287.780513</ele>
        <time>2021-04-04T12:31:09.563Z</time>
      </trkpt>
      <trkpt lat="44.44755" lon="1.13246">
        <ele>287.634649</ele>
        <time>2021-04-04T12:31:10.564Z</time>
      </trkpt>
      <trkpt lat="44.44747" lon="1.13237">
        <ele>287.481079</ele>
        <time>2021-04-04T12:31:11.564Z</time>
      </trkpt>
      <trkpt lat="44.44741" lon="1.13227">
        <ele>287.319361</ele>
        <time>2021-04-04T12:31:12.570Z</time>
      </trkpt>
      <trkpt lat="44.44732" lon="1.13216">
        <ele>287.138428</ele>
        <time>2021-04-04T12:31:13.561Z</time>
      </trkpt>
      <trkpt lat="44.44726" lon="1.13206">
        <ele>286.978253</ele>
        <time>2021-04-04T12:31:14.564Z</time>
      </trkpt>
      <trkpt lat="44.44718" lon="1.13194">
        <ele>286.98756</ele>
        <time>2021-04-04T12:31:15.560Z</time>
      </trkpt>
      <trkpt lat="44.4471" lon="1.13182">
        <ele>287.04037</ele>
        <time>2021-04-04T12:31:16.569Z</time>
      </trkpt>
      <trkpt lat="44.44703" lon="1.13168">
        <ele>287.093349</ele>
        <time>2021-04-04T12:31:17.565Z</time>
      </trkpt>
      <trkpt lat="44.44696" lon="1.13154">
        <ele>287.148671</ele>
        <time>2021-04-04T12:31:18.562Z</time>
      </trkpt>
      <trkpt lat="44.4469" lon="1.13141">
        <ele>287.198286</ele>
        <time>2021-04-04T12:31:19.566Z</time>
      </trkpt>
      <trkpt lat="44.44684" lon="1.13127">
        <ele>287.249818</ele>
        <time>2021-04-04T12:31:20.563Z</time>
      </trkpt>
      <trkpt lat="44.44678" lon="1.13115">
        <ele>287.296789</ele>
        <time>2021-04-04T12:31:21.573Z</time>
      </trkpt>
      <trkpt lat="44.44672" lon="1.13103">
        <ele>287.344589</ele>
        <time>2021-04-04T12:31:22.567Z</time>
      </trkpt>
      <trkpt lat="44.44667" lon="1.1309">
        <ele>287.390378</ele>
        <time>2021-04-04T12:31:23.564Z</time>
      </trkpt>
      <trkpt lat="44.44662" lon="1.13079">
        <ele>287.43246</ele>
        <time>2021-04-04T12:31:24.560Z</time>
      </trkpt>
      <trkpt lat="44.44657" lon="1.13068">
        <ele>287.47485</ele>
        <time>2021-04-04T12:31:25.582Z</time>
      </trkpt>
      <trkpt lat="44.44649" lon="1.13047">
        <ele>287.552975</ele>
        <time>2021-04-04T12:31:27.568Z</time>
      </trkpt>
      <trkpt lat="44.4464" lon="1.13028">
        <ele>287.624295</ele>
        <time>2021-04-04T12:31:29.565Z</time>
      </trkpt>
      <trkpt lat="44.44633" lon="1.13012">
        <ele>287.687043</ele>
        <time>2021-04-04T12:31:31.566Z</time>
      </trkpt>
      <trkpt lat="44.44629" lon="1.12995">
        <ele>287.741884</ele>
        <time>2021-04-04T12:31:33.562Z</time>
      </trkpt>
      <trkpt lat="44.44624" lon="1.12982">
        <ele>287.822066</ele>
        <time>2021-04-04T12:31:35.566Z</time>
      </trkpt>
      <trkpt lat="44.4462" lon="1.1297">
        <ele>287.903267</ele>
        <time>2021-04-04T12:31:37.565Z</time>
      </trkpt>
      <trkpt lat="44.44615" lon="1.12952">
        <ele>288.016125</ele>
        <time>2021-04-04T12:31:40.562Z</time>
      </trkpt>
      <trkpt lat="44.44611" lon="1.12935">
        <ele>288.121875</ele>
        <time>2021-04-04T12:31:43.565Z</time>
      </trkpt>
      <trkpt lat="44.44605" lon="1.12921">
        <ele>288.217168</ele>
        <time>2021-04-04T12:31:46.564Z</time>
      </trkpt>
      <trkpt lat="44.44601" lon="1.12909">
        <ele>288.295359</ele>
        <time>2021-04-04T12:31:48.578Z</time>
      </trkpt>
      <trkpt lat="44.44596" lon="1.12894">
        <ele>288.394318</ele>
        <time>2021-04-04T12:31:51.582Z</time>
      </trkpt>
      <trkpt lat="44.44592" lon="1.12882">
        <ele>288.471223</ele>
        <time>2021-04-04T12:31:53.569Z</time>
      </trkpt>
      <trkpt lat="44.44589" lon="1.12865">
        <ele>288.575914</ele>
        <time>2021-04-04T12:31:56.567Z</time>
      </trkpt>
      <trkpt lat="44.44585" lon="1.12853">
        <ele>288.650814</ele>
        <time>2021-04-04T12:31:58.570Z</time>
      </trkpt>
      <trkpt lat="44.4458" lon="1.12836">
        <ele>288.762669</ele>
        <time>2021-04-04T12:32:01.578Z</time>
      </trkpt>
      <trkpt lat="44.44575" lon="1.1282">
        <ele>288.865889</ele>
        <time>2021-04-04T12:32:04.564Z</time>
      </trkpt>
      <trkpt lat="44.4457" lon="1.12809">
        <ele>288.941365</ele>
        <time>2021-04-04T12:32:06.565Z</time>
      </trkpt>
      <trkpt lat="44.44564" lon="1.12792">
        <ele>289.054728</ele>
        <time>2021-04-04T12:32:09.563Z</time>
      </trkpt>
      <trkpt lat="44.44562" lon="1.12779">
        <ele>289.129895</ele>
        <time>2021-04-04T12:32:11.563Z</time>
      </trkpt>
      <trkpt lat="44.44559" lon="1.12764">
        <ele>289.226237</ele>
        <time>2021-04-04T12:32:14.563Z</time>
      </trkpt>
      <trkpt lat="44.44554" lon="1.12749">
        <ele>289.193833</ele>
        <time>2021-04-04T12:32:17.565Z</time>
      </trkpt>
      <trkpt lat="44.44552" lon="1.12738">
        <ele>289.150032</ele>
        <time>2021-04-04T12:32:31.128Z</time>
      </trkpt>
      <trkpt lat="44.44543" lon="1.12721">
        <ele>289.072876</ele>
        <time>2021-04-04T12:34:11.570Z</time>
      </trkpt>
      <trkpt lat="44.44537" lon="1.12702">
        <ele>288.996244</ele>
        <time>2021-04-04T12:34:14.585Z</time>
      </trkpt>
      <trkpt lat="44.4453" lon="1.12688">
        <ele>288.934154</ele>
        <time>2021-04-04T12:34:16.581Z</time>
      </trkpt>
      <trkpt lat="44.44525" lon="1.12673">
        <ele>288.872771</ele>
        <time>2021-04-04T12:34:18.591Z</time>
      </trkpt>
      <trkpt lat="44.44519" lon="1.12656">
        <ele>288.799744</ele>
        <time>2021-04-04T12:34:20.582Z</time>
      </trkpt>
      <trkpt lat="44.44512" lon="1.12636">
        <ele>288.721316</ele>
        <time>2021-04-04T12:34:22.576Z</time>
      </trkpt>
      <trkpt lat="44.44512" lon="1.12624">
        <ele>288.674467</ele>
        <time>2021-04-04T12:34:23.590Z</time>
      </trkpt>
      <trkpt lat="44.44505" lon="1.12604">
        <ele>288.595045</ele>
        <time>2021-04-04T12:34:25.574Z</time>
      </trkpt>
      <trkpt lat="44.44499" lon="1.12584">
        <ele>288.51534</ele>
        <time>2021-04-04T12:34:27.581Z</time>
      </trkpt>
      <trkpt lat="44.44497" lon="1.12565">
        <ele>288.444306</ele>
        <time>2021-04-04T12:34:29.580Z</time>
      </trkpt>
      <trkpt lat="44.44493" lon="1.12546">
        <ele>288.370879</ele>
        <time>2021-04-04T12:34:31.575Z</time>
      </trkpt>
      <trkpt lat="44.44491" lon="1.12526">
        <ele>288.431374</ele>
        <time>2021-04-04T12:34:33.584Z</time>
      </trkpt>
      <trkpt lat="44.4449" lon="1.12505">
        <ele>288.897794</ele>
        <time>2021-04-04T12:34:35.574Z</time>
      </trkpt>
      <trkpt lat="44.44488" lon="1.12486">
        <ele>289.344006</ele>
        <time>2021-04-04T12:34:37.588Z</time>
      </trkpt>
      <trkpt lat="44.44488" lon="1.12468">
        <ele>289.757229</ele>
        <time>2021-04-04T12:34:39.590Z</time>
      </trkpt>
      <trkpt lat="44.44488" lon="1.12451">
        <ele>290.138693</ele>
        <time>2021-04-04T12:34:41.569Z</time>
      </trkpt>
      <trkpt lat="44.44489" lon="1.12434">
        <ele>290.527097</ele>
        <time>2021-04-04T12:34:43.583Z</time>
      </trkpt>
      <trkpt lat="44.4449" lon="1.12419">
        <ele>290.870744</ele>
        <time>2021-04-04T12:34:45.573Z</time>
      </trkpt>
      <trkpt lat="44.44492" lon="1.12405">
        <ele>291.198005</ele>
        <time>2021-04-04T12:34:47.572Z</time>
      </trkpt>
      <trkpt lat="44.44494" lon="1.12393">
        <ele>291.489767</ele>
        <time>2021-04-04T12:34:49.577Z</time>
      </trkpt>
      <trkpt lat="44.44495" lon="1.12379">
        <ele>291.797346</ele>
        <time>2021-04-04T12:34:51.581Z</time>
      </trkpt>
      <trkpt lat="44.44497" lon="1.12366">
        <ele>292.106517</ele>
        <time>2021-04-04T12:34:53.581Z</time>
      </trkpt>
      <trkpt lat="44.44497" lon="1.12353">
        <ele>292.406008</ele>
        <time>2021-04-04T12:34:55.586Z</time>
      </trkpt>
      <trkpt lat="44.44495" lon="1.12338">
        <ele>292.754024</ele>
        <time>2021-04-04T12:34:58.571Z</time>
      </trkpt>
      <trkpt lat="44.4449" lon="1.12323">
        <ele>293.125912</ele>
        <time>2021-04-04T12:35:01.571Z</time>
      </trkpt>
      <trkpt lat="44.44481" lon="1.1231">
        <ele>293.543249</ele>
        <time>2021-04-04T12:35:04.569Z</time>
      </trkpt>
      <trkpt lat="44.44473" lon="1.12297">
        <ele>293.934167</ele>
        <time>2021-04-04T12:35:07.585Z</time>
      </trkpt>
      <trkpt lat="44.44464" lon="1.12283">
        <ele>294.185642</ele>
        <time>2021-04-04T12:35:10.580Z</time>
      </trkpt>
      <trkpt lat="44.44459" lon="1.12267">
        <ele>294.370471</ele>
        <time>2021-04-04T12:35:13.572Z</time>
      </trkpt>
      <trkpt lat="44.44455" lon="1.1225">
        <ele>294.546377</ele>
        <time>2021-04-04T12:35:16.581Z</time>
      </trkpt>
      <trkpt lat="44.44454" lon="1.12237">
        <ele>294.6751</ele>
        <time>2021-04-04T12:35:18.572Z</time>
      </trkpt>
      <trkpt lat="44.44448" lon="1.1222">
        <ele>294.863846</ele>
        <time>2021-04-04T12:35:21.568Z</time>
      </trkpt>
      <trkpt lat="44.44443" lon="1.12209">
        <ele>294.990616</ele>
        <time>2021-04-04T12:35:23.565Z</time>
      </trkpt>
      <trkpt lat="44.44435" lon="1.12195">
        <ele>295.170926</ele>
        <time>2021-04-04T12:35:26.581Z</time>
      </trkpt>
      <trkpt lat="44.44427" lon="1.12187">
        <ele>295.302953</ele>
        <time>2021-04-04T12:35:28.587Z</time>
      </trkpt>
      <trkpt lat="44.44421" lon="1.12177">
        <ele>295.436228</ele>
        <time>2021-04-04T12:35:30.568Z</time>
      </trkpt>
      <trkpt lat="44.44415" lon="1.12167">
        <ele>295.56317</ele>
        <time>2021-04-04T12:35:32.573Z</time>
      </trkpt>
      <trkpt lat="44.44409" lon="1.12152">
        <ele>295.731691</ele>
        <time>2021-04-04T12:35:35.574Z</time>
      </trkpt>
      <trkpt lat="44.44405" lon="1.12139">
        <ele>295.874738</ele>
        <time>2021-04-04T12:35:38.578Z</time>
      </trkpt>
      <trkpt lat="44.44399" lon="1.12127">
        <ele>296.018962</ele>
        <time>2021-04-04T12:35:41.588Z</time>
      </trkpt>
      <trkpt lat="44.44392" lon="1.12116">
        <ele>296.168676</ele>
        <time>2021-04-04T12:35:44.574Z</time>
      </trkpt>
      <trkpt lat="44.44383" lon="1.12105">
        <ele>296.325905</ele>
        <time>2021-04-04T12:35:47.572Z</time>
      </trkpt>
      <trkpt lat="44.44371" lon="1.121">
        <ele>296.507607</ele>
        <time>2021-04-04T12:35:50.564Z</time>
      </trkpt>
      <trkpt lat="44.44363" lon="1.12109">
        <ele>295.894632</ele>
        <time>2021-04-04T12:35:52.562Z</time>
      </trkpt>
      <trkpt lat="44.44352" lon="1.1211">
        <ele>294.615907</ele>
        <time>2021-04-04T12:35:54.570Z</time>
      </trkpt>
      <trkpt lat="44.4434" lon="1.1211">
        <ele>293.128223</ele>
        <time>2021-04-04T12:35:56.562Z</time>
      </trkpt>
      <trkpt lat="44.44326" lon="1.12113">
        <ele>291.536561</ele>
        <time>2021-04-04T12:35:58.576Z</time>
      </trkpt>
      <trkpt lat="44.44309" lon="1.12117">
        <ele>289.534999</ele>
        <time>2021-04-04T12:36:00.570Z</time>
      </trkpt>
      <trkpt lat="44.44291" lon="1.12125">
        <ele>287.263587</ele>
        <time>2021-04-04T12:36:02.582Z</time>
      </trkpt>
      <trkpt lat="44.44281" lon="1.12129">
        <ele>286.011201</ele>
        <time>2021-04-04T12:36:03.576Z</time>
      </trkpt>
      <trkpt lat="44.4427" lon="1.12133">
        <ele>284.752519</ele>
        <time>2021-04-04T12:36:04.571Z</time>
      </trkpt>
      <trkpt lat="44.44259" lon="1.12139">
        <ele>283.379131</ele>
        <time>2021-04-04T12:36:05.581Z</time>
      </trkpt>
      <trkpt lat="44.44248" lon="1.12144">
        <ele>282.044327</ele>
        <time>2021-04-04T12:36:06.570Z</time>
      </trkpt>
      <trkpt lat="44.44237" lon="1.1215">
        <ele>280.629075</ele>
        <time>2021-04-04T12:36:07.582Z</time>
      </trkpt>
      <trkpt lat="44.44226" lon="1.12158">
        <ele>279.156721</ele>
        <time>2021-04-04T12:36:08.587Z</time>
      </trkpt>
      <trkpt lat="44.44215" lon="1.12167">
        <ele>277.736448</ele>
        <time>2021-04-04T12:36:09.575Z</time>
      </trkpt>
      <trkpt lat="44.44205" lon="1.12176">
        <ele>276.344411</ele>
        <time>2021-04-04T12:36:10.570Z</time>
      </trkpt>
      <trkpt lat="44.44195" lon="1.12186">
        <ele>274.24378</ele>
        <time>2021-04-04T12:36:11.576Z</time>
      </trkpt>
      <trkpt lat="44.44186" lon="1.12192">
        <ele>271.663171</ele>
        <time>2021-04-04T12:36:12.574Z</time>
      </trkpt>
      <trkpt lat="44.44176" lon="1.12195">
        <ele>269.272023</ele>
        <time>2021-04-04T12:36:13.577Z</time>
      </trkpt>
      <trkpt lat="44.44165" lon="1.12198">
        <ele>266.604542</ele>
        <time>2021-04-04T12:36:14.574Z</time>
      </trkpt>
      <trkpt lat="44.44154" lon="1.12199">
        <ele>263.825155</ele>
        <time>2021-04-04T12:36:15.575Z</time>
      </trkpt>
      <trkpt lat="44.44143" lon="1.12199">
        <ele>261.26925</ele>
        <time>2021-04-04T12:36:16.570Z</time>
      </trkpt>
      <trkpt lat="44.44132" lon="1.122">
        <ele>258.392644</ele>
        <time>2021-04-04T12:36:17.572Z</time>
      </trkpt>
      <trkpt lat="44.44119" lon="1.12201">
        <ele>255.298091</ele>
        <time>2021-04-04T12:36:18.563Z</time>
      </trkpt>
      <trkpt lat="44.44107" lon="1.12203">
        <ele>252.45971</ele>
        <time>2021-04-04T12:36:19.584Z</time>
      </trkpt>
      <trkpt lat="44.44097" lon="1.12206">
        <ele>249.843137</ele>
        <time>2021-04-04T12:36:20.589Z</time>
      </trkpt>
      <trkpt lat="44.44087" lon="1.12212">
        <ele>247.185979</ele>
        <time>2021-04-04T12:36:21.573Z</time>
      </trkpt>
      <trkpt lat="44.44077" lon="1.12221">
        <ele>244.354496</ele>
        <time>2021-04-04T12:36:22.567Z</time>
      </trkpt>
      <trkpt lat="44.44069" lon="1.12232">
        <ele>241.564014</ele>
        <time>2021-04-04T12:36:23.573Z</time>
      </trkpt>
      <trkpt lat="44.44061" lon="1.12243">
        <ele>238.907105</ele>
        <time>2021-04-04T12:36:24.567Z</time>
      </trkpt>
      <trkpt lat="44.44053" lon="1.12254">
        <ele>236.133552</ele>
        <time>2021-04-04T12:36:25.573Z</time>
      </trkpt>
      <trkpt lat="44.44043" lon="1.12268">
        <ele>232.684211</ele>
        <time>2021-04-04T12:36:26.572Z</time>
      </trkpt>
      <trkpt lat="44.44034" lon="1.12281">
        <ele>231.289226</ele>
        <time>2021-04-04T12:36:27.568Z</time>
      </trkpt>
      <trkpt lat="44.44024" lon="1.12293">
        <ele>230.675933</ele>
        <time>2021-04-04T12:36:28.573Z</time>
      </trkpt>
      <trkpt lat="44.44013" lon="1.12304">
        <ele>230.019836</ele>
        <time>2021-04-04T12:36:29.575Z</time>
      </trkpt>
      <trkpt lat="44.44003" lon="1.12315">
        <ele>229.407241</ele>
        <time>2021-04-04T12:36:30.581Z</time>
      </trkpt>
      <trkpt lat="44.43995" lon="1.12326">
        <ele>228.851573</ele>
        <time>2021-04-04T12:36:31.572Z</time>
      </trkpt>
      <trkpt lat="44.43987" lon="1.12337">
        <ele>228.331639</ele>
        <time>2021-04-04T12:36:32.581Z</time>
      </trkpt>
      <trkpt lat="44.43982" lon="1.12351">
        <ele>227.808859</ele>
        <time>2021-04-04T12:36:33.583Z</time>
      </trkpt>
      <trkpt lat="44.4399" lon="1.1236">
        <ele>227.311171</ele>
        <time>2021-04-04T12:36:34.569Z</time>
      </trkpt>
      <trkpt lat="44.43992" lon="1.12374">
        <ele>226.825292</ele>
        <time>2021-04-04T12:36:35.572Z</time>
      </trkpt>
      <trkpt lat="44.43996" lon="1.12387">
        <ele>226.338384</ele>
        <time>2021-04-04T12:36:36.573Z</time>
      </trkpt>
      <trkpt lat="44.44002" lon="1.12397">
        <ele>225.905038</ele>
        <time>2021-04-04T12:36:37.570Z</time>
      </trkpt>
      <trkpt lat="44.44006" lon="1.1241">
        <ele>225.430487</ele>
        <time>2021-04-04T12:36:38.562Z</time>
      </trkpt>
      <trkpt lat="44.44013" lon="1.12433">
        <ele>224.563341</ele>
        <time>2021-04-04T12:36:40.572Z</time>
      </trkpt>
      <trkpt lat="44.44015" lon="1.12446">
        <ele>224.115006</ele>
        <time>2021-04-04T12:36:41.572Z</time>
      </trkpt>
      <trkpt lat="44.44018" lon="1.12458">
        <ele>223.671179</ele>
        <time>2021-04-04T12:36:42.568Z</time>
      </trkpt>
      <trkpt lat="44.44013" lon="1.12479">
        <ele>223.187212</ele>
        <time>2021-04-04T12:36:44.569Z</time>
      </trkpt>
      <trkpt lat="44.44003" lon="1.1249">
        <ele>223.40272</ele>
        <time>2021-04-04T12:36:46.579Z</time>
      </trkpt>
      <trkpt lat="44.43987" lon="1.12489">
        <ele>223.674282</ele>
        <time>2021-04-04T12:36:48.569Z</time>
      </trkpt>
      <trkpt lat="44.43971" lon="1.12479">
        <ele>223.96126</ele>
        <time>2021-04-04T12:36:50.567Z</time>
      </trkpt>
      <trkpt lat="44.43963" lon="1.12473">
        <ele>224.120166</ele>
        <time>2021-04-04T12:36:51.566Z</time>
      </trkpt>
      <trkpt lat="44.43954" lon="1.12468">
        <ele>224.274176</ele>
        <time>2021-04-04T12:36:52.561Z</time>
      </trkpt>
      <trkpt lat="44.43946" lon="1.12465">
        <ele>224.426814</ele>
        <time>2021-04-04T12:36:53.576Z</time>
      </trkpt>
      <trkpt lat="44.43936" lon="1.12464">
        <ele>224.588023</ele>
        <time>2021-04-04T12:36:54.569Z</time>
      </trkpt>
      <trkpt lat="44.43926" lon="1.12465">
        <ele>224.757592</ele>
        <time>2021-04-04T12:36:55.568Z</time>
      </trkpt>
      <trkpt lat="44.43916" lon="1.12467">
        <ele>224.925934</ele>
        <time>2021-04-04T12:36:56.572Z</time>
      </trkpt>
      <trkpt lat="44.43906" lon="1.12472">
        <ele>225.10309</ele>
        <time>2021-04-04T12:36:57.572Z</time>
      </trkpt>
      <trkpt lat="44.43897" lon="1.1248">
        <ele>225.28581</ele>
        <time>2021-04-04T12:36:58.575Z</time>
      </trkpt>
      <trkpt lat="44.43886" lon="1.12488">
        <ele>225.480224</ele>
        <time>2021-04-04T12:36:59.568Z</time>
      </trkpt>
      <trkpt lat="44.43878" lon="1.12496">
        <ele>225.64835</ele>
        <time>2021-04-04T12:37:00.576Z</time>
      </trkpt>
      <trkpt lat="44.43869" lon="1.12502">
        <ele>225.821933</ele>
        <time>2021-04-04T12:37:01.565Z</time>
      </trkpt>
      <trkpt lat="44.4386" lon="1.12508">
        <ele>225.981864</ele>
        <time>2021-04-04T12:37:02.565Z</time>
      </trkpt>
      <trkpt lat="44.43848" lon="1.12517">
        <ele>226.078648</ele>
        <time>2021-04-04T12:37:03.576Z</time>
      </trkpt>
      <trkpt lat="44.43837" lon="1.12526">
        <ele>225.94615</ele>
        <time>2021-04-04T12:37:04.594Z</time>
      </trkpt>
      <trkpt lat="44.43824" lon="1.12537">
        <ele>225.785905</ele>
        <time>2021-04-04T12:37:05.577Z</time>
      </trkpt>
      <trkpt lat="44.43814" lon="1.12543">
        <ele>225.661071</ele>
        <time>2021-04-04T12:37:06.592Z</time>
      </trkpt>
      <trkpt lat="44.43802" lon="1.12552">
        <ele>225.514279</ele>
        <time>2021-04-04T12:37:07.573Z</time>
      </trkpt>
      <trkpt lat="44.43792" lon="1.1256">
        <ele>225.391621</ele>
        <time>2021-04-04T12:37:08.583Z</time>
      </trkpt>
      <trkpt lat="44.43783" lon="1.12569">
        <ele>225.266755</ele>
        <time>2021-04-04T12:37:09.581Z</time>
      </trkpt>
      <trkpt lat="44.43776" lon="1.12583">
        <ele>225.137524</ele>
        <time>2021-04-04T12:37:10.589Z</time>
      </trkpt>
      <trkpt lat="44.43769" lon="1.12598">
        <ele>224.995541</ele>
        <time>2021-04-04T12:37:11.569Z</time>
      </trkpt>
      <trkpt lat="44.43765" lon="1.12615">
        <ele>224.858769</ele>
        <time>2021-04-04T12:37:12.593Z</time>
      </trkpt>
      <trkpt lat="44.43762" lon="1.12632">
        <ele>224.719796</ele>
        <time>2021-04-04T12:37:13.570Z</time>
      </trkpt>
      <trkpt lat="44.4376" lon="1.1265">
        <ele>224.580047</ele>
        <time>2021-04-04T12:37:14.567Z</time>
      </trkpt>
      <trkpt lat="44.43759" lon="1.12668">
        <ele>224.440893</ele>
        <time>2021-04-04T12:37:15.572Z</time>
      </trkpt>
      <trkpt lat="44.43757" lon="1.12686">
        <ele>224.303183</ele>
        <time>2021-04-04T12:37:16.578Z</time>
      </trkpt>
      <trkpt lat="44.43756" lon="1.12702">
        <ele>224.15364</ele>
        <time>2021-04-04T12:37:17.566Z</time>
      </trkpt>
      <trkpt lat="44.43755" lon="1.12717">
        <ele>223.580736</ele>
        <time>2021-04-04T12:37:18.572Z</time>
      </trkpt>
      <trkpt lat="44.43757" lon="1.12732">
        <ele>222.993243</ele>
        <time>2021-04-04T12:37:19.594Z</time>
      </trkpt>
      <trkpt lat="44.43755" lon="1.12746">
        <ele>222.426498</ele>
        <time>2021-04-04T12:37:20.579Z</time>
      </trkpt>
      <trkpt lat="44.43762" lon="1.12761">
        <ele>221.76662</ele>
        <time>2021-04-04T12:37:21.584Z</time>
      </trkpt>
      <trkpt lat="44.43767" lon="1.12776">
        <ele>221.108433</ele>
        <time>2021-04-04T12:37:22.570Z</time>
      </trkpt>
      <trkpt lat="44.43779" lon="1.12784">
        <ele>220.402736</ele>
        <time>2021-04-04T12:37:23.566Z</time>
      </trkpt>
      <trkpt lat="44.43788" lon="1.12793">
        <ele>219.792336</ele>
        <time>2021-04-04T12:37:24.578Z</time>
      </trkpt>
      <trkpt lat="44.43797" lon="1.128">
        <ele>219.243915</ele>
        <time>2021-04-04T12:37:25.571Z</time>
      </trkpt>
      <trkpt lat="44.43802" lon="1.12811">
        <ele>218.755944</ele>
        <time>2021-04-04T12:37:26.571Z</time>
      </trkpt>
      <trkpt lat="44.43808" lon="1.12831">
        <ele>217.902512</ele>
        <time>2021-04-04T12:37:28.563Z</time>
      </trkpt>
      <trkpt lat="44.43808" lon="1.12848">
        <ele>217.24859</ele>
        <time>2021-04-04T12:37:30.568Z</time>
      </trkpt>
      <trkpt lat="44.43795" lon="1.12862">
        <ele>216.373449</ele>
        <time>2021-04-04T12:37:32.562Z</time>
      </trkpt>
      <trkpt lat="44.43781" lon="1.12872">
        <ele>215.501222</ele>
        <time>2021-04-04T12:37:34.572Z</time>
      </trkpt>
      <trkpt lat="44.43767" lon="1.12885">
        <ele>214.608761</ele>
        <time>2021-04-04T12:37:36.570Z</time>
      </trkpt>
      <trkpt lat="44.43761" lon="1.12896">
        <ele>214.089336</ele>
        <time>2021-04-04T12:37:37.576Z</time>
      </trkpt>
      <trkpt lat="44.43758" lon="1.1291">
        <ele>213.564869</ele>
        <time>2021-04-04T12:37:38.573Z</time>
      </trkpt>
      <trkpt lat="44.43761" lon="1.12924">
        <ele>213.052181</ele>
        <time>2021-04-04T12:37:39.571Z</time>
      </trkpt>
      <trkpt lat="44.43764" lon="1.12937">
        <ele>212.549032</ele>
        <time>2021-04-04T12:37:40.571Z</time>
      </trkpt>
      <trkpt lat="44.43769" lon="1.1295">
        <ele>212.017878</ele>
        <time>2021-04-04T12:37:41.572Z</time>
      </trkpt>
      <trkpt lat="44.43774" lon="1.12963">
        <ele>211.491286</ele>
        <time>2021-04-04T12:37:42.565Z</time>
      </trkpt>
      <trkpt lat="44.4378" lon="1.12976">
        <ele>210.941364</ele>
        <time>2021-04-04T12:37:43.577Z</time>
      </trkpt>
      <trkpt lat="44.43784" lon="1.12988">
        <ele>210.445145</ele>
        <time>2021-04-04T12:37:44.578Z</time>
      </trkpt>
      <trkpt lat="44.43789" lon="1.13003">
        <ele>209.863193</ele>
        <time>2021-04-04T12:37:45.567Z</time>
      </trkpt>
      <trkpt lat="44.43793" lon="1.13017">
        <ele>209.326277</ele>
        <time>2021-04-04T12:37:46.560Z</time>
      </trkpt>
      <trkpt lat="44.43796" lon="1.13031">
        <ele>208.767294</ele>
        <time>2021-04-04T12:37:47.584Z</time>
      </trkpt>
      <trkpt lat="44.438" lon="1.13046">
        <ele>208.211731</ele>
        <time>2021-04-04T12:37:48.571Z</time>
      </trkpt>
      <trkpt lat="44.43801" lon="1.1306">
        <ele>207.704619</ele>
        <time>2021-04-04T12:37:49.585Z</time>
      </trkpt>
      <trkpt lat="44.43802" lon="1.13073">
        <ele>207.209151</ele>
        <time>2021-04-04T12:37:50.569Z</time>
      </trkpt>
      <trkpt lat="44.43801" lon="1.13088">
        <ele>206.695319</ele>
        <time>2021-04-04T12:37:51.575Z</time>
      </trkpt>
      <trkpt lat="44.43797" lon="1.13103">
        <ele>206.111722</ele>
        <time>2021-04-04T12:37:52.566Z</time>
      </trkpt>
      <trkpt lat="44.43792" lon="1.13117">
        <ele>205.555317</ele>
        <time>2021-04-04T12:37:53.565Z</time>
      </trkpt>
      <trkpt lat="44.43786" lon="1.13132">
        <ele>205.208403</ele>
        <time>2021-04-04T12:37:54.571Z</time>
      </trkpt>
      <trkpt lat="44.43782" lon="1.13146">
        <ele>205.01822</ele>
        <time>2021-04-04T12:37:55.571Z</time>
      </trkpt>
      <trkpt lat="44.43776" lon="1.13161">
        <ele>204.818875</ele>
        <time>2021-04-04T12:37:56.563Z</time>
      </trkpt>
      <trkpt lat="44.4377" lon="1.13176">
        <ele>204.608386</ele>
        <time>2021-04-04T12:37:57.568Z</time>
      </trkpt>
      <trkpt lat="44.43762" lon="1.1319">
        <ele>204.399111</ele>
        <time>2021-04-04T12:37:58.571Z</time>
      </trkpt>
      <trkpt lat="44.43753" lon="1.13203">
        <ele>204.18588</ele>
        <time>2021-04-04T12:37:59.571Z</time>
      </trkpt>
      <trkpt lat="44.43743" lon="1.13212">
        <ele>203.981207</ele>
        <time>2021-04-04T12:38:00.562Z</time>
      </trkpt>
      <trkpt lat="44.43733" lon="1.13221">
        <ele>203.781884</ele>
        <time>2021-04-04T12:38:01.572Z</time>
      </trkpt>
      <trkpt lat="44.43723" lon="1.13227">
        <ele>203.595704</ele>
        <time>2021-04-04T12:38:02.564Z</time>
      </trkpt>
      <trkpt lat="44.43712" lon="1.13231">
        <ele>203.400272</ele>
        <time>2021-04-04T12:38:03.567Z</time>
      </trkpt>
      <trkpt lat="44.43701" lon="1.13238">
        <ele>203.20965</ele>
        <time>2021-04-04T12:38:04.565Z</time>
      </trkpt>
      <trkpt lat="44.43693" lon="1.13246">
        <ele>203.03874</ele>
        <time>2021-04-04T12:38:05.572Z</time>
      </trkpt>
      <trkpt lat="44.43685" lon="1.13255">
        <ele>202.864217</ele>
        <time>2021-04-04T12:38:06.572Z</time>
      </trkpt>
      <trkpt lat="44.43677" lon="1.13265">
        <ele>202.684623</ele>
        <time>2021-04-04T12:38:07.565Z</time>
      </trkpt>
      <trkpt lat="44.43672" lon="1.13278">
        <ele>202.512327</ele>
        <time>2021-04-04T12:38:08.564Z</time>
      </trkpt>
      <trkpt lat="44.43664" lon="1.13288">
        <ele>202.325953</ele>
        <time>2021-04-04T12:38:09.591Z</time>
      </trkpt>
      <trkpt lat="44.43653" lon="1.1329">
        <ele>201.954135</ele>
        <time>2021-04-04T12:38:10.564Z</time>
      </trkpt>
      <trkpt lat="44.43642" lon="1.13296">
        <ele>201.521186</ele>
        <time>2021-04-04T12:38:11.575Z</time>
      </trkpt>
      <trkpt lat="44.43632" lon="1.13297">
        <ele>201.164052</ele>
        <time>2021-04-04T12:38:12.565Z</time>
      </trkpt>
      <trkpt lat="44.43621" lon="1.13297">
        <ele>200.795032</ele>
        <time>2021-04-04T12:38:13.574Z</time>
      </trkpt>
      <trkpt lat="44.43611" lon="1.13299">
        <ele>200.439748</ele>
        <time>2021-04-04T12:38:14.564Z</time>
      </trkpt>
      <trkpt lat="44.436" lon="1.13298">
        <ele>200.019759</ele>
        <time>2021-04-04T12:38:15.580Z</time>
      </trkpt>
      <trkpt lat="44.43588" lon="1.13296">
        <ele>199.620291</ele>
        <time>2021-04-04T12:38:16.571Z</time>
      </trkpt>
      <trkpt lat="44.43579" lon="1.13296">
        <ele>199.29731</ele>
        <time>2021-04-04T12:38:17.580Z</time>
      </trkpt>
      <trkpt lat="44.43569" lon="1.13294">
        <ele>198.945533</ele>
        <time>2021-04-04T12:38:18.568Z</time>
      </trkpt>
      <trkpt lat="44.43561" lon="1.13291">
        <ele>198.624758</ele>
        <time>2021-04-04T12:38:19.578Z</time>
      </trkpt>
      <trkpt lat="44.43544" lon="1.13298">
        <ele>198.023402</ele>
        <time>2021-04-04T12:38:21.587Z</time>
      </trkpt>
      <trkpt lat="44.43534" lon="1.13312">
        <ele>197.508027</ele>
        <time>2021-04-04T12:38:23.565Z</time>
      </trkpt>
      <trkpt lat="44.43531" lon="1.13325">
        <ele>197.14842</ele>
        <time>2021-04-04T12:38:25.564Z</time>
      </trkpt>
      <trkpt lat="44.43537" lon="1.13315">
        <ele>196.812327</ele>
        <time>2021-04-04T12:38:40.563Z</time>
      </trkpt>
      <trkpt lat="44.43531" lon="1.13326">
        <ele>196.474013</ele>
        <time>2021-04-04T12:38:50.570Z</time>
      </trkpt>
      <trkpt lat="44.43526" lon="1.13312">
        <ele>196.094833</ele>
        <time>2021-04-04T12:38:56.560Z</time>
      </trkpt>
      <trkpt lat="44.43519" lon="1.13303">
        <ele>196.006418</ele>
        <time>2021-04-04T12:39:00.573Z</time>
      </trkpt>
      <trkpt lat="44.4351" lon="1.13298">
        <ele>196.107978</ele>
        <time>2021-04-04T12:39:03.583Z</time>
      </trkpt>
      <trkpt lat="44.43501" lon="1.13294">
        <ele>196.205949</ele>
        <time>2021-04-04T12:39:06.598Z</time>
      </trkpt>
      <trkpt lat="44.4349" lon="1.1329">
        <ele>196.326154</ele>
        <time>2021-04-04T12:39:09.582Z</time>
      </trkpt>
      <trkpt lat="44.4348" lon="1.13285">
        <ele>196.43636</ele>
        <time>2021-04-04T12:39:12.591Z</time>
      </trkpt>
      <trkpt lat="44.4347" lon="1.13279">
        <ele>196.54301</ele>
        <time>2021-04-04T12:39:15.569Z</time>
      </trkpt>
      <trkpt lat="44.43461" lon="1.13273">
        <ele>196.649523</ele>
        <time>2021-04-04T12:39:18.567Z</time>
      </trkpt>
      <trkpt lat="44.43452" lon="1.13267">
        <ele>196.749801</ele>
        <time>2021-04-04T12:39:21.569Z</time>
      </trkpt>
      <trkpt lat="44.43443" lon="1.13258">
        <ele>196.867484</ele>
        <time>2021-04-04T12:39:25.571Z</time>
      </trkpt>
      <trkpt lat="44.43436" lon="1.13246">
        <ele>196.982773</ele>
        <time>2021-04-04T12:39:29.582Z</time>
      </trkpt>
      <trkpt lat="44.43429" lon="1.13234">
        <ele>197.099867</ele>
        <time>2021-04-04T12:39:33.584Z</time>
      </trkpt>
      <trkpt lat="44.43423" lon="1.13222">
        <ele>197.209928</ele>
        <time>2021-04-04T12:39:37.576Z</time>
      </trkpt>
      <trkpt lat="44.43417" lon="1.13209">
        <ele>197.324852</ele>
        <time>2021-04-04T12:39:41.584Z</time>
      </trkpt>
      <trkpt lat="44.4341" lon="1.13195">
        <ele>197.443452</ele>
        <time>2021-04-04T12:39:45.587Z</time>
      </trkpt>
      <trkpt lat="44.43403" lon="1.13183">
        <ele>197.565295</ele>
        <time>2021-04-04T12:39:49.572Z</time>
      </trkpt>
      <trkpt lat="44.43399" lon="1.13171">
        <ele>197.664359</ele>
        <time>2021-04-04T12:39:52.567Z</time>
      </trkpt>
      <trkpt lat="44.43394" lon="1.13159">
        <ele>197.76537</ele>
        <time>2021-04-04T12:39:55.589Z</time>
      </trkpt>
      <trkpt lat="44.43389" lon="1.13148">
        <ele>197.849823</ele>
        <time>2021-04-04T12:39:58.583Z</time>
      </trkpt>
      <trkpt lat="44.43383" lon="1.13138">
        <ele>197.920407</ele>
        <time>2021-04-04T12:40:01.591Z</time>
      </trkpt>
      <trkpt lat="44.43376" lon="1.13129">
        <ele>197.993035</ele>
        <time>2021-04-04T12:40:04.572Z</time>
      </trkpt>
      <trkpt lat="44.43367" lon="1.13122">
        <ele>198.074213</ele>
        <time>2021-04-04T12:40:07.570Z</time>
      </trkpt>
      <trkpt lat="44.43357" lon="1.13118">
        <ele>198.15328</ele>
        <time>2021-04-04T12:40:10.579Z</time>
      </trkpt>
      <trkpt lat="44.43347" lon="1.13116">
        <ele>198.235525</ele>
        <time>2021-04-04T12:40:13.566Z</time>
      </trkpt>
      <trkpt lat="44.43336" lon="1.13116">
        <ele>198.315633</ele>
        <time>2021-04-04T12:40:16.580Z</time>
      </trkpt>
      <trkpt lat="44.43325" lon="1.13118">
        <ele>198.402745</ele>
        <time>2021-04-04T12:40:19.587Z</time>
      </trkpt>
      <trkpt lat="44.43315" lon="1.1312">
        <ele>198.478679</ele>
        <time>2021-04-04T12:40:21.582Z</time>
      </trkpt>
      <trkpt lat="44.43306" lon="1.13119">
        <ele>198.553596</ele>
        <time>2021-04-04T12:40:23.600Z</time>
      </trkpt>
      <trkpt lat="44.43295" lon="1.13119">
        <ele>198.636014</ele>
        <time>2021-04-04T12:40:25.572Z</time>
      </trkpt>
      <trkpt lat="44.43284" lon="1.13115">
        <ele>198.723692</ele>
        <time>2021-04-04T12:40:27.577Z</time>
      </trkpt>
      <trkpt lat="44.43274" lon="1.13108">
        <ele>198.80512</ele>
        <time>2021-04-04T12:40:29.560Z</time>
      </trkpt>
      <trkpt lat="44.43265" lon="1.131">
        <ele>198.894201</ele>
        <time>2021-04-04T12:40:31.566Z</time>
      </trkpt>
      <trkpt lat="44.43254" lon="1.13091">
        <ele>198.989968</ele>
        <time>2021-04-04T12:40:33.565Z</time>
      </trkpt>
      <trkpt lat="44.43242" lon="1.13084">
        <ele>199.088554</ele>
        <time>2021-04-04T12:40:35.589Z</time>
      </trkpt>
      <trkpt lat="44.43228" lon="1.13084">
        <ele>199.194114</ele>
        <time>2021-04-04T12:40:37.567Z</time>
      </trkpt>
      <trkpt lat="44.43214" lon="1.13096">
        <ele>198.875008</ele>
        <time>2021-04-04T12:40:39.564Z</time>
      </trkpt>
      <trkpt lat="44.43201" lon="1.13109">
        <ele>198.549057</ele>
        <time>2021-04-04T12:40:41.565Z</time>
      </trkpt>
      <trkpt lat="44.43186" lon="1.13121">
        <ele>198.211456</ele>
        <time>2021-04-04T12:40:43.569Z</time>
      </trkpt>
      <trkpt lat="44.43174" lon="1.13125">
        <ele>197.964205</ele>
        <time>2021-04-04T12:40:44.567Z</time>
      </trkpt>
      <trkpt lat="44.43165" lon="1.13127">
        <ele>197.780612</ele>
        <time>2021-04-04T12:40:45.561Z</time>
      </trkpt>
      <trkpt lat="44.43156" lon="1.13126">
        <ele>197.593193</ele>
        <time>2021-04-04T12:40:46.562Z</time>
      </trkpt>
      <trkpt lat="44.43141" lon="1.13119">
        <ele>197.273707</ele>
        <time>2021-04-04T12:40:48.564Z</time>
      </trkpt>
      <trkpt lat="44.43129" lon="1.13101">
        <ele>196.923225</ele>
        <time>2021-04-04T12:40:50.562Z</time>
      </trkpt>
      <trkpt lat="44.4312" lon="1.13079">
        <ele>196.562986</ele>
        <time>2021-04-04T12:40:52.561Z</time>
      </trkpt>
      <trkpt lat="44.43121" lon="1.13059">
        <ele>196.270803</ele>
        <time>2021-04-04T12:40:54.563Z</time>
      </trkpt>
      <trkpt lat="44.43119" lon="1.13041">
        <ele>195.99814</ele>
        <time>2021-04-04T12:40:56.563Z</time>
      </trkpt>
      <trkpt lat="44.43117" lon="1.13023">
        <ele>195.74632</ele>
        <time>2021-04-04T12:40:58.573Z</time>
      </trkpt>
      <trkpt lat="44.43116" lon="1.13005">
        <ele>195.628718</ele>
        <time>2021-04-04T12:41:00.584Z</time>
      </trkpt>
      <trkpt lat="44.43112" lon="1.1299">
        <ele>195.766944</ele>
        <time>2021-04-04T12:41:02.587Z</time>
      </trkpt>
      <trkpt lat="44.43111" lon="1.12975">
        <ele>195.897694</ele>
        <time>2021-04-04T12:41:04.568Z</time>
      </trkpt>
      <trkpt lat="44.43108" lon="1.12961">
        <ele>196.023607</ele>
        <time>2021-04-04T12:41:06.578Z</time>
      </trkpt>
      <trkpt lat="44.43106" lon="1.12946">
        <ele>196.151824</ele>
        <time>2021-04-04T12:41:08.591Z</time>
      </trkpt>
      <trkpt lat="44.43103" lon="1.12933">
        <ele>196.268031</ele>
        <time>2021-04-04T12:41:10.587Z</time>
      </trkpt>
      <trkpt lat="44.431" lon="1.12919">
        <ele>196.392659</ele>
        <time>2021-04-04T12:41:12.583Z</time>
      </trkpt>
      <trkpt lat="44.43098" lon="1.12904">
        <ele>196.526423</ele>
        <time>2021-04-04T12:41:14.574Z</time>
      </trkpt>
      <trkpt lat="44.43095" lon="1.1289">
        <ele>196.650597</ele>
        <time>2021-04-04T12:41:16.583Z</time>
      </trkpt>
      <trkpt lat="44.4309" lon="1.12876">
        <ele>196.778979</ele>
        <time>2021-04-04T12:41:18.592Z</time>
      </trkpt>
      <trkpt lat="44.43086" lon="1.12863">
        <ele>196.907052</ele>
        <time>2021-04-04T12:41:20.578Z</time>
      </trkpt>
      <trkpt lat="44.43079" lon="1.12849">
        <ele>197.050543</ele>
        <time>2021-04-04T12:41:22.578Z</time>
      </trkpt>
      <trkpt lat="44.43075" lon="1.12836">
        <ele>197.172657</ele>
        <time>2021-04-04T12:41:24.566Z</time>
      </trkpt>
      <trkpt lat="44.43071" lon="1.12823">
        <ele>197.295005</ele>
        <time>2021-04-04T12:41:26.571Z</time>
      </trkpt>
      <trkpt lat="44.43066" lon="1.12809">
        <ele>197.427143</ele>
        <time>2021-04-04T12:41:28.577Z</time>
      </trkpt>
      <trkpt lat="44.43062" lon="1.12795">
        <ele>197.556314</ele>
        <time>2021-04-04T12:41:30.588Z</time>
      </trkpt>
      <trkpt lat="44.43057" lon="1.12783">
        <ele>197.677648</ele>
        <time>2021-04-04T12:41:32.590Z</time>
      </trkpt>
      <trkpt lat="44.43054" lon="1.12769">
        <ele>197.837691</ele>
        <time>2021-04-04T12:41:34.595Z</time>
      </trkpt>
      <trkpt lat="44.4305" lon="1.12755">
        <ele>198.055659</ele>
        <time>2021-04-04T12:41:36.588Z</time>
      </trkpt>
      <trkpt lat="44.43044" lon="1.12739">
        <ele>198.308604</ele>
        <time>2021-04-04T12:41:38.575Z</time>
      </trkpt>
      <trkpt lat="44.43041" lon="1.12724">
        <ele>198.525705</ele>
        <time>2021-04-04T12:41:40.575Z</time>
      </trkpt>
      <trkpt lat="44.43037" lon="1.1271">
        <ele>198.749486</ele>
        <time>2021-04-04T12:41:42.586Z</time>
      </trkpt>
      <trkpt lat="44.43031" lon="1.12695">
        <ele>198.985969</ele>
        <time>2021-04-04T12:41:44.562Z</time>
      </trkpt>
      <trkpt lat="44.43029" lon="1.12679">
        <ele>199.209819</ele>
        <time>2021-04-04T12:41:46.568Z</time>
      </trkpt>
      <trkpt lat="44.43025" lon="1.12667">
        <ele>199.396157</ele>
        <time>2021-04-04T12:41:48.581Z</time>
      </trkpt>
      <trkpt lat="44.43021" lon="1.12652">
        <ele>199.633332</ele>
        <time>2021-04-04T12:41:50.592Z</time>
      </trkpt>
      <trkpt lat="44.43017" lon="1.12636">
        <ele>199.860368</ele>
        <time>2021-04-04T12:41:52.591Z</time>
      </trkpt>
      <trkpt lat="44.43009" lon="1.12622">
        <ele>200.115339</ele>
        <time>2021-04-04T12:41:54.591Z</time>
      </trkpt>
      <trkpt lat="44.43" lon="1.12609">
        <ele>200.374349</ele>
        <time>2021-04-04T12:41:56.583Z</time>
      </trkpt>
      <trkpt lat="44.42992" lon="1.12597">
        <ele>200.601073</ele>
        <time>2021-04-04T12:41:58.570Z</time>
      </trkpt>
      <trkpt lat="44.42984" lon="1.12586">
        <ele>200.83341</ele>
        <time>2021-04-04T12:42:00.592Z</time>
      </trkpt>
      <trkpt lat="44.42974" lon="1.12573">
        <ele>201.088339</ele>
        <time>2021-04-04T12:42:02.574Z</time>
      </trkpt>
      <trkpt lat="44.42966" lon="1.12561">
        <ele>201.26868</ele>
        <time>2021-04-04T12:42:04.562Z</time>
      </trkpt>
      <trkpt lat="44.42958" lon="1.1255">
        <ele>201.190841</ele>
        <time>2021-04-04T12:42:06.584Z</time>
      </trkpt>
      <trkpt lat="44.42949" lon="1.12537">
        <ele>201.106209</ele>
        <time>2021-04-04T12:42:08.577Z</time>
      </trkpt>
      <trkpt lat="44.4294" lon="1.12524">
        <ele>201.021649</ele>
        <time>2021-04-04T12:42:10.565Z</time>
      </trkpt>
      <trkpt lat="44.42932" lon="1.12509">
        <ele>200.931648</ele>
        <time>2021-04-04T12:42:12.577Z</time>
      </trkpt>
      <trkpt lat="44.42925" lon="1.12494">
        <ele>200.845948</ele>
        <time>2021-04-04T12:42:14.579Z</time>
      </trkpt>
      <trkpt lat="44.4292" lon="1.12481">
        <ele>200.77459</ele>
        <time>2021-04-04T12:42:16.569Z</time>
      </trkpt>
      <trkpt lat="44.42917" lon="1.12466">
        <ele>200.70107</ele>
        <time>2021-04-04T12:42:18.568Z</time>
      </trkpt>
      <trkpt lat="44.42914" lon="1.12452">
        <ele>200.627877</ele>
        <time>2021-04-04T12:42:20.575Z</time>
      </trkpt>
      <trkpt lat="44.42909" lon="1.12438">
        <ele>200.556905</ele>
        <time>2021-04-04T12:42:22.572Z</time>
      </trkpt>
      <trkpt lat="44.42905" lon="1.12425">
        <ele>200.486117</ele>
        <time>2021-04-04T12:42:24.573Z</time>
      </trkpt>
      <trkpt lat="44.42903" lon="1.12411">
        <ele>200.420177</ele>
        <time>2021-04-04T12:42:26.575Z</time>
      </trkpt>
      <trkpt lat="44.42904" lon="1.12398">
        <ele>200.356342</ele>
        <time>2021-04-04T12:42:28.562Z</time>
      </trkpt>
      <trkpt lat="44.42902" lon="1.12379">
        <ele>200.264017</ele>
        <time>2021-04-04T12:42:31.591Z</time>
      </trkpt>
      <trkpt lat="44.42902" lon="1.12364">
        <ele>200.19609</ele>
        <time>2021-04-04T12:42:33.583Z</time>
      </trkpt>
      <trkpt lat="44.429" lon="1.12352">
        <ele>200.135656</ele>
        <time>2021-04-04T12:42:35.575Z</time>
      </trkpt>
      <trkpt lat="44.42902" lon="1.12337">
        <ele>200.092099</ele>
        <time>2021-04-04T12:42:37.585Z</time>
      </trkpt>
      <trkpt lat="44.429" lon="1.12322">
        <ele>200.140864</ele>
        <time>2021-04-04T12:42:39.583Z</time>
      </trkpt>
      <trkpt lat="44.42896" lon="1.12308">
        <ele>200.191287</ele>
        <time>2021-04-04T12:42:41.568Z</time>
      </trkpt>
      <trkpt lat="44.4289" lon="1.12295">
        <ele>200.24337</ele>
        <time>2021-04-04T12:42:43.572Z</time>
      </trkpt>
      <trkpt lat="44.42884" lon="1.12283">
        <ele>200.289513</ele>
        <time>2021-04-04T12:42:45.563Z</time>
      </trkpt>
      <trkpt lat="44.42875" lon="1.12272">
        <ele>200.346542</ele>
        <time>2021-04-04T12:42:47.572Z</time>
      </trkpt>
      <trkpt lat="44.42869" lon="1.12261">
        <ele>200.391389</ele>
        <time>2021-04-04T12:42:49.577Z</time>
      </trkpt>
      <trkpt lat="44.4286" lon="1.1225">
        <ele>200.443024</ele>
        <time>2021-04-04T12:42:51.582Z</time>
      </trkpt>
      <trkpt lat="44.42854" lon="1.1224">
        <ele>200.488783</ele>
        <time>2021-04-04T12:42:53.583Z</time>
      </trkpt>
      <trkpt lat="44.42848" lon="1.12228">
        <ele>200.536316</ele>
        <time>2021-04-04T12:42:55.582Z</time>
      </trkpt>
      <trkpt lat="44.42843" lon="1.12216">
        <ele>200.579897</ele>
        <time>2021-04-04T12:42:57.587Z</time>
      </trkpt>
      <trkpt lat="44.42841" lon="1.12203">
        <ele>200.625122</ele>
        <time>2021-04-04T12:42:59.592Z</time>
      </trkpt>
      <trkpt lat="44.42841" lon="1.1219">
        <ele>200.66767</ele>
        <time>2021-04-04T12:43:01.563Z</time>
      </trkpt>
      <trkpt lat="44.42843" lon="1.12177">
        <ele>200.710978</ele>
        <time>2021-04-04T12:43:04.567Z</time>
      </trkpt>
      <trkpt lat="44.42847" lon="1.12163">
        <ele>200.759725</ele>
        <time>2021-04-04T12:43:08.571Z</time>
      </trkpt>
      <trkpt lat="44.42851" lon="1.12149">
        <ele>200.810218</ele>
        <time>2021-04-04T12:43:12.578Z</time>
      </trkpt>
      <trkpt lat="44.42854" lon="1.12135">
        <ele>200.859984</ele>
        <time>2021-04-04T12:43:16.572Z</time>
      </trkpt>
      <trkpt lat="44.42857" lon="1.12121">
        <ele>200.907188</ele>
        <time>2021-04-04T12:43:20.583Z</time>
      </trkpt>
      <trkpt lat="44.42862" lon="1.12108">
        <ele>201.382538</ele>
        <time>2021-04-04T12:43:24.571Z</time>
      </trkpt>
      <trkpt lat="44.42867" lon="1.12097">
        <ele>201.842392</ele>
        <time>2021-04-04T12:43:28.586Z</time>
      </trkpt>
      <trkpt lat="44.42874" lon="1.12086">
        <ele>202.308958</ele>
        <time>2021-04-04T12:43:32.574Z</time>
      </trkpt>
      <trkpt lat="44.42881" lon="1.12076">
        <ele>202.7888</ele>
        <time>2021-04-04T12:43:36.589Z</time>
      </trkpt>
      <trkpt lat="44.42887" lon="1.12066">
        <ele>203.251649</ele>
        <time>2021-04-04T12:43:40.582Z</time>
      </trkpt>
      <trkpt lat="44.42893" lon="1.12055">
        <ele>203.71926</ele>
        <time>2021-04-04T12:43:44.572Z</time>
      </trkpt>
      <trkpt lat="44.42899" lon="1.12043">
        <ele>204.18106</ele>
        <time>2021-04-04T12:43:48.576Z</time>
      </trkpt>
      <trkpt lat="44.42905" lon="1.12032">
        <ele>204.659349</ele>
        <time>2021-04-04T12:43:52.570Z</time>
      </trkpt>
      <trkpt lat="44.42911" lon="1.1202">
        <ele>205.151175</ele>
        <time>2021-04-04T12:43:56.585Z</time>
      </trkpt>
      <trkpt lat="44.42916" lon="1.12008">
        <ele>205.631624</ele>
        <time>2021-04-04T12:44:00.582Z</time>
      </trkpt>
      <trkpt lat="44.42921" lon="1.11994">
        <ele>206.139049</ele>
        <time>2021-04-04T12:44:04.574Z</time>
      </trkpt>
      <trkpt lat="44.42923" lon="1.11979">
        <ele>206.643144</ele>
        <time>2021-04-04T12:44:08.565Z</time>
      </trkpt>
      <trkpt lat="44.42926" lon="1.11965">
        <ele>207.131004</ele>
        <time>2021-04-04T12:44:12.588Z</time>
      </trkpt>
      <trkpt lat="44.42928" lon="1.1195">
        <ele>207.662538</ele>
        <time>2021-04-04T12:44:16.583Z</time>
      </trkpt>
      <trkpt lat="44.42929" lon="1.11933">
        <ele>208.215595</ele>
        <time>2021-04-04T12:44:20.577Z</time>
      </trkpt>
      <trkpt lat="44.4293" lon="1.1192">
        <ele>208.646617</ele>
        <time>2021-04-04T12:44:23.584Z</time>
      </trkpt>
      <trkpt lat="44.4293" lon="1.11904">
        <ele>209.201327</ele>
        <time>2021-04-04T12:44:27.587Z</time>
      </trkpt>
      <trkpt lat="44.42931" lon="1.11888">
        <ele>209.647503</ele>
        <time>2021-04-04T12:44:31.579Z</time>
      </trkpt>
      <trkpt lat="44.42932" lon="1.11872">
        <ele>210.02775</ele>
        <time>2021-04-04T12:44:35.589Z</time>
      </trkpt>
      <trkpt lat="44.42933" lon="1.11858">
        <ele>210.389368</ele>
        <time>2021-04-04T12:44:39.572Z</time>
      </trkpt>
      <trkpt lat="44.42932" lon="1.11842">
        <ele>210.778635</ele>
        <time>2021-04-04T12:44:43.584Z</time>
      </trkpt>
      <trkpt lat="44.4293" lon="1.11827">
        <ele>211.158692</ele>
        <time>2021-04-04T12:44:47.585Z</time>
      </trkpt>
      <trkpt lat="44.42927" lon="1.11811">
        <ele>211.552134</ele>
        <time>2021-04-04T12:44:51.589Z</time>
      </trkpt>
      <trkpt lat="44.42921" lon="1.11798">
        <ele>211.934495</ele>
        <time>2021-04-04T12:44:55.566Z</time>
      </trkpt>
      <trkpt lat="44.42912" lon="1.11789">
        <ele>212.311381</ele>
        <time>2021-04-04T12:44:59.562Z</time>
      </trkpt>
      <trkpt lat="44.42902" lon="1.11783">
        <ele>212.680911</ele>
        <time>2021-04-04T12:45:03.566Z</time>
      </trkpt>
      <trkpt lat="44.42892" lon="1.11775">
        <ele>213.065583</ele>
        <time>2021-04-04T12:45:07.578Z</time>
      </trkpt>
      <trkpt lat="44.42887" lon="1.11765">
        <ele>213.378293</ele>
        <time>2021-04-04T12:45:10.566Z</time>
      </trkpt>
      <trkpt lat="44.42886" lon="1.11749">
        <ele>213.780056</ele>
        <time>2021-04-04T12:45:14.562Z</time>
      </trkpt>
      <trkpt lat="44.42889" lon="1.11737">
        <ele>214.10209</ele>
        <time>2021-04-04T12:45:17.569Z</time>
      </trkpt>
      <trkpt lat="44.42895" lon="1.11722">
        <ele>214.506486</ele>
        <time>2021-04-04T12:45:21.578Z</time>
      </trkpt>
      <trkpt lat="44.42898" lon="1.11708">
        <ele>214.866361</ele>
        <time>2021-04-04T12:45:25.581Z</time>
      </trkpt>
      <trkpt lat="44.42896" lon="1.11692">
        <ele>215.269512</ele>
        <time>2021-04-04T12:45:29.563Z</time>
      </trkpt>
      <trkpt lat="44.42889" lon="1.11679">
        <ele>215.628347</ele>
        <time>2021-04-04T12:45:33.568Z</time>
      </trkpt>
      <trkpt lat="44.42882" lon="1.1167">
        <ele>215.834193</ele>
        <time>2021-04-04T12:45:36.567Z</time>
      </trkpt>
      <trkpt lat="44.42873" lon="1.11663">
        <ele>216.055477</ele>
        <time>2021-04-04T12:45:39.564Z</time>
      </trkpt>
      <trkpt lat="44.42864" lon="1.11658">
        <ele>216.249529</ele>
        <time>2021-04-04T12:45:42.574Z</time>
      </trkpt>
      <trkpt lat="44.42854" lon="1.11651">
        <ele>216.480727</ele>
        <time>2021-04-04T12:45:45.582Z</time>
      </trkpt>
      <trkpt lat="44.42845" lon="1.11644">
        <ele>216.704192</ele>
        <time>2021-04-04T12:45:48.579Z</time>
      </trkpt>
      <trkpt lat="44.42836" lon="1.11634">
        <ele>216.950945</ele>
        <time>2021-04-04T12:45:52.582Z</time>
      </trkpt>
      <trkpt lat="44.4283" lon="1.11624">
        <ele>217.147353</ele>
        <time>2021-04-04T12:45:55.587Z</time>
      </trkpt>
      <trkpt lat="44.42825" lon="1.11609">
        <ele>217.393451</ele>
        <time>2021-04-04T12:45:59.570Z</time>
      </trkpt>
      <trkpt lat="44.42824" lon="1.11596">
        <ele>217.592722</ele>
        <time>2021-04-04T12:46:02.564Z</time>
      </trkpt>
      <trkpt lat="44.42826" lon="1.11579">
        <ele>217.846645</ele>
        <time>2021-04-04T12:46:06.566Z</time>
      </trkpt>
      <trkpt lat="44.42826" lon="1.11566">
        <ele>218.04804</ele>
        <time>2021-04-04T12:46:09.576Z</time>
      </trkpt>
      <trkpt lat="44.42822" lon="1.11554">
        <ele>218.245377</ele>
        <time>2021-04-04T12:46:12.585Z</time>
      </trkpt>
      <trkpt lat="44.42814" lon="1.11542">
        <ele>218.492802</ele>
        <time>2021-04-04T12:46:16.583Z</time>
      </trkpt>
      <trkpt lat="44.4281" lon="1.11531">
        <ele>218.692976</ele>
        <time>2021-04-04T12:46:19.579Z</time>
      </trkpt>
      <trkpt lat="44.42805" lon="1.11519">
        <ele>218.901238</ele>
        <time>2021-04-04T12:46:22.590Z</time>
      </trkpt>
      <trkpt lat="44.42801" lon="1.11506">
        <ele>219.111783</ele>
        <time>2021-04-04T12:46:25.578Z</time>
      </trkpt>
      <trkpt lat="44.42795" lon="1.11494">
        <ele>219.325615</ele>
        <time>2021-04-04T12:46:28.574Z</time>
      </trkpt>
      <trkpt lat="44.4279" lon="1.11483">
        <ele>219.567186</ele>
        <time>2021-04-04T12:46:31.581Z</time>
      </trkpt>
      <trkpt lat="44.42785" lon="1.11472">
        <ele>219.8123</ele>
        <time>2021-04-04T12:46:34.590Z</time>
      </trkpt>
      <trkpt lat="44.4278" lon="1.11459">
        <ele>220.078626</ele>
        <time>2021-04-04T12:46:37.584Z</time>
      </trkpt>
      <trkpt lat="44.42776" lon="1.11446">
        <ele>220.354712</ele>
        <time>2021-04-04T12:46:40.571Z</time>
      </trkpt>
      <trkpt lat="44.42774" lon="1.11433">
        <ele>220.60255</ele>
        <time>2021-04-04T12:46:43.583Z</time>
      </trkpt>
      <trkpt lat="44.42772" lon="1.11419">
        <ele>220.865043</ele>
        <time>2021-04-04T12:46:46.575Z</time>
      </trkpt>
      <trkpt lat="44.42771" lon="1.11405">
        <ele>221.125022</ele>
        <time>2021-04-04T12:46:49.574Z</time>
      </trkpt>
      <trkpt lat="44.4277" lon="1.11392">
        <ele>221.368965</ele>
        <time>2021-04-04T12:46:52.581Z</time>
      </trkpt>
      <trkpt lat="44.4277" lon="1.11379">
        <ele>221.608092</ele>
        <time>2021-04-04T12:46:55.583Z</time>
      </trkpt>
      <trkpt lat="44.42771" lon="1.11366">
        <ele>221.853267</ele>
        <time>2021-04-04T12:46:58.563Z</time>
      </trkpt>
      <trkpt lat="44.42771" lon="1.11354">
        <ele>222.087669</ele>
        <time>2021-04-04T12:47:01.565Z</time>
      </trkpt>
      <trkpt lat="44.42773" lon="1.11341">
        <ele>222.330641</ele>
        <time>2021-04-04T12:47:04.571Z</time>
      </trkpt>
      <trkpt lat="44.42774" lon="1.11327">
        <ele>222.589126</ele>
        <time>2021-04-04T12:47:07.578Z</time>
      </trkpt>
      <trkpt lat="44.42776" lon="1.11313">
        <ele>222.850163</ele>
        <time>2021-04-04T12:47:10.580Z</time>
      </trkpt>
      <trkpt lat="44.42779" lon="1.11301">
        <ele>223.099443</ele>
        <time>2021-04-04T12:47:13.583Z</time>
      </trkpt>
      <trkpt lat="44.42782" lon="1.11288">
        <ele>223.350896</ele>
        <time>2021-04-04T12:47:16.578Z</time>
      </trkpt>
      <trkpt lat="44.42783" lon="1.11274">
        <ele>223.614255</ele>
        <time>2021-04-04T12:47:19.589Z</time>
      </trkpt>
      <trkpt lat="44.42783" lon="1.1126">
        <ele>223.873921</ele>
        <time>2021-04-04T12:47:22.572Z</time>
      </trkpt>
      <trkpt lat="44.42782" lon="1.11246">
        <ele>224.037504</ele>
        <time>2021-04-04T12:47:25.583Z</time>
      </trkpt>
      <trkpt lat="44.42782" lon="1.11233">
        <ele>223.856382</ele>
        <time>2021-04-04T12:47:28.586Z</time>
      </trkpt>
      <trkpt lat="44.42781" lon="1.1122">
        <ele>223.675891</ele>
        <time>2021-04-04T12:47:31.586Z</time>
      </trkpt>
      <trkpt lat="44.4278" lon="1.11207">
        <ele>223.499277</ele>
        <time>2021-04-04T12:47:34.589Z</time>
      </trkpt>
      <trkpt lat="44.4278" lon="1.11194">
        <ele>223.324115</ele>
        <time>2021-04-04T12:47:37.568Z</time>
      </trkpt>
      <trkpt lat="44.4278" lon="1.11181">
        <ele>223.139376</ele>
        <time>2021-04-04T12:47:40.581Z</time>
      </trkpt>
      <trkpt lat="44.42781" lon="1.11168">
        <ele>222.961477</ele>
        <time>2021-04-04T12:47:43.581Z</time>
      </trkpt>
      <trkpt lat="44.42781" lon="1.11154">
        <ele>222.777755</ele>
        <time>2021-04-04T12:47:46.580Z</time>
      </trkpt>
      <trkpt lat="44.42781" lon="1.11141">
        <ele>222.601225</ele>
        <time>2021-04-04T12:47:49.582Z</time>
      </trkpt>
      <trkpt lat="44.42781" lon="1.11128">
        <ele>222.421959</ele>
        <time>2021-04-04T12:47:52.586Z</time>
      </trkpt>
      <trkpt lat="44.42783" lon="1.11116">
        <ele>222.248514</ele>
        <time>2021-04-04T12:47:55.585Z</time>
      </trkpt>
      <trkpt lat="44.42783" lon="1.11102">
        <ele>222.065063</ele>
        <time>2021-04-04T12:47:58.589Z</time>
      </trkpt>
      <trkpt lat="44.42783" lon="1.11089">
        <ele>221.885643</ele>
        <time>2021-04-04T12:48:01.564Z</time>
      </trkpt>
      <trkpt lat="44.42783" lon="1.11076">
        <ele>221.705885</ele>
        <time>2021-04-04T12:48:04.557Z</time>
      </trkpt>
      <trkpt lat="44.42786" lon="1.1106">
        <ele>221.484017</ele>
        <time>2021-04-04T12:48:08.569Z</time>
      </trkpt>
      <trkpt lat="44.42792" lon="1.11049">
        <ele>221.298046</ele>
        <time>2021-04-04T12:48:11.573Z</time>
      </trkpt>
      <trkpt lat="44.428" lon="1.11039">
        <ele>221.097246</ele>
        <time>2021-04-04T12:48:15.575Z</time>
      </trkpt>
      <trkpt lat="44.42808" lon="1.11035">
        <ele>220.919341</ele>
        <time>2021-04-04T12:48:18.565Z</time>
      </trkpt>
      <trkpt lat="44.4282" lon="1.11034">
        <ele>220.685429</ele>
        <time>2021-04-04T12:48:22.564Z</time>
      </trkpt>
      <trkpt lat="44.42831" lon="1.11036">
        <ele>220.964092</ele>
        <time>2021-04-04T12:48:25.566Z</time>
      </trkpt>
      <trkpt lat="44.42841" lon="1.11039">
        <ele>221.397709</ele>
        <time>2021-04-04T12:48:28.583Z</time>
      </trkpt>
      <trkpt lat="44.42851" lon="1.11042">
        <ele>221.81443</ele>
        <time>2021-04-04T12:48:31.572Z</time>
      </trkpt>
      <trkpt lat="44.42861" lon="1.11045">
        <ele>222.231151</ele>
        <time>2021-04-04T12:48:34.571Z</time>
      </trkpt>
      <trkpt lat="44.4287" lon="1.11047">
        <ele>222.62513</ele>
        <time>2021-04-04T12:48:37.584Z</time>
      </trkpt>
      <trkpt lat="44.4288" lon="1.1105">
        <ele>223.037171</ele>
        <time>2021-04-04T12:48:40.580Z</time>
      </trkpt>
      <trkpt lat="44.4289" lon="1.11055">
        <ele>223.480968</ele>
        <time>2021-04-04T12:48:43.587Z</time>
      </trkpt>
      <trkpt lat="44.42898" lon="1.11062">
        <ele>223.878818</ele>
        <time>2021-04-04T12:48:46.585Z</time>
      </trkpt>
      <trkpt lat="44.42905" lon="1.11071">
        <ele>224.270137</ele>
        <time>2021-04-04T12:48:49.574Z</time>
      </trkpt>
      <trkpt lat="44.42914" lon="1.1108">
        <ele>224.708161</ele>
        <time>2021-04-04T12:48:52.577Z</time>
      </trkpt>
      <trkpt lat="44.42923" lon="1.11085">
        <ele>225.129331</ele>
        <time>2021-04-04T12:48:55.570Z</time>
      </trkpt>
      <trkpt lat="44.42933" lon="1.11086">
        <ele>225.566665</ele>
        <time>2021-04-04T12:48:58.574Z</time>
      </trkpt>
      <trkpt lat="44.42943" lon="1.11085">
        <ele>225.976498</ele>
        <time>2021-04-04T12:49:01.573Z</time>
      </trkpt>
      <trkpt lat="44.42953" lon="1.11081">
        <ele>226.381161</ele>
        <time>2021-04-04T12:49:04.558Z</time>
      </trkpt>
      <trkpt lat="44.42963" lon="1.11078">
        <ele>226.816038</ele>
        <time>2021-04-04T12:49:07.573Z</time>
      </trkpt>
      <trkpt lat="44.42973" lon="1.11075">
        <ele>227.23683</ele>
        <time>2021-04-04T12:49:10.590Z</time>
      </trkpt>
      <trkpt lat="44.42982" lon="1.11073">
        <ele>227.640622</ele>
        <time>2021-04-04T12:49:13.587Z</time>
      </trkpt>
      <trkpt lat="44.42992" lon="1.11073">
        <ele>228.044277</ele>
        <time>2021-04-04T12:49:16.583Z</time>
      </trkpt>
      <trkpt lat="44.43002" lon="1.11072">
        <ele>228.233967</ele>
        <time>2021-04-04T12:49:19.578Z</time>
      </trkpt>
      <trkpt lat="44.43013" lon="1.11071">
        <ele>228.383466</ele>
        <time>2021-04-04T12:49:22.569Z</time>
      </trkpt>
      <trkpt lat="44.43023" lon="1.11072">
        <ele>228.531623</ele>
        <time>2021-04-04T12:49:25.567Z</time>
      </trkpt>
      <trkpt lat="44.43034" lon="1.11072">
        <ele>228.675515</ele>
        <time>2021-04-04T12:49:28.578Z</time>
      </trkpt>
      <trkpt lat="44.43043" lon="1.11073">
        <ele>228.815105</ele>
        <time>2021-04-04T12:49:31.572Z</time>
      </trkpt>
      <trkpt lat="44.43053" lon="1.11072">
        <ele>228.952097</ele>
        <time>2021-04-04T12:49:34.585Z</time>
      </trkpt>
      <trkpt lat="44.43063" lon="1.11067">
        <ele>229.097817</ele>
        <time>2021-04-04T12:49:37.574Z</time>
      </trkpt>
      <trkpt lat="44.43071" lon="1.11057">
        <ele>229.24728</ele>
        <time>2021-04-04T12:49:40.568Z</time>
      </trkpt>
      <trkpt lat="44.43074" lon="1.11044">
        <ele>229.387657</ele>
        <time>2021-04-04T12:49:43.571Z</time>
      </trkpt>
      <trkpt lat="44.43075" lon="1.1103">
        <ele>229.534672</ele>
        <time>2021-04-04T12:49:46.574Z</time>
      </trkpt>
      <trkpt lat="44.43074" lon="1.11016">
        <ele>229.674726</ele>
        <time>2021-04-04T12:49:49.580Z</time>
      </trkpt>
      <trkpt lat="44.43073" lon="1.11003">
        <ele>229.806695</ele>
        <time>2021-04-04T12:49:52.567Z</time>
      </trkpt>
      <trkpt lat="44.43073" lon="1.10989">
        <ele>229.944687</ele>
        <time>2021-04-04T12:49:55.575Z</time>
      </trkpt>
      <trkpt lat="44.43072" lon="1.10975">
        <ele>230.086086</ele>
        <time>2021-04-04T12:49:58.570Z</time>
      </trkpt>
      <trkpt lat="44.4307" lon="1.10962">
        <ele>230.222866</ele>
        <time>2021-04-04T12:50:01.571Z</time>
      </trkpt>
      <trkpt lat="44.43069" lon="1.10949">
        <ele>230.35184</ele>
        <time>2021-04-04T12:50:04.565Z</time>
      </trkpt>
      <trkpt lat="44.4307" lon="1.10932">
        <ele>230.521452</ele>
        <time>2021-04-04T12:50:08.574Z</time>
      </trkpt>
      <trkpt lat="44.4307" lon="1.10919">
        <ele>230.656482</ele>
        <time>2021-04-04T12:50:11.580Z</time>
      </trkpt>
      <trkpt lat="44.43071" lon="1.10906">
        <ele>231.386371</ele>
        <time>2021-04-04T12:50:14.571Z</time>
      </trkpt>
      <trkpt lat="44.43073" lon="1.10893">
        <ele>232.105827</ele>
        <time>2021-04-04T12:50:17.567Z</time>
      </trkpt>
      <trkpt lat="44.43073" lon="1.1088">
        <ele>232.796297</ele>
        <time>2021-04-04T12:50:20.570Z</time>
      </trkpt>
      <trkpt lat="44.43074" lon="1.10864">
        <ele>233.693471</ele>
        <time>2021-04-04T12:50:24.572Z</time>
      </trkpt>
      <trkpt lat="44.43073" lon="1.10848">
        <ele>234.568733</ele>
        <time>2021-04-04T12:50:28.586Z</time>
      </trkpt>
      <trkpt lat="44.43071" lon="1.10833">
        <ele>235.409295</ele>
        <time>2021-04-04T12:50:32.578Z</time>
      </trkpt>
      <trkpt lat="44.43069" lon="1.10817">
        <ele>236.281151</ele>
        <time>2021-04-04T12:50:36.567Z</time>
      </trkpt>
      <trkpt lat="44.43065" lon="1.10804">
        <ele>237.077022</ele>
        <time>2021-04-04T12:50:40.576Z</time>
      </trkpt>
      <trkpt lat="44.4306" lon="1.10789">
        <ele>237.956745</ele>
        <time>2021-04-04T12:50:44.572Z</time>
      </trkpt>
      <trkpt lat="44.43053" lon="1.10777">
        <ele>238.793274</ele>
        <time>2021-04-04T12:50:48.569Z</time>
      </trkpt>
      <trkpt lat="44.43045" lon="1.10769">
        <ele>239.586168</ele>
        <time>2021-04-04T12:50:51.561Z</time>
      </trkpt>
      <trkpt lat="44.43035" lon="1.10762">
        <ele>240.408886</ele>
        <time>2021-04-04T12:50:54.572Z</time>
      </trkpt>
      <trkpt lat="44.43025" lon="1.10757">
        <ele>241.253767</ele>
        <time>2021-04-04T12:50:56.580Z</time>
      </trkpt>
      <trkpt lat="44.43014" lon="1.10753">
        <ele>242.080904</ele>
        <time>2021-04-04T12:50:58.588Z</time>
      </trkpt>
      <trkpt lat="44.43005" lon="1.10747">
        <ele>242.875552</ele>
        <time>2021-04-04T12:51:00.585Z</time>
      </trkpt>
      <trkpt lat="44.42996" lon="1.10738">
        <ele>243.716989</ele>
        <time>2021-04-04T12:51:02.574Z</time>
      </trkpt>
      <trkpt lat="44.42988" lon="1.10725">
        <ele>244.467009</ele>
        <time>2021-04-04T12:51:04.566Z</time>
      </trkpt>
      <trkpt lat="44.42983" lon="1.10713">
        <ele>244.634203</ele>
        <time>2021-04-04T12:51:06.571Z</time>
      </trkpt>
      <trkpt lat="44.42983" lon="1.107">
        <ele>244.802215</ele>
        <time>2021-04-04T12:51:08.570Z</time>
      </trkpt>
      <trkpt lat="44.42988" lon="1.10689">
        <ele>244.96825</ele>
        <time>2021-04-04T12:51:10.567Z</time>
      </trkpt>
      <trkpt lat="44.42992" lon="1.10677">
        <ele>245.130265</ele>
        <time>2021-04-04T12:51:12.564Z</time>
      </trkpt>
      <trkpt lat="44.42999" lon="1.10666">
        <ele>245.307464</ele>
        <time>2021-04-04T12:51:14.567Z</time>
      </trkpt>
      <trkpt lat="44.43005" lon="1.1065">
        <ele>245.535529</ele>
        <time>2021-04-04T12:51:17.574Z</time>
      </trkpt>
      <trkpt lat="44.4301" lon="1.10639">
        <ele>245.692719</ele>
        <time>2021-04-04T12:51:19.573Z</time>
      </trkpt>
      <trkpt lat="44.43015" lon="1.10629">
        <ele>245.849519</ele>
        <time>2021-04-04T12:51:21.560Z</time>
      </trkpt>
      <trkpt lat="44.43023" lon="1.10613">
        <ele>246.084227</ele>
        <time>2021-04-04T12:51:24.574Z</time>
      </trkpt>
      <trkpt lat="44.43028" lon="1.10602">
        <ele>246.249988</ele>
        <time>2021-04-04T12:51:26.583Z</time>
      </trkpt>
      <trkpt lat="44.43032" lon="1.10591">
        <ele>246.407178</ele>
        <time>2021-04-04T12:51:28.571Z</time>
      </trkpt>
      <trkpt lat="44.43037" lon="1.1058">
        <ele>246.566105</ele>
        <time>2021-04-04T12:51:30.579Z</time>
      </trkpt>
      <trkpt lat="44.43042" lon="1.10568">
        <ele>246.739854</ele>
        <time>2021-04-04T12:51:33.578Z</time>
      </trkpt>
      <trkpt lat="44.43048" lon="1.10556">
        <ele>246.916275</ele>
        <time>2021-04-04T12:51:36.582Z</time>
      </trkpt>
      <trkpt lat="44.43054" lon="1.10545">
        <ele>247.092401</ele>
        <time>2021-04-04T12:51:39.572Z</time>
      </trkpt>
      <trkpt lat="44.4306" lon="1.10533">
        <ele>247.269511</ele>
        <time>2021-04-04T12:51:42.570Z</time>
      </trkpt>
      <trkpt lat="44.43066" lon="1.10522">
        <ele>247.449557</ele>
        <time>2021-04-04T12:51:45.568Z</time>
      </trkpt>
      <trkpt lat="44.43071" lon="1.10512">
        <ele>247.66505</ele>
        <time>2021-04-04T12:51:48.576Z</time>
      </trkpt>
      <trkpt lat="44.43078" lon="1.10502">
        <ele>247.981277</ele>
        <time>2021-04-04T12:51:51.574Z</time>
      </trkpt>
      <trkpt lat="44.43087" lon="1.10491">
        <ele>248.347074</ele>
        <time>2021-04-04T12:51:54.577Z</time>
      </trkpt>
      <trkpt lat="44.43094" lon="1.10482">
        <ele>248.662946</ele>
        <time>2021-04-04T12:51:57.587Z</time>
      </trkpt>
      <trkpt lat="44.43101" lon="1.10473">
        <ele>248.973307</ele>
        <time>2021-04-04T12:52:00.573Z</time>
      </trkpt>
      <trkpt lat="44.43108" lon="1.10465">
        <ele>249.269066</ele>
        <time>2021-04-04T12:52:03.582Z</time>
      </trkpt>
      <trkpt lat="44.43116" lon="1.10456">
        <ele>249.602466</ele>
        <time>2021-04-04T12:52:06.583Z</time>
      </trkpt>
      <trkpt lat="44.43125" lon="1.10445">
        <ele>249.992659</ele>
        <time>2021-04-04T12:52:10.592Z</time>
      </trkpt>
      <trkpt lat="44.43133" lon="1.10437">
        <ele>250.305342</ele>
        <time>2021-04-04T12:52:13.588Z</time>
      </trkpt>
      <trkpt lat="44.43142" lon="1.10427">
        <ele>250.683927</ele>
        <time>2021-04-04T12:52:17.574Z</time>
      </trkpt>
      <trkpt lat="44.43151" lon="1.10418">
        <ele>251.03842</ele>
        <time>2021-04-04T12:52:21.592Z</time>
      </trkpt>
      <trkpt lat="44.43157" lon="1.10407">
        <ele>251.351049</ele>
        <time>2021-04-04T12:52:25.571Z</time>
      </trkpt>
      <trkpt lat="44.43151" lon="1.10393">
        <ele>251.731634</ele>
        <time>2021-04-04T12:52:29.573Z</time>
      </trkpt>
      <trkpt lat="44.4314" lon="1.10392">
        <ele>252.075934</ele>
        <time>2021-04-04T12:52:31.571Z</time>
      </trkpt>
      <trkpt lat="44.43131" lon="1.10396">
        <ele>252.406369</ele>
        <time>2021-04-04T12:52:32.569Z</time>
      </trkpt>
      <trkpt lat="44.43117" lon="1.10397">
        <ele>252.841377</ele>
        <time>2021-04-04T12:52:35.580Z</time>
      </trkpt>
      <trkpt lat="44.43106" lon="1.10397">
        <ele>253.191411</ele>
        <time>2021-04-04T12:52:37.588Z</time>
      </trkpt>
      <trkpt lat="44.43096" lon="1.10399">
        <ele>253.400567</ele>
        <time>2021-04-04T12:52:39.564Z</time>
      </trkpt>
      <trkpt lat="44.43084" lon="1.10399">
        <ele>253.470545</ele>
        <time>2021-04-04T12:52:41.576Z</time>
      </trkpt>
      <trkpt lat="44.43072" lon="1.104">
        <ele>253.543666</ele>
        <time>2021-04-04T12:52:43.577Z</time>
      </trkpt>
      <trkpt lat="44.4306" lon="1.104">
        <ele>253.61485</ele>
        <time>2021-04-04T12:52:45.573Z</time>
      </trkpt>
      <trkpt lat="44.43048" lon="1.104">
        <ele>253.690267</ele>
        <time>2021-04-04T12:52:47.569Z</time>
      </trkpt>
      <trkpt lat="44.43037" lon="1.104">
        <ele>253.756023</ele>
        <time>2021-04-04T12:52:49.588Z</time>
      </trkpt>
      <trkpt lat="44.43023" lon="1.10399">
        <ele>253.837503</ele>
        <time>2021-04-04T12:52:51.593Z</time>
      </trkpt>
      <trkpt lat="44.43011" lon="1.104">
        <ele>253.91111</ele>
        <time>2021-04-04T12:52:53.580Z</time>
      </trkpt>
      <trkpt lat="44.42999" lon="1.104">
        <ele>253.987131</ele>
        <time>2021-04-04T12:52:55.578Z</time>
      </trkpt>
      <trkpt lat="44.42987" lon="1.10401">
        <ele>254.060186</ele>
        <time>2021-04-04T12:52:57.574Z</time>
      </trkpt>
      <trkpt lat="44.42975" lon="1.10399">
        <ele>254.129821</ele>
        <time>2021-04-04T12:52:59.584Z</time>
      </trkpt>
      <trkpt lat="44.42964" lon="1.10395">
        <ele>254.199879</ele>
        <time>2021-04-04T12:53:01.570Z</time>
      </trkpt>
      <trkpt lat="44.42955" lon="1.10389">
        <ele>254.256188</ele>
        <time>2021-04-04T12:53:03.574Z</time>
      </trkpt>
      <trkpt lat="44.42943" lon="1.10383">
        <ele>254.334523</ele>
        <time>2021-04-04T12:53:06.582Z</time>
      </trkpt>
      <trkpt lat="44.42931" lon="1.10373">
        <ele>254.419679</ele>
        <time>2021-04-04T12:53:09.571Z</time>
      </trkpt>
      <trkpt lat="44.4292" lon="1.10361">
        <ele>256.373027</ele>
        <time>2021-04-04T12:53:12.581Z</time>
      </trkpt>
      <trkpt lat="44.42911" lon="1.10352">
        <ele>258.733513</ele>
        <time>2021-04-04T12:53:14.577Z</time>
      </trkpt>
      <trkpt lat="44.42903" lon="1.10345">
        <ele>260.832097</ele>
        <time>2021-04-04T12:53:16.563Z</time>
      </trkpt>
      <trkpt lat="44.42895" lon="1.10333">
        <ele>263.487991</ele>
        <time>2021-04-04T12:53:19.572Z</time>
      </trkpt>
      <trkpt lat="44.42887" lon="1.10324">
        <ele>265.891853</ele>
        <time>2021-04-04T12:53:21.588Z</time>
      </trkpt>
      <trkpt lat="44.42877" lon="1.10314">
        <ele>268.640083</ele>
        <time>2021-04-04T12:53:24.579Z</time>
      </trkpt>
      <trkpt lat="44.42866" lon="1.1031">
        <ele>271.149345</ele>
        <time>2021-04-04T12:53:26.566Z</time>
      </trkpt>
      <trkpt lat="44.42857" lon="1.10308">
        <ele>273.222945</ele>
        <time>2021-04-04T12:53:28.573Z</time>
      </trkpt>
      <trkpt lat="44.42846" lon="1.10309">
        <ele>275.557782</ele>
        <time>2021-04-04T12:53:30.577Z</time>
      </trkpt>
      <trkpt lat="44.42837" lon="1.1031">
        <ele>277.588398</ele>
        <time>2021-04-04T12:53:32.568Z</time>
      </trkpt>
      <trkpt lat="44.42826" lon="1.10313">
        <ele>280.065234</ele>
        <time>2021-04-04T12:53:35.580Z</time>
      </trkpt>
      <trkpt lat="44.42817" lon="1.10316">
        <ele>282.341308</ele>
        <time>2021-04-04T12:53:37.592Z</time>
      </trkpt>
      <trkpt lat="44.42807" lon="1.10321">
        <ele>284.558445</ele>
        <time>2021-04-04T12:53:39.579Z</time>
      </trkpt>
      <trkpt lat="44.42796" lon="1.10325">
        <ele>287.051716</ele>
        <time>2021-04-04T12:53:41.579Z</time>
      </trkpt>
      <trkpt lat="44.42787" lon="1.10328">
        <ele>289.35363</ele>
        <time>2021-04-04T12:53:43.572Z</time>
      </trkpt>
      <trkpt lat="44.42777" lon="1.10332">
        <ele>291.617673</ele>
        <time>2021-04-04T12:53:45.568Z</time>
      </trkpt>
      <trkpt lat="44.42767" lon="1.10336">
        <ele>293.954265</ele>
        <time>2021-04-04T12:53:47.576Z</time>
      </trkpt>
      <trkpt lat="44.42757" lon="1.10339">
        <ele>295.045224</ele>
        <time>2021-04-04T12:53:49.589Z</time>
      </trkpt>
      <trkpt lat="44.42748" lon="1.10344">
        <ele>295.469791</ele>
        <time>2021-04-04T12:53:51.577Z</time>
      </trkpt>
      <trkpt lat="44.4274" lon="1.10348">
        <ele>295.869429</ele>
        <time>2021-04-04T12:53:53.583Z</time>
      </trkpt>
      <trkpt lat="44.4273" lon="1.10351">
        <ele>296.288853</ele>
        <time>2021-04-04T12:53:55.585Z</time>
      </trkpt>
      <trkpt lat="44.4272" lon="1.10356">
        <ele>296.776027</ele>
        <time>2021-04-04T12:53:57.576Z</time>
      </trkpt>
      <trkpt lat="44.4271" lon="1.10362">
        <ele>297.24723</ele>
        <time>2021-04-04T12:53:59.575Z</time>
      </trkpt>
      <trkpt lat="44.427" lon="1.10367">
        <ele>297.701381</ele>
        <time>2021-04-04T12:54:01.582Z</time>
      </trkpt>
      <trkpt lat="44.4269" lon="1.10369">
        <ele>298.139875</ele>
        <time>2021-04-04T12:54:03.585Z</time>
      </trkpt>
      <trkpt lat="44.4268" lon="1.10372">
        <ele>298.59902</ele>
        <time>2021-04-04T12:54:05.566Z</time>
      </trkpt>
      <trkpt lat="44.42669" lon="1.10373">
        <ele>299.050097</ele>
        <time>2021-04-04T12:54:07.586Z</time>
      </trkpt>
      <trkpt lat="44.4266" lon="1.10373">
        <ele>299.465128</ele>
        <time>2021-04-04T12:54:09.575Z</time>
      </trkpt>
      <trkpt lat="44.4265" lon="1.10373">
        <ele>299.905967</ele>
        <time>2021-04-04T12:54:11.570Z</time>
      </trkpt>
      <trkpt lat="44.42639" lon="1.10373">
        <ele>300.381687</ele>
        <time>2021-04-04T12:54:13.574Z</time>
      </trkpt>
      <trkpt lat="44.42625" lon="1.10369">
        <ele>301.010414</ele>
        <time>2021-04-04T12:54:16.579Z</time>
      </trkpt>
      <trkpt lat="44.42614" lon="1.10367">
        <ele>301.468563</ele>
        <time>2021-04-04T12:54:18.588Z</time>
      </trkpt>
      <trkpt lat="44.42605" lon="1.10368">
        <ele>301.878997</ele>
        <time>2021-04-04T12:54:20.570Z</time>
      </trkpt>
      <trkpt lat="44.42595" lon="1.10366">
        <ele>302.319858</ele>
        <time>2021-04-04T12:54:22.573Z</time>
      </trkpt>
      <trkpt lat="44.42585" lon="1.10363">
        <ele>302.732829</ele>
        <time>2021-04-04T12:54:24.578Z</time>
      </trkpt>
      <trkpt lat="44.42573" lon="1.10361">
        <ele>303.090226</ele>
        <time>2021-04-04T12:54:26.576Z</time>
      </trkpt>
      <trkpt lat="44.42563" lon="1.10361">
        <ele>303.395347</ele>
        <time>2021-04-04T12:54:28.570Z</time>
      </trkpt>
      <trkpt lat="44.42553" lon="1.1036">
        <ele>303.705054</ele>
        <time>2021-04-04T12:54:30.580Z</time>
      </trkpt>
      <trkpt lat="44.42544" lon="1.10357">
        <ele>304.002941</ele>
        <time>2021-04-04T12:54:32.574Z</time>
      </trkpt>
      <trkpt lat="44.42534" lon="1.10355">
        <ele>304.325871</ele>
        <time>2021-04-04T12:54:34.583Z</time>
      </trkpt>
      <trkpt lat="44.42523" lon="1.10351">
        <ele>304.674502</ele>
        <time>2021-04-04T12:54:36.579Z</time>
      </trkpt>
      <trkpt lat="44.42512" lon="1.10347">
        <ele>304.998136</ele>
        <time>2021-04-04T12:54:38.582Z</time>
      </trkpt>
      <trkpt lat="44.42499" lon="1.10344">
        <ele>305.407394</ele>
        <time>2021-04-04T12:54:41.582Z</time>
      </trkpt>
      <trkpt lat="44.4249" lon="1.10339">
        <ele>305.721613</ele>
        <time>2021-04-04T12:54:43.589Z</time>
      </trkpt>
      <trkpt lat="44.4248" lon="1.10334">
        <ele>306.030716</ele>
        <time>2021-04-04T12:54:45.567Z</time>
      </trkpt>
      <trkpt lat="44.42468" lon="1.10329">
        <ele>306.432912</ele>
        <time>2021-04-04T12:54:48.589Z</time>
      </trkpt>
      <trkpt lat="44.42458" lon="1.10324">
        <ele>306.74279</ele>
        <time>2021-04-04T12:54:50.576Z</time>
      </trkpt>
      <trkpt lat="44.4245" lon="1.10319">
        <ele>307.03222</ele>
        <time>2021-04-04T12:54:52.583Z</time>
      </trkpt>
      <trkpt lat="44.42441" lon="1.10313">
        <ele>307.329053</ele>
        <time>2021-04-04T12:54:54.585Z</time>
      </trkpt>
      <trkpt lat="44.42432" lon="1.10307">
        <ele>307.652053</ele>
        <time>2021-04-04T12:54:56.581Z</time>
      </trkpt>
      <trkpt lat="44.42422" lon="1.103">
        <ele>307.978109</ele>
        <time>2021-04-04T12:54:58.569Z</time>
      </trkpt>
      <trkpt lat="44.42414" lon="1.10292">
        <ele>308.207821</ele>
        <time>2021-04-04T12:55:00.562Z</time>
      </trkpt>
      <trkpt lat="44.42406" lon="1.10287">
        <ele>308.288647</ele>
        <time>2021-04-04T12:55:02.583Z</time>
      </trkpt>
      <trkpt lat="44.42396" lon="1.10275">
        <ele>308.401477</ele>
        <time>2021-04-04T12:55:05.580Z</time>
      </trkpt>
      <trkpt lat="44.42387" lon="1.10264">
        <ele>308.502032</ele>
        <time>2021-04-04T12:55:08.576Z</time>
      </trkpt>
      <trkpt lat="44.4238" lon="1.10254">
        <ele>308.592551</ele>
        <time>2021-04-04T12:55:10.578Z</time>
      </trkpt>
      <trkpt lat="44.42372" lon="1.10243">
        <ele>308.69155</ele>
        <time>2021-04-04T12:55:13.575Z</time>
      </trkpt>
      <trkpt lat="44.42365" lon="1.10234">
        <ele>308.774632</ele>
        <time>2021-04-04T12:55:15.584Z</time>
      </trkpt>
      <trkpt lat="44.42353" lon="1.10219">
        <ele>308.916295</ele>
        <time>2021-04-04T12:55:18.573Z</time>
      </trkpt>
      <trkpt lat="44.42345" lon="1.10209">
        <ele>309.011554</ele>
        <time>2021-04-04T12:55:20.572Z</time>
      </trkpt>
      <trkpt lat="44.42336" lon="1.10193">
        <ele>309.133696</ele>
        <time>2021-04-04T12:55:23.575Z</time>
      </trkpt>
      <trkpt lat="44.42329" lon="1.10183">
        <ele>309.223664</ele>
        <time>2021-04-04T12:55:25.567Z</time>
      </trkpt>
      <trkpt lat="44.42321" lon="1.10168">
        <ele>309.343142</ele>
        <time>2021-04-04T12:55:28.567Z</time>
      </trkpt>
      <trkpt lat="44.42312" lon="1.10156">
        <ele>309.450942</ele>
        <time>2021-04-04T12:55:30.579Z</time>
      </trkpt>
      <trkpt lat="44.42301" lon="1.10144">
        <ele>309.573301</ele>
        <time>2021-04-04T12:55:32.589Z</time>
      </trkpt>
      <trkpt lat="44.42289" lon="1.10132">
        <ele>309.696107</ele>
        <time>2021-04-04T12:55:34.567Z</time>
      </trkpt>
      <trkpt lat="44.42277" lon="1.10124">
        <ele>309.725906</ele>
        <time>2021-04-04T12:55:36.571Z</time>
      </trkpt>
      <trkpt lat="44.42264" lon="1.10116">
        <ele>309.67521</ele>
        <time>2021-04-04T12:55:38.563Z</time>
      </trkpt>
      <trkpt lat="44.42249" lon="1.10108">
        <ele>309.617645</ele>
        <time>2021-04-04T12:55:40.577Z</time>
      </trkpt>
      <trkpt lat="44.42235" lon="1.101">
        <ele>309.563941</ele>
        <time>2021-04-04T12:55:42.581Z</time>
      </trkpt>
      <trkpt lat="44.42219" lon="1.10092">
        <ele>309.504109</ele>
        <time>2021-04-04T12:55:44.572Z</time>
      </trkpt>
      <trkpt lat="44.42202" lon="1.10082">
        <ele>309.438008</ele>
        <time>2021-04-04T12:55:46.571Z</time>
      </trkpt>
      <trkpt lat="44.42187" lon="1.10073">
        <ele>309.378259</ele>
        <time>2021-04-04T12:55:48.575Z</time>
      </trkpt>
      <trkpt lat="44.42172" lon="1.10064">
        <ele>309.318543</ele>
        <time>2021-04-04T12:55:50.570Z</time>
      </trkpt>
      <trkpt lat="44.42156" lon="1.10056">
        <ele>309.259178</ele>
        <time>2021-04-04T12:55:52.575Z</time>
      </trkpt>
      <trkpt lat="44.42141" lon="1.10046">
        <ele>309.197647</ele>
        <time>2021-04-04T12:55:54.574Z</time>
      </trkpt>
      <trkpt lat="44.42125" lon="1.10034">
        <ele>309.135927</ele>
        <time>2021-04-04T12:55:56.584Z</time>
      </trkpt>
      <trkpt lat="44.42113" lon="1.10023">
        <ele>308.562264</ele>
        <time>2021-04-04T12:55:58.588Z</time>
      </trkpt>
      <trkpt lat="44.42105" lon="1.10016">
        <ele>307.82318</ele>
        <time>2021-04-04T12:55:59.582Z</time>
      </trkpt>
      <trkpt lat="44.42089" lon="1.10007">
        <ele>306.407328</ele>
        <time>2021-04-04T12:56:01.570Z</time>
      </trkpt>
      <trkpt lat="44.42071" lon="1.09999">
        <ele>304.884383</ele>
        <time>2021-04-04T12:56:03.575Z</time>
      </trkpt>
      <trkpt lat="44.42053" lon="1.09994">
        <ele>303.447066</ele>
        <time>2021-04-04T12:56:05.568Z</time>
      </trkpt>
      <trkpt lat="44.42037" lon="1.09987">
        <ele>302.041762</ele>
        <time>2021-04-04T12:56:07.568Z</time>
      </trkpt>
      <trkpt lat="44.42028" lon="1.09983">
        <ele>301.292671</ele>
        <time>2021-04-04T12:56:08.583Z</time>
      </trkpt>
      <trkpt lat="44.42011" lon="1.09976">
        <ele>299.865443</ele>
        <time>2021-04-04T12:56:10.588Z</time>
      </trkpt>
      <trkpt lat="44.41992" lon="1.09972">
        <ele>298.378797</ele>
        <time>2021-04-04T12:56:12.581Z</time>
      </trkpt>
      <trkpt lat="44.41975" lon="1.09967">
        <ele>296.973836</ele>
        <time>2021-04-04T12:56:14.576Z</time>
      </trkpt>
      <trkpt lat="44.41966" lon="1.09964">
        <ele>296.239532</ele>
        <time>2021-04-04T12:56:15.563Z</time>
      </trkpt>
      <trkpt lat="44.41957" lon="1.09962">
        <ele>295.493199</ele>
        <time>2021-04-04T12:56:16.573Z</time>
      </trkpt>
      <trkpt lat="44.41948" lon="1.09959">
        <ele>294.765383</ele>
        <time>2021-04-04T12:56:17.575Z</time>
      </trkpt>
      <trkpt lat="44.41931" lon="1.09954">
        <ele>292.130018</ele>
        <time>2021-04-04T12:56:19.580Z</time>
      </trkpt>
      <trkpt lat="44.41921" lon="1.09953">
        <ele>290.663664</ele>
        <time>2021-04-04T12:56:20.571Z</time>
      </trkpt>
      <trkpt lat="44.41912" lon="1.09951">
        <ele>289.23498</ele>
        <time>2021-04-04T12:56:21.569Z</time>
      </trkpt>
      <trkpt lat="44.41895" lon="1.09944">
        <ele>286.458142</ele>
        <time>2021-04-04T12:56:23.589Z</time>
      </trkpt>
      <trkpt lat="44.41886" lon="1.09942">
        <ele>285.012391</ele>
        <time>2021-04-04T12:56:24.571Z</time>
      </trkpt>
      <trkpt lat="44.41875" lon="1.09942">
        <ele>283.34811</ele>
        <time>2021-04-04T12:56:25.571Z</time>
      </trkpt>
      <trkpt lat="44.41866" lon="1.0994">
        <ele>281.923329</ele>
        <time>2021-04-04T12:56:26.589Z</time>
      </trkpt>
      <trkpt lat="44.41847" lon="1.0994">
        <ele>279.000515</ele>
        <time>2021-04-04T12:56:28.587Z</time>
      </trkpt>
      <trkpt lat="44.41836" lon="1.0994">
        <ele>277.400365</ele>
        <time>2021-04-04T12:56:29.589Z</time>
      </trkpt>
      <trkpt lat="44.41827" lon="1.09937">
        <ele>275.984488</ele>
        <time>2021-04-04T12:56:30.572Z</time>
      </trkpt>
      <trkpt lat="44.41813" lon="1.09933">
        <ele>273.699842</ele>
        <time>2021-04-04T12:56:32.582Z</time>
      </trkpt>
      <trkpt lat="44.41803" lon="1.09932">
        <ele>272.251191</ele>
        <time>2021-04-04T12:56:33.570Z</time>
      </trkpt>
      <trkpt lat="44.41794" lon="1.09931">
        <ele>270.812345</ele>
        <time>2021-04-04T12:56:34.585Z</time>
      </trkpt>
      <trkpt lat="44.41784" lon="1.09929">
        <ele>269.313393</ele>
        <time>2021-04-04T12:56:35.581Z</time>
      </trkpt>
      <trkpt lat="44.41767" lon="1.09925">
        <ele>266.898822</ele>
        <time>2021-04-04T12:56:37.565Z</time>
      </trkpt>
      <trkpt lat="44.41757" lon="1.09923">
        <ele>266.579308</ele>
        <time>2021-04-04T12:56:38.575Z</time>
      </trkpt>
      <trkpt lat="44.41747" lon="1.09921">
        <ele>266.266444</ele>
        <time>2021-04-04T12:56:39.570Z</time>
      </trkpt>
      <trkpt lat="44.41736" lon="1.09917">
        <ele>265.919814</ele>
        <time>2021-04-04T12:56:40.583Z</time>
      </trkpt>
      <trkpt lat="44.41726" lon="1.09913">
        <ele>265.582649</ele>
        <time>2021-04-04T12:56:41.566Z</time>
      </trkpt>
      <trkpt lat="44.41716" lon="1.09909">
        <ele>265.24005</ele>
        <time>2021-04-04T12:56:42.587Z</time>
      </trkpt>
      <trkpt lat="44.41706" lon="1.09905">
        <ele>264.917077</ele>
        <time>2021-04-04T12:56:43.565Z</time>
      </trkpt>
      <trkpt lat="44.41687" lon="1.09895">
        <ele>264.255906</ele>
        <time>2021-04-04T12:56:45.575Z</time>
      </trkpt>
      <trkpt lat="44.41678" lon="1.0989">
        <ele>263.937538</ele>
        <time>2021-04-04T12:56:46.585Z</time>
      </trkpt>
      <trkpt lat="44.41669" lon="1.09885">
        <ele>263.632702</ele>
        <time>2021-04-04T12:56:47.588Z</time>
      </trkpt>
      <trkpt lat="44.4166" lon="1.0988">
        <ele>263.324065</ele>
        <time>2021-04-04T12:56:48.580Z</time>
      </trkpt>
      <trkpt lat="44.4165" lon="1.09878">
        <ele>263.022748</ele>
        <time>2021-04-04T12:56:49.575Z</time>
      </trkpt>
      <trkpt lat="44.41635" lon="1.09872">
        <ele>262.513823</ele>
        <time>2021-04-04T12:56:51.584Z</time>
      </trkpt>
      <trkpt lat="44.41617" lon="1.09879">
        <ele>261.929375</ele>
        <time>2021-04-04T12:56:53.572Z</time>
      </trkpt>
      <trkpt lat="44.41608" lon="1.09883">
        <ele>261.623627</ele>
        <time>2021-04-04T12:56:54.571Z</time>
      </trkpt>
      <trkpt lat="44.41599" lon="1.09888">
        <ele>261.324714</ele>
        <time>2021-04-04T12:56:55.562Z</time>
      </trkpt>
      <trkpt lat="44.4159" lon="1.09897">
        <ele>261.195868</ele>
        <time>2021-04-04T12:56:56.566Z</time>
      </trkpt>
      <trkpt lat="44.41577" lon="1.09912">
        <ele>261.090549</ele>
        <time>2021-04-04T12:56:58.569Z</time>
      </trkpt>
      <trkpt lat="44.4157" lon="1.09923">
        <ele>261.020927</ele>
        <time>2021-04-04T12:56:59.566Z</time>
      </trkpt>
      <trkpt lat="44.41563" lon="1.09933">
        <ele>260.9605</ele>
        <time>2021-04-04T12:57:00.564Z</time>
      </trkpt>
      <trkpt lat="44.41556" lon="1.09942">
        <ele>260.896911</ele>
        <time>2021-04-04T12:57:01.574Z</time>
      </trkpt>
      <trkpt lat="44.41546" lon="1.09958">
        <ele>260.800835</ele>
        <time>2021-04-04T12:57:03.583Z</time>
      </trkpt>
      <trkpt lat="44.41534" lon="1.09975">
        <ele>260.696611</ele>
        <time>2021-04-04T12:57:05.570Z</time>
      </trkpt>
      <trkpt lat="44.41526" lon="1.09992">
        <ele>260.599181</ele>
        <time>2021-04-04T12:57:07.580Z</time>
      </trkpt>
      <trkpt lat="44.41516" lon="1.10011">
        <ele>260.493637</ele>
        <time>2021-04-04T12:57:09.568Z</time>
      </trkpt>
      <trkpt lat="44.41507" lon="1.10029">
        <ele>260.392502</ele>
        <time>2021-04-04T12:57:11.570Z</time>
      </trkpt>
      <trkpt lat="44.41496" lon="1.10047">
        <ele>260.287203</ele>
        <time>2021-04-04T12:57:13.580Z</time>
      </trkpt>
      <trkpt lat="44.41483" lon="1.10062">
        <ele>260.179261</ele>
        <time>2021-04-04T12:57:15.566Z</time>
      </trkpt>
      <trkpt lat="44.41475" lon="1.1007">
        <ele>260.116572</ele>
        <time>2021-04-04T12:57:16.582Z</time>
      </trkpt>
      <trkpt lat="44.41466" lon="1.10077">
        <ele>260.179041</ele>
        <time>2021-04-04T12:57:17.573Z</time>
      </trkpt>
      <trkpt lat="44.41458" lon="1.10084">
        <ele>260.249276</ele>
        <time>2021-04-04T12:57:18.564Z</time>
      </trkpt>
      <trkpt lat="44.41449" lon="1.10091">
        <ele>260.324132</ele>
        <time>2021-04-04T12:57:19.575Z</time>
      </trkpt>
      <trkpt lat="44.4144" lon="1.10099">
        <ele>260.400489</ele>
        <time>2021-04-04T12:57:20.578Z</time>
      </trkpt>
      <trkpt lat="44.41426" lon="1.10114">
        <ele>260.534363</ele>
        <time>2021-04-04T12:57:22.593Z</time>
      </trkpt>
      <trkpt lat="44.41419" lon="1.10124">
        <ele>260.60795</ele>
        <time>2021-04-04T12:57:23.582Z</time>
      </trkpt>
      <trkpt lat="44.41411" lon="1.10134">
        <ele>260.681683</ele>
        <time>2021-04-04T12:57:24.566Z</time>
      </trkpt>
      <trkpt lat="44.41405" lon="1.10146">
        <ele>260.759531</ele>
        <time>2021-04-04T12:57:25.569Z</time>
      </trkpt>
      <trkpt lat="44.41395" lon="1.10169">
        <ele>260.90009</ele>
        <time>2021-04-04T12:57:27.562Z</time>
      </trkpt>
      <trkpt lat="44.41388" lon="1.10181">
        <ele>260.981112</ele>
        <time>2021-04-04T12:57:28.565Z</time>
      </trkpt>
      <trkpt lat="44.41382" lon="1.10192">
        <ele>261.057732</ele>
        <time>2021-04-04T12:57:29.573Z</time>
      </trkpt>
      <trkpt lat="44.41376" lon="1.10204">
        <ele>261.130883</ele>
        <time>2021-04-04T12:57:30.573Z</time>
      </trkpt>
      <trkpt lat="44.41369" lon="1.10217">
        <ele>261.218592</ele>
        <time>2021-04-04T12:57:31.567Z</time>
      </trkpt>
      <trkpt lat="44.41363" lon="1.10229">
        <ele>261.296864</ele>
        <time>2021-04-04T12:57:32.573Z</time>
      </trkpt>
      <trkpt lat="44.41358" lon="1.10242">
        <ele>261.37713</ele>
        <time>2021-04-04T12:57:33.584Z</time>
      </trkpt>
      <trkpt lat="44.41353" lon="1.10255">
        <ele>261.403063</ele>
        <time>2021-04-04T12:57:34.572Z</time>
      </trkpt>
      <trkpt lat="44.41347" lon="1.10268">
        <ele>261.232636</ele>
        <time>2021-04-04T12:57:35.580Z</time>
      </trkpt>
      <trkpt lat="44.41341" lon="1.1028">
        <ele>261.078525</ele>
        <time>2021-04-04T12:57:36.577Z</time>
      </trkpt>
      <trkpt lat="44.41334" lon="1.10292">
        <ele>260.921795</ele>
        <time>2021-04-04T12:57:37.582Z</time>
      </trkpt>
      <trkpt lat="44.41328" lon="1.10304">
        <ele>260.762533</ele>
        <time>2021-04-04T12:57:38.582Z</time>
      </trkpt>
      <trkpt lat="44.41323" lon="1.10315">
        <ele>260.6281</ele>
        <time>2021-04-04T12:57:39.568Z</time>
      </trkpt>
      <trkpt lat="44.41317" lon="1.10326">
        <ele>260.479091</ele>
        <time>2021-04-04T12:57:40.581Z</time>
      </trkpt>
      <trkpt lat="44.41311" lon="1.10338">
        <ele>260.329251</ele>
        <time>2021-04-04T12:57:41.567Z</time>
      </trkpt>
      <trkpt lat="44.41305" lon="1.1035">
        <ele>260.168288</ele>
        <time>2021-04-04T12:57:42.589Z</time>
      </trkpt>
      <trkpt lat="44.41299" lon="1.10362">
        <ele>260.014092</ele>
        <time>2021-04-04T12:57:43.581Z</time>
      </trkpt>
      <trkpt lat="44.41293" lon="1.10375">
        <ele>259.857411</ele>
        <time>2021-04-04T12:57:44.580Z</time>
      </trkpt>
      <trkpt lat="44.41286" lon="1.10389">
        <ele>259.668955</ele>
        <time>2021-04-04T12:57:45.569Z</time>
      </trkpt>
      <trkpt lat="44.4128" lon="1.10403">
        <ele>259.505119</ele>
        <time>2021-04-04T12:57:46.572Z</time>
      </trkpt>
      <trkpt lat="44.41274" lon="1.10414">
        <ele>259.355279</ele>
        <time>2021-04-04T12:57:47.567Z</time>
      </trkpt>
      <trkpt lat="44.41268" lon="1.10427">
        <ele>259.198444</ele>
        <time>2021-04-04T12:57:48.583Z</time>
      </trkpt>
      <trkpt lat="44.41263" lon="1.10438">
        <ele>259.052672</ele>
        <time>2021-04-04T12:57:49.587Z</time>
      </trkpt>
      <trkpt lat="44.41257" lon="1.1045">
        <ele>258.901918</ele>
        <time>2021-04-04T12:57:50.587Z</time>
      </trkpt>
      <trkpt lat="44.4125" lon="1.10461">
        <ele>258.770191</ele>
        <time>2021-04-04T12:57:51.578Z</time>
      </trkpt>
      <trkpt lat="44.41244" lon="1.10471">
        <ele>258.705163</ele>
        <time>2021-04-04T12:57:52.568Z</time>
      </trkpt>
      <trkpt lat="44.41237" lon="1.10481">
        <ele>258.639543</ele>
        <time>2021-04-04T12:57:53.580Z</time>
      </trkpt>
      <trkpt lat="44.4123" lon="1.10489">
        <ele>258.578211</ele>
        <time>2021-04-04T12:57:54.566Z</time>
      </trkpt>
      <trkpt lat="44.41216" lon="1.10503">
        <ele>258.463276</ele>
        <time>2021-04-04T12:57:56.569Z</time>
      </trkpt>
      <trkpt lat="44.41203" lon="1.10515">
        <ele>258.358703</ele>
        <time>2021-04-04T12:57:58.572Z</time>
      </trkpt>
      <trkpt lat="44.4119" lon="1.10526">
        <ele>258.258568</ele>
        <time>2021-04-04T12:58:00.584Z</time>
      </trkpt>
      <trkpt lat="44.41177" lon="1.10537">
        <ele>258.158402</ele>
        <time>2021-04-04T12:58:02.570Z</time>
      </trkpt>
      <trkpt lat="44.41165" lon="1.10546">
        <ele>258.065833</ele>
        <time>2021-04-04T12:58:04.568Z</time>
      </trkpt>
      <trkpt lat="44.41153" lon="1.1055">
        <ele>257.979861</ele>
        <time>2021-04-04T12:58:06.596Z</time>
      </trkpt>
      <trkpt lat="44.4114" lon="1.10556">
        <ele>257.88995</ele>
        <time>2021-04-04T12:58:08.575Z</time>
      </trkpt>
      <trkpt lat="44.41128" lon="1.10561">
        <ele>257.805465</ele>
        <time>2021-04-04T12:58:10.573Z</time>
      </trkpt>
      <trkpt lat="44.41114" lon="1.10564">
        <ele>257.712682</ele>
        <time>2021-04-04T12:58:12.586Z</time>
      </trkpt>
      <trkpt lat="44.41101" lon="1.10565">
        <ele>257.625439</ele>
        <time>2021-04-04T12:58:14.588Z</time>
      </trkpt>
      <trkpt lat="44.41088" lon="1.10568">
        <ele>257.538332</ele>
        <time>2021-04-04T12:58:16.573Z</time>
      </trkpt>
      <trkpt lat="44.41075" lon="1.10572">
        <ele>257.450886</ele>
        <time>2021-04-04T12:58:18.573Z</time>
      </trkpt>
      <trkpt lat="44.41062" lon="1.10575">
        <ele>257.360307</ele>
        <time>2021-04-04T12:58:20.583Z</time>
      </trkpt>
      <trkpt lat="44.41049" lon="1.10579">
        <ele>257.268753</ele>
        <time>2021-04-04T12:58:22.596Z</time>
      </trkpt>
      <trkpt lat="44.41035" lon="1.10581">
        <ele>257.179711</ele>
        <time>2021-04-04T12:58:24.572Z</time>
      </trkpt>
      <trkpt lat="44.41022" lon="1.10586">
        <ele>257.088491</ele>
        <time>2021-04-04T12:58:26.590Z</time>
      </trkpt>
      <trkpt lat="44.4101" lon="1.10592">
        <ele>257.002808</ele>
        <time>2021-04-04T12:58:28.571Z</time>
      </trkpt>
      <trkpt lat="44.41" lon="1.10596">
        <ele>256.930008</ele>
        <time>2021-04-04T12:58:30.592Z</time>
      </trkpt>
      <trkpt lat="44.40989" lon="1.10602">
        <ele>256.853775</ele>
        <time>2021-04-04T12:58:32.563Z</time>
      </trkpt>
      <trkpt lat="44.40978" lon="1.10607">
        <ele>256.776579</ele>
        <time>2021-04-04T12:58:34.583Z</time>
      </trkpt>
      <trkpt lat="44.40967" lon="1.10612">
        <ele>256.70082</ele>
        <time>2021-04-04T12:58:36.578Z</time>
      </trkpt>
      <trkpt lat="44.40958" lon="1.10619">
        <ele>256.630786</ele>
        <time>2021-04-04T12:58:38.573Z</time>
      </trkpt>
      <trkpt lat="44.40947" lon="1.10627">
        <ele>256.549247</ele>
        <time>2021-04-04T12:58:40.572Z</time>
      </trkpt>
      <trkpt lat="44.40937" lon="1.10634">
        <ele>256.47456</ele>
        <time>2021-04-04T12:58:42.575Z</time>
      </trkpt>
      <trkpt lat="44.40927" lon="1.10643">
        <ele>256.393138</ele>
        <time>2021-04-04T12:58:44.569Z</time>
      </trkpt>
      <trkpt lat="44.40918" lon="1.10652">
        <ele>256.722643</ele>
        <time>2021-04-04T12:58:46.567Z</time>
      </trkpt>
      <trkpt lat="44.40909" lon="1.10662">
        <ele>257.174859</ele>
        <time>2021-04-04T12:58:48.563Z</time>
      </trkpt>
      <trkpt lat="44.409" lon="1.10674">
        <ele>257.656678</ele>
        <time>2021-04-04T12:58:50.568Z</time>
      </trkpt>
      <trkpt lat="44.40892" lon="1.10686">
        <ele>258.105062</ele>
        <time>2021-04-04T12:58:52.567Z</time>
      </trkpt>
      <trkpt lat="44.40885" lon="1.107">
        <ele>258.586345</ele>
        <time>2021-04-04T12:58:54.572Z</time>
      </trkpt>
      <trkpt lat="44.40878" lon="1.10713">
        <ele>259.034597</ele>
        <time>2021-04-04T12:58:56.577Z</time>
      </trkpt>
      <trkpt lat="44.40871" lon="1.10725">
        <ele>259.467191</ele>
        <time>2021-04-04T12:58:58.589Z</time>
      </trkpt>
      <trkpt lat="44.40864" lon="1.10736">
        <ele>259.882921</ele>
        <time>2021-04-04T12:59:00.576Z</time>
      </trkpt>
      <trkpt lat="44.40857" lon="1.10748">
        <ele>260.298818</ele>
        <time>2021-04-04T12:59:02.584Z</time>
      </trkpt>
      <trkpt lat="44.40851" lon="1.10761">
        <ele>260.737095</ele>
        <time>2021-04-04T12:59:04.588Z</time>
      </trkpt>
      <trkpt lat="44.40845" lon="1.10773">
        <ele>261.139317</ele>
        <time>2021-04-04T12:59:06.590Z</time>
      </trkpt>
      <trkpt lat="44.40836" lon="1.10785">
        <ele>261.604387</ele>
        <time>2021-04-04T12:59:08.588Z</time>
      </trkpt>
      <trkpt lat="44.4083" lon="1.10796">
        <ele>262.018854</ele>
        <time>2021-04-04T12:59:10.577Z</time>
      </trkpt>
      <trkpt lat="44.40822" lon="1.10806">
        <ele>262.425251</ele>
        <time>2021-04-04T12:59:12.591Z</time>
      </trkpt>
      <trkpt lat="44.40815" lon="1.10817">
        <ele>262.818206</ele>
        <time>2021-04-04T12:59:14.582Z</time>
      </trkpt>
      <trkpt lat="44.40808" lon="1.10829">
        <ele>263.250529</ele>
        <time>2021-04-04T12:59:16.567Z</time>
      </trkpt>
      <trkpt lat="44.40801" lon="1.10839">
        <ele>263.585828</ele>
        <time>2021-04-04T12:59:18.582Z</time>
      </trkpt>
      <trkpt lat="44.40792" lon="1.10851">
        <ele>263.967622</ele>
        <time>2021-04-04T12:59:21.580Z</time>
      </trkpt>
      <trkpt lat="44.40783" lon="1.1086">
        <ele>264.2889</ele>
        <time>2021-04-04T12:59:23.570Z</time>
      </trkpt>
      <trkpt lat="44.40776" lon="1.10871">
        <ele>264.602074</ele>
        <time>2021-04-04T12:59:25.567Z</time>
      </trkpt>
      <trkpt lat="44.40768" lon="1.1088">
        <ele>264.900483</ele>
        <time>2021-04-04T12:59:27.579Z</time>
      </trkpt>
      <trkpt lat="44.4076" lon="1.10889">
        <ele>265.213497</ele>
        <time>2021-04-04T12:59:29.567Z</time>
      </trkpt>
      <trkpt lat="44.40752" lon="1.10897">
        <ele>265.514131</ele>
        <time>2021-04-04T12:59:31.586Z</time>
      </trkpt>
      <trkpt lat="44.40744" lon="1.10905">
        <ele>265.792587</ele>
        <time>2021-04-04T12:59:33.577Z</time>
      </trkpt>
      <trkpt lat="44.40734" lon="1.10916">
        <ele>266.186279</ele>
        <time>2021-04-04T12:59:36.571Z</time>
      </trkpt>
      <trkpt lat="44.40726" lon="1.10923">
        <ele>266.47085</ele>
        <time>2021-04-04T12:59:38.568Z</time>
      </trkpt>
      <trkpt lat="44.40718" lon="1.10931">
        <ele>266.746734</ele>
        <time>2021-04-04T12:59:40.572Z</time>
      </trkpt>
      <trkpt lat="44.40711" lon="1.10939">
        <ele>267.036385</ele>
        <time>2021-04-04T12:59:42.577Z</time>
      </trkpt>
      <trkpt lat="44.40703" lon="1.10947">
        <ele>267.318354</ele>
        <time>2021-04-04T12:59:44.575Z</time>
      </trkpt>
      <trkpt lat="44.40696" lon="1.10957">
        <ele>267.620995</ele>
        <time>2021-04-04T12:59:46.572Z</time>
      </trkpt>
      <trkpt lat="44.40685" lon="1.10968">
        <ele>268.013272</ele>
        <time>2021-04-04T12:59:49.577Z</time>
      </trkpt>
      <trkpt lat="44.40674" lon="1.10978">
        <ele>268.420201</ele>
        <time>2021-04-04T12:59:52.590Z</time>
      </trkpt>
      <trkpt lat="44.40666" lon="1.10988">
        <ele>268.744202</ele>
        <time>2021-04-04T12:59:54.584Z</time>
      </trkpt>
      <trkpt lat="44.40654" lon="1.11">
        <ele>268.744495</ele>
        <time>2021-04-04T12:59:57.581Z</time>
      </trkpt>
      <trkpt lat="44.40645" lon="1.11011">
        <ele>268.737567</ele>
        <time>2021-04-04T13:00:00.581Z</time>
      </trkpt>
      <trkpt lat="44.40638" lon="1.1102">
        <ele>268.73249</ele>
        <time>2021-04-04T13:00:02.573Z</time>
      </trkpt>
      <trkpt lat="44.40631" lon="1.1103">
        <ele>268.727138</ele>
        <time>2021-04-04T13:00:04.568Z</time>
      </trkpt>
      <trkpt lat="44.40624" lon="1.11041">
        <ele>268.721795</ele>
        <time>2021-04-04T13:00:06.593Z</time>
      </trkpt>
      <trkpt lat="44.40618" lon="1.11052">
        <ele>268.716295</ele>
        <time>2021-04-04T13:00:08.578Z</time>
      </trkpt>
      <trkpt lat="44.40613" lon="1.11063">
        <ele>268.711206</ele>
        <time>2021-04-04T13:00:10.575Z</time>
      </trkpt>
      <trkpt lat="44.40607" lon="1.11074">
        <ele>268.705965</ele>
        <time>2021-04-04T13:00:12.575Z</time>
      </trkpt>
      <trkpt lat="44.40602" lon="1.11084">
        <ele>268.701007</ele>
        <time>2021-04-04T13:00:14.581Z</time>
      </trkpt>
      <trkpt lat="44.40596" lon="1.11095">
        <ele>268.696016</ele>
        <time>2021-04-04T13:00:16.592Z</time>
      </trkpt>
      <trkpt lat="44.40589" lon="1.1111">
        <ele>268.688825</ele>
        <time>2021-04-04T13:00:19.576Z</time>
      </trkpt>
      <trkpt lat="44.40583" lon="1.11126">
        <ele>268.681679</ele>
        <time>2021-04-04T13:00:22.584Z</time>
      </trkpt>
      <trkpt lat="44.40576" lon="1.11137">
        <ele>268.676456</ele>
        <time>2021-04-04T13:00:24.582Z</time>
      </trkpt>
      <trkpt lat="44.4057" lon="1.11149">
        <ele>268.670583</ele>
        <time>2021-04-04T13:00:26.569Z</time>
      </trkpt>
      <trkpt lat="44.40563" lon="1.11162">
        <ele>268.664245</ele>
        <time>2021-04-04T13:00:28.578Z</time>
      </trkpt>
      <trkpt lat="44.40557" lon="1.11175">
        <ele>268.658124</ele>
        <time>2021-04-04T13:00:30.569Z</time>
      </trkpt>
      <trkpt lat="44.40553" lon="1.11188">
        <ele>268.654813</ele>
        <time>2021-04-04T13:00:32.569Z</time>
      </trkpt>
      <trkpt lat="44.40547" lon="1.112">
        <ele>268.654813</ele>
        <time>2021-04-04T13:00:34.579Z</time>
      </trkpt>
      <trkpt lat="44.4054" lon="1.11212">
        <ele>268.654813</ele>
        <time>2021-04-04T13:00:36.561Z</time>
      </trkpt>
      <trkpt lat="44.40533" lon="1.11224">
        <ele>268.654813</ele>
        <time>2021-04-04T13:00:38.586Z</time>
      </trkpt>
      <trkpt lat="44.40526" lon="1.11237">
        <ele>268.654813</ele>
        <time>2021-04-04T13:00:40.578Z</time>
      </trkpt>
      <trkpt lat="44.40519" lon="1.1125">
        <ele>268.654813</ele>
        <time>2021-04-04T13:00:42.576Z</time>
      </trkpt>
      <trkpt lat="44.40511" lon="1.11262">
        <ele>268.654813</ele>
        <time>2021-04-04T13:00:44.559Z</time>
      </trkpt>
      <trkpt lat="44.40502" lon="1.11271">
        <ele>268.654813</ele>
        <time>2021-04-04T13:00:46.589Z</time>
      </trkpt>
      <trkpt lat="44.40494" lon="1.11284">
        <ele>268.654813</ele>
        <time>2021-04-04T13:00:48.563Z</time>
      </trkpt>
      <trkpt lat="44.40486" lon="1.11298">
        <ele>268.654813</ele>
        <time>2021-04-04T13:00:50.574Z</time>
      </trkpt>
      <trkpt lat="44.40477" lon="1.11309">
        <ele>268.654813</ele>
        <time>2021-04-04T13:00:53.584Z</time>
      </trkpt>
      <trkpt lat="44.40474" lon="1.11306">
        <ele>268.654813</ele>
        <time>2021-04-04T13:01:01.586Z</time>
      </trkpt>
    </trkseg>
  </trk>
</gpx>